<?xml version="1.0" encoding="UTF-8" standalone="no" ?>
<gpx xmlns="http://www.topografix.com/GPX/1/1" xmlns:xsi="http://www.w3.org/2001/XMLSchema-instance" xsi:schemaLocation="http://www.topografix.com/GPX/1/1 http://www.topografix.com/GPX/1/1/gpx.xsd" version="1.1" creator="VisuGPX - https://www.visugpx.com">
  <metadata>
    <name>Grezieu - Vaugneray - Luere - Croix du Ban</name>
    <desc><![CDATA[Rando VTT 11/07/2013]]></desc>
  </metadata>
  <trk>
    <name><![CDATA[Grezieu - Vaugneray - Luere - Croix du Ban_1]]></name>
    <trkseg>
      <trkpt lat="45.7477" lon="4.69534">
        <ele>326.68591308594</ele>
        <time>2013-07-11T16:57:13.000Z</time>
      </trkpt>
      <trkpt lat="45.74772" lon="4.69534">
        <ele>326.66851806641</ele>
        <time>2013-07-11T16:57:18.000Z</time>
      </trkpt>
      <trkpt lat="45.74774" lon="4.69536">
        <ele>326.61083984375</ele>
        <time>2013-07-11T16:57:20.000Z</time>
      </trkpt>
      <trkpt lat="45.74772" lon="4.6955">
        <ele>326.40884399414</ele>
        <time>2013-07-11T16:57:23.000Z</time>
      </trkpt>
      <trkpt lat="45.7477" lon="4.69559">
        <ele>326.19232177734</ele>
        <time>2013-07-11T16:57:25.000Z</time>
      </trkpt>
      <trkpt lat="45.74771" lon="4.69565">
        <ele>325.85614013672</ele>
        <time>2013-07-11T16:57:27.000Z</time>
      </trkpt>
      <trkpt lat="45.74767" lon="4.69571">
        <ele>325.46026611328</ele>
        <time>2013-07-11T16:57:29.000Z</time>
      </trkpt>
      <trkpt lat="45.74765" lon="4.69578">
        <ele>325.01959228516</ele>
        <time>2013-07-11T16:57:31.000Z</time>
      </trkpt>
      <trkpt lat="45.74764" lon="4.69591">
        <ele>324.61929321289</ele>
        <time>2013-07-11T16:57:34.000Z</time>
      </trkpt>
      <trkpt lat="45.74762" lon="4.69605">
        <ele>324.24411010742</ele>
        <time>2013-07-11T16:57:36.000Z</time>
      </trkpt>
      <trkpt lat="45.74759" lon="4.69625">
        <ele>323.83099365234</ele>
        <time>2013-07-11T16:57:39.000Z</time>
      </trkpt>
      <trkpt lat="45.74756" lon="4.69641">
        <ele>323.40936279297</ele>
        <time>2013-07-11T16:57:41.000Z</time>
      </trkpt>
      <trkpt lat="45.74741" lon="4.69652">
        <ele>322.96917724609</ele>
        <time>2013-07-11T16:57:44.000Z</time>
      </trkpt>
      <trkpt lat="45.74726" lon="4.69658">
        <ele>322.5285949707</ele>
        <time>2013-07-11T16:57:47.000Z</time>
      </trkpt>
      <trkpt lat="45.74714" lon="4.69661">
        <ele>322.08511352539</ele>
        <time>2013-07-11T16:57:49.000Z</time>
      </trkpt>
      <trkpt lat="45.74698" lon="4.6966">
        <ele>321.66912841797</ele>
        <time>2013-07-11T16:57:51.000Z</time>
      </trkpt>
      <trkpt lat="45.74685" lon="4.6966">
        <ele>321.26281738281</ele>
        <time>2013-07-11T16:57:54.000Z</time>
      </trkpt>
      <trkpt lat="45.74682" lon="4.69665">
        <ele>320.92538452148</ele>
        <time>2013-07-11T16:57:56.000Z</time>
      </trkpt>
      <trkpt lat="45.74673" lon="4.69669">
        <ele>320.62652587891</ele>
        <time>2013-07-11T16:57:59.000Z</time>
      </trkpt>
      <trkpt lat="45.74667" lon="4.69673">
        <ele>320.35061645508</ele>
        <time>2013-07-11T16:58:01.000Z</time>
      </trkpt>
      <trkpt lat="45.74653" lon="4.69684">
        <ele>319.91854858398</ele>
        <time>2013-07-11T16:58:04.000Z</time>
      </trkpt>
      <trkpt lat="45.74644" lon="4.69695">
        <ele>319.38595581055</ele>
        <time>2013-07-11T16:58:07.000Z</time>
      </trkpt>
      <trkpt lat="45.74637" lon="4.69706">
        <ele>318.75628662109</ele>
        <time>2013-07-11T16:58:09.000Z</time>
      </trkpt>
      <trkpt lat="45.74625" lon="4.69719">
        <ele>318.00741577148</ele>
        <time>2013-07-11T16:58:12.000Z</time>
      </trkpt>
      <trkpt lat="45.74615" lon="4.69735">
        <ele>317.16519165039</ele>
        <time>2013-07-11T16:58:15.000Z</time>
      </trkpt>
      <trkpt lat="45.74598" lon="4.6975">
        <ele>316.36285400391</ele>
        <time>2013-07-11T16:58:18.000Z</time>
      </trkpt>
      <trkpt lat="45.74591" lon="4.69763">
        <ele>315.59765625</ele>
        <time>2013-07-11T16:58:21.000Z</time>
      </trkpt>
      <trkpt lat="45.74578" lon="4.69781">
        <ele>314.73510742188</ele>
        <time>2013-07-11T16:58:23.000Z</time>
      </trkpt>
      <trkpt lat="45.74562" lon="4.69793">
        <ele>313.80923461914</ele>
        <time>2013-07-11T16:58:26.000Z</time>
      </trkpt>
      <trkpt lat="45.74555" lon="4.69789">
        <ele>312.94946289062</ele>
        <time>2013-07-11T16:58:28.000Z</time>
      </trkpt>
      <trkpt lat="45.74552" lon="4.6978">
        <ele>312.29019165039</ele>
        <time>2013-07-11T16:58:31.000Z</time>
      </trkpt>
      <trkpt lat="45.74551" lon="4.69772">
        <ele>311.79223632812</ele>
        <time>2013-07-11T16:58:33.000Z</time>
      </trkpt>
      <trkpt lat="45.7455" lon="4.69756">
        <ele>311.58032226562</ele>
        <time>2013-07-11T16:58:36.000Z</time>
      </trkpt>
      <trkpt lat="45.74548" lon="4.69734">
        <ele>311.642578125</ele>
        <time>2013-07-11T16:58:39.000Z</time>
      </trkpt>
      <trkpt lat="45.74548" lon="4.69714">
        <ele>311.81927490234</ele>
        <time>2013-07-11T16:58:42.000Z</time>
      </trkpt>
      <trkpt lat="45.74546" lon="4.69699">
        <ele>312.00106811523</ele>
        <time>2013-07-11T16:58:44.000Z</time>
      </trkpt>
      <trkpt lat="45.74545" lon="4.69684">
        <ele>312.17660522461</ele>
        <time>2013-07-11T16:58:46.000Z</time>
      </trkpt>
      <trkpt lat="45.74545" lon="4.69663">
        <ele>312.33331298828</ele>
        <time>2013-07-11T16:58:49.000Z</time>
      </trkpt>
      <trkpt lat="45.74545" lon="4.69649">
        <ele>312.48818969727</ele>
        <time>2013-07-11T16:58:52.000Z</time>
      </trkpt>
      <trkpt lat="45.74544" lon="4.69632">
        <ele>312.64068603516</ele>
        <time>2013-07-11T16:58:54.000Z</time>
      </trkpt>
      <trkpt lat="45.74544" lon="4.69611">
        <ele>312.83203125</ele>
        <time>2013-07-11T16:58:57.000Z</time>
      </trkpt>
      <trkpt lat="45.74543" lon="4.69593">
        <ele>313.03283691406</ele>
        <time>2013-07-11T16:59:00.000Z</time>
      </trkpt>
      <trkpt lat="45.74541" lon="4.6958">
        <ele>313.21035766602</ele>
        <time>2013-07-11T16:59:02.000Z</time>
      </trkpt>
      <trkpt lat="45.74541" lon="4.69558">
        <ele>313.43545532227</ele>
        <time>2013-07-11T16:59:05.000Z</time>
      </trkpt>
      <trkpt lat="45.74539" lon="4.69542">
        <ele>313.66424560547</ele>
        <time>2013-07-11T16:59:08.000Z</time>
      </trkpt>
      <trkpt lat="45.7454" lon="4.69523">
        <ele>313.91006469727</ele>
        <time>2013-07-11T16:59:12.000Z</time>
      </trkpt>
      <trkpt lat="45.74537" lon="4.69508">
        <ele>314.15347290039</ele>
        <time>2013-07-11T16:59:14.000Z</time>
      </trkpt>
      <trkpt lat="45.74538" lon="4.69496">
        <ele>314.41729736328</ele>
        <time>2013-07-11T16:59:17.000Z</time>
      </trkpt>
      <trkpt lat="45.74538" lon="4.69488">
        <ele>314.64007568359</ele>
        <time>2013-07-11T16:59:19.000Z</time>
      </trkpt>
      <trkpt lat="45.74538" lon="4.69481">
        <ele>314.84786987305</ele>
        <time>2013-07-11T16:59:21.000Z</time>
      </trkpt>
      <trkpt lat="45.74536" lon="4.69467">
        <ele>315.00952148438</ele>
        <time>2013-07-11T16:59:24.000Z</time>
      </trkpt>
      <trkpt lat="45.74535" lon="4.69458">
        <ele>315.16009521484</ele>
        <time>2013-07-11T16:59:26.000Z</time>
      </trkpt>
      <trkpt lat="45.74533" lon="4.69444">
        <ele>315.29144287109</ele>
        <time>2013-07-11T16:59:29.000Z</time>
      </trkpt>
      <trkpt lat="45.74532" lon="4.69435">
        <ele>315.40045166016</ele>
        <time>2013-07-11T16:59:31.000Z</time>
      </trkpt>
      <trkpt lat="45.74529" lon="4.69419">
        <ele>315.509765625</ele>
        <time>2013-07-11T16:59:34.000Z</time>
      </trkpt>
      <trkpt lat="45.74527" lon="4.69406">
        <ele>315.611328125</ele>
        <time>2013-07-11T16:59:36.000Z</time>
      </trkpt>
      <trkpt lat="45.74526" lon="4.69394">
        <ele>315.71185302734</ele>
        <time>2013-07-11T16:59:38.000Z</time>
      </trkpt>
      <trkpt lat="45.74526" lon="4.69377">
        <ele>315.84716796875</ele>
        <time>2013-07-11T16:59:41.000Z</time>
      </trkpt>
      <trkpt lat="45.74527" lon="4.69367">
        <ele>316.01287841797</ele>
        <time>2013-07-11T16:59:43.000Z</time>
      </trkpt>
      <trkpt lat="45.74527" lon="4.69356">
        <ele>316.18768310547</ele>
        <time>2013-07-11T16:59:46.000Z</time>
      </trkpt>
      <trkpt lat="45.74527" lon="4.69339">
        <ele>316.39996337891</ele>
        <time>2013-07-11T16:59:48.000Z</time>
      </trkpt>
      <trkpt lat="45.74527" lon="4.69328">
        <ele>316.62808227539</ele>
        <time>2013-07-11T16:59:50.000Z</time>
      </trkpt>
      <trkpt lat="45.74525" lon="4.69318">
        <ele>316.82354736328</ele>
        <time>2013-07-11T16:59:52.000Z</time>
      </trkpt>
      <trkpt lat="45.74522" lon="4.69309">
        <ele>316.97058105469</ele>
        <time>2013-07-11T16:59:54.000Z</time>
      </trkpt>
      <trkpt lat="45.74517" lon="4.69294">
        <ele>317.09185791016</ele>
        <time>2013-07-11T16:59:57.000Z</time>
      </trkpt>
      <trkpt lat="45.74518" lon="4.69284">
        <ele>317.21948242188</ele>
        <time>2013-07-11T16:59:59.000Z</time>
      </trkpt>
      <trkpt lat="45.7452" lon="4.69269">
        <ele>317.40258789062</ele>
        <time>2013-07-11T17:00:02.000Z</time>
      </trkpt>
      <trkpt lat="45.74522" lon="4.69256">
        <ele>317.65185546875</ele>
        <time>2013-07-11T17:00:05.000Z</time>
      </trkpt>
      <trkpt lat="45.74524" lon="4.69243">
        <ele>317.98126220703</ele>
        <time>2013-07-11T17:00:09.000Z</time>
      </trkpt>
      <trkpt lat="45.74526" lon="4.69229">
        <ele>318.36538696289</ele>
        <time>2013-07-11T17:00:11.000Z</time>
      </trkpt>
      <trkpt lat="45.74526" lon="4.69221">
        <ele>318.71334838867</ele>
        <time>2013-07-11T17:00:14.000Z</time>
      </trkpt>
      <trkpt lat="45.74527" lon="4.69214">
        <ele>318.99371337891</ele>
        <time>2013-07-11T17:00:16.000Z</time>
      </trkpt>
      <trkpt lat="45.74526" lon="4.69201">
        <ele>319.19934082031</ele>
        <time>2013-07-11T17:00:18.000Z</time>
      </trkpt>
      <trkpt lat="45.74525" lon="4.69192">
        <ele>319.33959960938</ele>
        <time>2013-07-11T17:00:20.000Z</time>
      </trkpt>
      <trkpt lat="45.74524" lon="4.69177">
        <ele>319.44006347656</ele>
        <time>2013-07-11T17:00:23.000Z</time>
      </trkpt>
      <trkpt lat="45.74522" lon="4.69163">
        <ele>319.50439453125</ele>
        <time>2013-07-11T17:00:26.000Z</time>
      </trkpt>
      <trkpt lat="45.7452" lon="4.69147">
        <ele>319.47521972656</ele>
        <time>2013-07-11T17:00:29.000Z</time>
      </trkpt>
      <trkpt lat="45.7452" lon="4.69136">
        <ele>319.40087890625</ele>
        <time>2013-07-11T17:00:31.000Z</time>
      </trkpt>
      <trkpt lat="45.74522" lon="4.69125">
        <ele>319.3193359375</ele>
        <time>2013-07-11T17:00:33.000Z</time>
      </trkpt>
      <trkpt lat="45.74524" lon="4.69114">
        <ele>319.21948242188</ele>
        <time>2013-07-11T17:00:35.000Z</time>
      </trkpt>
      <trkpt lat="45.74526" lon="4.69096">
        <ele>319.11596679688</ele>
        <time>2013-07-11T17:00:38.000Z</time>
      </trkpt>
      <trkpt lat="45.74528" lon="4.69078">
        <ele>319.08767700195</ele>
        <time>2013-07-11T17:00:41.000Z</time>
      </trkpt>
      <trkpt lat="45.7453" lon="4.69067">
        <ele>319.14251708984</ele>
        <time>2013-07-11T17:00:43.000Z</time>
      </trkpt>
      <trkpt lat="45.74532" lon="4.69056">
        <ele>319.24993896484</ele>
        <time>2013-07-11T17:00:45.000Z</time>
      </trkpt>
      <trkpt lat="45.74535" lon="4.69046">
        <ele>319.4176940918</ele>
        <time>2013-07-11T17:00:48.000Z</time>
      </trkpt>
      <trkpt lat="45.74544" lon="4.69041">
        <ele>319.74108886719</ele>
        <time>2013-07-11T17:00:50.000Z</time>
      </trkpt>
      <trkpt lat="45.74553" lon="4.69042">
        <ele>320.18005371094</ele>
        <time>2013-07-11T17:00:53.000Z</time>
      </trkpt>
      <trkpt lat="45.74556" lon="4.6904">
        <ele>320.62561035156</ele>
        <time>2013-07-11T17:00:56.000Z</time>
      </trkpt>
      <trkpt lat="45.74557" lon="4.69035">
        <ele>321.03784179688</ele>
        <time>2013-07-11T17:00:59.000Z</time>
      </trkpt>
      <trkpt lat="45.74556" lon="4.69031">
        <ele>321.37951660156</ele>
        <time>2013-07-11T17:01:01.000Z</time>
      </trkpt>
      <trkpt lat="45.74553" lon="4.69017">
        <ele>321.56164550781</ele>
        <time>2013-07-11T17:01:04.000Z</time>
      </trkpt>
      <trkpt lat="45.74547" lon="4.68996">
        <ele>321.60406494141</ele>
        <time>2013-07-11T17:01:07.000Z</time>
      </trkpt>
      <trkpt lat="45.74545" lon="4.68981">
        <ele>321.62130737305</ele>
        <time>2013-07-11T17:01:09.000Z</time>
      </trkpt>
      <trkpt lat="45.74541" lon="4.68961">
        <ele>321.66326904297</ele>
        <time>2013-07-11T17:01:12.000Z</time>
      </trkpt>
      <trkpt lat="45.74537" lon="4.68944">
        <ele>321.75137329102</ele>
        <time>2013-07-11T17:01:15.000Z</time>
      </trkpt>
      <trkpt lat="45.74535" lon="4.68933">
        <ele>321.88693237305</ele>
        <time>2013-07-11T17:01:17.000Z</time>
      </trkpt>
      <trkpt lat="45.74533" lon="4.68922">
        <ele>322.07577514648</ele>
        <time>2013-07-11T17:01:19.000Z</time>
      </trkpt>
      <trkpt lat="45.74531" lon="4.68913">
        <ele>322.294921875</ele>
        <time>2013-07-11T17:01:22.000Z</time>
      </trkpt>
      <trkpt lat="45.74528" lon="4.689">
        <ele>322.59774780273</ele>
        <time>2013-07-11T17:01:25.000Z</time>
      </trkpt>
      <trkpt lat="45.74524" lon="4.68889">
        <ele>322.98934936523</ele>
        <time>2013-07-11T17:01:27.000Z</time>
      </trkpt>
      <trkpt lat="45.7452" lon="4.6888">
        <ele>323.43817138672</ele>
        <time>2013-07-11T17:01:29.000Z</time>
      </trkpt>
      <trkpt lat="45.74516" lon="4.68867">
        <ele>323.99954223633</ele>
        <time>2013-07-11T17:01:32.000Z</time>
      </trkpt>
      <trkpt lat="45.74512" lon="4.68854">
        <ele>324.63925170898</ele>
        <time>2013-07-11T17:01:35.000Z</time>
      </trkpt>
      <trkpt lat="45.74508" lon="4.68846">
        <ele>325.2321472168</ele>
        <time>2013-07-11T17:01:37.000Z</time>
      </trkpt>
      <trkpt lat="45.74498" lon="4.68831">
        <ele>325.79043579102</ele>
        <time>2013-07-11T17:01:40.000Z</time>
      </trkpt>
      <trkpt lat="45.74493" lon="4.6882">
        <ele>326.18817138672</ele>
        <time>2013-07-11T17:01:42.000Z</time>
      </trkpt>
      <trkpt lat="45.74487" lon="4.68804">
        <ele>326.38171386719</ele>
        <time>2013-07-11T17:01:45.000Z</time>
      </trkpt>
      <trkpt lat="45.74482" lon="4.68791">
        <ele>326.38803100586</ele>
        <time>2013-07-11T17:01:48.000Z</time>
      </trkpt>
      <trkpt lat="45.74475" lon="4.68777">
        <ele>326.25381469727</ele>
        <time>2013-07-11T17:01:51.000Z</time>
      </trkpt>
      <trkpt lat="45.74471" lon="4.68767">
        <ele>326.00006103516</ele>
        <time>2013-07-11T17:01:53.000Z</time>
      </trkpt>
      <trkpt lat="45.74467" lon="4.6875">
        <ele>325.82196044922</ele>
        <time>2013-07-11T17:01:56.000Z</time>
      </trkpt>
      <trkpt lat="45.74464" lon="4.68739">
        <ele>325.71234130859</ele>
        <time>2013-07-11T17:01:58.000Z</time>
      </trkpt>
      <trkpt lat="45.7446" lon="4.68729">
        <ele>325.62994384766</ele>
        <time>2013-07-11T17:02:00.000Z</time>
      </trkpt>
      <trkpt lat="45.74453" lon="4.68716">
        <ele>325.58407592773</ele>
        <time>2013-07-11T17:02:03.000Z</time>
      </trkpt>
      <trkpt lat="45.74447" lon="4.68702">
        <ele>325.56518554688</ele>
        <time>2013-07-11T17:02:06.000Z</time>
      </trkpt>
      <trkpt lat="45.74441" lon="4.68689">
        <ele>325.55029296875</ele>
        <time>2013-07-11T17:02:09.000Z</time>
      </trkpt>
      <trkpt lat="45.74439" lon="4.68681">
        <ele>325.54470825195</ele>
        <time>2013-07-11T17:02:11.000Z</time>
      </trkpt>
      <trkpt lat="45.74437" lon="4.6867">
        <ele>325.59878540039</ele>
        <time>2013-07-11T17:02:14.000Z</time>
      </trkpt>
      <trkpt lat="45.74433" lon="4.68658">
        <ele>325.66708374023</ele>
        <time>2013-07-11T17:02:17.000Z</time>
      </trkpt>
      <trkpt lat="45.74427" lon="4.68647">
        <ele>325.68365478516</ele>
        <time>2013-07-11T17:02:20.000Z</time>
      </trkpt>
      <trkpt lat="45.74422" lon="4.6864">
        <ele>325.6369934082</ele>
        <time>2013-07-11T17:02:22.000Z</time>
      </trkpt>
      <trkpt lat="45.74416" lon="4.68634">
        <ele>325.51190185547</ele>
        <time>2013-07-11T17:02:25.000Z</time>
      </trkpt>
      <trkpt lat="45.74406" lon="4.68624">
        <ele>325.37985229492</ele>
        <time>2013-07-11T17:02:28.000Z</time>
      </trkpt>
      <trkpt lat="45.74398" lon="4.68614">
        <ele>325.29843139648</ele>
        <time>2013-07-11T17:02:30.000Z</time>
      </trkpt>
      <trkpt lat="45.74392" lon="4.68609">
        <ele>325.30728149414</ele>
        <time>2013-07-11T17:02:32.000Z</time>
      </trkpt>
      <trkpt lat="45.74383" lon="4.68605">
        <ele>325.43194580078</ele>
        <time>2013-07-11T17:02:35.000Z</time>
      </trkpt>
      <trkpt lat="45.74377" lon="4.68601">
        <ele>325.6589050293</ele>
        <time>2013-07-11T17:02:37.000Z</time>
      </trkpt>
      <trkpt lat="45.74371" lon="4.68596">
        <ele>325.89883422852</ele>
        <time>2013-07-11T17:02:39.000Z</time>
      </trkpt>
      <trkpt lat="45.74362" lon="4.6859">
        <ele>326.17669677734</ele>
        <time>2013-07-11T17:02:42.000Z</time>
      </trkpt>
      <trkpt lat="45.7435" lon="4.68581">
        <ele>326.53857421875</ele>
        <time>2013-07-11T17:02:45.000Z</time>
      </trkpt>
      <trkpt lat="45.74341" lon="4.68577">
        <ele>326.91809082031</ele>
        <time>2013-07-11T17:02:47.000Z</time>
      </trkpt>
      <trkpt lat="45.74332" lon="4.68574">
        <ele>327.32452392578</ele>
        <time>2013-07-11T17:02:49.000Z</time>
      </trkpt>
      <trkpt lat="45.74315" lon="4.68569">
        <ele>327.81033325195</ele>
        <time>2013-07-11T17:02:52.000Z</time>
      </trkpt>
      <trkpt lat="45.74301" lon="4.68565">
        <ele>328.32409667969</ele>
        <time>2013-07-11T17:02:55.000Z</time>
      </trkpt>
      <trkpt lat="45.74293" lon="4.68564">
        <ele>328.77673339844</ele>
        <time>2013-07-11T17:02:57.000Z</time>
      </trkpt>
      <trkpt lat="45.7428" lon="4.68562">
        <ele>329.24853515625</ele>
        <time>2013-07-11T17:03:00.000Z</time>
      </trkpt>
      <trkpt lat="45.74267" lon="4.68563">
        <ele>329.73901367188</ele>
        <time>2013-07-11T17:03:03.000Z</time>
      </trkpt>
      <trkpt lat="45.74253" lon="4.68566">
        <ele>330.19360351562</ele>
        <time>2013-07-11T17:03:06.000Z</time>
      </trkpt>
      <trkpt lat="45.7424" lon="4.68569">
        <ele>330.68173217773</ele>
        <time>2013-07-11T17:03:09.000Z</time>
      </trkpt>
      <trkpt lat="45.74226" lon="4.68575">
        <ele>331.29574584961</ele>
        <time>2013-07-11T17:03:12.000Z</time>
      </trkpt>
      <trkpt lat="45.74219" lon="4.68579">
        <ele>331.91546630859</ele>
        <time>2013-07-11T17:03:14.000Z</time>
      </trkpt>
      <trkpt lat="45.74212" lon="4.68582">
        <ele>332.54678344727</ele>
        <time>2013-07-11T17:03:16.000Z</time>
      </trkpt>
      <trkpt lat="45.74202" lon="4.68587">
        <ele>333.20950317383</ele>
        <time>2013-07-11T17:03:19.000Z</time>
      </trkpt>
      <trkpt lat="45.74193" lon="4.68589">
        <ele>333.84552001953</ele>
        <time>2013-07-11T17:03:22.000Z</time>
      </trkpt>
      <trkpt lat="45.74181" lon="4.68591">
        <ele>334.47177124023</ele>
        <time>2013-07-11T17:03:24.000Z</time>
      </trkpt>
      <trkpt lat="45.74172" lon="4.68591">
        <ele>335.11798095703</ele>
        <time>2013-07-11T17:03:27.000Z</time>
      </trkpt>
      <trkpt lat="45.74164" lon="4.6859">
        <ele>335.76620483398</ele>
        <time>2013-07-11T17:03:28.000Z</time>
      </trkpt>
      <trkpt lat="45.74155" lon="4.68589">
        <ele>336.35269165039</ele>
        <time>2013-07-11T17:03:31.000Z</time>
      </trkpt>
      <trkpt lat="45.7414" lon="4.68585">
        <ele>336.93743896484</ele>
        <time>2013-07-11T17:03:33.000Z</time>
      </trkpt>
      <trkpt lat="45.74132" lon="4.68584">
        <ele>337.40844726562</ele>
        <time>2013-07-11T17:03:35.000Z</time>
      </trkpt>
      <trkpt lat="45.74123" lon="4.68581">
        <ele>337.82073974609</ele>
        <time>2013-07-11T17:03:37.000Z</time>
      </trkpt>
      <trkpt lat="45.74115" lon="4.68579">
        <ele>338.18768310547</ele>
        <time>2013-07-11T17:03:39.000Z</time>
      </trkpt>
      <trkpt lat="45.74106" lon="4.68575">
        <ele>338.54949951172</ele>
        <time>2013-07-11T17:03:41.000Z</time>
      </trkpt>
      <trkpt lat="45.74094" lon="4.6857">
        <ele>338.88104248047</ele>
        <time>2013-07-11T17:03:44.000Z</time>
      </trkpt>
      <trkpt lat="45.74086" lon="4.68561">
        <ele>339.21194458008</ele>
        <time>2013-07-11T17:03:46.000Z</time>
      </trkpt>
      <trkpt lat="45.74073" lon="4.68554">
        <ele>339.44631958008</ele>
        <time>2013-07-11T17:03:49.000Z</time>
      </trkpt>
      <trkpt lat="45.74067" lon="4.68547">
        <ele>339.58966064453</ele>
        <time>2013-07-11T17:03:52.000Z</time>
      </trkpt>
      <trkpt lat="45.74057" lon="4.68536">
        <ele>339.64031982422</ele>
        <time>2013-07-11T17:03:54.000Z</time>
      </trkpt>
      <trkpt lat="45.74049" lon="4.68527">
        <ele>339.58569335938</ele>
        <time>2013-07-11T17:03:57.000Z</time>
      </trkpt>
      <trkpt lat="45.74037" lon="4.68514">
        <ele>339.45648193359</ele>
        <time>2013-07-11T17:03:59.000Z</time>
      </trkpt>
      <trkpt lat="45.7403" lon="4.68497">
        <ele>339.40478515625</ele>
        <time>2013-07-11T17:04:02.000Z</time>
      </trkpt>
      <trkpt lat="45.74024" lon="4.68488">
        <ele>339.45159912109</ele>
        <time>2013-07-11T17:04:04.000Z</time>
      </trkpt>
      <trkpt lat="45.74017" lon="4.6847">
        <ele>339.68402099609</ele>
        <time>2013-07-11T17:04:07.000Z</time>
      </trkpt>
      <trkpt lat="45.74013" lon="4.68461">
        <ele>340.01031494141</ele>
        <time>2013-07-11T17:04:09.000Z</time>
      </trkpt>
      <trkpt lat="45.74009" lon="4.68452">
        <ele>340.43112182617</ele>
        <time>2013-07-11T17:04:12.000Z</time>
      </trkpt>
      <trkpt lat="45.74004" lon="4.68443">
        <ele>340.88836669922</ele>
        <time>2013-07-11T17:04:14.000Z</time>
      </trkpt>
      <trkpt lat="45.73996" lon="4.68429">
        <ele>341.37353515625</ele>
        <time>2013-07-11T17:04:16.000Z</time>
      </trkpt>
      <trkpt lat="45.73989" lon="4.68413">
        <ele>341.79132080078</ele>
        <time>2013-07-11T17:04:19.000Z</time>
      </trkpt>
      <trkpt lat="45.73979" lon="4.68407">
        <ele>342.08129882812</ele>
        <time>2013-07-11T17:04:21.000Z</time>
      </trkpt>
      <trkpt lat="45.73967" lon="4.68395">
        <ele>342.23822021484</ele>
        <time>2013-07-11T17:04:24.000Z</time>
      </trkpt>
      <trkpt lat="45.73962" lon="4.68388">
        <ele>342.31439208984</ele>
        <time>2013-07-11T17:04:26.000Z</time>
      </trkpt>
      <trkpt lat="45.73958" lon="4.68374">
        <ele>342.32049560547</ele>
        <time>2013-07-11T17:04:29.000Z</time>
      </trkpt>
      <trkpt lat="45.73951" lon="4.68358">
        <ele>342.26116943359</ele>
        <time>2013-07-11T17:04:32.000Z</time>
      </trkpt>
      <trkpt lat="45.73946" lon="4.68346">
        <ele>342.27505493164</ele>
        <time>2013-07-11T17:04:34.000Z</time>
      </trkpt>
      <trkpt lat="45.7394" lon="4.68325">
        <ele>342.41244506836</ele>
        <time>2013-07-11T17:04:37.000Z</time>
      </trkpt>
      <trkpt lat="45.73941" lon="4.6831">
        <ele>342.65423583984</ele>
        <time>2013-07-11T17:04:40.000Z</time>
      </trkpt>
      <trkpt lat="45.7394" lon="4.683">
        <ele>342.93383789062</ele>
        <time>2013-07-11T17:04:42.000Z</time>
      </trkpt>
      <trkpt lat="45.73932" lon="4.68281">
        <ele>343.28579711914</ele>
        <time>2013-07-11T17:04:45.000Z</time>
      </trkpt>
      <trkpt lat="45.73932" lon="4.6827">
        <ele>343.69329833984</ele>
        <time>2013-07-11T17:04:47.000Z</time>
      </trkpt>
      <trkpt lat="45.73933" lon="4.68257">
        <ele>344.12109375</ele>
        <time>2013-07-11T17:04:50.000Z</time>
      </trkpt>
      <trkpt lat="45.73933" lon="4.68246">
        <ele>344.51715087891</ele>
        <time>2013-07-11T17:04:52.000Z</time>
      </trkpt>
      <trkpt lat="45.73932" lon="4.68231">
        <ele>344.93377685547</ele>
        <time>2013-07-11T17:04:55.000Z</time>
      </trkpt>
      <trkpt lat="45.73932" lon="4.68216">
        <ele>345.33648681641</ele>
        <time>2013-07-11T17:04:58.000Z</time>
      </trkpt>
      <trkpt lat="45.73932" lon="4.68208">
        <ele>345.70965576172</ele>
        <time>2013-07-11T17:05:00.000Z</time>
      </trkpt>
      <trkpt lat="45.73931" lon="4.68199">
        <ele>346.03335571289</ele>
        <time>2013-07-11T17:05:02.000Z</time>
      </trkpt>
      <trkpt lat="45.7393" lon="4.68187">
        <ele>346.34979248047</ele>
        <time>2013-07-11T17:05:05.000Z</time>
      </trkpt>
      <trkpt lat="45.73929" lon="4.68179">
        <ele>346.62344360352</ele>
        <time>2013-07-11T17:05:07.000Z</time>
      </trkpt>
      <trkpt lat="45.7393" lon="4.68167">
        <ele>346.88739013672</ele>
        <time>2013-07-11T17:05:10.000Z</time>
      </trkpt>
      <trkpt lat="45.7393" lon="4.68159">
        <ele>347.18685913086</ele>
        <time>2013-07-11T17:05:12.000Z</time>
      </trkpt>
      <trkpt lat="45.73929" lon="4.68146">
        <ele>347.57443237305</ele>
        <time>2013-07-11T17:05:15.000Z</time>
      </trkpt>
      <trkpt lat="45.73929" lon="4.68138">
        <ele>347.99014282227</ele>
        <time>2013-07-11T17:05:17.000Z</time>
      </trkpt>
      <trkpt lat="45.73928" lon="4.68125">
        <ele>348.49682617188</ele>
        <time>2013-07-11T17:05:20.000Z</time>
      </trkpt>
      <trkpt lat="45.73927" lon="4.68113">
        <ele>349.06332397461</ele>
        <time>2013-07-11T17:05:23.000Z</time>
      </trkpt>
      <trkpt lat="45.73927" lon="4.68101">
        <ele>349.67263793945</ele>
        <time>2013-07-11T17:05:26.000Z</time>
      </trkpt>
      <trkpt lat="45.73925" lon="4.68094">
        <ele>350.2248840332</ele>
        <time>2013-07-11T17:05:28.000Z</time>
      </trkpt>
      <trkpt lat="45.73923" lon="4.68085">
        <ele>350.79891967773</ele>
        <time>2013-07-11T17:05:31.000Z</time>
      </trkpt>
      <trkpt lat="45.73921" lon="4.68078">
        <ele>351.33969116211</ele>
        <time>2013-07-11T17:05:33.000Z</time>
      </trkpt>
      <trkpt lat="45.73918" lon="4.68069">
        <ele>351.89178466797</ele>
        <time>2013-07-11T17:05:36.000Z</time>
      </trkpt>
      <trkpt lat="45.73915" lon="4.6806">
        <ele>352.43936157227</ele>
        <time>2013-07-11T17:05:39.000Z</time>
      </trkpt>
      <trkpt lat="45.73912" lon="4.68052">
        <ele>353.02621459961</ele>
        <time>2013-07-11T17:05:42.000Z</time>
      </trkpt>
      <trkpt lat="45.73908" lon="4.68043">
        <ele>353.62359619141</ele>
        <time>2013-07-11T17:05:45.000Z</time>
      </trkpt>
      <trkpt lat="45.73906" lon="4.68037">
        <ele>354.20501708984</ele>
        <time>2013-07-11T17:05:47.000Z</time>
      </trkpt>
      <trkpt lat="45.73904" lon="4.68031">
        <ele>354.74359130859</ele>
        <time>2013-07-11T17:05:49.000Z</time>
      </trkpt>
      <trkpt lat="45.73903" lon="4.68023">
        <ele>355.26846313477</ele>
        <time>2013-07-11T17:05:52.000Z</time>
      </trkpt>
      <trkpt lat="45.73901" lon="4.68012">
        <ele>355.8424987793</ele>
        <time>2013-07-11T17:05:54.000Z</time>
      </trkpt>
      <trkpt lat="45.739" lon="4.68001">
        <ele>356.46566772461</ele>
        <time>2013-07-11T17:05:57.000Z</time>
      </trkpt>
      <trkpt lat="45.73899" lon="4.6799">
        <ele>357.13223266602</ele>
        <time>2013-07-11T17:06:00.000Z</time>
      </trkpt>
      <trkpt lat="45.739" lon="4.67979">
        <ele>357.82434082031</ele>
        <time>2013-07-11T17:06:03.000Z</time>
      </trkpt>
      <trkpt lat="45.739" lon="4.67972">
        <ele>358.4928894043</ele>
        <time>2013-07-11T17:06:05.000Z</time>
      </trkpt>
      <trkpt lat="45.73901" lon="4.67961">
        <ele>359.12384033203</ele>
        <time>2013-07-11T17:06:08.000Z</time>
      </trkpt>
      <trkpt lat="45.73901" lon="4.67953">
        <ele>359.66491699219</ele>
        <time>2013-07-11T17:06:11.000Z</time>
      </trkpt>
      <trkpt lat="45.73902" lon="4.67942">
        <ele>360.19924926758</ele>
        <time>2013-07-11T17:06:13.000Z</time>
      </trkpt>
      <trkpt lat="45.73902" lon="4.67935">
        <ele>360.69549560547</ele>
        <time>2013-07-11T17:06:15.000Z</time>
      </trkpt>
      <trkpt lat="45.73903" lon="4.67923">
        <ele>361.23608398438</ele>
        <time>2013-07-11T17:06:18.000Z</time>
      </trkpt>
      <trkpt lat="45.73904" lon="4.67916">
        <ele>361.71697998047</ele>
        <time>2013-07-11T17:06:21.000Z</time>
      </trkpt>
      <trkpt lat="45.73906" lon="4.67911">
        <ele>362.13922119141</ele>
        <time>2013-07-11T17:06:23.000Z</time>
      </trkpt>
      <trkpt lat="45.73908" lon="4.67901">
        <ele>362.51486206055</ele>
        <time>2013-07-11T17:06:25.000Z</time>
      </trkpt>
      <trkpt lat="45.73908" lon="4.67893">
        <ele>362.88278198242</ele>
        <time>2013-07-11T17:06:27.000Z</time>
      </trkpt>
      <trkpt lat="45.73907" lon="4.67884">
        <ele>363.21069335938</ele>
        <time>2013-07-11T17:06:30.000Z</time>
      </trkpt>
      <trkpt lat="45.73907" lon="4.67873">
        <ele>363.57348632812</ele>
        <time>2013-07-11T17:06:32.000Z</time>
      </trkpt>
      <trkpt lat="45.73908" lon="4.67867">
        <ele>363.97128295898</ele>
        <time>2013-07-11T17:06:35.000Z</time>
      </trkpt>
      <trkpt lat="45.73909" lon="4.67857">
        <ele>364.37469482422</ele>
        <time>2013-07-11T17:06:37.000Z</time>
      </trkpt>
      <trkpt lat="45.73906" lon="4.67844">
        <ele>364.85540771484</ele>
        <time>2013-07-11T17:06:40.000Z</time>
      </trkpt>
      <trkpt lat="45.73902" lon="4.67834">
        <ele>365.36407470703</ele>
        <time>2013-07-11T17:06:42.000Z</time>
      </trkpt>
      <trkpt lat="45.73901" lon="4.67827">
        <ele>365.81552124023</ele>
        <time>2013-07-11T17:06:44.000Z</time>
      </trkpt>
      <trkpt lat="45.73899" lon="4.6782">
        <ele>366.25128173828</ele>
        <time>2013-07-11T17:06:47.000Z</time>
      </trkpt>
      <trkpt lat="45.73897" lon="4.67809">
        <ele>366.66152954102</ele>
        <time>2013-07-11T17:06:49.000Z</time>
      </trkpt>
      <trkpt lat="45.73897" lon="4.67802">
        <ele>366.94842529297</ele>
        <time>2013-07-11T17:06:52.000Z</time>
      </trkpt>
      <trkpt lat="45.73898" lon="4.67791">
        <ele>367.16293334961</ele>
        <time>2013-07-11T17:06:54.000Z</time>
      </trkpt>
      <trkpt lat="45.73898" lon="4.67783">
        <ele>367.3642578125</ele>
        <time>2013-07-11T17:06:57.000Z</time>
      </trkpt>
      <trkpt lat="45.73899" lon="4.67772">
        <ele>367.56811523438</ele>
        <time>2013-07-11T17:06:59.000Z</time>
      </trkpt>
      <trkpt lat="45.73899" lon="4.67762">
        <ele>367.75723266602</ele>
        <time>2013-07-11T17:07:02.000Z</time>
      </trkpt>
      <trkpt lat="45.739" lon="4.67752">
        <ele>367.95571899414</ele>
        <time>2013-07-11T17:07:05.000Z</time>
      </trkpt>
      <trkpt lat="45.73901" lon="4.67742">
        <ele>368.15020751953</ele>
        <time>2013-07-11T17:07:08.000Z</time>
      </trkpt>
      <trkpt lat="45.739" lon="4.67734">
        <ele>368.34481811523</ele>
        <time>2013-07-11T17:07:10.000Z</time>
      </trkpt>
      <trkpt lat="45.739" lon="4.67726">
        <ele>368.52709960938</ele>
        <time>2013-07-11T17:07:12.000Z</time>
      </trkpt>
      <trkpt lat="45.73899" lon="4.67714">
        <ele>368.72741699219</ele>
        <time>2013-07-11T17:07:15.000Z</time>
      </trkpt>
      <trkpt lat="45.73898" lon="4.67706">
        <ele>368.92108154297</ele>
        <time>2013-07-11T17:07:17.000Z</time>
      </trkpt>
      <trkpt lat="45.73898" lon="4.67698">
        <ele>369.10784912109</ele>
        <time>2013-07-11T17:07:20.000Z</time>
      </trkpt>
      <trkpt lat="45.73898" lon="4.67686">
        <ele>369.31207275391</ele>
        <time>2013-07-11T17:07:22.000Z</time>
      </trkpt>
      <trkpt lat="45.73898" lon="4.67678">
        <ele>369.51547241211</ele>
        <time>2013-07-11T17:07:24.000Z</time>
      </trkpt>
      <trkpt lat="45.73898" lon="4.6767">
        <ele>369.69506835938</ele>
        <time>2013-07-11T17:07:26.000Z</time>
      </trkpt>
      <trkpt lat="45.73898" lon="4.67658">
        <ele>369.86288452148</ele>
        <time>2013-07-11T17:07:29.000Z</time>
      </trkpt>
      <trkpt lat="45.73898" lon="4.67646">
        <ele>370.01116943359</ele>
        <time>2013-07-11T17:07:32.000Z</time>
      </trkpt>
      <trkpt lat="45.73899" lon="4.67639">
        <ele>370.10650634766</ele>
        <time>2013-07-11T17:07:35.000Z</time>
      </trkpt>
      <trkpt lat="45.73899" lon="4.67632">
        <ele>370.17651367188</ele>
        <time>2013-07-11T17:07:37.000Z</time>
      </trkpt>
      <trkpt lat="45.73899" lon="4.67622">
        <ele>370.22518920898</ele>
        <time>2013-07-11T17:07:39.000Z</time>
      </trkpt>
      <trkpt lat="45.739" lon="4.67613">
        <ele>370.24224853516</ele>
        <time>2013-07-11T17:07:42.000Z</time>
      </trkpt>
      <trkpt lat="45.73903" lon="4.67605">
        <ele>370.21664428711</ele>
        <time>2013-07-11T17:07:45.000Z</time>
      </trkpt>
      <trkpt lat="45.73903" lon="4.67598">
        <ele>370.19332885742</ele>
        <time>2013-07-11T17:07:48.000Z</time>
      </trkpt>
      <trkpt lat="45.73903" lon="4.67588">
        <ele>370.17111206055</ele>
        <time>2013-07-11T17:07:50.000Z</time>
      </trkpt>
      <trkpt lat="45.73903" lon="4.6758">
        <ele>370.16934204102</ele>
        <time>2013-07-11T17:07:52.000Z</time>
      </trkpt>
      <trkpt lat="45.73902" lon="4.67567">
        <ele>370.29061889648</ele>
        <time>2013-07-11T17:07:55.000Z</time>
      </trkpt>
      <trkpt lat="45.739" lon="4.67555">
        <ele>370.57998657227</ele>
        <time>2013-07-11T17:07:58.000Z</time>
      </trkpt>
      <trkpt lat="45.73898" lon="4.67543">
        <ele>371.00375366211</ele>
        <time>2013-07-11T17:08:01.000Z</time>
      </trkpt>
      <trkpt lat="45.73897" lon="4.67536">
        <ele>371.50482177734</ele>
        <time>2013-07-11T17:08:04.000Z</time>
      </trkpt>
      <trkpt lat="45.73895" lon="4.67524">
        <ele>372.11236572266</ele>
        <time>2013-07-11T17:08:06.000Z</time>
      </trkpt>
      <trkpt lat="45.73893" lon="4.67516">
        <ele>372.72915649414</ele>
        <time>2013-07-11T17:08:08.000Z</time>
      </trkpt>
      <trkpt lat="45.73892" lon="4.67506">
        <ele>373.29876708984</ele>
        <time>2013-07-11T17:08:11.000Z</time>
      </trkpt>
      <trkpt lat="45.7389" lon="4.67492">
        <ele>373.97610473633</ele>
        <time>2013-07-11T17:08:13.000Z</time>
      </trkpt>
      <trkpt lat="45.73888" lon="4.67483">
        <ele>374.72640991211</ele>
        <time>2013-07-11T17:08:15.000Z</time>
      </trkpt>
      <trkpt lat="45.73888" lon="4.67473">
        <ele>375.51889038086</ele>
        <time>2013-07-11T17:08:18.000Z</time>
      </trkpt>
      <trkpt lat="45.73887" lon="4.67467">
        <ele>376.30282592773</ele>
        <time>2013-07-11T17:08:20.000Z</time>
      </trkpt>
      <trkpt lat="45.73886" lon="4.6746">
        <ele>377.12005615234</ele>
        <time>2013-07-11T17:08:22.000Z</time>
      </trkpt>
      <trkpt lat="45.73885" lon="4.6745">
        <ele>377.88256835938</ele>
        <time>2013-07-11T17:08:25.000Z</time>
      </trkpt>
      <trkpt lat="45.73883" lon="4.67441">
        <ele>378.65374755859</ele>
        <time>2013-07-11T17:08:28.000Z</time>
      </trkpt>
      <trkpt lat="45.73883" lon="4.67435">
        <ele>379.33804321289</ele>
        <time>2013-07-11T17:08:30.000Z</time>
      </trkpt>
      <trkpt lat="45.73883" lon="4.67427">
        <ele>380.05938720703</ele>
        <time>2013-07-11T17:08:33.000Z</time>
      </trkpt>
      <trkpt lat="45.73882" lon="4.6742">
        <ele>380.77270507812</ele>
        <time>2013-07-11T17:08:35.000Z</time>
      </trkpt>
      <trkpt lat="45.73882" lon="4.6741">
        <ele>381.46212768555</ele>
        <time>2013-07-11T17:08:38.000Z</time>
      </trkpt>
      <trkpt lat="45.73881" lon="4.67401">
        <ele>382.14117431641</ele>
        <time>2013-07-11T17:08:41.000Z</time>
      </trkpt>
      <trkpt lat="45.73879" lon="4.67389">
        <ele>382.92123413086</ele>
        <time>2013-07-11T17:08:44.000Z</time>
      </trkpt>
      <trkpt lat="45.73878" lon="4.67379">
        <ele>383.71148681641</ele>
        <time>2013-07-11T17:08:47.000Z</time>
      </trkpt>
      <trkpt lat="45.73878" lon="4.6737">
        <ele>384.51907348633</ele>
        <time>2013-07-11T17:08:50.000Z</time>
      </trkpt>
      <trkpt lat="45.73878" lon="4.67365">
        <ele>385.24642944336</ele>
        <time>2013-07-11T17:08:52.000Z</time>
      </trkpt>
      <trkpt lat="45.73878" lon="4.67356">
        <ele>385.94378662109</ele>
        <time>2013-07-11T17:08:56.000Z</time>
      </trkpt>
      <trkpt lat="45.73878" lon="4.6735">
        <ele>386.53164672852</ele>
        <time>2013-07-11T17:08:58.000Z</time>
      </trkpt>
      <trkpt lat="45.73878" lon="4.67343">
        <ele>387.06057739258</ele>
        <time>2013-07-11T17:09:00.000Z</time>
      </trkpt>
      <trkpt lat="45.73879" lon="4.67337">
        <ele>387.53900146484</ele>
        <time>2013-07-11T17:09:02.000Z</time>
      </trkpt>
      <trkpt lat="45.73879" lon="4.67331">
        <ele>388.02557373047</ele>
        <time>2013-07-11T17:09:04.000Z</time>
      </trkpt>
      <trkpt lat="45.73878" lon="4.67322">
        <ele>388.55072021484</ele>
        <time>2013-07-11T17:09:07.000Z</time>
      </trkpt>
      <trkpt lat="45.73878" lon="4.67317">
        <ele>389.08569335938</ele>
        <time>2013-07-11T17:09:09.000Z</time>
      </trkpt>
      <trkpt lat="45.73877" lon="4.67312">
        <ele>389.63150024414</ele>
        <time>2013-07-11T17:09:11.000Z</time>
      </trkpt>
      <trkpt lat="45.73878" lon="4.67307">
        <ele>390.17565917969</ele>
        <time>2013-07-11T17:09:13.000Z</time>
      </trkpt>
      <trkpt lat="45.73879" lon="4.67301">
        <ele>390.716796875</ele>
        <time>2013-07-11T17:09:16.000Z</time>
      </trkpt>
      <trkpt lat="45.7388" lon="4.67296">
        <ele>391.18304443359</ele>
        <time>2013-07-11T17:09:19.000Z</time>
      </trkpt>
      <trkpt lat="45.73879" lon="4.67292">
        <ele>391.63070678711</ele>
        <time>2013-07-11T17:09:21.000Z</time>
      </trkpt>
      <trkpt lat="45.7388" lon="4.67287">
        <ele>392.04473876953</ele>
        <time>2013-07-11T17:09:23.000Z</time>
      </trkpt>
      <trkpt lat="45.73881" lon="4.67278">
        <ele>392.52536010742</ele>
        <time>2013-07-11T17:09:26.000Z</time>
      </trkpt>
      <trkpt lat="45.73881" lon="4.6727">
        <ele>393.076171875</ele>
        <time>2013-07-11T17:09:29.000Z</time>
      </trkpt>
      <trkpt lat="45.73879" lon="4.67261">
        <ele>393.71493530273</ele>
        <time>2013-07-11T17:09:32.000Z</time>
      </trkpt>
      <trkpt lat="45.73877" lon="4.67252">
        <ele>394.46810913086</ele>
        <time>2013-07-11T17:09:35.000Z</time>
      </trkpt>
      <trkpt lat="45.73876" lon="4.67244">
        <ele>395.28814697266</ele>
        <time>2013-07-11T17:09:38.000Z</time>
      </trkpt>
      <trkpt lat="45.73876" lon="4.67235">
        <ele>396.09057617188</ele>
        <time>2013-07-11T17:09:41.000Z</time>
      </trkpt>
      <trkpt lat="45.73876" lon="4.67229">
        <ele>396.83682250977</ele>
        <time>2013-07-11T17:09:44.000Z</time>
      </trkpt>
      <trkpt lat="45.73875" lon="4.67225">
        <ele>397.47357177734</ele>
        <time>2013-07-11T17:09:47.000Z</time>
      </trkpt>
      <trkpt lat="45.73876" lon="4.67219">
        <ele>397.99887084961</ele>
        <time>2013-07-11T17:09:50.000Z</time>
      </trkpt>
      <trkpt lat="45.7388" lon="4.67216">
        <ele>398.36865234375</ele>
        <time>2013-07-11T17:09:52.000Z</time>
      </trkpt>
      <trkpt lat="45.73882" lon="4.67211">
        <ele>398.66259765625</ele>
        <time>2013-07-11T17:09:56.000Z</time>
      </trkpt>
      <trkpt lat="45.73879" lon="4.67203">
        <ele>399.01928710938</ele>
        <time>2013-07-11T17:09:58.000Z</time>
      </trkpt>
      <trkpt lat="45.73877" lon="4.67197">
        <ele>399.41485595703</ele>
        <time>2013-07-11T17:10:01.000Z</time>
      </trkpt>
      <trkpt lat="45.73876" lon="4.6719">
        <ele>399.87121582031</ele>
        <time>2013-07-11T17:10:03.000Z</time>
      </trkpt>
      <trkpt lat="45.73875" lon="4.67183">
        <ele>400.45080566406</ele>
        <time>2013-07-11T17:10:06.000Z</time>
      </trkpt>
      <trkpt lat="45.73876" lon="4.67179">
        <ele>401.03561401367</ele>
        <time>2013-07-11T17:10:08.000Z</time>
      </trkpt>
      <trkpt lat="45.73877" lon="4.67173">
        <ele>401.52767944336</ele>
        <time>2013-07-11T17:10:11.000Z</time>
      </trkpt>
      <trkpt lat="45.73877" lon="4.67169">
        <ele>401.97247314453</ele>
        <time>2013-07-11T17:10:13.000Z</time>
      </trkpt>
      <trkpt lat="45.73877" lon="4.67164">
        <ele>402.36773681641</ele>
        <time>2013-07-11T17:10:15.000Z</time>
      </trkpt>
      <trkpt lat="45.73876" lon="4.67156">
        <ele>402.77899169922</ele>
        <time>2013-07-11T17:10:18.000Z</time>
      </trkpt>
      <trkpt lat="45.73876" lon="4.67148">
        <ele>403.25598144531</ele>
        <time>2013-07-11T17:10:21.000Z</time>
      </trkpt>
      <trkpt lat="45.73876" lon="4.6714">
        <ele>403.78970336914</ele>
        <time>2013-07-11T17:10:24.000Z</time>
      </trkpt>
      <trkpt lat="45.73877" lon="4.67135">
        <ele>404.32754516602</ele>
        <time>2013-07-11T17:10:26.000Z</time>
      </trkpt>
      <trkpt lat="45.73876" lon="4.67128">
        <ele>404.89541625977</ele>
        <time>2013-07-11T17:10:29.000Z</time>
      </trkpt>
      <trkpt lat="45.73876" lon="4.67123">
        <ele>405.41632080078</ele>
        <time>2013-07-11T17:10:31.000Z</time>
      </trkpt>
      <trkpt lat="45.73875" lon="4.67118">
        <ele>405.89450073242</ele>
        <time>2013-07-11T17:10:33.000Z</time>
      </trkpt>
      <trkpt lat="45.73876" lon="4.67112">
        <ele>406.32965087891</ele>
        <time>2013-07-11T17:10:36.000Z</time>
      </trkpt>
      <trkpt lat="45.73877" lon="4.67108">
        <ele>406.75299072266</ele>
        <time>2013-07-11T17:10:38.000Z</time>
      </trkpt>
      <trkpt lat="45.73877" lon="4.67102">
        <ele>407.14901733398</ele>
        <time>2013-07-11T17:10:41.000Z</time>
      </trkpt>
      <trkpt lat="45.73878" lon="4.67097">
        <ele>407.54467773438</ele>
        <time>2013-07-11T17:10:43.000Z</time>
      </trkpt>
      <trkpt lat="45.73878" lon="4.67089">
        <ele>407.96942138672</ele>
        <time>2013-07-11T17:10:46.000Z</time>
      </trkpt>
      <trkpt lat="45.73878" lon="4.67083">
        <ele>408.40301513672</ele>
        <time>2013-07-11T17:10:49.000Z</time>
      </trkpt>
      <trkpt lat="45.73883" lon="4.67077">
        <ele>408.78588867188</ele>
        <time>2013-07-11T17:10:52.000Z</time>
      </trkpt>
      <trkpt lat="45.73886" lon="4.67069">
        <ele>409.08975219727</ele>
        <time>2013-07-11T17:10:55.000Z</time>
      </trkpt>
      <trkpt lat="45.73886" lon="4.67065">
        <ele>409.33087158203</ele>
        <time>2013-07-11T17:10:57.000Z</time>
      </trkpt>
      <trkpt lat="45.73885" lon="4.67057">
        <ele>409.50927734375</ele>
        <time>2013-07-11T17:11:00.000Z</time>
      </trkpt>
      <trkpt lat="45.73882" lon="4.6705">
        <ele>409.64404296875</ele>
        <time>2013-07-11T17:11:02.000Z</time>
      </trkpt>
      <trkpt lat="45.73879" lon="4.67041">
        <ele>409.84399414062</ele>
        <time>2013-07-11T17:11:05.000Z</time>
      </trkpt>
      <trkpt lat="45.73876" lon="4.67031">
        <ele>410.10009765625</ele>
        <time>2013-07-11T17:11:08.000Z</time>
      </trkpt>
      <trkpt lat="45.73875" lon="4.67022">
        <ele>410.38671875</ele>
        <time>2013-07-11T17:11:11.000Z</time>
      </trkpt>
      <trkpt lat="45.73873" lon="4.67015">
        <ele>410.666015625</ele>
        <time>2013-07-11T17:11:13.000Z</time>
      </trkpt>
      <trkpt lat="45.7387" lon="4.67004">
        <ele>410.97143554688</ele>
        <time>2013-07-11T17:11:16.000Z</time>
      </trkpt>
      <trkpt lat="45.73868" lon="4.66992">
        <ele>411.31591796875</ele>
        <time>2013-07-11T17:11:19.000Z</time>
      </trkpt>
      <trkpt lat="45.73865" lon="4.66985">
        <ele>411.67715454102</ele>
        <time>2013-07-11T17:11:21.000Z</time>
      </trkpt>
      <trkpt lat="45.73862" lon="4.66974">
        <ele>412.10675048828</ele>
        <time>2013-07-11T17:11:24.000Z</time>
      </trkpt>
      <trkpt lat="45.73861" lon="4.66967">
        <ele>412.56488037109</ele>
        <time>2013-07-11T17:11:27.000Z</time>
      </trkpt>
      <trkpt lat="45.73858" lon="4.66956">
        <ele>413.05087280273</ele>
        <time>2013-07-11T17:11:29.000Z</time>
      </trkpt>
      <trkpt lat="45.73856" lon="4.66945">
        <ele>413.53173828125</ele>
        <time>2013-07-11T17:11:32.000Z</time>
      </trkpt>
      <trkpt lat="45.73854" lon="4.66939">
        <ele>413.98388671875</ele>
        <time>2013-07-11T17:11:34.000Z</time>
      </trkpt>
      <trkpt lat="45.73853" lon="4.66929">
        <ele>414.41015625</ele>
        <time>2013-07-11T17:11:37.000Z</time>
      </trkpt>
      <trkpt lat="45.7385" lon="4.66917">
        <ele>414.86944580078</ele>
        <time>2013-07-11T17:11:41.000Z</time>
      </trkpt>
      <trkpt lat="45.73846" lon="4.66907">
        <ele>415.32583618164</ele>
        <time>2013-07-11T17:11:43.000Z</time>
      </trkpt>
      <trkpt lat="45.73844" lon="4.669">
        <ele>415.73690795898</ele>
        <time>2013-07-11T17:11:45.000Z</time>
      </trkpt>
      <trkpt lat="45.73842" lon="4.66896">
        <ele>416.12994384766</ele>
        <time>2013-07-11T17:11:47.000Z</time>
      </trkpt>
      <trkpt lat="45.73841" lon="4.66891">
        <ele>416.46606445312</ele>
        <time>2013-07-11T17:11:50.000Z</time>
      </trkpt>
      <trkpt lat="45.73841" lon="4.66889">
        <ele>416.71362304688</ele>
        <time>2013-07-11T17:11:53.000Z</time>
      </trkpt>
      <trkpt lat="45.73841" lon="4.6688">
        <ele>416.93228149414</ele>
        <time>2013-07-11T17:11:56.000Z</time>
      </trkpt>
      <trkpt lat="45.73839" lon="4.66871">
        <ele>417.16424560547</ele>
        <time>2013-07-11T17:12:00.000Z</time>
      </trkpt>
      <trkpt lat="45.73836" lon="4.66863">
        <ele>417.40948486328</ele>
        <time>2013-07-11T17:12:02.000Z</time>
      </trkpt>
      <trkpt lat="45.73834" lon="4.66857">
        <ele>417.65396118164</ele>
        <time>2013-07-11T17:12:04.000Z</time>
      </trkpt>
      <trkpt lat="45.73832" lon="4.66843">
        <ele>417.96697998047</ele>
        <time>2013-07-11T17:12:07.000Z</time>
      </trkpt>
      <trkpt lat="45.73831" lon="4.66832">
        <ele>418.28842163086</ele>
        <time>2013-07-11T17:12:10.000Z</time>
      </trkpt>
      <trkpt lat="45.7383" lon="4.66824">
        <ele>418.65585327148</ele>
        <time>2013-07-11T17:12:12.000Z</time>
      </trkpt>
      <trkpt lat="45.73827" lon="4.66812">
        <ele>419.12908935547</ele>
        <time>2013-07-11T17:12:15.000Z</time>
      </trkpt>
      <trkpt lat="45.73824" lon="4.668">
        <ele>419.72476196289</ele>
        <time>2013-07-11T17:12:18.000Z</time>
      </trkpt>
      <trkpt lat="45.73823" lon="4.66792">
        <ele>420.35394287109</ele>
        <time>2013-07-11T17:12:20.000Z</time>
      </trkpt>
      <trkpt lat="45.7382" lon="4.66781">
        <ele>421.04510498047</ele>
        <time>2013-07-11T17:12:23.000Z</time>
      </trkpt>
      <trkpt lat="45.73819" lon="4.66774">
        <ele>421.71490478516</ele>
        <time>2013-07-11T17:12:25.000Z</time>
      </trkpt>
      <trkpt lat="45.73816" lon="4.66763">
        <ele>422.34774780273</ele>
        <time>2013-07-11T17:12:28.000Z</time>
      </trkpt>
      <trkpt lat="45.73813" lon="4.66754">
        <ele>422.92074584961</ele>
        <time>2013-07-11T17:12:31.000Z</time>
      </trkpt>
      <trkpt lat="45.73812" lon="4.66749">
        <ele>423.44360351562</ele>
        <time>2013-07-11T17:12:33.000Z</time>
      </trkpt>
      <trkpt lat="45.73811" lon="4.6674">
        <ele>423.89666748047</ele>
        <time>2013-07-11T17:12:36.000Z</time>
      </trkpt>
      <trkpt lat="45.73808" lon="4.66732">
        <ele>424.27627563477</ele>
        <time>2013-07-11T17:12:38.000Z</time>
      </trkpt>
      <trkpt lat="45.73803" lon="4.66721">
        <ele>424.57510375977</ele>
        <time>2013-07-11T17:12:41.000Z</time>
      </trkpt>
      <trkpt lat="45.73798" lon="4.66709">
        <ele>424.83489990234</ele>
        <time>2013-07-11T17:12:44.000Z</time>
      </trkpt>
      <trkpt lat="45.73796" lon="4.667">
        <ele>425.08404541016</ele>
        <time>2013-07-11T17:12:46.000Z</time>
      </trkpt>
      <trkpt lat="45.73796" lon="4.66689">
        <ele>425.37036132812</ele>
        <time>2013-07-11T17:12:49.000Z</time>
      </trkpt>
      <trkpt lat="45.73797" lon="4.66678">
        <ele>425.79132080078</ele>
        <time>2013-07-11T17:12:52.000Z</time>
      </trkpt>
      <trkpt lat="45.738" lon="4.6667">
        <ele>426.29986572266</ele>
        <time>2013-07-11T17:12:54.000Z</time>
      </trkpt>
      <trkpt lat="45.738" lon="4.66662">
        <ele>426.90045166016</ele>
        <time>2013-07-11T17:12:56.000Z</time>
      </trkpt>
      <trkpt lat="45.73797" lon="4.66648">
        <ele>427.61752319336</ele>
        <time>2013-07-11T17:12:59.000Z</time>
      </trkpt>
      <trkpt lat="45.73793" lon="4.66641">
        <ele>428.29898071289</ele>
        <time>2013-07-11T17:13:01.000Z</time>
      </trkpt>
      <trkpt lat="45.7379" lon="4.66632">
        <ele>428.88662719727</ele>
        <time>2013-07-11T17:13:04.000Z</time>
      </trkpt>
      <trkpt lat="45.73785" lon="4.66625">
        <ele>429.36044311523</ele>
        <time>2013-07-11T17:13:07.000Z</time>
      </trkpt>
      <trkpt lat="45.73781" lon="4.6662">
        <ele>429.70288085938</ele>
        <time>2013-07-11T17:13:09.000Z</time>
      </trkpt>
      <trkpt lat="45.73778" lon="4.6661">
        <ele>429.95123291016</ele>
        <time>2013-07-11T17:13:12.000Z</time>
      </trkpt>
      <trkpt lat="45.73775" lon="4.66603">
        <ele>430.19512939453</ele>
        <time>2013-07-11T17:13:15.000Z</time>
      </trkpt>
      <trkpt lat="45.73774" lon="4.66598">
        <ele>430.40850830078</ele>
        <time>2013-07-11T17:13:17.000Z</time>
      </trkpt>
      <trkpt lat="45.73771" lon="4.66592">
        <ele>430.64404296875</ele>
        <time>2013-07-11T17:13:19.000Z</time>
      </trkpt>
      <trkpt lat="45.73768" lon="4.66585">
        <ele>430.88247680664</ele>
        <time>2013-07-11T17:13:21.000Z</time>
      </trkpt>
      <trkpt lat="45.73763" lon="4.66575">
        <ele>431.03500366211</ele>
        <time>2013-07-11T17:13:24.000Z</time>
      </trkpt>
      <trkpt lat="45.7375" lon="4.66545">
        <ele>431.13299560547</ele>
        <time>2013-07-11T17:13:29.000Z</time>
      </trkpt>
      <trkpt lat="45.73745" lon="4.6653">
        <ele>431.27679443359</ele>
        <time>2013-07-11T17:13:31.000Z</time>
      </trkpt>
      <trkpt lat="45.73745" lon="4.66524">
        <ele>431.45867919922</ele>
        <time>2013-07-11T17:13:33.000Z</time>
      </trkpt>
      <trkpt lat="45.73742" lon="4.66511">
        <ele>431.70101928711</ele>
        <time>2013-07-11T17:13:36.000Z</time>
      </trkpt>
      <trkpt lat="45.7374" lon="4.66505">
        <ele>431.97778320312</ele>
        <time>2013-07-11T17:13:38.000Z</time>
      </trkpt>
      <trkpt lat="45.73737" lon="4.66496">
        <ele>432.28936767578</ele>
        <time>2013-07-11T17:13:41.000Z</time>
      </trkpt>
      <trkpt lat="45.73734" lon="4.66488">
        <ele>432.55767822266</ele>
        <time>2013-07-11T17:13:44.000Z</time>
      </trkpt>
      <trkpt lat="45.7373" lon="4.66478">
        <ele>432.79534912109</ele>
        <time>2013-07-11T17:13:47.000Z</time>
      </trkpt>
      <trkpt lat="45.73727" lon="4.66472">
        <ele>432.97705078125</ele>
        <time>2013-07-11T17:13:49.000Z</time>
      </trkpt>
      <trkpt lat="45.73721" lon="4.66459">
        <ele>433.17315673828</ele>
        <time>2013-07-11T17:13:52.000Z</time>
      </trkpt>
      <trkpt lat="45.73719" lon="4.66451">
        <ele>433.37310791016</ele>
        <time>2013-07-11T17:13:54.000Z</time>
      </trkpt>
      <trkpt lat="45.73717" lon="4.66444">
        <ele>433.58267211914</ele>
        <time>2013-07-11T17:13:56.000Z</time>
      </trkpt>
      <trkpt lat="45.73714" lon="4.66433">
        <ele>433.83090209961</ele>
        <time>2013-07-11T17:13:59.000Z</time>
      </trkpt>
      <trkpt lat="45.73712" lon="4.66425">
        <ele>434.12664794922</ele>
        <time>2013-07-11T17:14:02.000Z</time>
      </trkpt>
      <trkpt lat="45.73712" lon="4.66414">
        <ele>434.51684570312</ele>
        <time>2013-07-11T17:14:05.000Z</time>
      </trkpt>
      <trkpt lat="45.73713" lon="4.66406">
        <ele>434.92977905273</ele>
        <time>2013-07-11T17:14:08.000Z</time>
      </trkpt>
      <trkpt lat="45.73716" lon="4.66396">
        <ele>435.44686889648</ele>
        <time>2013-07-11T17:14:10.000Z</time>
      </trkpt>
      <trkpt lat="45.7372" lon="4.66389">
        <ele>435.99990844727</ele>
        <time>2013-07-11T17:14:13.000Z</time>
      </trkpt>
      <trkpt lat="45.73724" lon="4.66387">
        <ele>436.56600952148</ele>
        <time>2013-07-11T17:14:15.000Z</time>
      </trkpt>
      <trkpt lat="45.73729" lon="4.66383">
        <ele>437.12826538086</ele>
        <time>2013-07-11T17:14:18.000Z</time>
      </trkpt>
      <trkpt lat="45.73734" lon="4.66381">
        <ele>437.71160888672</ele>
        <time>2013-07-11T17:14:20.000Z</time>
      </trkpt>
      <trkpt lat="45.73737" lon="4.66379">
        <ele>438.22549438477</ele>
        <time>2013-07-11T17:14:22.000Z</time>
      </trkpt>
      <trkpt lat="45.7374" lon="4.66376">
        <ele>438.69403076172</ele>
        <time>2013-07-11T17:14:25.000Z</time>
      </trkpt>
      <trkpt lat="45.73745" lon="4.66371">
        <ele>439.20220947266</ele>
        <time>2013-07-11T17:14:27.000Z</time>
      </trkpt>
      <trkpt lat="45.73748" lon="4.66368">
        <ele>439.65093994141</ele>
        <time>2013-07-11T17:14:29.000Z</time>
      </trkpt>
      <trkpt lat="45.73751" lon="4.66365">
        <ele>440.10028076172</ele>
        <time>2013-07-11T17:14:31.000Z</time>
      </trkpt>
      <trkpt lat="45.73754" lon="4.66361">
        <ele>440.56460571289</ele>
        <time>2013-07-11T17:14:33.000Z</time>
      </trkpt>
      <trkpt lat="45.73756" lon="4.66355">
        <ele>441.07275390625</ele>
        <time>2013-07-11T17:14:36.000Z</time>
      </trkpt>
      <trkpt lat="45.73758" lon="4.6635">
        <ele>441.54379272461</ele>
        <time>2013-07-11T17:14:38.000Z</time>
      </trkpt>
      <trkpt lat="45.73763" lon="4.66346">
        <ele>442.10491943359</ele>
        <time>2013-07-11T17:14:41.000Z</time>
      </trkpt>
      <trkpt lat="45.73768" lon="4.66342">
        <ele>442.75933837891</ele>
        <time>2013-07-11T17:14:44.000Z</time>
      </trkpt>
      <trkpt lat="45.73771" lon="4.66338">
        <ele>443.42172241211</ele>
        <time>2013-07-11T17:14:46.000Z</time>
      </trkpt>
      <trkpt lat="45.73773" lon="4.66334">
        <ele>444.06826782227</ele>
        <time>2013-07-11T17:14:48.000Z</time>
      </trkpt>
      <trkpt lat="45.73779" lon="4.66329">
        <ele>444.78036499023</ele>
        <time>2013-07-11T17:14:51.000Z</time>
      </trkpt>
      <trkpt lat="45.73783" lon="4.66327">
        <ele>445.44750976562</ele>
        <time>2013-07-11T17:14:53.000Z</time>
      </trkpt>
      <trkpt lat="45.73787" lon="4.66321">
        <ele>446.03994750977</ele>
        <time>2013-07-11T17:14:56.000Z</time>
      </trkpt>
      <trkpt lat="45.73789" lon="4.66317">
        <ele>446.60205078125</ele>
        <time>2013-07-11T17:14:58.000Z</time>
      </trkpt>
      <trkpt lat="45.73794" lon="4.66314">
        <ele>447.203125</ele>
        <time>2013-07-11T17:15:02.000Z</time>
      </trkpt>
      <trkpt lat="45.73799" lon="4.66315">
        <ele>447.7890625</ele>
        <time>2013-07-11T17:15:04.000Z</time>
      </trkpt>
      <trkpt lat="45.73805" lon="4.66316">
        <ele>448.4453125</ele>
        <time>2013-07-11T17:15:07.000Z</time>
      </trkpt>
      <trkpt lat="45.73808" lon="4.66315">
        <ele>449.06640625</ele>
        <time>2013-07-11T17:15:09.000Z</time>
      </trkpt>
      <trkpt lat="45.73814" lon="4.66317">
        <ele>449.76953125</ele>
        <time>2013-07-11T17:15:12.000Z</time>
      </trkpt>
      <trkpt lat="45.73819" lon="4.66319">
        <ele>450.49609375</ele>
        <time>2013-07-11T17:15:15.000Z</time>
      </trkpt>
      <trkpt lat="45.73832" lon="4.66311">
        <ele>451.43359375</ele>
        <time>2013-07-11T17:15:30.000Z</time>
      </trkpt>
      <trkpt lat="45.73829" lon="4.66303">
        <ele>452.125</ele>
        <time>2013-07-11T17:15:33.000Z</time>
      </trkpt>
      <trkpt lat="45.73829" lon="4.663">
        <ele>452.734375</ele>
        <time>2013-07-11T17:15:35.000Z</time>
      </trkpt>
      <trkpt lat="45.73829" lon="4.66299">
        <ele>453.16796875</ele>
        <time>2013-07-11T17:15:38.000Z</time>
      </trkpt>
      <trkpt lat="45.73848" lon="4.66291">
        <ele>453.75741577148</ele>
        <time>2013-07-11T17:17:11.000Z</time>
      </trkpt>
      <trkpt lat="45.73852" lon="4.6628">
        <ele>454.03924560547</ele>
        <time>2013-07-11T17:17:14.000Z</time>
      </trkpt>
      <trkpt lat="45.73855" lon="4.66274">
        <ele>454.41876220703</ele>
        <time>2013-07-11T17:17:16.000Z</time>
      </trkpt>
      <trkpt lat="45.73859" lon="4.66264">
        <ele>454.83731079102</ele>
        <time>2013-07-11T17:17:19.000Z</time>
      </trkpt>
      <trkpt lat="45.73861" lon="4.66257">
        <ele>455.3134765625</ele>
        <time>2013-07-11T17:17:22.000Z</time>
      </trkpt>
      <trkpt lat="45.73865" lon="4.66248">
        <ele>455.48135375977</ele>
        <time>2013-07-11T17:17:24.000Z</time>
      </trkpt>
      <trkpt lat="45.73867" lon="4.6623">
        <ele>455.41903686523</ele>
        <time>2013-07-11T17:17:27.000Z</time>
      </trkpt>
      <trkpt lat="45.73869" lon="4.66218">
        <ele>455.19384765625</ele>
        <time>2013-07-11T17:17:29.000Z</time>
      </trkpt>
      <trkpt lat="45.73874" lon="4.662">
        <ele>454.77822875977</ele>
        <time>2013-07-11T17:17:32.000Z</time>
      </trkpt>
      <trkpt lat="45.73876" lon="4.66193">
        <ele>454.27221679688</ele>
        <time>2013-07-11T17:17:34.000Z</time>
      </trkpt>
      <trkpt lat="45.73878" lon="4.66185">
        <ele>453.68936157227</ele>
        <time>2013-07-11T17:17:37.000Z</time>
      </trkpt>
      <trkpt lat="45.73879" lon="4.66178">
        <ele>453.21630859375</ele>
        <time>2013-07-11T17:17:39.000Z</time>
      </trkpt>
      <trkpt lat="45.73885" lon="4.66143">
        <ele>452.47564697266</ele>
        <time>2013-07-11T17:17:43.000Z</time>
      </trkpt>
      <trkpt lat="45.73892" lon="4.66128">
        <ele>451.77285766602</ele>
        <time>2013-07-11T17:17:45.000Z</time>
      </trkpt>
      <trkpt lat="45.73901" lon="4.661">
        <ele>450.8837890625</ele>
        <time>2013-07-11T17:17:48.000Z</time>
      </trkpt>
      <trkpt lat="45.73906" lon="4.66087">
        <ele>449.97085571289</ele>
        <time>2013-07-11T17:17:50.000Z</time>
      </trkpt>
      <trkpt lat="45.73905" lon="4.66075">
        <ele>448.92373657227</ele>
        <time>2013-07-11T17:17:53.000Z</time>
      </trkpt>
      <trkpt lat="45.73915" lon="4.66059">
        <ele>448.13140869141</ele>
        <time>2013-07-11T17:17:56.000Z</time>
      </trkpt>
      <trkpt lat="45.73928" lon="4.66042">
        <ele>447.43960571289</ele>
        <time>2013-07-11T17:17:59.000Z</time>
      </trkpt>
      <trkpt lat="45.73933" lon="4.66029">
        <ele>446.86904907227</ele>
        <time>2013-07-11T17:18:01.000Z</time>
      </trkpt>
      <trkpt lat="45.73949" lon="4.6601">
        <ele>446.44839477539</ele>
        <time>2013-07-11T17:18:04.000Z</time>
      </trkpt>
      <trkpt lat="45.73957" lon="4.65996">
        <ele>446.22637939453</ele>
        <time>2013-07-11T17:18:07.000Z</time>
      </trkpt>
      <trkpt lat="45.73966" lon="4.6597">
        <ele>446.02496337891</ele>
        <time>2013-07-11T17:18:09.000Z</time>
      </trkpt>
      <trkpt lat="45.73972" lon="4.65959">
        <ele>445.87640380859</ele>
        <time>2013-07-11T17:18:12.000Z</time>
      </trkpt>
      <trkpt lat="45.73981" lon="4.65946">
        <ele>445.95346069336</ele>
        <time>2013-07-11T17:18:14.000Z</time>
      </trkpt>
      <trkpt lat="45.73988" lon="4.65932">
        <ele>446.04486083984</ele>
        <time>2013-07-11T17:18:17.000Z</time>
      </trkpt>
      <trkpt lat="45.73991" lon="4.65923">
        <ele>446.16302490234</ele>
        <time>2013-07-11T17:18:19.000Z</time>
      </trkpt>
      <trkpt lat="45.73995" lon="4.65915">
        <ele>446.48040771484</ele>
        <time>2013-07-11T17:18:22.000Z</time>
      </trkpt>
      <trkpt lat="45.74001" lon="4.65902">
        <ele>447.015625</ele>
        <time>2013-07-11T17:18:24.000Z</time>
      </trkpt>
      <trkpt lat="45.74004" lon="4.65893">
        <ele>447.5712890625</ele>
        <time>2013-07-11T17:18:26.000Z</time>
      </trkpt>
      <trkpt lat="45.74005" lon="4.6588">
        <ele>448.15557861328</ele>
        <time>2013-07-11T17:18:29.000Z</time>
      </trkpt>
      <trkpt lat="45.74005" lon="4.65871">
        <ele>448.73086547852</ele>
        <time>2013-07-11T17:18:31.000Z</time>
      </trkpt>
      <trkpt lat="45.74004" lon="4.65863">
        <ele>449.19140625</ele>
        <time>2013-07-11T17:18:34.000Z</time>
      </trkpt>
      <trkpt lat="45.74" lon="4.65843">
        <ele>449.29931640625</ele>
        <time>2013-07-11T17:18:36.000Z</time>
      </trkpt>
      <trkpt lat="45.74004" lon="4.65828">
        <ele>449.44586181641</ele>
        <time>2013-07-11T17:18:39.000Z</time>
      </trkpt>
      <trkpt lat="45.74" lon="4.65815">
        <ele>449.24102783203</ele>
        <time>2013-07-11T17:18:42.000Z</time>
      </trkpt>
      <trkpt lat="45.73999" lon="4.65797">
        <ele>448.91015625</ele>
        <time>2013-07-11T17:18:44.000Z</time>
      </trkpt>
      <trkpt lat="45.73999" lon="4.65781">
        <ele>448.53726196289</ele>
        <time>2013-07-11T17:18:48.000Z</time>
      </trkpt>
      <trkpt lat="45.74009" lon="4.6577">
        <ele>448.59716796875</ele>
        <time>2013-07-11T17:18:50.000Z</time>
      </trkpt>
      <trkpt lat="45.74028" lon="4.65755">
        <ele>449.23233032227</ele>
        <time>2013-07-11T17:18:53.000Z</time>
      </trkpt>
      <trkpt lat="45.74038" lon="4.65743">
        <ele>450.37075805664</ele>
        <time>2013-07-11T17:18:56.000Z</time>
      </trkpt>
      <trkpt lat="45.74044" lon="4.65732">
        <ele>451.71646118164</ele>
        <time>2013-07-11T17:18:59.000Z</time>
      </trkpt>
      <trkpt lat="45.74049" lon="4.65724">
        <ele>453.17358398438</ele>
        <time>2013-07-11T17:19:02.000Z</time>
      </trkpt>
      <trkpt lat="45.74056" lon="4.65712">
        <ele>454.38760375977</ele>
        <time>2013-07-11T17:19:04.000Z</time>
      </trkpt>
      <trkpt lat="45.74063" lon="4.65701">
        <ele>454.92611694336</ele>
        <time>2013-07-11T17:19:07.000Z</time>
      </trkpt>
      <trkpt lat="45.74066" lon="4.65694">
        <ele>455.19970703125</ele>
        <time>2013-07-11T17:19:09.000Z</time>
      </trkpt>
      <trkpt lat="45.74069" lon="4.65689">
        <ele>455.38702392578</ele>
        <time>2013-07-11T17:19:11.000Z</time>
      </trkpt>
      <trkpt lat="45.74072" lon="4.65686">
        <ele>455.57769775391</ele>
        <time>2013-07-11T17:19:13.000Z</time>
      </trkpt>
      <trkpt lat="45.74075" lon="4.65676">
        <ele>455.615234375</ele>
        <time>2013-07-11T17:19:16.000Z</time>
      </trkpt>
      <trkpt lat="45.74075" lon="4.65666">
        <ele>455.39581298828</ele>
        <time>2013-07-11T17:19:18.000Z</time>
      </trkpt>
      <trkpt lat="45.74074" lon="4.65649">
        <ele>455.08456420898</ele>
        <time>2013-07-11T17:19:21.000Z</time>
      </trkpt>
      <trkpt lat="45.74072" lon="4.65635">
        <ele>454.63250732422</ele>
        <time>2013-07-11T17:19:23.000Z</time>
      </trkpt>
      <trkpt lat="45.74069" lon="4.65619">
        <ele>453.94647216797</ele>
        <time>2013-07-11T17:19:26.000Z</time>
      </trkpt>
      <trkpt lat="45.74066" lon="4.65608">
        <ele>453.1611328125</ele>
        <time>2013-07-11T17:19:29.000Z</time>
      </trkpt>
      <trkpt lat="45.74068" lon="4.65601">
        <ele>452.59112548828</ele>
        <time>2013-07-11T17:19:31.000Z</time>
      </trkpt>
      <trkpt lat="45.7407" lon="4.65595">
        <ele>452.14593505859</ele>
        <time>2013-07-11T17:19:33.000Z</time>
      </trkpt>
      <trkpt lat="45.74075" lon="4.65588">
        <ele>451.99273681641</ele>
        <time>2013-07-11T17:19:36.000Z</time>
      </trkpt>
      <trkpt lat="45.74078" lon="4.65584">
        <ele>452.12979125977</ele>
        <time>2013-07-11T17:19:38.000Z</time>
      </trkpt>
      <trkpt lat="45.74082" lon="4.65578">
        <ele>452.51556396484</ele>
        <time>2013-07-11T17:19:41.000Z</time>
      </trkpt>
      <trkpt lat="45.74083" lon="4.65569">
        <ele>452.82299804688</ele>
        <time>2013-07-11T17:19:44.000Z</time>
      </trkpt>
      <trkpt lat="45.74083" lon="4.65559">
        <ele>453.00253295898</ele>
        <time>2013-07-11T17:19:46.000Z</time>
      </trkpt>
      <trkpt lat="45.74083" lon="4.65551">
        <ele>452.96133422852</ele>
        <time>2013-07-11T17:19:48.000Z</time>
      </trkpt>
      <trkpt lat="45.74087" lon="4.65539">
        <ele>452.79898071289</ele>
        <time>2013-07-11T17:19:51.000Z</time>
      </trkpt>
      <trkpt lat="45.74093" lon="4.65531">
        <ele>452.58731079102</ele>
        <time>2013-07-11T17:19:54.000Z</time>
      </trkpt>
      <trkpt lat="45.74099" lon="4.65527">
        <ele>452.50640869141</ele>
        <time>2013-07-11T17:19:56.000Z</time>
      </trkpt>
      <trkpt lat="45.74112" lon="4.65523">
        <ele>452.75805664062</ele>
        <time>2013-07-11T17:19:59.000Z</time>
      </trkpt>
      <trkpt lat="45.7412" lon="4.65515">
        <ele>453.1611328125</ele>
        <time>2013-07-11T17:20:02.000Z</time>
      </trkpt>
      <trkpt lat="45.74126" lon="4.6551">
        <ele>453.63720703125</ele>
        <time>2013-07-11T17:20:04.000Z</time>
      </trkpt>
      <trkpt lat="45.74135" lon="4.655">
        <ele>454.14120483398</ele>
        <time>2013-07-11T17:20:07.000Z</time>
      </trkpt>
      <trkpt lat="45.74146" lon="4.65488">
        <ele>454.50225830078</ele>
        <time>2013-07-11T17:20:10.000Z</time>
      </trkpt>
      <trkpt lat="45.74157" lon="4.65474">
        <ele>454.56170654297</ele>
        <time>2013-07-11T17:20:12.000Z</time>
      </trkpt>
      <trkpt lat="45.74166" lon="4.65467">
        <ele>454.57916259766</ele>
        <time>2013-07-11T17:20:14.000Z</time>
      </trkpt>
      <trkpt lat="45.74173" lon="4.65462">
        <ele>454.5849609375</ele>
        <time>2013-07-11T17:20:17.000Z</time>
      </trkpt>
      <trkpt lat="45.74178" lon="4.65449">
        <ele>454.36776733398</ele>
        <time>2013-07-11T17:20:20.000Z</time>
      </trkpt>
      <trkpt lat="45.7419" lon="4.65435">
        <ele>454.24227905273</ele>
        <time>2013-07-11T17:20:22.000Z</time>
      </trkpt>
      <trkpt lat="45.742" lon="4.65425">
        <ele>454.22967529297</ele>
        <time>2013-07-11T17:20:25.000Z</time>
      </trkpt>
      <trkpt lat="45.74211" lon="4.65417">
        <ele>454.3037109375</ele>
        <time>2013-07-11T17:20:28.000Z</time>
      </trkpt>
      <trkpt lat="45.74217" lon="4.65412">
        <ele>454.42617797852</ele>
        <time>2013-07-11T17:20:30.000Z</time>
      </trkpt>
      <trkpt lat="45.74225" lon="4.65402">
        <ele>454.73602294922</ele>
        <time>2013-07-11T17:20:33.000Z</time>
      </trkpt>
      <trkpt lat="45.74231" lon="4.65389">
        <ele>454.97235107422</ele>
        <time>2013-07-11T17:20:36.000Z</time>
      </trkpt>
      <trkpt lat="45.74235" lon="4.6538">
        <ele>455.12777709961</ele>
        <time>2013-07-11T17:20:38.000Z</time>
      </trkpt>
      <trkpt lat="45.7424" lon="4.65373">
        <ele>455.16064453125</ele>
        <time>2013-07-11T17:20:40.000Z</time>
      </trkpt>
      <trkpt lat="45.74245" lon="4.65366">
        <ele>455.11270141602</ele>
        <time>2013-07-11T17:20:42.000Z</time>
      </trkpt>
      <trkpt lat="45.74251" lon="4.65354">
        <ele>454.99032592773</ele>
        <time>2013-07-11T17:20:45.000Z</time>
      </trkpt>
      <trkpt lat="45.74258" lon="4.6534">
        <ele>454.85296630859</ele>
        <time>2013-07-11T17:20:48.000Z</time>
      </trkpt>
      <trkpt lat="45.74263" lon="4.65326">
        <ele>454.65087890625</ele>
        <time>2013-07-11T17:20:51.000Z</time>
      </trkpt>
      <trkpt lat="45.74274" lon="4.65316">
        <ele>454.58056640625</ele>
        <time>2013-07-11T17:20:53.000Z</time>
      </trkpt>
      <trkpt lat="45.74287" lon="4.65304">
        <ele>454.65191650391</ele>
        <time>2013-07-11T17:20:56.000Z</time>
      </trkpt>
      <trkpt lat="45.74298" lon="4.65302">
        <ele>455.03164672852</ele>
        <time>2013-07-11T17:20:58.000Z</time>
      </trkpt>
      <trkpt lat="45.74305" lon="4.65298">
        <ele>455.62841796875</ele>
        <time>2013-07-11T17:21:00.000Z</time>
      </trkpt>
      <trkpt lat="45.74313" lon="4.65296">
        <ele>456.52767944336</ele>
        <time>2013-07-11T17:21:03.000Z</time>
      </trkpt>
      <trkpt lat="45.74324" lon="4.65296">
        <ele>457.57830810547</ele>
        <time>2013-07-11T17:21:06.000Z</time>
      </trkpt>
      <trkpt lat="45.74335" lon="4.65299">
        <ele>458.83636474609</ele>
        <time>2013-07-11T17:21:08.000Z</time>
      </trkpt>
      <trkpt lat="45.74343" lon="4.65302">
        <ele>460.11401367188</ele>
        <time>2013-07-11T17:21:11.000Z</time>
      </trkpt>
      <trkpt lat="45.74349" lon="4.65305">
        <ele>461.48614501953</ele>
        <time>2013-07-11T17:21:13.000Z</time>
      </trkpt>
      <trkpt lat="45.74354" lon="4.65305">
        <ele>462.83032226562</ele>
        <time>2013-07-11T17:21:16.000Z</time>
      </trkpt>
      <trkpt lat="45.74356" lon="4.65305">
        <ele>463.94940185547</ele>
        <time>2013-07-11T17:21:18.000Z</time>
      </trkpt>
      <trkpt lat="45.74363" lon="4.65303">
        <ele>464.91131591797</ele>
        <time>2013-07-11T17:21:21.000Z</time>
      </trkpt>
      <trkpt lat="45.74367" lon="4.65301">
        <ele>465.73690795898</ele>
        <time>2013-07-11T17:21:24.000Z</time>
      </trkpt>
      <trkpt lat="45.74375" lon="4.65297">
        <ele>466.54144287109</ele>
        <time>2013-07-11T17:21:26.000Z</time>
      </trkpt>
      <trkpt lat="45.74382" lon="4.65292">
        <ele>467.3994140625</ele>
        <time>2013-07-11T17:21:29.000Z</time>
      </trkpt>
      <trkpt lat="45.74388" lon="4.65287">
        <ele>468.37002563477</ele>
        <time>2013-07-11T17:21:32.000Z</time>
      </trkpt>
      <trkpt lat="45.74392" lon="4.65283">
        <ele>469.29534912109</ele>
        <time>2013-07-11T17:21:35.000Z</time>
      </trkpt>
      <trkpt lat="45.74396" lon="4.6528">
        <ele>470.18930053711</ele>
        <time>2013-07-11T17:21:37.000Z</time>
      </trkpt>
      <trkpt lat="45.744" lon="4.65279">
        <ele>470.99966430664</ele>
        <time>2013-07-11T17:21:39.000Z</time>
      </trkpt>
      <trkpt lat="45.74404" lon="4.65277">
        <ele>471.71264648438</ele>
        <time>2013-07-11T17:21:41.000Z</time>
      </trkpt>
      <trkpt lat="45.74406" lon="4.65272">
        <ele>472.29168701172</ele>
        <time>2013-07-11T17:21:44.000Z</time>
      </trkpt>
      <trkpt lat="45.74409" lon="4.65267">
        <ele>472.85049438477</ele>
        <time>2013-07-11T17:21:46.000Z</time>
      </trkpt>
      <trkpt lat="45.74411" lon="4.65262">
        <ele>473.32064819336</ele>
        <time>2013-07-11T17:21:49.000Z</time>
      </trkpt>
      <trkpt lat="45.74411" lon="4.65254">
        <ele>473.62701416016</ele>
        <time>2013-07-11T17:21:52.000Z</time>
      </trkpt>
      <trkpt lat="45.7441" lon="4.65247">
        <ele>473.83868408203</ele>
        <time>2013-07-11T17:21:54.000Z</time>
      </trkpt>
      <trkpt lat="45.74409" lon="4.65243">
        <ele>474.01626586914</ele>
        <time>2013-07-11T17:21:56.000Z</time>
      </trkpt>
      <trkpt lat="45.74405" lon="4.65235">
        <ele>474.05883789062</ele>
        <time>2013-07-11T17:21:59.000Z</time>
      </trkpt>
      <trkpt lat="45.74403" lon="4.65229">
        <ele>474.08749389648</ele>
        <time>2013-07-11T17:22:02.000Z</time>
      </trkpt>
      <trkpt lat="45.744" lon="4.65221">
        <ele>474.14349365234</ele>
        <time>2013-07-11T17:22:05.000Z</time>
      </trkpt>
      <trkpt lat="45.74395" lon="4.65213">
        <ele>474.10391235352</ele>
        <time>2013-07-11T17:22:07.000Z</time>
      </trkpt>
      <trkpt lat="45.74392" lon="4.65208">
        <ele>474.04525756836</ele>
        <time>2013-07-11T17:22:09.000Z</time>
      </trkpt>
      <trkpt lat="45.74388" lon="4.65199">
        <ele>473.92919921875</ele>
        <time>2013-07-11T17:22:12.000Z</time>
      </trkpt>
      <trkpt lat="45.74385" lon="4.65191">
        <ele>473.79949951172</ele>
        <time>2013-07-11T17:22:15.000Z</time>
      </trkpt>
      <trkpt lat="45.74383" lon="4.65185">
        <ele>473.66168212891</ele>
        <time>2013-07-11T17:22:17.000Z</time>
      </trkpt>
      <trkpt lat="45.74382" lon="4.6518">
        <ele>473.58795166016</ele>
        <time>2013-07-11T17:22:20.000Z</time>
      </trkpt>
      <trkpt lat="45.7438" lon="4.65173">
        <ele>473.58648681641</ele>
        <time>2013-07-11T17:22:23.000Z</time>
      </trkpt>
      <trkpt lat="45.74379" lon="4.65165">
        <ele>473.71182250977</ele>
        <time>2013-07-11T17:22:25.000Z</time>
      </trkpt>
      <trkpt lat="45.7438" lon="4.65159">
        <ele>473.962890625</ele>
        <time>2013-07-11T17:22:27.000Z</time>
      </trkpt>
      <trkpt lat="45.74382" lon="4.65153">
        <ele>474.40869140625</ele>
        <time>2013-07-11T17:22:30.000Z</time>
      </trkpt>
      <trkpt lat="45.74383" lon="4.65147">
        <ele>475.00164794922</ele>
        <time>2013-07-11T17:22:33.000Z</time>
      </trkpt>
      <trkpt lat="45.74384" lon="4.65143">
        <ele>475.64706420898</ele>
        <time>2013-07-11T17:22:36.000Z</time>
      </trkpt>
      <trkpt lat="45.74384" lon="4.65139">
        <ele>476.28662109375</ele>
        <time>2013-07-11T17:22:39.000Z</time>
      </trkpt>
      <trkpt lat="45.74381" lon="4.65134">
        <ele>476.76992797852</ele>
        <time>2013-07-11T17:22:40.000Z</time>
      </trkpt>
      <trkpt lat="45.74377" lon="4.65125">
        <ele>477.04370117188</ele>
        <time>2013-07-11T17:22:44.000Z</time>
      </trkpt>
      <trkpt lat="45.74376" lon="4.65115">
        <ele>477.23901367188</ele>
        <time>2013-07-11T17:22:46.000Z</time>
      </trkpt>
      <trkpt lat="45.74376" lon="4.65108">
        <ele>477.47274780273</ele>
        <time>2013-07-11T17:22:49.000Z</time>
      </trkpt>
      <trkpt lat="45.74377" lon="4.65103">
        <ele>477.76522827148</ele>
        <time>2013-07-11T17:22:51.000Z</time>
      </trkpt>
      <trkpt lat="45.74378" lon="4.65098">
        <ele>478.21395874023</ele>
        <time>2013-07-11T17:22:54.000Z</time>
      </trkpt>
      <trkpt lat="45.74377" lon="4.65094">
        <ele>478.681640625</ele>
        <time>2013-07-11T17:23:01.000Z</time>
      </trkpt>
      <trkpt lat="45.74378" lon="4.65094">
        <ele>479.16528320312</ele>
        <time>2013-07-11T17:23:03.000Z</time>
      </trkpt>
      <trkpt lat="45.7437" lon="4.6508">
        <ele>479.32675170898</ele>
        <time>2013-07-11T17:24:18.000Z</time>
      </trkpt>
      <trkpt lat="45.74364" lon="4.65068">
        <ele>479.31549072266</ele>
        <time>2013-07-11T17:24:21.000Z</time>
      </trkpt>
      <trkpt lat="45.7436" lon="4.65061">
        <ele>479.14486694336</ele>
        <time>2013-07-11T17:24:24.000Z</time>
      </trkpt>
      <trkpt lat="45.74355" lon="4.65049">
        <ele>479.02081298828</ele>
        <time>2013-07-11T17:24:26.000Z</time>
      </trkpt>
      <trkpt lat="45.74353" lon="4.65042">
        <ele>478.87280273438</ele>
        <time>2013-07-11T17:24:28.000Z</time>
      </trkpt>
      <trkpt lat="45.74352" lon="4.65034">
        <ele>479.04736328125</ele>
        <time>2013-07-11T17:24:31.000Z</time>
      </trkpt>
      <trkpt lat="45.74353" lon="4.65028">
        <ele>479.44317626953</ele>
        <time>2013-07-11T17:24:33.000Z</time>
      </trkpt>
      <trkpt lat="45.74356" lon="4.65021">
        <ele>480.13330078125</ele>
        <time>2013-07-11T17:24:36.000Z</time>
      </trkpt>
      <trkpt lat="45.7436" lon="4.65014">
        <ele>481.04434204102</ele>
        <time>2013-07-11T17:24:39.000Z</time>
      </trkpt>
      <trkpt lat="45.74361" lon="4.65009">
        <ele>482.02798461914</ele>
        <time>2013-07-11T17:24:42.000Z</time>
      </trkpt>
      <trkpt lat="45.7436" lon="4.65009">
        <ele>482.82192993164</ele>
        <time>2013-07-11T17:24:45.000Z</time>
      </trkpt>
      <trkpt lat="45.7436" lon="4.65011">
        <ele>483.42105102539</ele>
        <time>2013-07-11T17:24:48.000Z</time>
      </trkpt>
      <trkpt lat="45.74361" lon="4.6501">
        <ele>483.80450439453</ele>
        <time>2013-07-11T17:24:51.000Z</time>
      </trkpt>
      <trkpt lat="45.74362" lon="4.65006">
        <ele>484.03848266602</ele>
        <time>2013-07-11T17:24:55.000Z</time>
      </trkpt>
      <trkpt lat="45.74361" lon="4.65001">
        <ele>484.22747802734</ele>
        <time>2013-07-11T17:24:57.000Z</time>
      </trkpt>
      <trkpt lat="45.74362" lon="4.64997">
        <ele>484.56674194336</ele>
        <time>2013-07-11T17:25:00.000Z</time>
      </trkpt>
      <trkpt lat="45.74362" lon="4.64995">
        <ele>485.01083374023</ele>
        <time>2013-07-11T17:25:03.000Z</time>
      </trkpt>
      <trkpt lat="45.74362" lon="4.64993">
        <ele>485.45684814453</ele>
        <time>2013-07-11T17:25:06.000Z</time>
      </trkpt>
      <trkpt lat="45.74363" lon="4.6499">
        <ele>485.87115478516</ele>
        <time>2013-07-11T17:25:08.000Z</time>
      </trkpt>
      <trkpt lat="45.74363" lon="4.64989">
        <ele>486.26864624023</ele>
        <time>2013-07-11T17:25:10.000Z</time>
      </trkpt>
      <trkpt lat="45.74364" lon="4.64988">
        <ele>486.60537719727</ele>
        <time>2013-07-11T17:25:13.000Z</time>
      </trkpt>
      <trkpt lat="45.74364" lon="4.64985">
        <ele>486.96118164062</ele>
        <time>2013-07-11T17:25:16.000Z</time>
      </trkpt>
      <trkpt lat="45.74364" lon="4.64982">
        <ele>487.37152099609</ele>
        <time>2013-07-11T17:25:18.000Z</time>
      </trkpt>
      <trkpt lat="45.74365" lon="4.64977">
        <ele>487.83853149414</ele>
        <time>2013-07-11T17:25:21.000Z</time>
      </trkpt>
      <trkpt lat="45.74366" lon="4.64975">
        <ele>488.32968139648</ele>
        <time>2013-07-11T17:25:24.000Z</time>
      </trkpt>
      <trkpt lat="45.74365" lon="4.6497">
        <ele>488.88778686523</ele>
        <time>2013-07-11T17:25:27.000Z</time>
      </trkpt>
      <trkpt lat="45.74364" lon="4.64966">
        <ele>489.451171875</ele>
        <time>2013-07-11T17:25:30.000Z</time>
      </trkpt>
      <trkpt lat="45.74365" lon="4.64963">
        <ele>490.00775146484</ele>
        <time>2013-07-11T17:25:33.000Z</time>
      </trkpt>
      <trkpt lat="45.74365" lon="4.64962">
        <ele>490.45904541016</ele>
        <time>2013-07-11T17:25:36.000Z</time>
      </trkpt>
      <trkpt lat="45.74368" lon="4.64962">
        <ele>490.89312744141</ele>
        <time>2013-07-11T17:25:40.000Z</time>
      </trkpt>
      <trkpt lat="45.74368" lon="4.64959">
        <ele>491.30111694336</ele>
        <time>2013-07-11T17:25:43.000Z</time>
      </trkpt>
      <trkpt lat="45.74368" lon="4.64956">
        <ele>491.68292236328</ele>
        <time>2013-07-11T17:25:45.000Z</time>
      </trkpt>
      <trkpt lat="45.74368" lon="4.64954">
        <ele>492.05239868164</ele>
        <time>2013-07-11T17:25:47.000Z</time>
      </trkpt>
      <trkpt lat="45.74369" lon="4.64952">
        <ele>492.43789672852</ele>
        <time>2013-07-11T17:25:49.000Z</time>
      </trkpt>
      <trkpt lat="45.74369" lon="4.64949">
        <ele>492.83535766602</ele>
        <time>2013-07-11T17:25:52.000Z</time>
      </trkpt>
      <trkpt lat="45.7437" lon="4.64947">
        <ele>493.22006225586</ele>
        <time>2013-07-11T17:25:55.000Z</time>
      </trkpt>
      <trkpt lat="45.7437" lon="4.64945">
        <ele>493.59701538086</ele>
        <time>2013-07-11T17:25:57.000Z</time>
      </trkpt>
      <trkpt lat="45.74371" lon="4.64942">
        <ele>493.99520874023</ele>
        <time>2013-07-11T17:26:01.000Z</time>
      </trkpt>
      <trkpt lat="45.74372" lon="4.6494">
        <ele>494.42562866211</ele>
        <time>2013-07-11T17:26:04.000Z</time>
      </trkpt>
      <trkpt lat="45.74372" lon="4.64938">
        <ele>494.83227539062</ele>
        <time>2013-07-11T17:26:06.000Z</time>
      </trkpt>
      <trkpt lat="45.74371" lon="4.64935">
        <ele>495.22177124023</ele>
        <time>2013-07-11T17:26:08.000Z</time>
      </trkpt>
      <trkpt lat="45.74369" lon="4.64931">
        <ele>495.61148071289</ele>
        <time>2013-07-11T17:26:10.000Z</time>
      </trkpt>
      <trkpt lat="45.74369" lon="4.64929">
        <ele>495.95428466797</ele>
        <time>2013-07-11T17:26:12.000Z</time>
      </trkpt>
      <trkpt lat="45.74372" lon="4.64927">
        <ele>496.33416748047</ele>
        <time>2013-07-11T17:26:16.000Z</time>
      </trkpt>
      <trkpt lat="45.74372" lon="4.64924">
        <ele>496.72442626953</ele>
        <time>2013-07-11T17:26:19.000Z</time>
      </trkpt>
      <trkpt lat="45.74371" lon="4.64921">
        <ele>497.12490844727</ele>
        <time>2013-07-11T17:26:21.000Z</time>
      </trkpt>
      <trkpt lat="45.74371" lon="4.64918">
        <ele>497.52862548828</ele>
        <time>2013-07-11T17:26:24.000Z</time>
      </trkpt>
      <trkpt lat="45.74369" lon="4.64915">
        <ele>497.94619750977</ele>
        <time>2013-07-11T17:26:26.000Z</time>
      </trkpt>
      <trkpt lat="45.74369" lon="4.64911">
        <ele>498.3203125</ele>
        <time>2013-07-11T17:26:28.000Z</time>
      </trkpt>
      <trkpt lat="45.74369" lon="4.64907">
        <ele>498.70904541016</ele>
        <time>2013-07-11T17:26:30.000Z</time>
      </trkpt>
      <trkpt lat="45.74368" lon="4.64906">
        <ele>499.06045532227</ele>
        <time>2013-07-11T17:26:33.000Z</time>
      </trkpt>
      <trkpt lat="45.74369" lon="4.64903">
        <ele>499.40948486328</ele>
        <time>2013-07-11T17:26:35.000Z</time>
      </trkpt>
      <trkpt lat="45.74368" lon="4.64901">
        <ele>499.73876953125</ele>
        <time>2013-07-11T17:26:37.000Z</time>
      </trkpt>
      <trkpt lat="45.74368" lon="4.64898">
        <ele>500.05770874023</ele>
        <time>2013-07-11T17:26:40.000Z</time>
      </trkpt>
      <trkpt lat="45.74367" lon="4.64896">
        <ele>500.32318115234</ele>
        <time>2013-07-11T17:26:42.000Z</time>
      </trkpt>
      <trkpt lat="45.74366" lon="4.64893">
        <ele>500.58340454102</ele>
        <time>2013-07-11T17:26:44.000Z</time>
      </trkpt>
      <trkpt lat="45.74366" lon="4.64889">
        <ele>500.88061523438</ele>
        <time>2013-07-11T17:26:47.000Z</time>
      </trkpt>
      <trkpt lat="45.74366" lon="4.64888">
        <ele>501.15869140625</ele>
        <time>2013-07-11T17:26:49.000Z</time>
      </trkpt>
      <trkpt lat="45.74367" lon="4.64877">
        <ele>501.65460205078</ele>
        <time>2013-07-11T17:27:12.000Z</time>
      </trkpt>
      <trkpt lat="45.74366" lon="4.64874">
        <ele>502.18466186523</ele>
        <time>2013-07-11T17:27:16.000Z</time>
      </trkpt>
      <trkpt lat="45.74367" lon="4.6487">
        <ele>502.79306030273</ele>
        <time>2013-07-11T17:27:18.000Z</time>
      </trkpt>
      <trkpt lat="45.74366" lon="4.64867">
        <ele>503.36724853516</ele>
        <time>2013-07-11T17:27:20.000Z</time>
      </trkpt>
      <trkpt lat="45.74365" lon="4.64861">
        <ele>504.02017211914</ele>
        <time>2013-07-11T17:27:23.000Z</time>
      </trkpt>
      <trkpt lat="45.74364" lon="4.64858">
        <ele>504.45223999023</ele>
        <time>2013-07-11T17:27:25.000Z</time>
      </trkpt>
      <trkpt lat="45.74364" lon="4.64853">
        <ele>504.92352294922</ele>
        <time>2013-07-11T17:27:27.000Z</time>
      </trkpt>
      <trkpt lat="45.74364" lon="4.6485">
        <ele>505.36749267578</ele>
        <time>2013-07-11T17:27:30.000Z</time>
      </trkpt>
      <trkpt lat="45.74363" lon="4.64847">
        <ele>505.79116821289</ele>
        <time>2013-07-11T17:27:32.000Z</time>
      </trkpt>
      <trkpt lat="45.74363" lon="4.64845">
        <ele>506.13739013672</ele>
        <time>2013-07-11T17:27:35.000Z</time>
      </trkpt>
      <trkpt lat="45.74362" lon="4.64841">
        <ele>506.51065063477</ele>
        <time>2013-07-11T17:27:37.000Z</time>
      </trkpt>
      <trkpt lat="45.74362" lon="4.64838">
        <ele>506.85327148438</ele>
        <time>2013-07-11T17:27:40.000Z</time>
      </trkpt>
      <trkpt lat="45.74361" lon="4.6483">
        <ele>507.232421875</ele>
        <time>2013-07-11T17:28:28.000Z</time>
      </trkpt>
      <trkpt lat="45.74361" lon="4.64826">
        <ele>507.60955810547</ele>
        <time>2013-07-11T17:28:30.000Z</time>
      </trkpt>
      <trkpt lat="45.7436" lon="4.64819">
        <ele>508.00723266602</ele>
        <time>2013-07-11T17:28:33.000Z</time>
      </trkpt>
      <trkpt lat="45.7436" lon="4.64812">
        <ele>508.3896484375</ele>
        <time>2013-07-11T17:28:36.000Z</time>
      </trkpt>
      <trkpt lat="45.7436" lon="4.64806">
        <ele>508.77227783203</ele>
        <time>2013-07-11T17:28:39.000Z</time>
      </trkpt>
      <trkpt lat="45.74359" lon="4.648">
        <ele>509.08563232422</ele>
        <time>2013-07-11T17:28:42.000Z</time>
      </trkpt>
      <trkpt lat="45.74359" lon="4.64798">
        <ele>509.38092041016</ele>
        <time>2013-07-11T17:28:45.000Z</time>
      </trkpt>
      <trkpt lat="45.74361" lon="4.64796">
        <ele>509.68466186523</ele>
        <time>2013-07-11T17:28:47.000Z</time>
      </trkpt>
      <trkpt lat="45.74365" lon="4.64793">
        <ele>510.05194091797</ele>
        <time>2013-07-11T17:28:49.000Z</time>
      </trkpt>
      <trkpt lat="45.74368" lon="4.6479">
        <ele>510.43710327148</ele>
        <time>2013-07-11T17:28:54.000Z</time>
      </trkpt>
      <trkpt lat="45.74369" lon="4.64784">
        <ele>510.86712646484</ele>
        <time>2013-07-11T17:28:56.000Z</time>
      </trkpt>
      <trkpt lat="45.74369" lon="4.64781">
        <ele>511.33526611328</ele>
        <time>2013-07-11T17:28:58.000Z</time>
      </trkpt>
      <trkpt lat="45.74372" lon="4.64773">
        <ele>511.89617919922</ele>
        <time>2013-07-11T17:29:01.000Z</time>
      </trkpt>
      <trkpt lat="45.74373" lon="4.64769">
        <ele>512.41967773438</ele>
        <time>2013-07-11T17:29:03.000Z</time>
      </trkpt>
      <trkpt lat="45.74377" lon="4.64764">
        <ele>512.99450683594</ele>
        <time>2013-07-11T17:29:07.000Z</time>
      </trkpt>
      <trkpt lat="45.74378" lon="4.64759">
        <ele>513.57604980469</ele>
        <time>2013-07-11T17:29:09.000Z</time>
      </trkpt>
      <trkpt lat="45.74378" lon="4.64753">
        <ele>514.18444824219</ele>
        <time>2013-07-11T17:29:11.000Z</time>
      </trkpt>
      <trkpt lat="45.74378" lon="4.64744">
        <ele>514.65759277344</ele>
        <time>2013-07-11T17:29:14.000Z</time>
      </trkpt>
      <trkpt lat="45.74377" lon="4.64738">
        <ele>515.00885009766</ele>
        <time>2013-07-11T17:29:16.000Z</time>
      </trkpt>
      <trkpt lat="45.74379" lon="4.64732">
        <ele>515.25689697266</ele>
        <time>2013-07-11T17:29:19.000Z</time>
      </trkpt>
      <trkpt lat="45.74381" lon="4.64731">
        <ele>515.45544433594</ele>
        <time>2013-07-11T17:29:21.000Z</time>
      </trkpt>
      <trkpt lat="45.74378" lon="4.64757">
        <ele>515.39190673828</ele>
        <time>2013-07-11T17:29:50.000Z</time>
      </trkpt>
      <trkpt lat="45.74376" lon="4.64756">
        <ele>515.26544189453</ele>
        <time>2013-07-11T17:29:52.000Z</time>
      </trkpt>
      <trkpt lat="45.74374" lon="4.64748">
        <ele>515.16662597656</ele>
        <time>2013-07-11T17:29:55.000Z</time>
      </trkpt>
      <trkpt lat="45.74375" lon="4.64742">
        <ele>515.03851318359</ele>
        <time>2013-07-11T17:29:57.000Z</time>
      </trkpt>
      <trkpt lat="45.74378" lon="4.64738">
        <ele>514.95397949219</ele>
        <time>2013-07-11T17:29:59.000Z</time>
      </trkpt>
      <trkpt lat="45.74381" lon="4.64735">
        <ele>515.13409423828</ele>
        <time>2013-07-11T17:30:01.000Z</time>
      </trkpt>
      <trkpt lat="45.74383" lon="4.64735">
        <ele>515.41687011719</ele>
        <time>2013-07-11T17:30:04.000Z</time>
      </trkpt>
      <trkpt lat="45.74388" lon="4.64735">
        <ele>515.82781982422</ele>
        <time>2013-07-11T17:30:09.000Z</time>
      </trkpt>
      <trkpt lat="45.7439" lon="4.64733">
        <ele>516.31213378906</ele>
        <time>2013-07-11T17:30:10.000Z</time>
      </trkpt>
      <trkpt lat="45.74394" lon="4.6473">
        <ele>516.80902099609</ele>
        <time>2013-07-11T17:30:13.000Z</time>
      </trkpt>
      <trkpt lat="45.74397" lon="4.64728">
        <ele>517.31475830078</ele>
        <time>2013-07-11T17:30:15.000Z</time>
      </trkpt>
      <trkpt lat="45.744" lon="4.64725">
        <ele>517.85412597656</ele>
        <time>2013-07-11T17:30:18.000Z</time>
      </trkpt>
      <trkpt lat="45.74404" lon="4.64723">
        <ele>518.40734863281</ele>
        <time>2013-07-11T17:30:20.000Z</time>
      </trkpt>
      <trkpt lat="45.74406" lon="4.64721">
        <ele>518.94299316406</ele>
        <time>2013-07-11T17:30:22.000Z</time>
      </trkpt>
      <trkpt lat="45.74408" lon="4.6472">
        <ele>519.42980957031</ele>
        <time>2013-07-11T17:30:25.000Z</time>
      </trkpt>
      <trkpt lat="45.74415" lon="4.64716">
        <ele>520.05554199219</ele>
        <time>2013-07-11T17:30:28.000Z</time>
      </trkpt>
      <trkpt lat="45.74416" lon="4.64716">
        <ele>520.62854003906</ele>
        <time>2013-07-11T17:30:30.000Z</time>
      </trkpt>
      <trkpt lat="45.74427" lon="4.64711">
        <ele>521.46179199219</ele>
        <time>2013-07-11T17:31:18.000Z</time>
      </trkpt>
      <trkpt lat="45.74442" lon="4.64714">
        <ele>522.71594238281</ele>
        <time>2013-07-11T17:31:46.000Z</time>
      </trkpt>
      <trkpt lat="45.74445" lon="4.64717">
        <ele>523.97106933594</ele>
        <time>2013-07-11T17:31:49.000Z</time>
      </trkpt>
      <trkpt lat="45.7445" lon="4.64717">
        <ele>525.14776611328</ele>
        <time>2013-07-11T17:31:54.000Z</time>
      </trkpt>
      <trkpt lat="45.74451" lon="4.64718">
        <ele>526.33575439453</ele>
        <time>2013-07-11T17:31:56.000Z</time>
      </trkpt>
      <trkpt lat="45.74456" lon="4.64719">
        <ele>527.24273681641</ele>
        <time>2013-07-11T17:31:59.000Z</time>
      </trkpt>
      <trkpt lat="45.74459" lon="4.64719">
        <ele>527.76049804688</ele>
        <time>2013-07-11T17:32:02.000Z</time>
      </trkpt>
      <trkpt lat="45.74464" lon="4.6472">
        <ele>528.39074707031</ele>
        <time>2013-07-11T17:32:05.000Z</time>
      </trkpt>
      <trkpt lat="45.74488" lon="4.64713">
        <ele>529.80352783203</ele>
        <time>2013-07-11T17:32:45.000Z</time>
      </trkpt>
      <trkpt lat="45.74501" lon="4.64708">
        <ele>531.6865234375</ele>
        <time>2013-07-11T17:33:01.000Z</time>
      </trkpt>
      <trkpt lat="45.74504" lon="4.64708">
        <ele>533.48596191406</ele>
        <time>2013-07-11T17:33:03.000Z</time>
      </trkpt>
      <trkpt lat="45.7451" lon="4.64708">
        <ele>535.28839111328</ele>
        <time>2013-07-11T17:33:05.000Z</time>
      </trkpt>
      <trkpt lat="45.74514" lon="4.64707">
        <ele>536.99554443359</ele>
        <time>2013-07-11T17:33:07.000Z</time>
      </trkpt>
      <trkpt lat="45.74517" lon="4.64706">
        <ele>537.818359375</ele>
        <time>2013-07-11T17:33:09.000Z</time>
      </trkpt>
      <trkpt lat="45.74521" lon="4.64706">
        <ele>538.20220947266</ele>
        <time>2013-07-11T17:33:11.000Z</time>
      </trkpt>
      <trkpt lat="45.74525" lon="4.64705">
        <ele>538.61749267578</ele>
        <time>2013-07-11T17:33:13.000Z</time>
      </trkpt>
      <trkpt lat="45.74529" lon="4.64704">
        <ele>539.01843261719</ele>
        <time>2013-07-11T17:33:15.000Z</time>
      </trkpt>
      <trkpt lat="45.74535" lon="4.64703">
        <ele>539.46984863281</ele>
        <time>2013-07-11T17:33:17.000Z</time>
      </trkpt>
      <trkpt lat="45.74541" lon="4.647">
        <ele>540.02319335938</ele>
        <time>2013-07-11T17:33:20.000Z</time>
      </trkpt>
      <trkpt lat="45.74543" lon="4.647">
        <ele>540.548828125</ele>
        <time>2013-07-11T17:33:22.000Z</time>
      </trkpt>
      <trkpt lat="45.74546" lon="4.64698">
        <ele>541.10028076172</ele>
        <time>2013-07-11T17:33:25.000Z</time>
      </trkpt>
      <trkpt lat="45.74548" lon="4.64696">
        <ele>541.64880371094</ele>
        <time>2013-07-11T17:33:28.000Z</time>
      </trkpt>
      <trkpt lat="45.74548" lon="4.6469">
        <ele>542.26208496094</ele>
        <time>2013-07-11T17:33:31.000Z</time>
      </trkpt>
      <trkpt lat="45.74547" lon="4.64684">
        <ele>542.87530517578</ele>
        <time>2013-07-11T17:33:33.000Z</time>
      </trkpt>
      <trkpt lat="45.74547" lon="4.6468">
        <ele>543.53771972656</ele>
        <time>2013-07-11T17:33:36.000Z</time>
      </trkpt>
      <trkpt lat="45.74548" lon="4.64678">
        <ele>544.20703125</ele>
        <time>2013-07-11T17:33:38.000Z</time>
      </trkpt>
      <trkpt lat="45.74549" lon="4.64675">
        <ele>544.90435791016</ele>
        <time>2013-07-11T17:33:42.000Z</time>
      </trkpt>
      <trkpt lat="45.74546" lon="4.64668">
        <ele>545.53826904297</ele>
        <time>2013-07-11T17:33:44.000Z</time>
      </trkpt>
      <trkpt lat="45.74542" lon="4.64661">
        <ele>546.11291503906</ele>
        <time>2013-07-11T17:33:47.000Z</time>
      </trkpt>
      <trkpt lat="45.74538" lon="4.64651">
        <ele>546.7265625</ele>
        <time>2013-07-11T17:33:50.000Z</time>
      </trkpt>
      <trkpt lat="45.74537" lon="4.64646">
        <ele>547.32373046875</ele>
        <time>2013-07-11T17:33:52.000Z</time>
      </trkpt>
      <trkpt lat="45.74537" lon="4.64642">
        <ele>547.87518310547</ele>
        <time>2013-07-11T17:33:55.000Z</time>
      </trkpt>
      <trkpt lat="45.74536" lon="4.64636">
        <ele>548.41674804688</ele>
        <time>2013-07-11T17:33:57.000Z</time>
      </trkpt>
      <trkpt lat="45.74533" lon="4.64631">
        <ele>548.91198730469</ele>
        <time>2013-07-11T17:34:01.000Z</time>
      </trkpt>
      <trkpt lat="45.74531" lon="4.64623">
        <ele>549.36755371094</ele>
        <time>2013-07-11T17:34:03.000Z</time>
      </trkpt>
      <trkpt lat="45.74528" lon="4.64615">
        <ele>549.82604980469</ele>
        <time>2013-07-11T17:34:06.000Z</time>
      </trkpt>
      <trkpt lat="45.74527" lon="4.6461">
        <ele>550.28875732422</ele>
        <time>2013-07-11T17:34:08.000Z</time>
      </trkpt>
      <trkpt lat="45.74526" lon="4.64607">
        <ele>550.68688964844</ele>
        <time>2013-07-11T17:34:11.000Z</time>
      </trkpt>
      <trkpt lat="45.74523" lon="4.64599">
        <ele>551.09228515625</ele>
        <time>2013-07-11T17:34:14.000Z</time>
      </trkpt>
      <trkpt lat="45.74521" lon="4.64593">
        <ele>551.49011230469</ele>
        <time>2013-07-11T17:34:16.000Z</time>
      </trkpt>
      <trkpt lat="45.74521" lon="4.64588">
        <ele>551.87835693359</ele>
        <time>2013-07-11T17:34:18.000Z</time>
      </trkpt>
      <trkpt lat="45.74521" lon="4.64585">
        <ele>552.26184082031</ele>
        <time>2013-07-11T17:34:20.000Z</time>
      </trkpt>
      <trkpt lat="45.74521" lon="4.64581">
        <ele>552.69763183594</ele>
        <time>2013-07-11T17:34:23.000Z</time>
      </trkpt>
      <trkpt lat="45.7452" lon="4.64574">
        <ele>553.20056152344</ele>
        <time>2013-07-11T17:34:26.000Z</time>
      </trkpt>
      <trkpt lat="45.7452" lon="4.6457">
        <ele>553.69311523438</ele>
        <time>2013-07-11T17:34:28.000Z</time>
      </trkpt>
      <trkpt lat="45.74518" lon="4.64564">
        <ele>554.16094970703</ele>
        <time>2013-07-11T17:34:30.000Z</time>
      </trkpt>
      <trkpt lat="45.74515" lon="4.64557">
        <ele>554.62091064453</ele>
        <time>2013-07-11T17:34:33.000Z</time>
      </trkpt>
      <trkpt lat="45.74514" lon="4.64553">
        <ele>555.02111816406</ele>
        <time>2013-07-11T17:34:36.000Z</time>
      </trkpt>
      <trkpt lat="45.74512" lon="4.64548">
        <ele>555.36212158203</ele>
        <time>2013-07-11T17:34:38.000Z</time>
      </trkpt>
      <trkpt lat="45.74509" lon="4.6454">
        <ele>555.67352294922</ele>
        <time>2013-07-11T17:34:41.000Z</time>
      </trkpt>
      <trkpt lat="45.74507" lon="4.64534">
        <ele>555.99084472656</ele>
        <time>2013-07-11T17:34:44.000Z</time>
      </trkpt>
      <trkpt lat="45.74506" lon="4.6453">
        <ele>556.27990722656</ele>
        <time>2013-07-11T17:34:46.000Z</time>
      </trkpt>
      <trkpt lat="45.74506" lon="4.64526">
        <ele>556.63000488281</ele>
        <time>2013-07-11T17:34:49.000Z</time>
      </trkpt>
      <trkpt lat="45.74507" lon="4.64521">
        <ele>557.04675292969</ele>
        <time>2013-07-11T17:34:52.000Z</time>
      </trkpt>
      <trkpt lat="45.74508" lon="4.64517">
        <ele>557.53631591797</ele>
        <time>2013-07-11T17:34:56.000Z</time>
      </trkpt>
      <trkpt lat="45.74507" lon="4.64508">
        <ele>558.11712646484</ele>
        <time>2013-07-11T17:34:58.000Z</time>
      </trkpt>
      <trkpt lat="45.74507" lon="4.64502">
        <ele>558.79309082031</ele>
        <time>2013-07-11T17:35:00.000Z</time>
      </trkpt>
      <trkpt lat="45.74506" lon="4.64491">
        <ele>559.49450683594</ele>
        <time>2013-07-11T17:35:03.000Z</time>
      </trkpt>
      <trkpt lat="45.74504" lon="4.64486">
        <ele>560.06396484375</ele>
        <time>2013-07-11T17:35:05.000Z</time>
      </trkpt>
      <trkpt lat="45.74501" lon="4.64478">
        <ele>560.537109375</ele>
        <time>2013-07-11T17:35:08.000Z</time>
      </trkpt>
      <trkpt lat="45.745" lon="4.64472">
        <ele>560.90863037109</ele>
        <time>2013-07-11T17:35:10.000Z</time>
      </trkpt>
      <trkpt lat="45.745" lon="4.64467">
        <ele>561.19177246094</ele>
        <time>2013-07-11T17:35:12.000Z</time>
      </trkpt>
      <trkpt lat="45.74499" lon="4.64463">
        <ele>561.36846923828</ele>
        <time>2013-07-11T17:35:14.000Z</time>
      </trkpt>
      <trkpt lat="45.74497" lon="4.64458">
        <ele>561.52191162109</ele>
        <time>2013-07-11T17:35:16.000Z</time>
      </trkpt>
      <trkpt lat="45.74495" lon="4.6445">
        <ele>561.65637207031</ele>
        <time>2013-07-11T17:35:19.000Z</time>
      </trkpt>
      <trkpt lat="45.74496" lon="4.64441">
        <ele>561.92565917969</ele>
        <time>2013-07-11T17:35:22.000Z</time>
      </trkpt>
      <trkpt lat="45.74498" lon="4.64435">
        <ele>562.36853027344</ele>
        <time>2013-07-11T17:35:25.000Z</time>
      </trkpt>
      <trkpt lat="45.74499" lon="4.64429">
        <ele>562.96258544922</ele>
        <time>2013-07-11T17:35:28.000Z</time>
      </trkpt>
      <trkpt lat="45.745" lon="4.64424">
        <ele>563.66711425781</ele>
        <time>2013-07-11T17:35:30.000Z</time>
      </trkpt>
      <trkpt lat="45.74499" lon="4.64417">
        <ele>564.45874023438</ele>
        <time>2013-07-11T17:35:33.000Z</time>
      </trkpt>
      <trkpt lat="45.74498" lon="4.64408">
        <ele>565.02905273438</ele>
        <time>2013-07-11T17:35:36.000Z</time>
      </trkpt>
      <trkpt lat="45.74498" lon="4.64404">
        <ele>565.40277099609</ele>
        <time>2013-07-11T17:35:38.000Z</time>
      </trkpt>
      <trkpt lat="45.74497" lon="4.644">
        <ele>565.54919433594</ele>
        <time>2013-07-11T17:35:40.000Z</time>
      </trkpt>
      <trkpt lat="45.74496" lon="4.64397">
        <ele>565.58874511719</ele>
        <time>2013-07-11T17:35:42.000Z</time>
      </trkpt>
      <trkpt lat="45.74498" lon="4.64393">
        <ele>565.61248779297</ele>
        <time>2013-07-11T17:35:45.000Z</time>
      </trkpt>
      <trkpt lat="45.745" lon="4.6439">
        <ele>565.81286621094</ele>
        <time>2013-07-11T17:35:47.000Z</time>
      </trkpt>
      <trkpt lat="45.74503" lon="4.64389">
        <ele>566.12384033203</ele>
        <time>2013-07-11T17:35:50.000Z</time>
      </trkpt>
      <trkpt lat="45.74508" lon="4.64392">
        <ele>566.68298339844</ele>
        <time>2013-07-11T17:35:52.000Z</time>
      </trkpt>
      <trkpt lat="45.74511" lon="4.64397">
        <ele>567.34442138672</ele>
        <time>2013-07-11T17:35:55.000Z</time>
      </trkpt>
      <trkpt lat="45.74512" lon="4.644">
        <ele>567.97082519531</ele>
        <time>2013-07-11T17:35:57.000Z</time>
      </trkpt>
      <trkpt lat="45.74515" lon="4.64403">
        <ele>568.54553222656</ele>
        <time>2013-07-11T17:36:00.000Z</time>
      </trkpt>
      <trkpt lat="45.74516" lon="4.64406">
        <ele>569.02783203125</ele>
        <time>2013-07-11T17:36:03.000Z</time>
      </trkpt>
      <trkpt lat="45.74519" lon="4.64409">
        <ele>569.40863037109</ele>
        <time>2013-07-11T17:36:05.000Z</time>
      </trkpt>
      <trkpt lat="45.7452" lon="4.6441">
        <ele>569.73577880859</ele>
        <time>2013-07-11T17:36:07.000Z</time>
      </trkpt>
      <trkpt lat="45.74521" lon="4.64412">
        <ele>570.03015136719</ele>
        <time>2013-07-11T17:36:10.000Z</time>
      </trkpt>
      <trkpt lat="45.74523" lon="4.64417">
        <ele>570.27557373047</ele>
        <time>2013-07-11T17:36:12.000Z</time>
      </trkpt>
      <trkpt lat="45.74525" lon="4.64421">
        <ele>570.50811767578</ele>
        <time>2013-07-11T17:36:15.000Z</time>
      </trkpt>
      <trkpt lat="45.74527" lon="4.64424">
        <ele>570.65802001953</ele>
        <time>2013-07-11T17:36:17.000Z</time>
      </trkpt>
      <trkpt lat="45.74529" lon="4.6443">
        <ele>570.72784423828</ele>
        <time>2013-07-11T17:36:20.000Z</time>
      </trkpt>
      <trkpt lat="45.7453" lon="4.64435">
        <ele>570.76873779297</ele>
        <time>2013-07-11T17:36:23.000Z</time>
      </trkpt>
      <trkpt lat="45.74532" lon="4.6444">
        <ele>570.75500488281</ele>
        <time>2013-07-11T17:36:26.000Z</time>
      </trkpt>
      <trkpt lat="45.74534" lon="4.64443">
        <ele>570.71447753906</ele>
        <time>2013-07-11T17:36:28.000Z</time>
      </trkpt>
      <trkpt lat="45.74537" lon="4.64448">
        <ele>570.72241210938</ele>
        <time>2013-07-11T17:36:32.000Z</time>
      </trkpt>
      <trkpt lat="45.7454" lon="4.64451">
        <ele>570.83728027344</ele>
        <time>2013-07-11T17:36:34.000Z</time>
      </trkpt>
      <trkpt lat="45.74543" lon="4.64454">
        <ele>571.02465820312</ele>
        <time>2013-07-11T17:36:36.000Z</time>
      </trkpt>
      <trkpt lat="45.74546" lon="4.64457">
        <ele>571.27307128906</ele>
        <time>2013-07-11T17:36:38.000Z</time>
      </trkpt>
      <trkpt lat="45.74549" lon="4.64461">
        <ele>571.59338378906</ele>
        <time>2013-07-11T17:36:41.000Z</time>
      </trkpt>
      <trkpt lat="45.74551" lon="4.64464">
        <ele>571.8916015625</ele>
        <time>2013-07-11T17:36:43.000Z</time>
      </trkpt>
      <trkpt lat="45.74554" lon="4.64469">
        <ele>572.16729736328</ele>
        <time>2013-07-11T17:36:47.000Z</time>
      </trkpt>
      <trkpt lat="45.74556" lon="4.6447">
        <ele>572.43103027344</ele>
        <time>2013-07-11T17:36:49.000Z</time>
      </trkpt>
      <trkpt lat="45.74558" lon="4.64472">
        <ele>572.69274902344</ele>
        <time>2013-07-11T17:36:53.000Z</time>
      </trkpt>
      <trkpt lat="45.74561" lon="4.64474">
        <ele>572.98522949219</ele>
        <time>2013-07-11T17:36:56.000Z</time>
      </trkpt>
      <trkpt lat="45.74566" lon="4.64475">
        <ele>573.38171386719</ele>
        <time>2013-07-11T17:36:59.000Z</time>
      </trkpt>
      <trkpt lat="45.74569" lon="4.64477">
        <ele>573.841796875</ele>
        <time>2013-07-11T17:37:01.000Z</time>
      </trkpt>
      <trkpt lat="45.74583" lon="4.6448">
        <ele>574.78918457031</ele>
        <time>2013-07-11T17:37:24.000Z</time>
      </trkpt>
      <trkpt lat="45.74587" lon="4.64479">
        <ele>575.78143310547</ele>
        <time>2013-07-11T17:37:26.000Z</time>
      </trkpt>
      <trkpt lat="45.74592" lon="4.64478">
        <ele>576.81018066406</ele>
        <time>2013-07-11T17:37:30.000Z</time>
      </trkpt>
      <trkpt lat="45.74597" lon="4.64477">
        <ele>577.83319091797</ele>
        <time>2013-07-11T17:37:32.000Z</time>
      </trkpt>
      <trkpt lat="45.74602" lon="4.64477">
        <ele>578.85205078125</ele>
        <time>2013-07-11T17:37:34.000Z</time>
      </trkpt>
      <trkpt lat="45.74607" lon="4.64477">
        <ele>579.4599609375</ele>
        <time>2013-07-11T17:37:37.000Z</time>
      </trkpt>
      <trkpt lat="45.74613" lon="4.64477">
        <ele>580.09228515625</ele>
        <time>2013-07-11T17:37:40.000Z</time>
      </trkpt>
      <trkpt lat="45.74615" lon="4.64477">
        <ele>580.646484375</ele>
        <time>2013-07-11T17:37:43.000Z</time>
      </trkpt>
      <trkpt lat="45.74619" lon="4.64477">
        <ele>581.13458251953</ele>
        <time>2013-07-11T17:37:45.000Z</time>
      </trkpt>
      <trkpt lat="45.74623" lon="4.64476">
        <ele>581.63397216797</ele>
        <time>2013-07-11T17:37:47.000Z</time>
      </trkpt>
      <trkpt lat="45.74626" lon="4.64476">
        <ele>582.06671142578</ele>
        <time>2013-07-11T17:37:49.000Z</time>
      </trkpt>
      <trkpt lat="45.7463" lon="4.64477">
        <ele>582.47839355469</ele>
        <time>2013-07-11T17:37:52.000Z</time>
      </trkpt>
      <trkpt lat="45.74633" lon="4.64477">
        <ele>582.88049316406</ele>
        <time>2013-07-11T17:37:54.000Z</time>
      </trkpt>
      <trkpt lat="45.74637" lon="4.64474">
        <ele>583.36767578125</ele>
        <time>2013-07-11T17:37:57.000Z</time>
      </trkpt>
      <trkpt lat="45.7464" lon="4.64473">
        <ele>583.82849121094</ele>
        <time>2013-07-11T17:38:00.000Z</time>
      </trkpt>
      <trkpt lat="45.74646" lon="4.64473">
        <ele>584.36437988281</ele>
        <time>2013-07-11T17:38:03.000Z</time>
      </trkpt>
      <trkpt lat="45.7465" lon="4.64472">
        <ele>584.89660644531</ele>
        <time>2013-07-11T17:38:04.000Z</time>
      </trkpt>
      <trkpt lat="45.74656" lon="4.6447">
        <ele>585.54925537109</ele>
        <time>2013-07-11T17:38:07.000Z</time>
      </trkpt>
      <trkpt lat="45.74659" lon="4.64469">
        <ele>586.16467285156</ele>
        <time>2013-07-11T17:38:10.000Z</time>
      </trkpt>
      <trkpt lat="45.74662" lon="4.64467">
        <ele>586.79748535156</ele>
        <time>2013-07-11T17:38:12.000Z</time>
      </trkpt>
      <trkpt lat="45.74668" lon="4.64465">
        <ele>587.44952392578</ele>
        <time>2013-07-11T17:38:15.000Z</time>
      </trkpt>
      <trkpt lat="45.74673" lon="4.64462">
        <ele>588.0732421875</ele>
        <time>2013-07-11T17:38:17.000Z</time>
      </trkpt>
      <trkpt lat="45.74676" lon="4.6446">
        <ele>588.58770751953</ele>
        <time>2013-07-11T17:38:19.000Z</time>
      </trkpt>
      <trkpt lat="45.74678" lon="4.64456">
        <ele>589.08660888672</ele>
        <time>2013-07-11T17:38:23.000Z</time>
      </trkpt>
      <trkpt lat="45.74681" lon="4.64453">
        <ele>589.55145263672</ele>
        <time>2013-07-11T17:38:25.000Z</time>
      </trkpt>
      <trkpt lat="45.74683" lon="4.6445">
        <ele>589.94354248047</ele>
        <time>2013-07-11T17:38:27.000Z</time>
      </trkpt>
      <trkpt lat="45.74686" lon="4.64447">
        <ele>590.33581542969</ele>
        <time>2013-07-11T17:38:29.000Z</time>
      </trkpt>
      <trkpt lat="45.74689" lon="4.64442">
        <ele>590.80432128906</ele>
        <time>2013-07-11T17:38:32.000Z</time>
      </trkpt>
      <trkpt lat="45.74694" lon="4.64439">
        <ele>591.25811767578</ele>
        <time>2013-07-11T17:38:34.000Z</time>
      </trkpt>
      <trkpt lat="45.74697" lon="4.64438">
        <ele>591.69097900391</ele>
        <time>2013-07-11T17:38:36.000Z</time>
      </trkpt>
      <trkpt lat="45.747" lon="4.64433">
        <ele>592.18737792969</ele>
        <time>2013-07-11T17:38:39.000Z</time>
      </trkpt>
      <trkpt lat="45.74701" lon="4.64429">
        <ele>592.69921875</ele>
        <time>2013-07-11T17:38:41.000Z</time>
      </trkpt>
      <trkpt lat="45.74703" lon="4.64426">
        <ele>593.16766357422</ele>
        <time>2013-07-11T17:38:43.000Z</time>
      </trkpt>
      <trkpt lat="45.74706" lon="4.64423">
        <ele>593.64978027344</ele>
        <time>2013-07-11T17:38:46.000Z</time>
      </trkpt>
      <trkpt lat="45.74707" lon="4.64419">
        <ele>594.19079589844</ele>
        <time>2013-07-11T17:38:48.000Z</time>
      </trkpt>
      <trkpt lat="45.7471" lon="4.64414">
        <ele>594.70275878906</ele>
        <time>2013-07-11T17:38:50.000Z</time>
      </trkpt>
      <trkpt lat="45.74711" lon="4.64412">
        <ele>595.16033935547</ele>
        <time>2013-07-11T17:38:52.000Z</time>
      </trkpt>
      <trkpt lat="45.7472" lon="4.64409">
        <ele>595.64379882812</ele>
        <time>2013-07-11T17:41:50.000Z</time>
      </trkpt>
      <trkpt lat="45.74723" lon="4.64407">
        <ele>596.07434082031</ele>
        <time>2013-07-11T17:41:53.000Z</time>
      </trkpt>
      <trkpt lat="45.74725" lon="4.64403">
        <ele>596.47412109375</ele>
        <time>2013-07-11T17:41:54.000Z</time>
      </trkpt>
      <trkpt lat="45.74728" lon="4.64399">
        <ele>596.83575439453</ele>
        <time>2013-07-11T17:41:57.000Z</time>
      </trkpt>
      <trkpt lat="45.7473" lon="4.64396">
        <ele>597.23291015625</ele>
        <time>2013-07-11T17:41:59.000Z</time>
      </trkpt>
      <trkpt lat="45.74732" lon="4.64392">
        <ele>597.59313964844</ele>
        <time>2013-07-11T17:42:01.000Z</time>
      </trkpt>
      <trkpt lat="45.74735" lon="4.64389">
        <ele>597.97906494141</ele>
        <time>2013-07-11T17:42:04.000Z</time>
      </trkpt>
      <trkpt lat="45.74738" lon="4.64383">
        <ele>598.40191650391</ele>
        <time>2013-07-11T17:42:06.000Z</time>
      </trkpt>
      <trkpt lat="45.74741" lon="4.64379">
        <ele>598.82781982422</ele>
        <time>2013-07-11T17:42:08.000Z</time>
      </trkpt>
      <trkpt lat="45.74744" lon="4.64373">
        <ele>599.31616210938</ele>
        <time>2013-07-11T17:42:11.000Z</time>
      </trkpt>
      <trkpt lat="45.74747" lon="4.64368">
        <ele>599.83917236328</ele>
        <time>2013-07-11T17:42:14.000Z</time>
      </trkpt>
      <trkpt lat="45.7475" lon="4.64365">
        <ele>600.36138916016</ele>
        <time>2013-07-11T17:42:16.000Z</time>
      </trkpt>
      <trkpt lat="45.74755" lon="4.6436">
        <ele>600.79034423828</ele>
        <time>2013-07-11T17:42:19.000Z</time>
      </trkpt>
      <trkpt lat="45.7476" lon="4.64356">
        <ele>601.15789794922</ele>
        <time>2013-07-11T17:42:22.000Z</time>
      </trkpt>
      <trkpt lat="45.74762" lon="4.64353">
        <ele>601.42224121094</ele>
        <time>2013-07-11T17:42:24.000Z</time>
      </trkpt>
      <trkpt lat="45.74764" lon="4.64349">
        <ele>601.61828613281</ele>
        <time>2013-07-11T17:42:26.000Z</time>
      </trkpt>
      <trkpt lat="45.74767" lon="4.64344">
        <ele>601.81591796875</ele>
        <time>2013-07-11T17:42:29.000Z</time>
      </trkpt>
      <trkpt lat="45.7477" lon="4.64339">
        <ele>602.06298828125</ele>
        <time>2013-07-11T17:42:32.000Z</time>
      </trkpt>
      <trkpt lat="45.74775" lon="4.64333">
        <ele>602.36865234375</ele>
        <time>2013-07-11T17:42:35.000Z</time>
      </trkpt>
      <trkpt lat="45.74777" lon="4.6433">
        <ele>602.73828125</ele>
        <time>2013-07-11T17:42:37.000Z</time>
      </trkpt>
      <trkpt lat="45.74779" lon="4.64325">
        <ele>603.19030761719</ele>
        <time>2013-07-11T17:42:40.000Z</time>
      </trkpt>
      <trkpt lat="45.7478" lon="4.64318">
        <ele>603.81097412109</ele>
        <time>2013-07-11T17:42:43.000Z</time>
      </trkpt>
      <trkpt lat="45.7478" lon="4.6431">
        <ele>604.59100341797</ele>
        <time>2013-07-11T17:42:45.000Z</time>
      </trkpt>
      <trkpt lat="45.74781" lon="4.64306">
        <ele>605.40118408203</ele>
        <time>2013-07-11T17:42:47.000Z</time>
      </trkpt>
      <trkpt lat="45.74784" lon="4.64301">
        <ele>606.27233886719</ele>
        <time>2013-07-11T17:42:50.000Z</time>
      </trkpt>
      <trkpt lat="45.74786" lon="4.64296">
        <ele>607.14520263672</ele>
        <time>2013-07-11T17:42:52.000Z</time>
      </trkpt>
      <trkpt lat="45.74788" lon="4.64287">
        <ele>608.02655029297</ele>
        <time>2013-07-11T17:42:55.000Z</time>
      </trkpt>
      <trkpt lat="45.74792" lon="4.64282">
        <ele>608.79052734375</ele>
        <time>2013-07-11T17:42:58.000Z</time>
      </trkpt>
      <trkpt lat="45.74794" lon="4.6428">
        <ele>609.48156738281</ele>
        <time>2013-07-11T17:43:00.000Z</time>
      </trkpt>
      <trkpt lat="45.74798" lon="4.64279">
        <ele>610.01550292969</ele>
        <time>2013-07-11T17:43:02.000Z</time>
      </trkpt>
      <trkpt lat="45.74804" lon="4.64277">
        <ele>610.43353271484</ele>
        <time>2013-07-11T17:43:05.000Z</time>
      </trkpt>
      <trkpt lat="45.74809" lon="4.64275">
        <ele>610.61462402344</ele>
        <time>2013-07-11T17:43:08.000Z</time>
      </trkpt>
      <trkpt lat="45.74813" lon="4.6427">
        <ele>610.76171875</ele>
        <time>2013-07-11T17:43:11.000Z</time>
      </trkpt>
      <trkpt lat="45.74815" lon="4.64268">
        <ele>610.92376708984</ele>
        <time>2013-07-11T17:43:13.000Z</time>
      </trkpt>
      <trkpt lat="45.74817" lon="4.64266">
        <ele>611.134765625</ele>
        <time>2013-07-11T17:43:15.000Z</time>
      </trkpt>
      <trkpt lat="45.7482" lon="4.64264">
        <ele>611.35290527344</ele>
        <time>2013-07-11T17:43:19.000Z</time>
      </trkpt>
      <trkpt lat="45.74822" lon="4.64264">
        <ele>611.53009033203</ele>
        <time>2013-07-11T17:43:21.000Z</time>
      </trkpt>
      <trkpt lat="45.74828" lon="4.64264">
        <ele>611.56555175781</ele>
        <time>2013-07-11T17:43:23.000Z</time>
      </trkpt>
      <trkpt lat="45.74833" lon="4.64261">
        <ele>611.55548095703</ele>
        <time>2013-07-11T17:43:26.000Z</time>
      </trkpt>
      <trkpt lat="45.74834" lon="4.64254">
        <ele>611.70349121094</ele>
        <time>2013-07-11T17:43:29.000Z</time>
      </trkpt>
      <trkpt lat="45.74836" lon="4.64249">
        <ele>611.94567871094</ele>
        <time>2013-07-11T17:43:31.000Z</time>
      </trkpt>
      <trkpt lat="45.7484" lon="4.64242">
        <ele>612.35198974609</ele>
        <time>2013-07-11T17:43:34.000Z</time>
      </trkpt>
      <trkpt lat="45.74844" lon="4.64235">
        <ele>612.94018554688</ele>
        <time>2013-07-11T17:43:37.000Z</time>
      </trkpt>
      <trkpt lat="45.74846" lon="4.64232">
        <ele>613.58428955078</ele>
        <time>2013-07-11T17:43:39.000Z</time>
      </trkpt>
      <trkpt lat="45.74848" lon="4.64227">
        <ele>614.12316894531</ele>
        <time>2013-07-11T17:43:42.000Z</time>
      </trkpt>
      <trkpt lat="45.74852" lon="4.64223">
        <ele>614.57434082031</ele>
        <time>2013-07-11T17:43:45.000Z</time>
      </trkpt>
      <trkpt lat="45.74855" lon="4.6422">
        <ele>614.92834472656</ele>
        <time>2013-07-11T17:43:47.000Z</time>
      </trkpt>
      <trkpt lat="45.74857" lon="4.64216">
        <ele>615.24334716797</ele>
        <time>2013-07-11T17:43:49.000Z</time>
      </trkpt>
      <trkpt lat="45.74861" lon="4.6421">
        <ele>615.58502197266</ele>
        <time>2013-07-11T17:43:53.000Z</time>
      </trkpt>
      <trkpt lat="45.74865" lon="4.64205">
        <ele>615.89447021484</ele>
        <time>2013-07-11T17:43:55.000Z</time>
      </trkpt>
      <trkpt lat="45.74868" lon="4.642">
        <ele>616.24188232422</ele>
        <time>2013-07-11T17:43:58.000Z</time>
      </trkpt>
      <trkpt lat="45.74871" lon="4.64195">
        <ele>616.62609863281</ele>
        <time>2013-07-11T17:44:01.000Z</time>
      </trkpt>
      <trkpt lat="45.74874" lon="4.64187">
        <ele>617.07055664062</ele>
        <time>2013-07-11T17:44:04.000Z</time>
      </trkpt>
      <trkpt lat="45.74877" lon="4.6418">
        <ele>617.57135009766</ele>
        <time>2013-07-11T17:44:07.000Z</time>
      </trkpt>
      <trkpt lat="45.74879" lon="4.64175">
        <ele>618.06915283203</ele>
        <time>2013-07-11T17:44:09.000Z</time>
      </trkpt>
      <trkpt lat="45.74883" lon="4.64171">
        <ele>618.54406738281</ele>
        <time>2013-07-11T17:44:12.000Z</time>
      </trkpt>
      <trkpt lat="45.74885" lon="4.64163">
        <ele>619.06005859375</ele>
        <time>2013-07-11T17:44:15.000Z</time>
      </trkpt>
      <trkpt lat="45.74888" lon="4.64156">
        <ele>619.51287841797</ele>
        <time>2013-07-11T17:44:18.000Z</time>
      </trkpt>
      <trkpt lat="45.7489" lon="4.64153">
        <ele>619.85687255859</ele>
        <time>2013-07-11T17:44:21.000Z</time>
      </trkpt>
      <trkpt lat="45.74891" lon="4.6415">
        <ele>620.18890380859</ele>
        <time>2013-07-11T17:44:23.000Z</time>
      </trkpt>
      <trkpt lat="45.74892" lon="4.64145">
        <ele>620.54016113281</ele>
        <time>2013-07-11T17:44:25.000Z</time>
      </trkpt>
      <trkpt lat="45.74897" lon="4.64142">
        <ele>620.74383544922</ele>
        <time>2013-07-11T17:44:28.000Z</time>
      </trkpt>
      <trkpt lat="45.74899" lon="4.64142">
        <ele>620.83728027344</ele>
        <time>2013-07-11T17:44:30.000Z</time>
      </trkpt>
      <trkpt lat="45.74902" lon="4.64137">
        <ele>620.92956542969</ele>
        <time>2013-07-11T17:44:33.000Z</time>
      </trkpt>
      <trkpt lat="45.74905" lon="4.64131">
        <ele>621.02404785156</ele>
        <time>2013-07-11T17:44:35.000Z</time>
      </trkpt>
      <trkpt lat="45.7491" lon="4.64124">
        <ele>621.12036132812</ele>
        <time>2013-07-11T17:44:38.000Z</time>
      </trkpt>
      <trkpt lat="45.74915" lon="4.64118">
        <ele>621.28253173828</ele>
        <time>2013-07-11T17:44:41.000Z</time>
      </trkpt>
      <trkpt lat="45.74918" lon="4.64114">
        <ele>621.53857421875</ele>
        <time>2013-07-11T17:44:43.000Z</time>
      </trkpt>
      <trkpt lat="45.74921" lon="4.6411">
        <ele>621.84497070312</ele>
        <time>2013-07-11T17:44:45.000Z</time>
      </trkpt>
      <trkpt lat="45.74924" lon="4.64105">
        <ele>622.21081542969</ele>
        <time>2013-07-11T17:44:48.000Z</time>
      </trkpt>
      <trkpt lat="45.74927" lon="4.64099">
        <ele>622.64392089844</ele>
        <time>2013-07-11T17:44:52.000Z</time>
      </trkpt>
      <trkpt lat="45.74929" lon="4.64091">
        <ele>623.2001953125</ele>
        <time>2013-07-11T17:44:54.000Z</time>
      </trkpt>
      <trkpt lat="45.74931" lon="4.64086">
        <ele>623.794921875</ele>
        <time>2013-07-11T17:44:56.000Z</time>
      </trkpt>
      <trkpt lat="45.74933" lon="4.64082">
        <ele>624.39514160156</ele>
        <time>2013-07-11T17:44:58.000Z</time>
      </trkpt>
      <trkpt lat="45.74937" lon="4.64077">
        <ele>625.03948974609</ele>
        <time>2013-07-11T17:45:01.000Z</time>
      </trkpt>
      <trkpt lat="45.74939" lon="4.64073">
        <ele>625.64294433594</ele>
        <time>2013-07-11T17:45:04.000Z</time>
      </trkpt>
      <trkpt lat="45.74942" lon="4.64068">
        <ele>626.23663330078</ele>
        <time>2013-07-11T17:45:07.000Z</time>
      </trkpt>
      <trkpt lat="45.74944" lon="4.6406">
        <ele>626.92877197266</ele>
        <time>2013-07-11T17:45:09.000Z</time>
      </trkpt>
      <trkpt lat="45.74946" lon="4.64052">
        <ele>627.73645019531</ele>
        <time>2013-07-11T17:45:12.000Z</time>
      </trkpt>
      <trkpt lat="45.74948" lon="4.64048">
        <ele>628.51391601562</ele>
        <time>2013-07-11T17:45:15.000Z</time>
      </trkpt>
      <trkpt lat="45.74951" lon="4.64042">
        <ele>629.3701171875</ele>
        <time>2013-07-11T17:45:17.000Z</time>
      </trkpt>
      <trkpt lat="45.74955" lon="4.64037">
        <ele>630.21209716797</ele>
        <time>2013-07-11T17:45:20.000Z</time>
      </trkpt>
      <trkpt lat="45.74957" lon="4.64034">
        <ele>630.94226074219</ele>
        <time>2013-07-11T17:45:22.000Z</time>
      </trkpt>
      <trkpt lat="45.74961" lon="4.6403">
        <ele>631.59490966797</ele>
        <time>2013-07-11T17:45:25.000Z</time>
      </trkpt>
      <trkpt lat="45.74966" lon="4.64027">
        <ele>632.21502685547</ele>
        <time>2013-07-11T17:45:28.000Z</time>
      </trkpt>
      <trkpt lat="45.74969" lon="4.64026">
        <ele>632.71563720703</ele>
        <time>2013-07-11T17:45:31.000Z</time>
      </trkpt>
      <trkpt lat="45.74972" lon="4.64023">
        <ele>633.17840576172</ele>
        <time>2013-07-11T17:45:34.000Z</time>
      </trkpt>
      <trkpt lat="45.74974" lon="4.64019">
        <ele>633.66711425781</ele>
        <time>2013-07-11T17:45:36.000Z</time>
      </trkpt>
      <trkpt lat="45.74974" lon="4.64019">
        <ele>633.66711425781</ele>
        <time>2013-07-11T17:45:56.000Z</time>
      </trkpt>
      <trkpt lat="45.75038" lon="4.63919">
        <ele>636.48474121094</ele>
        <time>2013-07-11T17:46:45.000Z</time>
      </trkpt>
      <trkpt lat="45.75035" lon="4.63906">
        <ele>639.09851074219</ele>
        <time>2013-07-11T17:46:48.000Z</time>
      </trkpt>
      <trkpt lat="45.75041" lon="4.63908">
        <ele>641.8330078125</ele>
        <time>2013-07-11T17:46:50.000Z</time>
      </trkpt>
      <trkpt lat="45.75044" lon="4.63909">
        <ele>644.54223632812</ele>
        <time>2013-07-11T17:46:52.000Z</time>
      </trkpt>
      <trkpt lat="45.75046" lon="4.63907">
        <ele>647.18249511719</ele>
        <time>2013-07-11T17:46:56.000Z</time>
      </trkpt>
      <trkpt lat="45.75049" lon="4.63905">
        <ele>647.42498779297</ele>
        <time>2013-07-11T17:46:58.000Z</time>
      </trkpt>
      <trkpt lat="45.75052" lon="4.63907">
        <ele>647.86975097656</ele>
        <time>2013-07-11T17:47:00.000Z</time>
      </trkpt>
      <trkpt lat="45.75056" lon="4.63908">
        <ele>648.26513671875</ele>
        <time>2013-07-11T17:47:03.000Z</time>
      </trkpt>
      <trkpt lat="45.75058" lon="4.63905">
        <ele>648.60290527344</ele>
        <time>2013-07-11T17:47:06.000Z</time>
      </trkpt>
      <trkpt lat="45.75063" lon="4.63902">
        <ele>648.99896240234</ele>
        <time>2013-07-11T17:47:09.000Z</time>
      </trkpt>
      <trkpt lat="45.75068" lon="4.639">
        <ele>649.43853759766</ele>
        <time>2013-07-11T17:47:12.000Z</time>
      </trkpt>
      <trkpt lat="45.75074" lon="4.63899">
        <ele>649.92987060547</ele>
        <time>2013-07-11T17:47:15.000Z</time>
      </trkpt>
      <trkpt lat="45.75078" lon="4.63898">
        <ele>650.38610839844</ele>
        <time>2013-07-11T17:47:18.000Z</time>
      </trkpt>
      <trkpt lat="45.75083" lon="4.63897">
        <ele>650.92138671875</ele>
        <time>2013-07-11T17:47:20.000Z</time>
      </trkpt>
      <trkpt lat="45.75085" lon="4.63894">
        <ele>651.34735107422</ele>
        <time>2013-07-11T17:47:22.000Z</time>
      </trkpt>
      <trkpt lat="45.75087" lon="4.63891">
        <ele>651.65417480469</ele>
        <time>2013-07-11T17:47:24.000Z</time>
      </trkpt>
      <trkpt lat="45.75091" lon="4.63887">
        <ele>651.80041503906</ele>
        <time>2013-07-11T17:47:27.000Z</time>
      </trkpt>
      <trkpt lat="45.75095" lon="4.63883">
        <ele>651.84558105469</ele>
        <time>2013-07-11T17:47:30.000Z</time>
      </trkpt>
      <trkpt lat="45.75101" lon="4.63881">
        <ele>651.81243896484</ele>
        <time>2013-07-11T17:47:33.000Z</time>
      </trkpt>
      <trkpt lat="45.75104" lon="4.63879">
        <ele>651.78503417969</ele>
        <time>2013-07-11T17:47:36.000Z</time>
      </trkpt>
      <trkpt lat="45.75106" lon="4.63873">
        <ele>651.73480224609</ele>
        <time>2013-07-11T17:47:38.000Z</time>
      </trkpt>
      <trkpt lat="45.75108" lon="4.63867">
        <ele>651.65612792969</ele>
        <time>2013-07-11T17:47:41.000Z</time>
      </trkpt>
      <trkpt lat="45.75109" lon="4.63865">
        <ele>651.58264160156</ele>
        <time>2013-07-11T17:47:44.000Z</time>
      </trkpt>
      <trkpt lat="45.75117" lon="4.63867">
        <ele>651.55340576172</ele>
        <time>2013-07-11T17:49:05.000Z</time>
      </trkpt>
      <trkpt lat="45.75123" lon="4.63866">
        <ele>651.55828857422</ele>
        <time>2013-07-11T17:49:09.000Z</time>
      </trkpt>
      <trkpt lat="45.75126" lon="4.63864">
        <ele>651.60235595703</ele>
        <time>2013-07-11T17:49:11.000Z</time>
      </trkpt>
      <trkpt lat="45.75129" lon="4.63861">
        <ele>651.6904296875</ele>
        <time>2013-07-11T17:49:13.000Z</time>
      </trkpt>
      <trkpt lat="45.7513" lon="4.63859">
        <ele>651.7763671875</ele>
        <time>2013-07-11T17:49:15.000Z</time>
      </trkpt>
      <trkpt lat="45.75132" lon="4.63858">
        <ele>651.80194091797</ele>
        <time>2013-07-11T17:49:18.000Z</time>
      </trkpt>
      <trkpt lat="45.75138" lon="4.63858">
        <ele>651.82702636719</ele>
        <time>2013-07-11T17:49:20.000Z</time>
      </trkpt>
      <trkpt lat="45.75144" lon="4.63857">
        <ele>651.88470458984</ele>
        <time>2013-07-11T17:49:22.000Z</time>
      </trkpt>
      <trkpt lat="45.75152" lon="4.63858">
        <ele>652.00030517578</ele>
        <time>2013-07-11T17:49:24.000Z</time>
      </trkpt>
      <trkpt lat="45.75163" lon="4.63859">
        <ele>652.20965576172</ele>
        <time>2013-07-11T17:49:27.000Z</time>
      </trkpt>
      <trkpt lat="45.75172" lon="4.63857">
        <ele>652.39904785156</ele>
        <time>2013-07-11T17:49:30.000Z</time>
      </trkpt>
      <trkpt lat="45.75178" lon="4.6385">
        <ele>652.50262451172</ele>
        <time>2013-07-11T17:49:33.000Z</time>
      </trkpt>
      <trkpt lat="45.75186" lon="4.63843">
        <ele>652.56036376953</ele>
        <time>2013-07-11T17:49:36.000Z</time>
      </trkpt>
      <trkpt lat="45.75195" lon="4.63839">
        <ele>652.5888671875</ele>
        <time>2013-07-11T17:49:39.000Z</time>
      </trkpt>
      <trkpt lat="45.75207" lon="4.63833">
        <ele>652.61364746094</ele>
        <time>2013-07-11T17:49:42.000Z</time>
      </trkpt>
      <trkpt lat="45.75213" lon="4.63826">
        <ele>652.65277099609</ele>
        <time>2013-07-11T17:49:43.000Z</time>
      </trkpt>
      <trkpt lat="45.75222" lon="4.63815">
        <ele>652.787109375</ele>
        <time>2013-07-11T17:49:46.000Z</time>
      </trkpt>
      <trkpt lat="45.75228" lon="4.6381">
        <ele>652.98907470703</ele>
        <time>2013-07-11T17:49:49.000Z</time>
      </trkpt>
      <trkpt lat="45.75234" lon="4.63803">
        <ele>653.26184082031</ele>
        <time>2013-07-11T17:49:51.000Z</time>
      </trkpt>
      <trkpt lat="45.75239" lon="4.63792">
        <ele>653.568359375</ele>
        <time>2013-07-11T17:49:54.000Z</time>
      </trkpt>
      <trkpt lat="45.75243" lon="4.63783">
        <ele>653.9814453125</ele>
        <time>2013-07-11T17:49:57.000Z</time>
      </trkpt>
      <trkpt lat="45.75247" lon="4.63769">
        <ele>654.54541015625</ele>
        <time>2013-07-11T17:49:59.000Z</time>
      </trkpt>
      <trkpt lat="45.7525" lon="4.63759">
        <ele>655.19494628906</ele>
        <time>2013-07-11T17:50:02.000Z</time>
      </trkpt>
      <trkpt lat="45.75256" lon="4.63735">
        <ele>655.97094726562</ele>
        <time>2013-07-11T17:50:05.000Z</time>
      </trkpt>
      <trkpt lat="45.75264" lon="4.63715">
        <ele>656.92846679688</ele>
        <time>2013-07-11T17:50:07.000Z</time>
      </trkpt>
      <trkpt lat="45.75268" lon="4.63705">
        <ele>657.97424316406</ele>
        <time>2013-07-11T17:50:09.000Z</time>
      </trkpt>
      <trkpt lat="45.75269" lon="4.637">
        <ele>658.93005371094</ele>
        <time>2013-07-11T17:50:12.000Z</time>
      </trkpt>
      <trkpt lat="45.75273" lon="4.63689">
        <ele>659.96057128906</ele>
        <time>2013-07-11T17:50:14.000Z</time>
      </trkpt>
      <trkpt lat="45.75272" lon="4.63683">
        <ele>660.85559082031</ele>
        <time>2013-07-11T17:50:16.000Z</time>
      </trkpt>
      <trkpt lat="45.75271" lon="4.63678">
        <ele>661.49279785156</ele>
        <time>2013-07-11T17:50:18.000Z</time>
      </trkpt>
      <trkpt lat="45.75264" lon="4.63673">
        <ele>661.82177734375</ele>
        <time>2013-07-11T17:50:21.000Z</time>
      </trkpt>
      <trkpt lat="45.75263" lon="4.63666">
        <ele>662.09216308594</ele>
        <time>2013-07-11T17:50:24.000Z</time>
      </trkpt>
      <trkpt lat="45.75263" lon="4.63661">
        <ele>662.23876953125</ele>
        <time>2013-07-11T17:50:27.000Z</time>
      </trkpt>
      <trkpt lat="45.7526" lon="4.63655">
        <ele>662.34246826172</ele>
        <time>2013-07-11T17:50:30.000Z</time>
      </trkpt>
      <trkpt lat="45.75259" lon="4.63648">
        <ele>662.52893066406</ele>
        <time>2013-07-11T17:50:33.000Z</time>
      </trkpt>
      <trkpt lat="45.75259" lon="4.63642">
        <ele>662.94061279297</ele>
        <time>2013-07-11T17:50:35.000Z</time>
      </trkpt>
      <trkpt lat="45.75258" lon="4.63639">
        <ele>663.34332275391</ele>
        <time>2013-07-11T17:50:37.000Z</time>
      </trkpt>
      <trkpt lat="45.75257" lon="4.63636">
        <ele>663.69140625</ele>
        <time>2013-07-11T17:50:40.000Z</time>
      </trkpt>
      <trkpt lat="45.75258" lon="4.63632">
        <ele>664.09228515625</ele>
        <time>2013-07-11T17:50:42.000Z</time>
      </trkpt>
      <trkpt lat="45.75256" lon="4.63626">
        <ele>664.42517089844</ele>
        <time>2013-07-11T17:50:45.000Z</time>
      </trkpt>
      <trkpt lat="45.75256" lon="4.6362">
        <ele>664.73962402344</ele>
        <time>2013-07-11T17:50:48.000Z</time>
      </trkpt>
      <trkpt lat="45.75257" lon="4.63617">
        <ele>665.17028808594</ele>
        <time>2013-07-11T17:50:50.000Z</time>
      </trkpt>
      <trkpt lat="45.75257" lon="4.63612">
        <ele>665.66766357422</ele>
        <time>2013-07-11T17:50:53.000Z</time>
      </trkpt>
      <trkpt lat="45.75257" lon="4.63607">
        <ele>666.14349365234</ele>
        <time>2013-07-11T17:50:55.000Z</time>
      </trkpt>
      <trkpt lat="45.75255" lon="4.63599">
        <ele>666.63677978516</ele>
        <time>2013-07-11T17:50:57.000Z</time>
      </trkpt>
      <trkpt lat="45.75252" lon="4.63592">
        <ele>667.04772949219</ele>
        <time>2013-07-11T17:51:00.000Z</time>
      </trkpt>
      <trkpt lat="45.75251" lon="4.63588">
        <ele>667.33062744141</ele>
        <time>2013-07-11T17:51:02.000Z</time>
      </trkpt>
      <trkpt lat="45.7525" lon="4.63581">
        <ele>667.61492919922</ele>
        <time>2013-07-11T17:51:05.000Z</time>
      </trkpt>
      <trkpt lat="45.75249" lon="4.63576">
        <ele>667.89965820312</ele>
        <time>2013-07-11T17:51:08.000Z</time>
      </trkpt>
      <trkpt lat="45.75248" lon="4.6357">
        <ele>668.17437744141</ele>
        <time>2013-07-11T17:51:13.000Z</time>
      </trkpt>
      <trkpt lat="45.75247" lon="4.63565">
        <ele>668.57458496094</ele>
        <time>2013-07-11T17:51:15.000Z</time>
      </trkpt>
      <trkpt lat="45.75246" lon="4.63562">
        <ele>668.98254394531</ele>
        <time>2013-07-11T17:51:16.000Z</time>
      </trkpt>
      <trkpt lat="45.75245" lon="4.63558">
        <ele>669.32135009766</ele>
        <time>2013-07-11T17:51:19.000Z</time>
      </trkpt>
      <trkpt lat="45.75245" lon="4.63553">
        <ele>669.65557861328</ele>
        <time>2013-07-11T17:51:21.000Z</time>
      </trkpt>
      <trkpt lat="45.75244" lon="4.63547">
        <ele>670.03845214844</ele>
        <time>2013-07-11T17:51:23.000Z</time>
      </trkpt>
      <trkpt lat="45.75244" lon="4.63542">
        <ele>670.3974609375</ele>
        <time>2013-07-11T17:51:25.000Z</time>
      </trkpt>
      <trkpt lat="45.75243" lon="4.63535">
        <ele>670.86267089844</ele>
        <time>2013-07-11T17:51:28.000Z</time>
      </trkpt>
      <trkpt lat="45.75241" lon="4.6353">
        <ele>671.31848144531</ele>
        <time>2013-07-11T17:51:30.000Z</time>
      </trkpt>
      <trkpt lat="45.7524" lon="4.63529">
        <ele>671.64709472656</ele>
        <time>2013-07-11T17:51:33.000Z</time>
      </trkpt>
      <trkpt lat="45.75241" lon="4.63526">
        <ele>671.9892578125</ele>
        <time>2013-07-11T17:51:36.000Z</time>
      </trkpt>
      <trkpt lat="45.75242" lon="4.6352">
        <ele>672.42852783203</ele>
        <time>2013-07-11T17:51:38.000Z</time>
      </trkpt>
      <trkpt lat="45.75245" lon="4.63515">
        <ele>673.08563232422</ele>
        <time>2013-07-11T17:51:41.000Z</time>
      </trkpt>
      <trkpt lat="45.75245" lon="4.6351">
        <ele>673.84753417969</ele>
        <time>2013-07-11T17:51:44.000Z</time>
      </trkpt>
      <trkpt lat="45.75243" lon="4.63501">
        <ele>674.77136230469</ele>
        <time>2013-07-11T17:51:47.000Z</time>
      </trkpt>
      <trkpt lat="45.75243" lon="4.63495">
        <ele>675.65521240234</ele>
        <time>2013-07-11T17:51:50.000Z</time>
      </trkpt>
      <trkpt lat="45.75243" lon="4.63489">
        <ele>676.37384033203</ele>
        <time>2013-07-11T17:51:53.000Z</time>
      </trkpt>
      <trkpt lat="45.75241" lon="4.63482">
        <ele>676.70324707031</ele>
        <time>2013-07-11T17:51:55.000Z</time>
      </trkpt>
      <trkpt lat="45.75241" lon="4.63474">
        <ele>676.95104980469</ele>
        <time>2013-07-11T17:51:58.000Z</time>
      </trkpt>
      <trkpt lat="45.75242" lon="4.63469">
        <ele>677.20465087891</ele>
        <time>2013-07-11T17:52:02.000Z</time>
      </trkpt>
      <trkpt lat="45.75244" lon="4.63462">
        <ele>677.58203125</ele>
        <time>2013-07-11T17:52:05.000Z</time>
      </trkpt>
      <trkpt lat="45.75245" lon="4.63456">
        <ele>678.03820800781</ele>
        <time>2013-07-11T17:52:08.000Z</time>
      </trkpt>
      <trkpt lat="45.75248" lon="4.63451">
        <ele>678.75573730469</ele>
        <time>2013-07-11T17:52:10.000Z</time>
      </trkpt>
      <trkpt lat="45.75248" lon="4.63444">
        <ele>679.51495361328</ele>
        <time>2013-07-11T17:52:13.000Z</time>
      </trkpt>
      <trkpt lat="45.75249" lon="4.63438">
        <ele>680.29028320312</ele>
        <time>2013-07-11T17:52:16.000Z</time>
      </trkpt>
      <trkpt lat="45.7525" lon="4.63435">
        <ele>680.94311523438</ele>
        <time>2013-07-11T17:52:19.000Z</time>
      </trkpt>
      <trkpt lat="45.75251" lon="4.63427">
        <ele>681.60650634766</ele>
        <time>2013-07-11T17:52:21.000Z</time>
      </trkpt>
      <trkpt lat="45.75251" lon="4.63421">
        <ele>682.10595703125</ele>
        <time>2013-07-11T17:52:23.000Z</time>
      </trkpt>
      <trkpt lat="45.75251" lon="4.63416">
        <ele>682.56140136719</ele>
        <time>2013-07-11T17:52:26.000Z</time>
      </trkpt>
      <trkpt lat="45.75253" lon="4.63408">
        <ele>682.97216796875</ele>
        <time>2013-07-11T17:52:28.000Z</time>
      </trkpt>
      <trkpt lat="45.75255" lon="4.63405">
        <ele>683.39276123047</ele>
        <time>2013-07-11T17:52:30.000Z</time>
      </trkpt>
      <trkpt lat="45.75257" lon="4.63402">
        <ele>683.80242919922</ele>
        <time>2013-07-11T17:52:33.000Z</time>
      </trkpt>
      <trkpt lat="45.7526" lon="4.63401">
        <ele>684.22900390625</ele>
        <time>2013-07-11T17:52:35.000Z</time>
      </trkpt>
      <trkpt lat="45.75262" lon="4.63396">
        <ele>684.71643066406</ele>
        <time>2013-07-11T17:52:38.000Z</time>
      </trkpt>
      <trkpt lat="45.75266" lon="4.63395">
        <ele>685.24713134766</ele>
        <time>2013-07-11T17:52:40.000Z</time>
      </trkpt>
      <trkpt lat="45.75269" lon="4.63391">
        <ele>685.83599853516</ele>
        <time>2013-07-11T17:52:42.000Z</time>
      </trkpt>
      <trkpt lat="45.7527" lon="4.63386">
        <ele>686.3671875</ele>
        <time>2013-07-11T17:52:44.000Z</time>
      </trkpt>
      <trkpt lat="45.75272" lon="4.63382">
        <ele>686.89129638672</ele>
        <time>2013-07-11T17:52:46.000Z</time>
      </trkpt>
      <trkpt lat="45.75274" lon="4.63376">
        <ele>687.38659667969</ele>
        <time>2013-07-11T17:52:49.000Z</time>
      </trkpt>
      <trkpt lat="45.75274" lon="4.63371">
        <ele>687.80065917969</ele>
        <time>2013-07-11T17:52:51.000Z</time>
      </trkpt>
      <trkpt lat="45.75275" lon="4.63366">
        <ele>688.12194824219</ele>
        <time>2013-07-11T17:52:53.000Z</time>
      </trkpt>
      <trkpt lat="45.75278" lon="4.6336">
        <ele>688.47375488281</ele>
        <time>2013-07-11T17:52:56.000Z</time>
      </trkpt>
      <trkpt lat="45.7528" lon="4.63355">
        <ele>688.86639404297</ele>
        <time>2013-07-11T17:52:59.000Z</time>
      </trkpt>
      <trkpt lat="45.75283" lon="4.63351">
        <ele>689.29040527344</ele>
        <time>2013-07-11T17:53:01.000Z</time>
      </trkpt>
      <trkpt lat="45.75285" lon="4.63346">
        <ele>689.73797607422</ele>
        <time>2013-07-11T17:53:04.000Z</time>
      </trkpt>
      <trkpt lat="45.75285" lon="4.63342">
        <ele>690.13934326172</ele>
        <time>2013-07-11T17:53:07.000Z</time>
      </trkpt>
      <trkpt lat="45.75284" lon="4.63333">
        <ele>690.43768310547</ele>
        <time>2013-07-11T17:53:09.000Z</time>
      </trkpt>
      <trkpt lat="45.75286" lon="4.63328">
        <ele>690.63677978516</ele>
        <time>2013-07-11T17:53:11.000Z</time>
      </trkpt>
      <trkpt lat="45.75289" lon="4.63325">
        <ele>690.80487060547</ele>
        <time>2013-07-11T17:53:14.000Z</time>
      </trkpt>
      <trkpt lat="45.75293" lon="4.6332">
        <ele>690.97894287109</ele>
        <time>2013-07-11T17:53:16.000Z</time>
      </trkpt>
      <trkpt lat="45.75296" lon="4.63313">
        <ele>691.20520019531</ele>
        <time>2013-07-11T17:53:18.000Z</time>
      </trkpt>
      <trkpt lat="45.75298" lon="4.63309">
        <ele>691.486328125</ele>
        <time>2013-07-11T17:53:21.000Z</time>
      </trkpt>
      <trkpt lat="45.75302" lon="4.633">
        <ele>691.81646728516</ele>
        <time>2013-07-11T17:53:23.000Z</time>
      </trkpt>
      <trkpt lat="45.75303" lon="4.63297">
        <ele>692.09167480469</ele>
        <time>2013-07-11T17:53:26.000Z</time>
      </trkpt>
      <trkpt lat="45.75304" lon="4.63292">
        <ele>692.2861328125</ele>
        <time>2013-07-11T17:53:29.000Z</time>
      </trkpt>
      <trkpt lat="45.75304" lon="4.63285">
        <ele>692.37841796875</ele>
        <time>2013-07-11T17:53:31.000Z</time>
      </trkpt>
      <trkpt lat="45.75306" lon="4.6328">
        <ele>692.44348144531</ele>
        <time>2013-07-11T17:53:33.000Z</time>
      </trkpt>
      <trkpt lat="45.75311" lon="4.63275">
        <ele>692.64001464844</ele>
        <time>2013-07-11T17:53:37.000Z</time>
      </trkpt>
      <trkpt lat="45.75315" lon="4.63269">
        <ele>692.97039794922</ele>
        <time>2013-07-11T17:53:39.000Z</time>
      </trkpt>
      <trkpt lat="45.75321" lon="4.63265">
        <ele>693.5263671875</ele>
        <time>2013-07-11T17:53:42.000Z</time>
      </trkpt>
      <trkpt lat="45.75324" lon="4.63263">
        <ele>694.27716064453</ele>
        <time>2013-07-11T17:53:44.000Z</time>
      </trkpt>
      <trkpt lat="45.75329" lon="4.63258">
        <ele>695.20104980469</ele>
        <time>2013-07-11T17:53:47.000Z</time>
      </trkpt>
      <trkpt lat="45.75332" lon="4.63254">
        <ele>696.08874511719</ele>
        <time>2013-07-11T17:53:49.000Z</time>
      </trkpt>
      <trkpt lat="45.75336" lon="4.63249">
        <ele>696.88543701172</ele>
        <time>2013-07-11T17:53:52.000Z</time>
      </trkpt>
      <trkpt lat="45.75339" lon="4.63245">
        <ele>697.44360351562</ele>
        <time>2013-07-11T17:53:54.000Z</time>
      </trkpt>
      <trkpt lat="45.75341" lon="4.63241">
        <ele>697.84204101562</ele>
        <time>2013-07-11T17:53:57.000Z</time>
      </trkpt>
      <trkpt lat="45.75343" lon="4.63238">
        <ele>698.04583740234</ele>
        <time>2013-07-11T17:53:59.000Z</time>
      </trkpt>
      <trkpt lat="45.75346" lon="4.63233">
        <ele>698.08624267578</ele>
        <time>2013-07-11T17:54:02.000Z</time>
      </trkpt>
      <trkpt lat="45.75349" lon="4.6323">
        <ele>698.06958007812</ele>
        <time>2013-07-11T17:54:05.000Z</time>
      </trkpt>
      <trkpt lat="45.75349" lon="4.63228">
        <ele>698.04901123047</ele>
        <time>2013-07-11T17:54:07.000Z</time>
      </trkpt>
      <trkpt lat="45.7535" lon="4.63222">
        <ele>697.97741699219</ele>
        <time>2013-07-11T17:54:10.000Z</time>
      </trkpt>
      <trkpt lat="45.75352" lon="4.63219">
        <ele>697.90045166016</ele>
        <time>2013-07-11T17:54:12.000Z</time>
      </trkpt>
      <trkpt lat="45.75356" lon="4.63212">
        <ele>697.85382080078</ele>
        <time>2013-07-11T17:54:16.000Z</time>
      </trkpt>
      <trkpt lat="45.75363" lon="4.63204">
        <ele>697.86566162109</ele>
        <time>2013-07-11T17:54:19.000Z</time>
      </trkpt>
      <trkpt lat="45.75368" lon="4.63196">
        <ele>697.96258544922</ele>
        <time>2013-07-11T17:54:21.000Z</time>
      </trkpt>
      <trkpt lat="45.75377" lon="4.63187">
        <ele>698.28015136719</ele>
        <time>2013-07-11T17:54:24.000Z</time>
      </trkpt>
      <trkpt lat="45.75382" lon="4.63178">
        <ele>698.66973876953</ele>
        <time>2013-07-11T17:54:26.000Z</time>
      </trkpt>
      <trkpt lat="45.75386" lon="4.63169">
        <ele>699.11669921875</ele>
        <time>2013-07-11T17:54:28.000Z</time>
      </trkpt>
      <trkpt lat="45.75392" lon="4.63163">
        <ele>699.59155273438</ele>
        <time>2013-07-11T17:54:30.000Z</time>
      </trkpt>
      <trkpt lat="45.75398" lon="4.63156">
        <ele>700.12854003906</ele>
        <time>2013-07-11T17:54:33.000Z</time>
      </trkpt>
      <trkpt lat="45.75406" lon="4.63147">
        <ele>700.63800048828</ele>
        <time>2013-07-11T17:54:36.000Z</time>
      </trkpt>
      <trkpt lat="45.75411" lon="4.6314">
        <ele>701.18103027344</ele>
        <time>2013-07-11T17:54:39.000Z</time>
      </trkpt>
      <trkpt lat="45.75414" lon="4.63134">
        <ele>701.69519042969</ele>
        <time>2013-07-11T17:54:42.000Z</time>
      </trkpt>
      <trkpt lat="45.75421" lon="4.6312">
        <ele>701.92742919922</ele>
        <time>2013-07-11T17:54:45.000Z</time>
      </trkpt>
      <trkpt lat="45.75428" lon="4.63107">
        <ele>701.779296875</ele>
        <time>2013-07-11T17:54:47.000Z</time>
      </trkpt>
      <trkpt lat="45.75433" lon="4.63102">
        <ele>701.37048339844</ele>
        <time>2013-07-11T17:54:49.000Z</time>
      </trkpt>
      <trkpt lat="45.75438" lon="4.63094">
        <ele>700.74475097656</ele>
        <time>2013-07-11T17:54:52.000Z</time>
      </trkpt>
      <trkpt lat="45.75443" lon="4.63083">
        <ele>699.97259521484</ele>
        <time>2013-07-11T17:54:54.000Z</time>
      </trkpt>
      <trkpt lat="45.75451" lon="4.63068">
        <ele>699.26190185547</ele>
        <time>2013-07-11T17:54:56.000Z</time>
      </trkpt>
      <trkpt lat="45.75455" lon="4.63059">
        <ele>698.76135253906</ele>
        <time>2013-07-11T17:54:59.000Z</time>
      </trkpt>
      <trkpt lat="45.7546" lon="4.63042">
        <ele>698.35284423828</ele>
        <time>2013-07-11T17:55:01.000Z</time>
      </trkpt>
      <trkpt lat="45.75464" lon="4.63031">
        <ele>698.07336425781</ele>
        <time>2013-07-11T17:55:04.000Z</time>
      </trkpt>
      <trkpt lat="45.7547" lon="4.63011">
        <ele>697.94543457031</ele>
        <time>2013-07-11T17:55:06.000Z</time>
      </trkpt>
      <trkpt lat="45.75474" lon="4.63002">
        <ele>698.00146484375</ele>
        <time>2013-07-11T17:55:08.000Z</time>
      </trkpt>
      <trkpt lat="45.7548" lon="4.62991">
        <ele>698.08264160156</ele>
        <time>2013-07-11T17:55:12.000Z</time>
      </trkpt>
      <trkpt lat="45.75485" lon="4.62986">
        <ele>698.20532226562</ele>
        <time>2013-07-11T17:55:14.000Z</time>
      </trkpt>
      <trkpt lat="45.75487" lon="4.62971">
        <ele>698.19177246094</ele>
        <time>2013-07-11T17:55:17.000Z</time>
      </trkpt>
      <trkpt lat="45.75486" lon="4.62949">
        <ele>697.89361572266</ele>
        <time>2013-07-11T17:55:19.000Z</time>
      </trkpt>
      <trkpt lat="45.75487" lon="4.62935">
        <ele>697.40881347656</ele>
        <time>2013-07-11T17:55:21.000Z</time>
      </trkpt>
      <trkpt lat="45.75488" lon="4.62922">
        <ele>696.82043457031</ele>
        <time>2013-07-11T17:55:24.000Z</time>
      </trkpt>
      <trkpt lat="45.75489" lon="4.62909">
        <ele>696.19171142578</ele>
        <time>2013-07-11T17:55:26.000Z</time>
      </trkpt>
      <trkpt lat="45.75491" lon="4.62892">
        <ele>695.74621582031</ele>
        <time>2013-07-11T17:55:29.000Z</time>
      </trkpt>
      <trkpt lat="45.75495" lon="4.62877">
        <ele>695.61541748047</ele>
        <time>2013-07-11T17:55:32.000Z</time>
      </trkpt>
      <trkpt lat="45.75499" lon="4.62866">
        <ele>695.72131347656</ele>
        <time>2013-07-11T17:55:34.000Z</time>
      </trkpt>
      <trkpt lat="45.75502" lon="4.6286">
        <ele>696.00036621094</ele>
        <time>2013-07-11T17:55:36.000Z</time>
      </trkpt>
      <trkpt lat="45.75504" lon="4.62859">
        <ele>696.337890625</ele>
        <time>2013-07-11T17:55:40.000Z</time>
      </trkpt>
      <trkpt lat="45.75508" lon="4.62859">
        <ele>696.66320800781</ele>
        <time>2013-07-11T17:55:43.000Z</time>
      </trkpt>
      <trkpt lat="45.75512" lon="4.62858">
        <ele>696.94873046875</ele>
        <time>2013-07-11T17:55:46.000Z</time>
      </trkpt>
      <trkpt lat="45.75516" lon="4.62856">
        <ele>697.19177246094</ele>
        <time>2013-07-11T17:55:48.000Z</time>
      </trkpt>
      <trkpt lat="45.75519" lon="4.62849">
        <ele>697.49285888672</ele>
        <time>2013-07-11T17:55:52.000Z</time>
      </trkpt>
      <trkpt lat="45.75526" lon="4.62845">
        <ele>697.91223144531</ele>
        <time>2013-07-11T17:55:55.000Z</time>
      </trkpt>
      <trkpt lat="45.75532" lon="4.62841">
        <ele>698.45227050781</ele>
        <time>2013-07-11T17:55:57.000Z</time>
      </trkpt>
      <trkpt lat="45.75536" lon="4.62838">
        <ele>699.07189941406</ele>
        <time>2013-07-11T17:56:00.000Z</time>
      </trkpt>
      <trkpt lat="45.75544" lon="4.62833">
        <ele>699.89147949219</ele>
        <time>2013-07-11T17:56:02.000Z</time>
      </trkpt>
      <trkpt lat="45.7555" lon="4.6283">
        <ele>700.77697753906</ele>
        <time>2013-07-11T17:56:05.000Z</time>
      </trkpt>
      <trkpt lat="45.75557" lon="4.62828">
        <ele>701.68536376953</ele>
        <time>2013-07-11T17:56:08.000Z</time>
      </trkpt>
      <trkpt lat="45.75562" lon="4.62826">
        <ele>702.60223388672</ele>
        <time>2013-07-11T17:56:10.000Z</time>
      </trkpt>
      <trkpt lat="45.75571" lon="4.62825">
        <ele>703.61138916016</ele>
        <time>2013-07-11T17:56:14.000Z</time>
      </trkpt>
      <trkpt lat="45.75577" lon="4.62826">
        <ele>704.47515869141</ele>
        <time>2013-07-11T17:56:16.000Z</time>
      </trkpt>
      <trkpt lat="45.7558" lon="4.62827">
        <ele>705.22369384766</ele>
        <time>2013-07-11T17:56:18.000Z</time>
      </trkpt>
      <trkpt lat="45.75586" lon="4.62825">
        <ele>706.03656005859</ele>
        <time>2013-07-11T17:56:21.000Z</time>
      </trkpt>
      <trkpt lat="45.75591" lon="4.62824">
        <ele>706.97186279297</ele>
        <time>2013-07-11T17:56:23.000Z</time>
      </trkpt>
      <trkpt lat="45.75594" lon="4.62824">
        <ele>707.90539550781</ele>
        <time>2013-07-11T17:56:25.000Z</time>
      </trkpt>
      <trkpt lat="45.75601" lon="4.62826">
        <ele>709.00665283203</ele>
        <time>2013-07-11T17:56:28.000Z</time>
      </trkpt>
      <trkpt lat="45.75624" lon="4.62844">
        <ele>710.49645996094</ele>
        <time>2013-07-11T17:56:49.000Z</time>
      </trkpt>
      <trkpt lat="45.75629" lon="4.62849">
        <ele>711.69097900391</ele>
        <time>2013-07-11T17:56:51.000Z</time>
      </trkpt>
      <trkpt lat="45.75637" lon="4.62853">
        <ele>712.71154785156</ele>
        <time>2013-07-11T17:56:54.000Z</time>
      </trkpt>
      <trkpt lat="45.75643" lon="4.62855">
        <ele>713.66650390625</ele>
        <time>2013-07-11T17:56:56.000Z</time>
      </trkpt>
      <trkpt lat="45.7565" lon="4.62858">
        <ele>714.42346191406</ele>
        <time>2013-07-11T17:56:58.000Z</time>
      </trkpt>
      <trkpt lat="45.75658" lon="4.62864">
        <ele>714.6376953125</ele>
        <time>2013-07-11T17:57:01.000Z</time>
      </trkpt>
      <trkpt lat="45.75663" lon="4.62868">
        <ele>714.78771972656</ele>
        <time>2013-07-11T17:57:04.000Z</time>
      </trkpt>
      <trkpt lat="45.75668" lon="4.62872">
        <ele>714.74157714844</ele>
        <time>2013-07-11T17:57:06.000Z</time>
      </trkpt>
      <trkpt lat="45.75676" lon="4.62878">
        <ele>714.56091308594</ele>
        <time>2013-07-11T17:57:09.000Z</time>
      </trkpt>
      <trkpt lat="45.75684" lon="4.62882">
        <ele>714.36584472656</ele>
        <time>2013-07-11T17:57:12.000Z</time>
      </trkpt>
      <trkpt lat="45.75692" lon="4.62889">
        <ele>714.27136230469</ele>
        <time>2013-07-11T17:57:15.000Z</time>
      </trkpt>
      <trkpt lat="45.75698" lon="4.62892">
        <ele>714.35504150391</ele>
        <time>2013-07-11T17:57:17.000Z</time>
      </trkpt>
      <trkpt lat="45.75702" lon="4.62894">
        <ele>714.62139892578</ele>
        <time>2013-07-11T17:57:20.000Z</time>
      </trkpt>
      <trkpt lat="45.75705" lon="4.62897">
        <ele>714.78833007812</ele>
        <time>2013-07-11T17:57:22.000Z</time>
      </trkpt>
      <trkpt lat="45.75708" lon="4.629">
        <ele>714.85125732422</ele>
        <time>2013-07-11T17:57:25.000Z</time>
      </trkpt>
      <trkpt lat="45.75713" lon="4.62905">
        <ele>714.89434814453</ele>
        <time>2013-07-11T17:57:27.000Z</time>
      </trkpt>
      <trkpt lat="45.7572" lon="4.62908">
        <ele>714.98779296875</ele>
        <time>2013-07-11T17:57:29.000Z</time>
      </trkpt>
      <trkpt lat="45.75724" lon="4.62911">
        <ele>715.05596923828</ele>
        <time>2013-07-11T17:57:32.000Z</time>
      </trkpt>
      <trkpt lat="45.75731" lon="4.62914">
        <ele>715.32946777344</ele>
        <time>2013-07-11T17:57:34.000Z</time>
      </trkpt>
      <trkpt lat="45.75736" lon="4.62915">
        <ele>715.83807373047</ele>
        <time>2013-07-11T17:57:37.000Z</time>
      </trkpt>
      <trkpt lat="45.75747" lon="4.62917">
        <ele>716.91027832031</ele>
        <time>2013-07-11T17:57:50.000Z</time>
      </trkpt>
      <trkpt lat="45.75753" lon="4.62916">
        <ele>718.20056152344</ele>
        <time>2013-07-11T17:57:53.000Z</time>
      </trkpt>
      <trkpt lat="45.75758" lon="4.62917">
        <ele>719.53698730469</ele>
        <time>2013-07-11T17:57:55.000Z</time>
      </trkpt>
      <trkpt lat="45.75764" lon="4.6292">
        <ele>720.79650878906</ele>
        <time>2013-07-11T17:57:58.000Z</time>
      </trkpt>
      <trkpt lat="45.75768" lon="4.62922">
        <ele>721.80499267578</ele>
        <time>2013-07-11T17:58:00.000Z</time>
      </trkpt>
      <trkpt lat="45.75791" lon="4.62935">
        <ele>722.14343261719</ele>
        <time>2013-07-11T17:58:04.000Z</time>
      </trkpt>
      <trkpt lat="45.75798" lon="4.6294">
        <ele>722.12878417969</ele>
        <time>2013-07-11T17:58:06.000Z</time>
      </trkpt>
      <trkpt lat="45.75808" lon="4.62938">
        <ele>722.45886230469</ele>
        <time>2013-07-11T17:58:09.000Z</time>
      </trkpt>
      <trkpt lat="45.75817" lon="4.62946">
        <ele>722.53240966797</ele>
        <time>2013-07-11T17:58:12.000Z</time>
      </trkpt>
      <trkpt lat="45.75822" lon="4.6295">
        <ele>722.51904296875</ele>
        <time>2013-07-11T17:58:14.000Z</time>
      </trkpt>
      <trkpt lat="45.75827" lon="4.62956">
        <ele>722.40014648438</ele>
        <time>2013-07-11T17:58:17.000Z</time>
      </trkpt>
      <trkpt lat="45.75834" lon="4.62962">
        <ele>722.11651611328</ele>
        <time>2013-07-11T17:58:20.000Z</time>
      </trkpt>
      <trkpt lat="45.75836" lon="4.62965">
        <ele>721.26599121094</ele>
        <time>2013-07-11T17:58:22.000Z</time>
      </trkpt>
      <trkpt lat="45.75839" lon="4.62968">
        <ele>720.55651855469</ele>
        <time>2013-07-11T17:58:25.000Z</time>
      </trkpt>
      <trkpt lat="45.75841" lon="4.62969">
        <ele>719.95001220703</ele>
        <time>2013-07-11T17:58:27.000Z</time>
      </trkpt>
      <trkpt lat="45.75844" lon="4.62969">
        <ele>719.66046142578</ele>
        <time>2013-07-11T17:58:29.000Z</time>
      </trkpt>
      <trkpt lat="45.75848" lon="4.62971">
        <ele>719.61590576172</ele>
        <time>2013-07-11T17:58:32.000Z</time>
      </trkpt>
      <trkpt lat="45.75859" lon="4.62979">
        <ele>719.61285400391</ele>
        <time>2013-07-11T17:58:35.000Z</time>
      </trkpt>
      <trkpt lat="45.75867" lon="4.62987">
        <ele>719.57897949219</ele>
        <time>2013-07-11T17:58:37.000Z</time>
      </trkpt>
      <trkpt lat="45.75871" lon="4.62991">
        <ele>719.52972412109</ele>
        <time>2013-07-11T17:58:40.000Z</time>
      </trkpt>
      <trkpt lat="45.75877" lon="4.62996">
        <ele>719.39196777344</ele>
        <time>2013-07-11T17:58:43.000Z</time>
      </trkpt>
      <trkpt lat="45.75882" lon="4.62999">
        <ele>719.31457519531</ele>
        <time>2013-07-11T17:58:45.000Z</time>
      </trkpt>
      <trkpt lat="45.75887" lon="4.63">
        <ele>719.45825195312</ele>
        <time>2013-07-11T17:58:47.000Z</time>
      </trkpt>
      <trkpt lat="45.75891" lon="4.63003">
        <ele>719.73767089844</ele>
        <time>2013-07-11T17:58:49.000Z</time>
      </trkpt>
      <trkpt lat="45.75895" lon="4.63008">
        <ele>720.09069824219</ele>
        <time>2013-07-11T17:58:52.000Z</time>
      </trkpt>
      <trkpt lat="45.75901" lon="4.63011">
        <ele>720.56915283203</ele>
        <time>2013-07-11T17:58:54.000Z</time>
      </trkpt>
      <trkpt lat="45.75906" lon="4.63014">
        <ele>721.12292480469</ele>
        <time>2013-07-11T17:58:57.000Z</time>
      </trkpt>
      <trkpt lat="45.7591" lon="4.63015">
        <ele>721.61260986328</ele>
        <time>2013-07-11T17:59:00.000Z</time>
      </trkpt>
      <trkpt lat="45.75913" lon="4.63016">
        <ele>722.16619873047</ele>
        <time>2013-07-11T17:59:03.000Z</time>
      </trkpt>
      <trkpt lat="45.75917" lon="4.6302">
        <ele>722.74841308594</ele>
        <time>2013-07-11T17:59:06.000Z</time>
      </trkpt>
      <trkpt lat="45.75922" lon="4.63024">
        <ele>723.04467773438</ele>
        <time>2013-07-11T17:59:09.000Z</time>
      </trkpt>
      <trkpt lat="45.75924" lon="4.63026">
        <ele>723.05114746094</ele>
        <time>2013-07-11T17:59:11.000Z</time>
      </trkpt>
      <trkpt lat="45.75929" lon="4.63033">
        <ele>722.69702148438</ele>
        <time>2013-07-11T17:59:13.000Z</time>
      </trkpt>
      <trkpt lat="45.75933" lon="4.63038">
        <ele>722.09167480469</ele>
        <time>2013-07-11T17:59:15.000Z</time>
      </trkpt>
      <trkpt lat="45.75936" lon="4.63041">
        <ele>721.32086181641</ele>
        <time>2013-07-11T17:59:18.000Z</time>
      </trkpt>
      <trkpt lat="45.7594" lon="4.63044">
        <ele>720.61285400391</ele>
        <time>2013-07-11T17:59:20.000Z</time>
      </trkpt>
      <trkpt lat="45.75948" lon="4.63054">
        <ele>719.73132324219</ele>
        <time>2013-07-11T17:59:22.000Z</time>
      </trkpt>
      <trkpt lat="45.75951" lon="4.6306">
        <ele>718.94146728516</ele>
        <time>2013-07-11T17:59:25.000Z</time>
      </trkpt>
      <trkpt lat="45.75958" lon="4.63067">
        <ele>718.16931152344</ele>
        <time>2013-07-11T17:59:27.000Z</time>
      </trkpt>
      <trkpt lat="45.75962" lon="4.6307">
        <ele>717.470703125</ele>
        <time>2013-07-11T17:59:30.000Z</time>
      </trkpt>
      <trkpt lat="45.75962" lon="4.63071">
        <ele>716.85485839844</ele>
        <time>2013-07-11T17:59:32.000Z</time>
      </trkpt>
      <trkpt lat="45.7598" lon="4.63076">
        <ele>716.6484375</ele>
        <time>2013-07-11T18:00:22.000Z</time>
      </trkpt>
      <trkpt lat="45.75988" lon="4.63079">
        <ele>716.6689453125</ele>
        <time>2013-07-11T18:00:25.000Z</time>
      </trkpt>
      <trkpt lat="45.75995" lon="4.63077">
        <ele>717.00305175781</ele>
        <time>2013-07-11T18:00:28.000Z</time>
      </trkpt>
      <trkpt lat="45.76002" lon="4.63073">
        <ele>717.47967529297</ele>
        <time>2013-07-11T18:00:31.000Z</time>
      </trkpt>
      <trkpt lat="45.76011" lon="4.63068">
        <ele>717.75134277344</ele>
        <time>2013-07-11T18:00:34.000Z</time>
      </trkpt>
      <trkpt lat="45.7602" lon="4.63064">
        <ele>717.67639160156</ele>
        <time>2013-07-11T18:00:36.000Z</time>
      </trkpt>
      <trkpt lat="45.76027" lon="4.63057">
        <ele>717.45050048828</ele>
        <time>2013-07-11T18:00:39.000Z</time>
      </trkpt>
      <trkpt lat="45.76034" lon="4.63048">
        <ele>716.96069335938</ele>
        <time>2013-07-11T18:00:42.000Z</time>
      </trkpt>
      <trkpt lat="45.76043" lon="4.6304">
        <ele>716.21423339844</ele>
        <time>2013-07-11T18:00:44.000Z</time>
      </trkpt>
      <trkpt lat="45.7605" lon="4.63033">
        <ele>715.54675292969</ele>
        <time>2013-07-11T18:00:47.000Z</time>
      </trkpt>
      <trkpt lat="45.76059" lon="4.6302">
        <ele>714.98986816406</ele>
        <time>2013-07-11T18:00:50.000Z</time>
      </trkpt>
      <trkpt lat="45.76067" lon="4.63008">
        <ele>714.43640136719</ele>
        <time>2013-07-11T18:00:52.000Z</time>
      </trkpt>
      <trkpt lat="45.76072" lon="4.63001">
        <ele>713.90771484375</ele>
        <time>2013-07-11T18:00:55.000Z</time>
      </trkpt>
      <trkpt lat="45.76074" lon="4.62992">
        <ele>713.57556152344</ele>
        <time>2013-07-11T18:00:57.000Z</time>
      </trkpt>
      <trkpt lat="45.76075" lon="4.62984">
        <ele>713.45422363281</ele>
        <time>2013-07-11T18:01:00.000Z</time>
      </trkpt>
      <trkpt lat="45.7608" lon="4.62969">
        <ele>713.47790527344</ele>
        <time>2013-07-11T18:01:03.000Z</time>
      </trkpt>
      <trkpt lat="45.76082" lon="4.6296">
        <ele>713.61828613281</ele>
        <time>2013-07-11T18:01:06.000Z</time>
      </trkpt>
      <trkpt lat="45.76086" lon="4.62949">
        <ele>713.9140625</ele>
        <time>2013-07-11T18:01:09.000Z</time>
      </trkpt>
      <trkpt lat="45.7609" lon="4.62941">
        <ele>714.23059082031</ele>
        <time>2013-07-11T18:01:12.000Z</time>
      </trkpt>
      <trkpt lat="45.76093" lon="4.62936">
        <ele>714.53430175781</ele>
        <time>2013-07-11T18:01:14.000Z</time>
      </trkpt>
      <trkpt lat="45.76096" lon="4.62928">
        <ele>714.88903808594</ele>
        <time>2013-07-11T18:01:17.000Z</time>
      </trkpt>
      <trkpt lat="45.76099" lon="4.62921">
        <ele>715.30017089844</ele>
        <time>2013-07-11T18:01:20.000Z</time>
      </trkpt>
      <trkpt lat="45.76102" lon="4.62912">
        <ele>715.88623046875</ele>
        <time>2013-07-11T18:01:22.000Z</time>
      </trkpt>
      <trkpt lat="45.76108" lon="4.62906">
        <ele>716.64019775391</ele>
        <time>2013-07-11T18:01:26.000Z</time>
      </trkpt>
      <trkpt lat="45.76112" lon="4.62899">
        <ele>717.63397216797</ele>
        <time>2013-07-11T18:01:29.000Z</time>
      </trkpt>
      <trkpt lat="45.76112" lon="4.62891">
        <ele>718.89862060547</ele>
        <time>2013-07-11T18:01:31.000Z</time>
      </trkpt>
      <trkpt lat="45.76113" lon="4.62884">
        <ele>720.38757324219</ele>
        <time>2013-07-11T18:01:33.000Z</time>
      </trkpt>
      <trkpt lat="45.76114" lon="4.62879">
        <ele>721.81652832031</ele>
        <time>2013-07-11T18:01:35.000Z</time>
      </trkpt>
      <trkpt lat="45.76117" lon="4.62873">
        <ele>723.27783203125</ele>
        <time>2013-07-11T18:01:38.000Z</time>
      </trkpt>
      <trkpt lat="45.7612" lon="4.62866">
        <ele>724.70684814453</ele>
        <time>2013-07-11T18:01:41.000Z</time>
      </trkpt>
      <trkpt lat="45.76122" lon="4.62862">
        <ele>725.95812988281</ele>
        <time>2013-07-11T18:01:43.000Z</time>
      </trkpt>
      <trkpt lat="45.76127" lon="4.62855">
        <ele>727.12194824219</ele>
        <time>2013-07-11T18:01:45.000Z</time>
      </trkpt>
      <trkpt lat="45.7613" lon="4.62851">
        <ele>728.22967529297</ele>
        <time>2013-07-11T18:01:47.000Z</time>
      </trkpt>
      <trkpt lat="45.76133" lon="4.62847">
        <ele>729.19268798828</ele>
        <time>2013-07-11T18:01:50.000Z</time>
      </trkpt>
      <trkpt lat="45.76138" lon="4.62843">
        <ele>729.99279785156</ele>
        <time>2013-07-11T18:01:53.000Z</time>
      </trkpt>
      <trkpt lat="45.76144" lon="4.62841">
        <ele>730.59307861328</ele>
        <time>2013-07-11T18:01:55.000Z</time>
      </trkpt>
      <trkpt lat="45.76146" lon="4.6284">
        <ele>730.97369384766</ele>
        <time>2013-07-11T18:01:57.000Z</time>
      </trkpt>
      <trkpt lat="45.76147" lon="4.6284">
        <ele>731.19952392578</ele>
        <time>2013-07-11T18:01:59.000Z</time>
      </trkpt>
      <trkpt lat="45.76152" lon="4.62841">
        <ele>731.15441894531</ele>
        <time>2013-07-11T18:02:02.000Z</time>
      </trkpt>
      <trkpt lat="45.76186" lon="4.62852">
        <ele>730.41632080078</ele>
        <time>2013-07-11T18:02:54.000Z</time>
      </trkpt>
      <trkpt lat="45.76196" lon="4.62855">
        <ele>729.63360595703</ele>
        <time>2013-07-11T18:02:56.000Z</time>
      </trkpt>
      <trkpt lat="45.76208" lon="4.62856">
        <ele>728.89422607422</ele>
        <time>2013-07-11T18:03:00.000Z</time>
      </trkpt>
      <trkpt lat="45.76217" lon="4.62856">
        <ele>728.20330810547</ele>
        <time>2013-07-11T18:03:02.000Z</time>
      </trkpt>
      <trkpt lat="45.76224" lon="4.62858">
        <ele>727.65655517578</ele>
        <time>2013-07-11T18:03:05.000Z</time>
      </trkpt>
      <trkpt lat="45.76229" lon="4.62859">
        <ele>727.69152832031</ele>
        <time>2013-07-11T18:03:07.000Z</time>
      </trkpt>
      <trkpt lat="45.76235" lon="4.62859">
        <ele>727.83349609375</ele>
        <time>2013-07-11T18:03:10.000Z</time>
      </trkpt>
      <trkpt lat="45.76239" lon="4.62859">
        <ele>727.94982910156</ele>
        <time>2013-07-11T18:03:12.000Z</time>
      </trkpt>
      <trkpt lat="45.76247" lon="4.62862">
        <ele>727.99981689453</ele>
        <time>2013-07-11T18:03:15.000Z</time>
      </trkpt>
      <trkpt lat="45.76252" lon="4.62868">
        <ele>727.91693115234</ele>
        <time>2013-07-11T18:03:17.000Z</time>
      </trkpt>
      <trkpt lat="45.76256" lon="4.62873">
        <ele>727.67291259766</ele>
        <time>2013-07-11T18:03:19.000Z</time>
      </trkpt>
      <trkpt lat="45.76258" lon="4.62877">
        <ele>727.2802734375</ele>
        <time>2013-07-11T18:03:22.000Z</time>
      </trkpt>
      <trkpt lat="45.76276" lon="4.62896">
        <ele>726.33972167969</ele>
        <time>2013-07-11T18:04:47.000Z</time>
      </trkpt>
      <trkpt lat="45.76281" lon="4.62906">
        <ele>725.25567626953</ele>
        <time>2013-07-11T18:04:50.000Z</time>
      </trkpt>
      <trkpt lat="45.76285" lon="4.62912">
        <ele>724.23114013672</ele>
        <time>2013-07-11T18:04:52.000Z</time>
      </trkpt>
      <trkpt lat="45.76289" lon="4.62921">
        <ele>723.34075927734</ele>
        <time>2013-07-11T18:04:56.000Z</time>
      </trkpt>
      <trkpt lat="45.76293" lon="4.62927">
        <ele>722.57287597656</ele>
        <time>2013-07-11T18:04:59.000Z</time>
      </trkpt>
      <trkpt lat="45.76297" lon="4.6293">
        <ele>722.34399414062</ele>
        <time>2013-07-11T18:05:02.000Z</time>
      </trkpt>
      <trkpt lat="45.76299" lon="4.62932">
        <ele>722.28656005859</ele>
        <time>2013-07-11T18:05:05.000Z</time>
      </trkpt>
      <trkpt lat="45.763" lon="4.62933">
        <ele>722.30493164062</ele>
        <time>2013-07-11T18:05:07.000Z</time>
      </trkpt>
      <trkpt lat="45.76304" lon="4.62937">
        <ele>722.40252685547</ele>
        <time>2013-07-11T18:05:09.000Z</time>
      </trkpt>
      <trkpt lat="45.76307" lon="4.62943">
        <ele>722.54699707031</ele>
        <time>2013-07-11T18:05:12.000Z</time>
      </trkpt>
      <trkpt lat="45.76311" lon="4.62948">
        <ele>722.75469970703</ele>
        <time>2013-07-11T18:05:14.000Z</time>
      </trkpt>
      <trkpt lat="45.76314" lon="4.62949">
        <ele>722.97717285156</ele>
        <time>2013-07-11T18:05:18.000Z</time>
      </trkpt>
      <trkpt lat="45.76317" lon="4.62952">
        <ele>723.24371337891</ele>
        <time>2013-07-11T18:05:20.000Z</time>
      </trkpt>
      <trkpt lat="45.76321" lon="4.62954">
        <ele>723.53454589844</ele>
        <time>2013-07-11T18:05:23.000Z</time>
      </trkpt>
      <trkpt lat="45.76324" lon="4.62954">
        <ele>723.78594970703</ele>
        <time>2013-07-11T18:05:25.000Z</time>
      </trkpt>
      <trkpt lat="45.76339" lon="4.62962">
        <ele>724.21545410156</ele>
        <time>2013-07-11T18:05:36.000Z</time>
      </trkpt>
      <trkpt lat="45.76342" lon="4.62967">
        <ele>724.71411132812</ele>
        <time>2013-07-11T18:05:38.000Z</time>
      </trkpt>
      <trkpt lat="45.76347" lon="4.62971">
        <ele>725.26330566406</ele>
        <time>2013-07-11T18:05:41.000Z</time>
      </trkpt>
      <trkpt lat="45.76353" lon="4.62975">
        <ele>725.84729003906</ele>
        <time>2013-07-11T18:05:45.000Z</time>
      </trkpt>
      <trkpt lat="45.76358" lon="4.62978">
        <ele>726.47009277344</ele>
        <time>2013-07-11T18:05:47.000Z</time>
      </trkpt>
      <trkpt lat="45.7636" lon="4.62981">
        <ele>726.89813232422</ele>
        <time>2013-07-11T18:05:50.000Z</time>
      </trkpt>
      <trkpt lat="45.76366" lon="4.62987">
        <ele>727.34307861328</ele>
        <time>2013-07-11T18:05:53.000Z</time>
      </trkpt>
      <trkpt lat="45.76369" lon="4.6299">
        <ele>727.76611328125</ele>
        <time>2013-07-11T18:05:55.000Z</time>
      </trkpt>
      <trkpt lat="45.76372" lon="4.62994">
        <ele>728.1494140625</ele>
        <time>2013-07-11T18:05:57.000Z</time>
      </trkpt>
      <trkpt lat="45.76373" lon="4.62997">
        <ele>728.52575683594</ele>
        <time>2013-07-11T18:06:00.000Z</time>
      </trkpt>
      <trkpt lat="45.76374" lon="4.62999">
        <ele>728.87664794922</ele>
        <time>2013-07-11T18:06:02.000Z</time>
      </trkpt>
      <trkpt lat="45.76378" lon="4.63001">
        <ele>729.14709472656</ele>
        <time>2013-07-11T18:06:05.000Z</time>
      </trkpt>
      <trkpt lat="45.76384" lon="4.63006">
        <ele>729.38391113281</ele>
        <time>2013-07-11T18:06:09.000Z</time>
      </trkpt>
      <trkpt lat="45.7639" lon="4.63011">
        <ele>729.60345458984</ele>
        <time>2013-07-11T18:06:11.000Z</time>
      </trkpt>
      <trkpt lat="45.76391" lon="4.63013">
        <ele>729.78002929688</ele>
        <time>2013-07-11T18:06:13.000Z</time>
      </trkpt>
      <trkpt lat="45.76393" lon="4.63017">
        <ele>729.95288085938</ele>
        <time>2013-07-11T18:06:16.000Z</time>
      </trkpt>
      <trkpt lat="45.76397" lon="4.63024">
        <ele>730.14935302734</ele>
        <time>2013-07-11T18:06:19.000Z</time>
      </trkpt>
      <trkpt lat="45.76403" lon="4.63033">
        <ele>730.38220214844</ele>
        <time>2013-07-11T18:06:22.000Z</time>
      </trkpt>
      <trkpt lat="45.76415" lon="4.63043">
        <ele>730.67852783203</ele>
        <time>2013-07-11T18:06:25.000Z</time>
      </trkpt>
      <trkpt lat="45.76424" lon="4.63048">
        <ele>730.98992919922</ele>
        <time>2013-07-11T18:06:28.000Z</time>
      </trkpt>
      <trkpt lat="45.76431" lon="4.63049">
        <ele>731.26416015625</ele>
        <time>2013-07-11T18:06:30.000Z</time>
      </trkpt>
      <trkpt lat="45.76466" lon="4.63056">
        <ele>731.39038085938</ele>
        <time>2013-07-11T18:06:34.000Z</time>
      </trkpt>
      <trkpt lat="45.76461" lon="4.63113">
        <ele>730.9609375</ele>
        <time>2013-07-11T18:06:43.000Z</time>
      </trkpt>
      <trkpt lat="45.76474" lon="4.63108">
        <ele>730.32995605469</ele>
        <time>2013-07-11T18:06:45.000Z</time>
      </trkpt>
      <trkpt lat="45.76476" lon="4.63101">
        <ele>729.74084472656</ele>
        <time>2013-07-11T18:06:47.000Z</time>
      </trkpt>
      <trkpt lat="45.76486" lon="4.631">
        <ele>729.06622314453</ele>
        <time>2013-07-11T18:06:50.000Z</time>
      </trkpt>
      <trkpt lat="45.76482" lon="4.63083">
        <ele>728.80407714844</ele>
        <time>2013-07-11T18:06:53.000Z</time>
      </trkpt>
      <trkpt lat="45.76505" lon="4.63075">
        <ele>728.88690185547</ele>
        <time>2013-07-11T18:07:16.000Z</time>
      </trkpt>
      <trkpt lat="45.76513" lon="4.63079">
        <ele>728.92889404297</ele>
        <time>2013-07-11T18:07:20.000Z</time>
      </trkpt>
      <trkpt lat="45.76518" lon="4.6308">
        <ele>728.81866455078</ele>
        <time>2013-07-11T18:07:23.000Z</time>
      </trkpt>
      <trkpt lat="45.76519" lon="4.63079">
        <ele>728.79913330078</ele>
        <time>2013-07-11T18:07:25.000Z</time>
      </trkpt>
      <trkpt lat="45.76538" lon="4.63075">
        <ele>728.31280517578</ele>
        <time>2013-07-11T18:07:35.000Z</time>
      </trkpt>
      <trkpt lat="45.76541" lon="4.6307">
        <ele>728.00354003906</ele>
        <time>2013-07-11T18:07:38.000Z</time>
      </trkpt>
      <trkpt lat="45.76548" lon="4.63064">
        <ele>727.85284423828</ele>
        <time>2013-07-11T18:07:40.000Z</time>
      </trkpt>
      <trkpt lat="45.76555" lon="4.63063">
        <ele>727.72399902344</ele>
        <time>2013-07-11T18:07:43.000Z</time>
      </trkpt>
      <trkpt lat="45.76564" lon="4.63063">
        <ele>727.50653076172</ele>
        <time>2013-07-11T18:07:46.000Z</time>
      </trkpt>
      <trkpt lat="45.76571" lon="4.63062">
        <ele>727.39697265625</ele>
        <time>2013-07-11T18:07:48.000Z</time>
      </trkpt>
      <trkpt lat="45.76576" lon="4.6306">
        <ele>727.24475097656</ele>
        <time>2013-07-11T18:07:50.000Z</time>
      </trkpt>
      <trkpt lat="45.76579" lon="4.63058">
        <ele>727.06707763672</ele>
        <time>2013-07-11T18:07:53.000Z</time>
      </trkpt>
      <trkpt lat="45.76588" lon="4.6306">
        <ele>726.91448974609</ele>
        <time>2013-07-11T18:07:55.000Z</time>
      </trkpt>
      <trkpt lat="45.76597" lon="4.63062">
        <ele>726.89752197266</ele>
        <time>2013-07-11T18:07:58.000Z</time>
      </trkpt>
      <trkpt lat="45.76612" lon="4.63066">
        <ele>726.99499511719</ele>
        <time>2013-07-11T18:08:01.000Z</time>
      </trkpt>
      <trkpt lat="45.76645" lon="4.6309">
        <ele>727.04962158203</ele>
        <time>2013-07-11T18:08:05.000Z</time>
      </trkpt>
      <trkpt lat="45.76649" lon="4.63091">
        <ele>727.12487792969</ele>
        <time>2013-07-11T18:08:07.000Z</time>
      </trkpt>
      <trkpt lat="45.76655" lon="4.63096">
        <ele>727.12213134766</ele>
        <time>2013-07-11T18:08:10.000Z</time>
      </trkpt>
      <trkpt lat="45.76665" lon="4.63103">
        <ele>726.99169921875</ele>
        <time>2013-07-11T18:08:12.000Z</time>
      </trkpt>
      <trkpt lat="45.76671" lon="4.63108">
        <ele>726.77252197266</ele>
        <time>2013-07-11T18:08:14.000Z</time>
      </trkpt>
      <trkpt lat="45.76674" lon="4.63113">
        <ele>726.51135253906</ele>
        <time>2013-07-11T18:08:17.000Z</time>
      </trkpt>
      <trkpt lat="45.76678" lon="4.63118">
        <ele>726.21197509766</ele>
        <time>2013-07-11T18:08:20.000Z</time>
      </trkpt>
      <trkpt lat="45.76684" lon="4.63128">
        <ele>725.94384765625</ele>
        <time>2013-07-11T18:08:23.000Z</time>
      </trkpt>
      <trkpt lat="45.76689" lon="4.6314">
        <ele>725.58758544922</ele>
        <time>2013-07-11T18:08:26.000Z</time>
      </trkpt>
      <trkpt lat="45.76693" lon="4.63148">
        <ele>725.18054199219</ele>
        <time>2013-07-11T18:08:29.000Z</time>
      </trkpt>
      <trkpt lat="45.76701" lon="4.6316">
        <ele>724.87139892578</ele>
        <time>2013-07-11T18:08:31.000Z</time>
      </trkpt>
      <trkpt lat="45.76707" lon="4.63169">
        <ele>724.63311767578</ele>
        <time>2013-07-11T18:08:33.000Z</time>
      </trkpt>
      <trkpt lat="45.76716" lon="4.63179">
        <ele>724.57867431641</ele>
        <time>2013-07-11T18:08:36.000Z</time>
      </trkpt>
      <trkpt lat="45.76721" lon="4.63184">
        <ele>724.75109863281</ele>
        <time>2013-07-11T18:08:39.000Z</time>
      </trkpt>
      <trkpt lat="45.76728" lon="4.63192">
        <ele>725.00714111328</ele>
        <time>2013-07-11T18:08:41.000Z</time>
      </trkpt>
      <trkpt lat="45.7674" lon="4.63213">
        <ele>725.12530517578</ele>
        <time>2013-07-11T18:08:43.000Z</time>
      </trkpt>
      <trkpt lat="45.76752" lon="4.63233">
        <ele>725.06011962891</ele>
        <time>2013-07-11T18:08:46.000Z</time>
      </trkpt>
      <trkpt lat="45.76764" lon="4.6325">
        <ele>724.60089111328</ele>
        <time>2013-07-11T18:08:49.000Z</time>
      </trkpt>
      <trkpt lat="45.76773" lon="4.63262">
        <ele>723.92004394531</ele>
        <time>2013-07-11T18:08:52.000Z</time>
      </trkpt>
      <trkpt lat="45.76783" lon="4.63277">
        <ele>723.05187988281</ele>
        <time>2013-07-11T18:08:54.000Z</time>
      </trkpt>
      <trkpt lat="45.76791" lon="4.6329">
        <ele>722.1845703125</ele>
        <time>2013-07-11T18:08:57.000Z</time>
      </trkpt>
      <trkpt lat="45.76798" lon="4.63302">
        <ele>721.35998535156</ele>
        <time>2013-07-11T18:08:59.000Z</time>
      </trkpt>
      <trkpt lat="45.76802" lon="4.63311">
        <ele>720.75482177734</ele>
        <time>2013-07-11T18:09:01.000Z</time>
      </trkpt>
      <trkpt lat="45.76805" lon="4.63319">
        <ele>720.23284912109</ele>
        <time>2013-07-11T18:09:03.000Z</time>
      </trkpt>
      <trkpt lat="45.76807" lon="4.63328">
        <ele>719.71301269531</ele>
        <time>2013-07-11T18:09:06.000Z</time>
      </trkpt>
      <trkpt lat="45.76809" lon="4.63337">
        <ele>719.17584228516</ele>
        <time>2013-07-11T18:09:09.000Z</time>
      </trkpt>
      <trkpt lat="45.76813" lon="4.63351">
        <ele>718.50750732422</ele>
        <time>2013-07-11T18:09:11.000Z</time>
      </trkpt>
      <trkpt lat="45.76822" lon="4.63365">
        <ele>717.96520996094</ele>
        <time>2013-07-11T18:09:14.000Z</time>
      </trkpt>
      <trkpt lat="45.76828" lon="4.63394">
        <ele>717.09234619141</ele>
        <time>2013-07-11T18:09:16.000Z</time>
      </trkpt>
      <trkpt lat="45.76836" lon="4.63409">
        <ele>716.44561767578</ele>
        <time>2013-07-11T18:09:18.000Z</time>
      </trkpt>
      <trkpt lat="45.7684" lon="4.63416">
        <ele>715.91839599609</ele>
        <time>2013-07-11T18:09:21.000Z</time>
      </trkpt>
      <trkpt lat="45.76862" lon="4.63482">
        <ele>715.50958251953</ele>
        <time>2013-07-11T18:09:26.000Z</time>
      </trkpt>
      <trkpt lat="45.76869" lon="4.63495">
        <ele>715.13812255859</ele>
        <time>2013-07-11T18:09:28.000Z</time>
      </trkpt>
      <trkpt lat="45.76879" lon="4.63518">
        <ele>715.22613525391</ele>
        <time>2013-07-11T18:09:31.000Z</time>
      </trkpt>
      <trkpt lat="45.76881" lon="4.63523">
        <ele>715.27398681641</ele>
        <time>2013-07-11T18:09:33.000Z</time>
      </trkpt>
      <trkpt lat="45.76894" lon="4.63556">
        <ele>715.38287353516</ele>
        <time>2013-07-11T18:09:37.000Z</time>
      </trkpt>
      <trkpt lat="45.76897" lon="4.63564">
        <ele>715.60339355469</ele>
        <time>2013-07-11T18:09:39.000Z</time>
      </trkpt>
      <trkpt lat="45.76902" lon="4.63572">
        <ele>715.77410888672</ele>
        <time>2013-07-11T18:09:41.000Z</time>
      </trkpt>
      <trkpt lat="45.7691" lon="4.63585">
        <ele>716.01818847656</ele>
        <time>2013-07-11T18:09:44.000Z</time>
      </trkpt>
      <trkpt lat="45.7692" lon="4.63603">
        <ele>716.2392578125</ele>
        <time>2013-07-11T18:09:48.000Z</time>
      </trkpt>
      <trkpt lat="45.76932" lon="4.63626">
        <ele>716.20037841797</ele>
        <time>2013-07-11T18:09:50.000Z</time>
      </trkpt>
      <trkpt lat="45.76939" lon="4.63638">
        <ele>715.97302246094</ele>
        <time>2013-07-11T18:09:53.000Z</time>
      </trkpt>
      <trkpt lat="45.76953" lon="4.63651">
        <ele>715.54895019531</ele>
        <time>2013-07-11T18:09:55.000Z</time>
      </trkpt>
      <trkpt lat="45.76958" lon="4.63655">
        <ele>714.92254638672</ele>
        <time>2013-07-11T18:09:58.000Z</time>
      </trkpt>
      <trkpt lat="45.76963" lon="4.63658">
        <ele>714.24371337891</ele>
        <time>2013-07-11T18:10:00.000Z</time>
      </trkpt>
      <trkpt lat="45.76973" lon="4.63665">
        <ele>713.63995361328</ele>
        <time>2013-07-11T18:10:02.000Z</time>
      </trkpt>
      <trkpt lat="45.76982" lon="4.63671">
        <ele>713.10437011719</ele>
        <time>2013-07-11T18:10:05.000Z</time>
      </trkpt>
      <trkpt lat="45.76989" lon="4.63673">
        <ele>712.70837402344</ele>
        <time>2013-07-11T18:10:08.000Z</time>
      </trkpt>
      <trkpt lat="45.77" lon="4.63675">
        <ele>712.41839599609</ele>
        <time>2013-07-11T18:10:10.000Z</time>
      </trkpt>
      <trkpt lat="45.77008" lon="4.63677">
        <ele>712.03680419922</ele>
        <time>2013-07-11T18:10:12.000Z</time>
      </trkpt>
      <trkpt lat="45.77017" lon="4.63679">
        <ele>711.6328125</ele>
        <time>2013-07-11T18:10:15.000Z</time>
      </trkpt>
      <trkpt lat="45.77045" lon="4.63681">
        <ele>710.92980957031</ele>
        <time>2013-07-11T18:10:19.000Z</time>
      </trkpt>
      <trkpt lat="45.77054" lon="4.63684">
        <ele>710.00903320312</ele>
        <time>2013-07-11T18:10:21.000Z</time>
      </trkpt>
      <trkpt lat="45.77069" lon="4.63686">
        <ele>708.78381347656</ele>
        <time>2013-07-11T18:10:24.000Z</time>
      </trkpt>
      <trkpt lat="45.77079" lon="4.63689">
        <ele>707.44866943359</ele>
        <time>2013-07-11T18:10:26.000Z</time>
      </trkpt>
      <trkpt lat="45.7709" lon="4.63694">
        <ele>705.80908203125</ele>
        <time>2013-07-11T18:10:29.000Z</time>
      </trkpt>
      <trkpt lat="45.77097" lon="4.63695">
        <ele>704.29986572266</ele>
        <time>2013-07-11T18:10:32.000Z</time>
      </trkpt>
      <trkpt lat="45.77101" lon="4.63695">
        <ele>702.85888671875</ele>
        <time>2013-07-11T18:10:35.000Z</time>
      </trkpt>
      <trkpt lat="45.77107" lon="4.63695">
        <ele>701.49523925781</ele>
        <time>2013-07-11T18:10:37.000Z</time>
      </trkpt>
      <trkpt lat="45.7711" lon="4.63694">
        <ele>700.34625244141</ele>
        <time>2013-07-11T18:10:39.000Z</time>
      </trkpt>
      <trkpt lat="45.77111" lon="4.63693">
        <ele>699.64373779297</ele>
        <time>2013-07-11T18:10:42.000Z</time>
      </trkpt>
      <trkpt lat="45.77118" lon="4.63692">
        <ele>699.05114746094</ele>
        <time>2013-07-11T18:10:44.000Z</time>
      </trkpt>
      <trkpt lat="45.77155" lon="4.637">
        <ele>697.0947265625</ele>
        <time>2013-07-11T18:12:21.000Z</time>
      </trkpt>
      <trkpt lat="45.77163" lon="4.63701">
        <ele>695.03680419922</ele>
        <time>2013-07-11T18:12:23.000Z</time>
      </trkpt>
      <trkpt lat="45.77168" lon="4.63705">
        <ele>692.73901367188</ele>
        <time>2013-07-11T18:12:25.000Z</time>
      </trkpt>
      <trkpt lat="45.77175" lon="4.63721">
        <ele>689.78759765625</ele>
        <time>2013-07-11T18:12:28.000Z</time>
      </trkpt>
      <trkpt lat="45.77182" lon="4.63743">
        <ele>686.22027587891</ele>
        <time>2013-07-11T18:12:31.000Z</time>
      </trkpt>
      <trkpt lat="45.77188" lon="4.63754">
        <ele>683.74926757812</ele>
        <time>2013-07-11T18:12:33.000Z</time>
      </trkpt>
      <trkpt lat="45.77199" lon="4.63769">
        <ele>681.04577636719</ele>
        <time>2013-07-11T18:12:36.000Z</time>
      </trkpt>
      <trkpt lat="45.77207" lon="4.63776">
        <ele>678.37463378906</ele>
        <time>2013-07-11T18:12:38.000Z</time>
      </trkpt>
      <trkpt lat="45.77213" lon="4.63778">
        <ele>676.28210449219</ele>
        <time>2013-07-11T18:12:40.000Z</time>
      </trkpt>
      <trkpt lat="45.77219" lon="4.6378">
        <ele>674.87811279297</ele>
        <time>2013-07-11T18:12:42.000Z</time>
      </trkpt>
      <trkpt lat="45.7723" lon="4.63787">
        <ele>673.67254638672</ele>
        <time>2013-07-11T18:12:45.000Z</time>
      </trkpt>
      <trkpt lat="45.77238" lon="4.6379">
        <ele>672.89196777344</ele>
        <time>2013-07-11T18:12:48.000Z</time>
      </trkpt>
      <trkpt lat="45.77245" lon="4.63794">
        <ele>672.24102783203</ele>
        <time>2013-07-11T18:12:51.000Z</time>
      </trkpt>
      <trkpt lat="45.77251" lon="4.63798">
        <ele>671.57208251953</ele>
        <time>2013-07-11T18:12:53.000Z</time>
      </trkpt>
      <trkpt lat="45.77254" lon="4.63801">
        <ele>670.87823486328</ele>
        <time>2013-07-11T18:12:55.000Z</time>
      </trkpt>
      <trkpt lat="45.77259" lon="4.63808">
        <ele>670.23059082031</ele>
        <time>2013-07-11T18:12:58.000Z</time>
      </trkpt>
      <trkpt lat="45.77263" lon="4.63811">
        <ele>669.58911132812</ele>
        <time>2013-07-11T18:13:02.000Z</time>
      </trkpt>
      <trkpt lat="45.77266" lon="4.63812">
        <ele>669.00360107422</ele>
        <time>2013-07-11T18:13:04.000Z</time>
      </trkpt>
      <trkpt lat="45.7727" lon="4.63814">
        <ele>668.44616699219</ele>
        <time>2013-07-11T18:13:07.000Z</time>
      </trkpt>
      <trkpt lat="45.77272" lon="4.63815">
        <ele>667.96417236328</ele>
        <time>2013-07-11T18:13:09.000Z</time>
      </trkpt>
      <trkpt lat="45.7728" lon="4.63821">
        <ele>667.48175048828</ele>
        <time>2013-07-11T18:13:12.000Z</time>
      </trkpt>
      <trkpt lat="45.77285" lon="4.63828">
        <ele>666.9619140625</ele>
        <time>2013-07-11T18:13:15.000Z</time>
      </trkpt>
      <trkpt lat="45.77287" lon="4.63832">
        <ele>666.43286132812</ele>
        <time>2013-07-11T18:13:18.000Z</time>
      </trkpt>
      <trkpt lat="45.77287" lon="4.63833">
        <ele>665.98046875</ele>
        <time>2013-07-11T18:13:21.000Z</time>
      </trkpt>
      <trkpt lat="45.77292" lon="4.63831">
        <ele>665.54168701172</ele>
        <time>2013-07-11T18:13:23.000Z</time>
      </trkpt>
      <trkpt lat="45.77299" lon="4.63837">
        <ele>665.11315917969</ele>
        <time>2013-07-11T18:13:29.000Z</time>
      </trkpt>
      <trkpt lat="45.77302" lon="4.63841">
        <ele>664.71081542969</ele>
        <time>2013-07-11T18:13:32.000Z</time>
      </trkpt>
      <trkpt lat="45.77304" lon="4.63844">
        <ele>664.29266357422</ele>
        <time>2013-07-11T18:13:35.000Z</time>
      </trkpt>
      <trkpt lat="45.77304" lon="4.63847">
        <ele>663.82745361328</ele>
        <time>2013-07-11T18:13:37.000Z</time>
      </trkpt>
      <trkpt lat="45.77299" lon="4.63846">
        <ele>663.46551513672</ele>
        <time>2013-07-11T18:13:40.000Z</time>
      </trkpt>
      <trkpt lat="45.77296" lon="4.63844">
        <ele>663.32513427734</ele>
        <time>2013-07-11T18:13:44.000Z</time>
      </trkpt>
      <trkpt lat="45.77296" lon="4.6384">
        <ele>663.40704345703</ele>
        <time>2013-07-11T18:13:46.000Z</time>
      </trkpt>
      <trkpt lat="45.77295" lon="4.63837">
        <ele>663.64337158203</ele>
        <time>2013-07-11T18:13:49.000Z</time>
      </trkpt>
      <trkpt lat="45.77292" lon="4.63832">
        <ele>664.07434082031</ele>
        <time>2013-07-11T18:13:51.000Z</time>
      </trkpt>
      <trkpt lat="45.77287" lon="4.63827">
        <ele>664.53674316406</ele>
        <time>2013-07-11T18:13:53.000Z</time>
      </trkpt>
      <trkpt lat="45.77283" lon="4.63824">
        <ele>665.03399658203</ele>
        <time>2013-07-11T18:13:56.000Z</time>
      </trkpt>
      <trkpt lat="45.77279" lon="4.63821">
        <ele>665.50506591797</ele>
        <time>2013-07-11T18:13:58.000Z</time>
      </trkpt>
      <trkpt lat="45.77275" lon="4.63821">
        <ele>665.95483398438</ele>
        <time>2013-07-11T18:14:00.000Z</time>
      </trkpt>
      <trkpt lat="45.7727" lon="4.63822">
        <ele>666.31506347656</ele>
        <time>2013-07-11T18:14:02.000Z</time>
      </trkpt>
      <trkpt lat="45.77267" lon="4.63822">
        <ele>666.611328125</ele>
        <time>2013-07-11T18:14:05.000Z</time>
      </trkpt>
      <trkpt lat="45.77262" lon="4.63819">
        <ele>666.94390869141</ele>
        <time>2013-07-11T18:14:07.000Z</time>
      </trkpt>
      <trkpt lat="45.77256" lon="4.63814">
        <ele>667.36071777344</ele>
        <time>2013-07-11T18:14:10.000Z</time>
      </trkpt>
      <trkpt lat="45.77251" lon="4.63809">
        <ele>667.88604736328</ele>
        <time>2013-07-11T18:14:14.000Z</time>
      </trkpt>
      <trkpt lat="45.77248" lon="4.63806">
        <ele>668.43432617188</ele>
        <time>2013-07-11T18:14:16.000Z</time>
      </trkpt>
      <trkpt lat="45.77247" lon="4.63806">
        <ele>668.93914794922</ele>
        <time>2013-07-11T18:14:18.000Z</time>
      </trkpt>
      <trkpt lat="45.77256" lon="4.63802">
        <ele>669.30847167969</ele>
        <time>2013-07-11T18:15:14.000Z</time>
      </trkpt>
      <trkpt lat="45.77261" lon="4.63804">
        <ele>669.40765380859</ele>
        <time>2013-07-11T18:15:17.000Z</time>
      </trkpt>
      <trkpt lat="45.77273" lon="4.63804">
        <ele>669.15362548828</ele>
        <time>2013-07-11T18:15:28.000Z</time>
      </trkpt>
      <trkpt lat="45.7728" lon="4.63806">
        <ele>668.70526123047</ele>
        <time>2013-07-11T18:15:31.000Z</time>
      </trkpt>
      <trkpt lat="45.77289" lon="4.63811">
        <ele>668.0654296875</ele>
        <time>2013-07-11T18:15:34.000Z</time>
      </trkpt>
      <trkpt lat="45.77301" lon="4.63821">
        <ele>667.1796875</ele>
        <time>2013-07-11T18:15:36.000Z</time>
      </trkpt>
      <trkpt lat="45.77311" lon="4.63823">
        <ele>666.27484130859</ele>
        <time>2013-07-11T18:15:39.000Z</time>
      </trkpt>
      <trkpt lat="45.77324" lon="4.63821">
        <ele>665.41619873047</ele>
        <time>2013-07-11T18:15:42.000Z</time>
      </trkpt>
      <trkpt lat="45.77337" lon="4.63818">
        <ele>664.42736816406</ele>
        <time>2013-07-11T18:15:44.000Z</time>
      </trkpt>
      <trkpt lat="45.77352" lon="4.63813">
        <ele>662.99353027344</ele>
        <time>2013-07-11T18:15:48.000Z</time>
      </trkpt>
      <trkpt lat="45.7739" lon="4.63788">
        <ele>660.06701660156</ele>
        <time>2013-07-11T18:15:53.000Z</time>
      </trkpt>
      <trkpt lat="45.77401" lon="4.63782">
        <ele>656.72717285156</ele>
        <time>2013-07-11T18:15:56.000Z</time>
      </trkpt>
      <trkpt lat="45.77407" lon="4.63779">
        <ele>653.21856689453</ele>
        <time>2013-07-11T18:15:59.000Z</time>
      </trkpt>
      <trkpt lat="45.77413" lon="4.63777">
        <ele>649.70269775391</ele>
        <time>2013-07-11T18:16:01.000Z</time>
      </trkpt>
      <trkpt lat="45.7742" lon="4.63772">
        <ele>646.4765625</ele>
        <time>2013-07-11T18:16:03.000Z</time>
      </trkpt>
      <trkpt lat="45.77425" lon="4.63768">
        <ele>644.77136230469</ele>
        <time>2013-07-11T18:16:06.000Z</time>
      </trkpt>
      <trkpt lat="45.77435" lon="4.6376">
        <ele>643.20446777344</ele>
        <time>2013-07-11T18:16:08.000Z</time>
      </trkpt>
      <trkpt lat="45.77445" lon="4.63752">
        <ele>641.50671386719</ele>
        <time>2013-07-11T18:16:12.000Z</time>
      </trkpt>
      <trkpt lat="45.77451" lon="4.63749">
        <ele>639.78295898438</ele>
        <time>2013-07-11T18:16:14.000Z</time>
      </trkpt>
      <trkpt lat="45.77448" lon="4.63745">
        <ele>638.48919677734</ele>
        <time>2013-07-11T18:16:18.000Z</time>
      </trkpt>
      <trkpt lat="45.77455" lon="4.63742">
        <ele>637.06744384766</ele>
        <time>2013-07-11T18:16:33.000Z</time>
      </trkpt>
      <trkpt lat="45.77459" lon="4.63741">
        <ele>635.84924316406</ele>
        <time>2013-07-11T18:16:35.000Z</time>
      </trkpt>
      <trkpt lat="45.77461" lon="4.63738">
        <ele>634.95739746094</ele>
        <time>2013-07-11T18:16:38.000Z</time>
      </trkpt>
      <trkpt lat="45.77471" lon="4.63737">
        <ele>633.94183349609</ele>
        <time>2013-07-11T18:18:30.000Z</time>
      </trkpt>
      <trkpt lat="45.77478" lon="4.63742">
        <ele>632.67395019531</ele>
        <time>2013-07-11T18:18:32.000Z</time>
      </trkpt>
      <trkpt lat="45.77483" lon="4.63746">
        <ele>631.65045166016</ele>
        <time>2013-07-11T18:18:35.000Z</time>
      </trkpt>
      <trkpt lat="45.77489" lon="4.6375">
        <ele>630.71740722656</ele>
        <time>2013-07-11T18:18:37.000Z</time>
      </trkpt>
      <trkpt lat="45.77489" lon="4.63751">
        <ele>629.88757324219</ele>
        <time>2013-07-11T18:18:40.000Z</time>
      </trkpt>
      <trkpt lat="45.77489" lon="4.63757">
        <ele>629.52392578125</ele>
        <time>2013-07-11T18:18:43.000Z</time>
      </trkpt>
      <trkpt lat="45.77491" lon="4.63764">
        <ele>629.32092285156</ele>
        <time>2013-07-11T18:18:45.000Z</time>
      </trkpt>
      <trkpt lat="45.77491" lon="4.63766">
        <ele>629.25012207031</ele>
        <time>2013-07-11T18:18:49.000Z</time>
      </trkpt>
      <trkpt lat="45.77506" lon="4.63784">
        <ele>628.71929931641</ele>
        <time>2013-07-11T18:19:07.000Z</time>
      </trkpt>
      <trkpt lat="45.77512" lon="4.63788">
        <ele>627.93249511719</ele>
        <time>2013-07-11T18:19:09.000Z</time>
      </trkpt>
      <trkpt lat="45.77515" lon="4.63791">
        <ele>626.92449951172</ele>
        <time>2013-07-11T18:19:12.000Z</time>
      </trkpt>
      <trkpt lat="45.77521" lon="4.63803">
        <ele>625.74108886719</ele>
        <time>2013-07-11T18:19:14.000Z</time>
      </trkpt>
      <trkpt lat="45.77523" lon="4.63812">
        <ele>624.51324462891</ele>
        <time>2013-07-11T18:19:16.000Z</time>
      </trkpt>
      <trkpt lat="45.77528" lon="4.63818">
        <ele>623.70935058594</ele>
        <time>2013-07-11T18:19:18.000Z</time>
      </trkpt>
      <trkpt lat="45.7754" lon="4.63825">
        <ele>622.66143798828</ele>
        <time>2013-07-11T18:19:22.000Z</time>
      </trkpt>
      <trkpt lat="45.77547" lon="4.63833">
        <ele>621.52655029297</ele>
        <time>2013-07-11T18:19:24.000Z</time>
      </trkpt>
      <trkpt lat="45.77551" lon="4.63836">
        <ele>620.38061523438</ele>
        <time>2013-07-11T18:19:26.000Z</time>
      </trkpt>
      <trkpt lat="45.77554" lon="4.63835">
        <ele>619.13763427734</ele>
        <time>2013-07-11T18:19:29.000Z</time>
      </trkpt>
      <trkpt lat="45.77554" lon="4.63838">
        <ele>617.99926757812</ele>
        <time>2013-07-11T18:19:34.000Z</time>
      </trkpt>
      <trkpt lat="45.77551" lon="4.6384">
        <ele>617.46514892578</ele>
        <time>2013-07-11T18:19:36.000Z</time>
      </trkpt>
      <trkpt lat="45.77551" lon="4.63842">
        <ele>617.16424560547</ele>
        <time>2013-07-11T18:19:38.000Z</time>
      </trkpt>
      <trkpt lat="45.77555" lon="4.63846">
        <ele>616.81878662109</ele>
        <time>2013-07-11T18:19:41.000Z</time>
      </trkpt>
      <trkpt lat="45.7758" lon="4.6385">
        <ele>615.45849609375</ele>
        <time>2013-07-11T18:21:44.000Z</time>
      </trkpt>
      <trkpt lat="45.7759" lon="4.63855">
        <ele>613.82824707031</ele>
        <time>2013-07-11T18:21:47.000Z</time>
      </trkpt>
      <trkpt lat="45.77598" lon="4.63861">
        <ele>611.94836425781</ele>
        <time>2013-07-11T18:21:49.000Z</time>
      </trkpt>
      <trkpt lat="45.77604" lon="4.63864">
        <ele>609.99426269531</ele>
        <time>2013-07-11T18:21:52.000Z</time>
      </trkpt>
      <trkpt lat="45.77609" lon="4.63867">
        <ele>608.18725585938</ele>
        <time>2013-07-11T18:21:55.000Z</time>
      </trkpt>
      <trkpt lat="45.77612" lon="4.6387">
        <ele>607.47705078125</ele>
        <time>2013-07-11T18:21:57.000Z</time>
      </trkpt>
      <trkpt lat="45.77614" lon="4.6387">
        <ele>607.03924560547</ele>
        <time>2013-07-11T18:22:00.000Z</time>
      </trkpt>
      <trkpt lat="45.77622" lon="4.63875">
        <ele>606.66131591797</ele>
        <time>2013-07-11T18:22:02.000Z</time>
      </trkpt>
      <trkpt lat="45.77629" lon="4.63877">
        <ele>606.29656982422</ele>
        <time>2013-07-11T18:22:04.000Z</time>
      </trkpt>
      <trkpt lat="45.77638" lon="4.6388">
        <ele>605.92071533203</ele>
        <time>2013-07-11T18:22:07.000Z</time>
      </trkpt>
      <trkpt lat="45.77642" lon="4.63884">
        <ele>605.55297851562</ele>
        <time>2013-07-11T18:22:10.000Z</time>
      </trkpt>
      <trkpt lat="45.77649" lon="4.63888">
        <ele>605.171875</ele>
        <time>2013-07-11T18:22:13.000Z</time>
      </trkpt>
      <trkpt lat="45.77655" lon="4.63891">
        <ele>604.85998535156</ele>
        <time>2013-07-11T18:22:16.000Z</time>
      </trkpt>
      <trkpt lat="45.7766" lon="4.63896">
        <ele>604.61633300781</ele>
        <time>2013-07-11T18:22:19.000Z</time>
      </trkpt>
      <trkpt lat="45.77668" lon="4.63902">
        <ele>604.47674560547</ele>
        <time>2013-07-11T18:22:21.000Z</time>
      </trkpt>
      <trkpt lat="45.77676" lon="4.63908">
        <ele>604.40246582031</ele>
        <time>2013-07-11T18:22:25.000Z</time>
      </trkpt>
      <trkpt lat="45.77684" lon="4.63914">
        <ele>604.4228515625</ele>
        <time>2013-07-11T18:22:28.000Z</time>
      </trkpt>
      <trkpt lat="45.77695" lon="4.63919">
        <ele>604.45294189453</ele>
        <time>2013-07-11T18:22:31.000Z</time>
      </trkpt>
      <trkpt lat="45.7772" lon="4.63926">
        <ele>604.3779296875</ele>
        <time>2013-07-11T18:22:35.000Z</time>
      </trkpt>
      <trkpt lat="45.77732" lon="4.63939">
        <ele>604.19494628906</ele>
        <time>2013-07-11T18:22:38.000Z</time>
      </trkpt>
      <trkpt lat="45.77747" lon="4.63949">
        <ele>603.94152832031</ele>
        <time>2013-07-11T18:22:40.000Z</time>
      </trkpt>
      <trkpt lat="45.77758" lon="4.63961">
        <ele>603.5712890625</ele>
        <time>2013-07-11T18:22:43.000Z</time>
      </trkpt>
      <trkpt lat="45.77769" lon="4.63972">
        <ele>603.18316650391</ele>
        <time>2013-07-11T18:22:47.000Z</time>
      </trkpt>
      <trkpt lat="45.77774" lon="4.63978">
        <ele>602.90979003906</ele>
        <time>2013-07-11T18:22:49.000Z</time>
      </trkpt>
      <trkpt lat="45.77779" lon="4.63984">
        <ele>602.75439453125</ele>
        <time>2013-07-11T18:22:52.000Z</time>
      </trkpt>
      <trkpt lat="45.77781" lon="4.63988">
        <ele>602.65002441406</ele>
        <time>2013-07-11T18:22:54.000Z</time>
      </trkpt>
      <trkpt lat="45.77787" lon="4.63995">
        <ele>602.6484375</ele>
        <time>2013-07-11T18:22:57.000Z</time>
      </trkpt>
      <trkpt lat="45.7779" lon="4.64">
        <ele>602.71807861328</ele>
        <time>2013-07-11T18:22:59.000Z</time>
      </trkpt>
      <trkpt lat="45.77792" lon="4.64013">
        <ele>602.64904785156</ele>
        <time>2013-07-11T18:23:02.000Z</time>
      </trkpt>
      <trkpt lat="45.77794" lon="4.64034">
        <ele>602.35565185547</ele>
        <time>2013-07-11T18:23:04.000Z</time>
      </trkpt>
      <trkpt lat="45.77794" lon="4.64049">
        <ele>601.89068603516</ele>
        <time>2013-07-11T18:23:07.000Z</time>
      </trkpt>
      <trkpt lat="45.77795" lon="4.64059">
        <ele>601.30902099609</ele>
        <time>2013-07-11T18:23:09.000Z</time>
      </trkpt>
      <trkpt lat="45.77798" lon="4.64081">
        <ele>600.57434082031</ele>
        <time>2013-07-11T18:23:12.000Z</time>
      </trkpt>
      <trkpt lat="45.778" lon="4.64093">
        <ele>599.88140869141</ele>
        <time>2013-07-11T18:23:14.000Z</time>
      </trkpt>
      <trkpt lat="45.77809" lon="4.64117">
        <ele>599.48059082031</ele>
        <time>2013-07-11T18:23:17.000Z</time>
      </trkpt>
      <trkpt lat="45.77812" lon="4.64123">
        <ele>599.29650878906</ele>
        <time>2013-07-11T18:23:19.000Z</time>
      </trkpt>
      <trkpt lat="45.7781" lon="4.64133">
        <ele>599.03240966797</ele>
        <time>2013-07-11T18:23:22.000Z</time>
      </trkpt>
      <trkpt lat="45.77809" lon="4.64146">
        <ele>598.67694091797</ele>
        <time>2013-07-11T18:23:26.000Z</time>
      </trkpt>
      <trkpt lat="45.7781" lon="4.64161">
        <ele>598.32745361328</ele>
        <time>2013-07-11T18:23:28.000Z</time>
      </trkpt>
      <trkpt lat="45.77813" lon="4.64172">
        <ele>598.01043701172</ele>
        <time>2013-07-11T18:23:30.000Z</time>
      </trkpt>
      <trkpt lat="45.77819" lon="4.64191">
        <ele>597.880859375</ele>
        <time>2013-07-11T18:23:33.000Z</time>
      </trkpt>
      <trkpt lat="45.77822" lon="4.64202">
        <ele>598.08819580078</ele>
        <time>2013-07-11T18:23:35.000Z</time>
      </trkpt>
      <trkpt lat="45.77827" lon="4.64214">
        <ele>598.74340820312</ele>
        <time>2013-07-11T18:23:38.000Z</time>
      </trkpt>
      <trkpt lat="45.7783" lon="4.64221">
        <ele>599.62170410156</ele>
        <time>2013-07-11T18:23:41.000Z</time>
      </trkpt>
      <trkpt lat="45.7783" lon="4.6424">
        <ele>600.29510498047</ele>
        <time>2013-07-11T18:23:56.000Z</time>
      </trkpt>
      <trkpt lat="45.77827" lon="4.64244">
        <ele>600.52862548828</ele>
        <time>2013-07-11T18:23:58.000Z</time>
      </trkpt>
      <trkpt lat="45.77823" lon="4.64247">
        <ele>600.28240966797</ele>
        <time>2013-07-11T18:24:01.000Z</time>
      </trkpt>
      <trkpt lat="45.77818" lon="4.6425">
        <ele>599.43957519531</ele>
        <time>2013-07-11T18:24:04.000Z</time>
      </trkpt>
      <trkpt lat="45.77817" lon="4.64251">
        <ele>598.38543701172</ele>
        <time>2013-07-11T18:24:06.000Z</time>
      </trkpt>
      <trkpt lat="45.77822" lon="4.64248">
        <ele>597.81823730469</ele>
        <time>2013-07-11T18:24:21.000Z</time>
      </trkpt>
      <trkpt lat="45.77825" lon="4.64248">
        <ele>597.6240234375</ele>
        <time>2013-07-11T18:24:25.000Z</time>
      </trkpt>
      <trkpt lat="45.77827" lon="4.64246">
        <ele>597.95404052734</ele>
        <time>2013-07-11T18:24:27.000Z</time>
      </trkpt>
      <trkpt lat="45.77829" lon="4.64244">
        <ele>598.77392578125</ele>
        <time>2013-07-11T18:24:30.000Z</time>
      </trkpt>
      <trkpt lat="45.77831" lon="4.64243">
        <ele>599.80102539062</ele>
        <time>2013-07-11T18:24:32.000Z</time>
      </trkpt>
      <trkpt lat="45.77832" lon="4.64242">
        <ele>600.53234863281</ele>
        <time>2013-07-11T18:24:34.000Z</time>
      </trkpt>
      <trkpt lat="45.77832" lon="4.6424">
        <ele>601.06823730469</ele>
        <time>2013-07-11T18:24:37.000Z</time>
      </trkpt>
      <trkpt lat="45.77832" lon="4.64237">
        <ele>601.40106201172</ele>
        <time>2013-07-11T18:24:40.000Z</time>
      </trkpt>
      <trkpt lat="45.77839" lon="4.64251">
        <ele>602.01739501953</ele>
        <time>2013-07-11T18:25:44.000Z</time>
      </trkpt>
      <trkpt lat="45.7784" lon="4.64256">
        <ele>602.5986328125</ele>
        <time>2013-07-11T18:25:46.000Z</time>
      </trkpt>
      <trkpt lat="45.7784" lon="4.6426">
        <ele>603.126953125</ele>
        <time>2013-07-11T18:25:49.000Z</time>
      </trkpt>
      <trkpt lat="45.77839" lon="4.64268">
        <ele>603.69787597656</ele>
        <time>2013-07-11T18:25:51.000Z</time>
      </trkpt>
      <trkpt lat="45.77835" lon="4.64277">
        <ele>604.10046386719</ele>
        <time>2013-07-11T18:25:55.000Z</time>
      </trkpt>
      <trkpt lat="45.77832" lon="4.64285">
        <ele>603.9599609375</ele>
        <time>2013-07-11T18:25:58.000Z</time>
      </trkpt>
      <trkpt lat="45.77832" lon="4.64297">
        <ele>603.87896728516</ele>
        <time>2013-07-11T18:26:00.000Z</time>
      </trkpt>
      <trkpt lat="45.7783" lon="4.64303">
        <ele>603.62774658203</ele>
        <time>2013-07-11T18:26:03.000Z</time>
      </trkpt>
      <trkpt lat="45.77827" lon="4.64312">
        <ele>603.24481201172</ele>
        <time>2013-07-11T18:26:06.000Z</time>
      </trkpt>
      <trkpt lat="45.77828" lon="4.64319">
        <ele>603.14923095703</ele>
        <time>2013-07-11T18:26:09.000Z</time>
      </trkpt>
      <trkpt lat="45.7783" lon="4.64327">
        <ele>603.38684082031</ele>
        <time>2013-07-11T18:26:11.000Z</time>
      </trkpt>
      <trkpt lat="45.7783" lon="4.64333">
        <ele>603.564453125</ele>
        <time>2013-07-11T18:26:14.000Z</time>
      </trkpt>
      <trkpt lat="45.77831" lon="4.64341">
        <ele>604.05902099609</ele>
        <time>2013-07-11T18:26:17.000Z</time>
      </trkpt>
      <trkpt lat="45.77831" lon="4.6435">
        <ele>604.77490234375</ele>
        <time>2013-07-11T18:26:20.000Z</time>
      </trkpt>
      <trkpt lat="45.77831" lon="4.64359">
        <ele>605.43560791016</ele>
        <time>2013-07-11T18:26:22.000Z</time>
      </trkpt>
      <trkpt lat="45.77829" lon="4.64368">
        <ele>605.84552001953</ele>
        <time>2013-07-11T18:26:25.000Z</time>
      </trkpt>
      <trkpt lat="45.77825" lon="4.64379">
        <ele>605.98034667969</ele>
        <time>2013-07-11T18:26:28.000Z</time>
      </trkpt>
      <trkpt lat="45.77825" lon="4.64392">
        <ele>606.07751464844</ele>
        <time>2013-07-11T18:26:31.000Z</time>
      </trkpt>
      <trkpt lat="45.77826" lon="4.64403">
        <ele>606.26110839844</ele>
        <time>2013-07-11T18:26:33.000Z</time>
      </trkpt>
      <trkpt lat="45.77825" lon="4.64414">
        <ele>606.43933105469</ele>
        <time>2013-07-11T18:26:35.000Z</time>
      </trkpt>
      <trkpt lat="45.77824" lon="4.64423">
        <ele>606.64270019531</ele>
        <time>2013-07-11T18:26:38.000Z</time>
      </trkpt>
      <trkpt lat="45.77824" lon="4.64434">
        <ele>606.91809082031</ele>
        <time>2013-07-11T18:26:41.000Z</time>
      </trkpt>
      <trkpt lat="45.77822" lon="4.64442">
        <ele>606.94415283203</ele>
        <time>2013-07-11T18:26:43.000Z</time>
      </trkpt>
      <trkpt lat="45.77822" lon="4.64449">
        <ele>606.73986816406</ele>
        <time>2013-07-11T18:26:46.000Z</time>
      </trkpt>
      <trkpt lat="45.77824" lon="4.64466">
        <ele>606.47998046875</ele>
        <time>2013-07-11T18:26:49.000Z</time>
      </trkpt>
      <trkpt lat="45.77827" lon="4.64485">
        <ele>606.41662597656</ele>
        <time>2013-07-11T18:26:51.000Z</time>
      </trkpt>
      <trkpt lat="45.77828" lon="4.64497">
        <ele>606.50646972656</ele>
        <time>2013-07-11T18:26:53.000Z</time>
      </trkpt>
      <trkpt lat="45.77828" lon="4.64514">
        <ele>606.53448486328</ele>
        <time>2013-07-11T18:26:56.000Z</time>
      </trkpt>
      <trkpt lat="45.77827" lon="4.64533">
        <ele>606.31549072266</ele>
        <time>2013-07-11T18:26:58.000Z</time>
      </trkpt>
      <trkpt lat="45.77824" lon="4.64565">
        <ele>605.39306640625</ele>
        <time>2013-07-11T18:27:02.000Z</time>
      </trkpt>
      <trkpt lat="45.77828" lon="4.64591">
        <ele>604.5009765625</ele>
        <time>2013-07-11T18:27:04.000Z</time>
      </trkpt>
      <trkpt lat="45.77825" lon="4.64618">
        <ele>603.12170410156</ele>
        <time>2013-07-11T18:27:06.000Z</time>
      </trkpt>
      <trkpt lat="45.77821" lon="4.6463">
        <ele>601.49481201172</ele>
        <time>2013-07-11T18:27:08.000Z</time>
      </trkpt>
      <trkpt lat="45.77822" lon="4.64645">
        <ele>600.17199707031</ele>
        <time>2013-07-11T18:27:10.000Z</time>
      </trkpt>
      <trkpt lat="45.77821" lon="4.64661">
        <ele>599.39306640625</ele>
        <time>2013-07-11T18:27:13.000Z</time>
      </trkpt>
      <trkpt lat="45.77822" lon="4.64676">
        <ele>598.61389160156</ele>
        <time>2013-07-11T18:27:15.000Z</time>
      </trkpt>
      <trkpt lat="45.77822" lon="4.64683">
        <ele>598.23370361328</ele>
        <time>2013-07-11T18:27:17.000Z</time>
      </trkpt>
      <trkpt lat="45.77821" lon="4.64692">
        <ele>598.22161865234</ele>
        <time>2013-07-11T18:27:19.000Z</time>
      </trkpt>
      <trkpt lat="45.77821" lon="4.64703">
        <ele>598.19970703125</ele>
        <time>2013-07-11T18:27:22.000Z</time>
      </trkpt>
      <trkpt lat="45.77821" lon="4.64718">
        <ele>598.39782714844</ele>
        <time>2013-07-11T18:27:24.000Z</time>
      </trkpt>
      <trkpt lat="45.77813" lon="4.64758">
        <ele>597.83190917969</ele>
        <time>2013-07-11T18:27:27.000Z</time>
      </trkpt>
      <trkpt lat="45.77812" lon="4.64769">
        <ele>597.27331542969</ele>
        <time>2013-07-11T18:27:29.000Z</time>
      </trkpt>
      <trkpt lat="45.77808" lon="4.64776">
        <ele>596.43841552734</ele>
        <time>2013-07-11T18:27:31.000Z</time>
      </trkpt>
      <trkpt lat="45.77806" lon="4.64782">
        <ele>595.38464355469</ele>
        <time>2013-07-11T18:27:33.000Z</time>
      </trkpt>
      <trkpt lat="45.77808" lon="4.64781">
        <ele>594.49499511719</ele>
        <time>2013-07-11T18:27:36.000Z</time>
      </trkpt>
      <trkpt lat="45.77808" lon="4.64785">
        <ele>594.20715332031</ele>
        <time>2013-07-11T18:27:38.000Z</time>
      </trkpt>
      <trkpt lat="45.77808" lon="4.64789">
        <ele>593.98815917969</ele>
        <time>2013-07-11T18:27:43.000Z</time>
      </trkpt>
      <trkpt lat="45.77806" lon="4.64794">
        <ele>593.96423339844</ele>
        <time>2013-07-11T18:27:48.000Z</time>
      </trkpt>
      <trkpt lat="45.77802" lon="4.64811">
        <ele>593.86590576172</ele>
        <time>2013-07-11T18:27:51.000Z</time>
      </trkpt>
      <trkpt lat="45.77802" lon="4.64822">
        <ele>593.61163330078</ele>
        <time>2013-07-11T18:27:54.000Z</time>
      </trkpt>
      <trkpt lat="45.77799" lon="4.6484">
        <ele>593.05249023438</ele>
        <time>2013-07-11T18:27:56.000Z</time>
      </trkpt>
      <trkpt lat="45.77799" lon="4.64851">
        <ele>592.47332763672</ele>
        <time>2013-07-11T18:27:59.000Z</time>
      </trkpt>
      <trkpt lat="45.77798" lon="4.64863">
        <ele>591.98327636719</ele>
        <time>2013-07-11T18:28:01.000Z</time>
      </trkpt>
      <trkpt lat="45.77797" lon="4.64873">
        <ele>591.61901855469</ele>
        <time>2013-07-11T18:28:03.000Z</time>
      </trkpt>
      <trkpt lat="45.77795" lon="4.64881">
        <ele>590.9794921875</ele>
        <time>2013-07-11T18:28:06.000Z</time>
      </trkpt>
      <trkpt lat="45.77793" lon="4.64889">
        <ele>590.42333984375</ele>
        <time>2013-07-11T18:28:09.000Z</time>
      </trkpt>
      <trkpt lat="45.77792" lon="4.64897">
        <ele>589.79132080078</ele>
        <time>2013-07-11T18:28:12.000Z</time>
      </trkpt>
      <trkpt lat="45.7779" lon="4.64907">
        <ele>589.05041503906</ele>
        <time>2013-07-11T18:28:15.000Z</time>
      </trkpt>
      <trkpt lat="45.77789" lon="4.64922">
        <ele>588.37658691406</ele>
        <time>2013-07-11T18:28:18.000Z</time>
      </trkpt>
      <trkpt lat="45.77789" lon="4.64933">
        <ele>587.77410888672</ele>
        <time>2013-07-11T18:28:20.000Z</time>
      </trkpt>
      <trkpt lat="45.77787" lon="4.64941">
        <ele>587.21716308594</ele>
        <time>2013-07-11T18:28:23.000Z</time>
      </trkpt>
      <trkpt lat="45.77788" lon="4.6495">
        <ele>586.7646484375</ele>
        <time>2013-07-11T18:28:27.000Z</time>
      </trkpt>
      <trkpt lat="45.77793" lon="4.64966">
        <ele>586.79333496094</ele>
        <time>2013-07-11T18:28:30.000Z</time>
      </trkpt>
      <trkpt lat="45.77796" lon="4.64982">
        <ele>587.04766845703</ele>
        <time>2013-07-11T18:28:32.000Z</time>
      </trkpt>
      <trkpt lat="45.77796" lon="4.64992">
        <ele>587.36688232422</ele>
        <time>2013-07-11T18:28:35.000Z</time>
      </trkpt>
      <trkpt lat="45.77795" lon="4.65006">
        <ele>587.6826171875</ele>
        <time>2013-07-11T18:28:38.000Z</time>
      </trkpt>
      <trkpt lat="45.77794" lon="4.65016">
        <ele>587.83605957031</ele>
        <time>2013-07-11T18:28:40.000Z</time>
      </trkpt>
      <trkpt lat="45.77791" lon="4.6503">
        <ele>587.35955810547</ele>
        <time>2013-07-11T18:28:43.000Z</time>
      </trkpt>
      <trkpt lat="45.77788" lon="4.6504">
        <ele>586.46148681641</ele>
        <time>2013-07-11T18:28:45.000Z</time>
      </trkpt>
      <trkpt lat="45.77787" lon="4.65051">
        <ele>585.47424316406</ele>
        <time>2013-07-11T18:28:47.000Z</time>
      </trkpt>
      <trkpt lat="45.7779" lon="4.65068">
        <ele>584.78143310547</ele>
        <time>2013-07-11T18:28:49.000Z</time>
      </trkpt>
      <trkpt lat="45.77792" lon="4.65078">
        <ele>584.26184082031</ele>
        <time>2013-07-11T18:28:52.000Z</time>
      </trkpt>
      <trkpt lat="45.77792" lon="4.65086">
        <ele>583.92608642578</ele>
        <time>2013-07-11T18:28:55.000Z</time>
      </trkpt>
      <trkpt lat="45.7779" lon="4.65092">
        <ele>583.65625</ele>
        <time>2013-07-11T18:28:58.000Z</time>
      </trkpt>
      <trkpt lat="45.77789" lon="4.651">
        <ele>583.38653564453</ele>
        <time>2013-07-11T18:29:01.000Z</time>
      </trkpt>
      <trkpt lat="45.77793" lon="4.65114">
        <ele>582.93707275391</ele>
        <time>2013-07-11T18:29:03.000Z</time>
      </trkpt>
      <trkpt lat="45.77795" lon="4.65123">
        <ele>582.44927978516</ele>
        <time>2013-07-11T18:29:06.000Z</time>
      </trkpt>
      <trkpt lat="45.77797" lon="4.65129">
        <ele>582.09246826172</ele>
        <time>2013-07-11T18:29:09.000Z</time>
      </trkpt>
      <trkpt lat="45.77792" lon="4.65168">
        <ele>581.05499267578</ele>
        <time>2013-07-11T18:31:16.000Z</time>
      </trkpt>
      <trkpt lat="45.77792" lon="4.65177">
        <ele>580.04968261719</ele>
        <time>2013-07-11T18:31:18.000Z</time>
      </trkpt>
      <trkpt lat="45.77796" lon="4.65188">
        <ele>579.14093017578</ele>
        <time>2013-07-11T18:31:22.000Z</time>
      </trkpt>
      <trkpt lat="45.77802" lon="4.65195">
        <ele>578.45617675781</ele>
        <time>2013-07-11T18:31:25.000Z</time>
      </trkpt>
      <trkpt lat="45.77805" lon="4.65199">
        <ele>577.81604003906</ele>
        <time>2013-07-11T18:31:28.000Z</time>
      </trkpt>
      <trkpt lat="45.77806" lon="4.65207">
        <ele>578.04443359375</ele>
        <time>2013-07-11T18:31:31.000Z</time>
      </trkpt>
      <trkpt lat="45.77806" lon="4.65212">
        <ele>578.29168701172</ele>
        <time>2013-07-11T18:31:33.000Z</time>
      </trkpt>
      <trkpt lat="45.77804" lon="4.65217">
        <ele>578.30487060547</ele>
        <time>2013-07-11T18:31:35.000Z</time>
      </trkpt>
      <trkpt lat="45.77805" lon="4.65225">
        <ele>577.99774169922</ele>
        <time>2013-07-11T18:31:37.000Z</time>
      </trkpt>
      <trkpt lat="45.77807" lon="4.65235">
        <ele>577.57757568359</ele>
        <time>2013-07-11T18:31:40.000Z</time>
      </trkpt>
      <trkpt lat="45.77814" lon="4.65243">
        <ele>577.41027832031</ele>
        <time>2013-07-11T18:31:44.000Z</time>
      </trkpt>
      <trkpt lat="45.7782" lon="4.65255">
        <ele>577.44372558594</ele>
        <time>2013-07-11T18:31:46.000Z</time>
      </trkpt>
      <trkpt lat="45.77823" lon="4.65269">
        <ele>577.55072021484</ele>
        <time>2013-07-11T18:31:49.000Z</time>
      </trkpt>
      <trkpt lat="45.77824" lon="4.65279">
        <ele>577.63500976562</ele>
        <time>2013-07-11T18:31:51.000Z</time>
      </trkpt>
      <trkpt lat="45.77826" lon="4.65288">
        <ele>577.66009521484</ele>
        <time>2013-07-11T18:31:54.000Z</time>
      </trkpt>
      <trkpt lat="45.77827" lon="4.65301">
        <ele>577.29486083984</ele>
        <time>2013-07-11T18:31:56.000Z</time>
      </trkpt>
      <trkpt lat="45.77827" lon="4.65312">
        <ele>576.59606933594</ele>
        <time>2013-07-11T18:31:59.000Z</time>
      </trkpt>
      <trkpt lat="45.77825" lon="4.65317">
        <ele>575.83312988281</ele>
        <time>2013-07-11T18:32:02.000Z</time>
      </trkpt>
      <trkpt lat="45.77824" lon="4.65318">
        <ele>575.1123046875</ele>
        <time>2013-07-11T18:32:05.000Z</time>
      </trkpt>
      <trkpt lat="45.77818" lon="4.65347">
        <ele>573.89599609375</ele>
        <time>2013-07-11T18:32:23.000Z</time>
      </trkpt>
      <trkpt lat="45.77814" lon="4.65359">
        <ele>572.60467529297</ele>
        <time>2013-07-11T18:32:25.000Z</time>
      </trkpt>
      <trkpt lat="45.77812" lon="4.65368">
        <ele>571.36676025391</ele>
        <time>2013-07-11T18:32:27.000Z</time>
      </trkpt>
      <trkpt lat="45.77808" lon="4.6538">
        <ele>570.04809570312</ele>
        <time>2013-07-11T18:32:30.000Z</time>
      </trkpt>
      <trkpt lat="45.77805" lon="4.65395">
        <ele>568.56085205078</ele>
        <time>2013-07-11T18:32:33.000Z</time>
      </trkpt>
      <trkpt lat="45.77801" lon="4.6541">
        <ele>567.45739746094</ele>
        <time>2013-07-11T18:32:36.000Z</time>
      </trkpt>
      <trkpt lat="45.77797" lon="4.65425">
        <ele>566.35681152344</ele>
        <time>2013-07-11T18:32:40.000Z</time>
      </trkpt>
      <trkpt lat="45.7779" lon="4.65448">
        <ele>565.09216308594</ele>
        <time>2013-07-11T18:32:42.000Z</time>
      </trkpt>
      <trkpt lat="45.77788" lon="4.65456">
        <ele>563.97344970703</ele>
        <time>2013-07-11T18:32:44.000Z</time>
      </trkpt>
      <trkpt lat="45.77788" lon="4.6546">
        <ele>563.04766845703</ele>
        <time>2013-07-11T18:32:47.000Z</time>
      </trkpt>
      <trkpt lat="45.77785" lon="4.65468">
        <ele>562.23791503906</ele>
        <time>2013-07-11T18:32:50.000Z</time>
      </trkpt>
      <trkpt lat="45.77781" lon="4.65476">
        <ele>561.56628417969</ele>
        <time>2013-07-11T18:32:53.000Z</time>
      </trkpt>
      <trkpt lat="45.7778" lon="4.6548">
        <ele>561.1875</ele>
        <time>2013-07-11T18:32:55.000Z</time>
      </trkpt>
      <trkpt lat="45.77777" lon="4.65486">
        <ele>560.84033203125</ele>
        <time>2013-07-11T18:32:58.000Z</time>
      </trkpt>
      <trkpt lat="45.77776" lon="4.65489">
        <ele>560.5029296875</ele>
        <time>2013-07-11T18:33:00.000Z</time>
      </trkpt>
      <trkpt lat="45.7777" lon="4.65492">
        <ele>560.21160888672</ele>
        <time>2013-07-11T18:33:02.000Z</time>
      </trkpt>
      <trkpt lat="45.77765" lon="4.65496">
        <ele>559.96368408203</ele>
        <time>2013-07-11T18:33:05.000Z</time>
      </trkpt>
      <trkpt lat="45.7776" lon="4.6551">
        <ele>559.65270996094</ele>
        <time>2013-07-11T18:33:07.000Z</time>
      </trkpt>
      <trkpt lat="45.77756" lon="4.65531">
        <ele>559.27850341797</ele>
        <time>2013-07-11T18:33:10.000Z</time>
      </trkpt>
      <trkpt lat="45.77755" lon="4.65545">
        <ele>558.85974121094</ele>
        <time>2013-07-11T18:33:12.000Z</time>
      </trkpt>
      <trkpt lat="45.77755" lon="4.65557">
        <ele>558.43249511719</ele>
        <time>2013-07-11T18:33:15.000Z</time>
      </trkpt>
      <trkpt lat="45.77754" lon="4.6557">
        <ele>557.99523925781</ele>
        <time>2013-07-11T18:33:17.000Z</time>
      </trkpt>
      <trkpt lat="45.7775" lon="4.6559">
        <ele>557.5078125</ele>
        <time>2013-07-11T18:33:20.000Z</time>
      </trkpt>
      <trkpt lat="45.7775" lon="4.65594">
        <ele>557.09167480469</ele>
        <time>2013-07-11T18:33:22.000Z</time>
      </trkpt>
      <trkpt lat="45.77748" lon="4.65608">
        <ele>556.54180908203</ele>
        <time>2013-07-11T18:33:25.000Z</time>
      </trkpt>
      <trkpt lat="45.77748" lon="4.65612">
        <ele>556.00366210938</ele>
        <time>2013-07-11T18:33:27.000Z</time>
      </trkpt>
      <trkpt lat="45.77749" lon="4.65621">
        <ele>555.39886474609</ele>
        <time>2013-07-11T18:33:32.000Z</time>
      </trkpt>
      <trkpt lat="45.77749" lon="4.65629">
        <ele>554.83703613281</ele>
        <time>2013-07-11T18:33:34.000Z</time>
      </trkpt>
      <trkpt lat="45.7775" lon="4.65639">
        <ele>554.19128417969</ele>
        <time>2013-07-11T18:33:36.000Z</time>
      </trkpt>
      <trkpt lat="45.77755" lon="4.65653">
        <ele>553.49151611328</ele>
        <time>2013-07-11T18:33:39.000Z</time>
      </trkpt>
      <trkpt lat="45.7776" lon="4.65667">
        <ele>552.55651855469</ele>
        <time>2013-07-11T18:33:41.000Z</time>
      </trkpt>
      <trkpt lat="45.77763" lon="4.65683">
        <ele>551.42468261719</ele>
        <time>2013-07-11T18:33:45.000Z</time>
      </trkpt>
      <trkpt lat="45.77765" lon="4.65695">
        <ele>550.13946533203</ele>
        <time>2013-07-11T18:33:47.000Z</time>
      </trkpt>
      <trkpt lat="45.77766" lon="4.65702">
        <ele>548.82531738281</ele>
        <time>2013-07-11T18:33:49.000Z</time>
      </trkpt>
      <trkpt lat="45.77768" lon="4.65708">
        <ele>547.63177490234</ele>
        <time>2013-07-11T18:33:52.000Z</time>
      </trkpt>
      <trkpt lat="45.77771" lon="4.65716">
        <ele>546.50506591797</ele>
        <time>2013-07-11T18:33:55.000Z</time>
      </trkpt>
      <trkpt lat="45.77775" lon="4.6572">
        <ele>545.54486083984</ele>
        <time>2013-07-11T18:33:58.000Z</time>
      </trkpt>
      <trkpt lat="45.77787" lon="4.65742">
        <ele>544.11492919922</ele>
        <time>2013-07-11T18:34:16.000Z</time>
      </trkpt>
      <trkpt lat="45.77789" lon="4.65749">
        <ele>542.63854980469</ele>
        <time>2013-07-11T18:34:18.000Z</time>
      </trkpt>
      <trkpt lat="45.77789" lon="4.65753">
        <ele>541.20062255859</ele>
        <time>2013-07-11T18:34:21.000Z</time>
      </trkpt>
      <trkpt lat="45.7779" lon="4.65754">
        <ele>539.93347167969</ele>
        <time>2013-07-11T18:34:23.000Z</time>
      </trkpt>
      <trkpt lat="45.77796" lon="4.6577">
        <ele>538.26690673828</ele>
        <time>2013-07-11T18:34:57.000Z</time>
      </trkpt>
      <trkpt lat="45.77803" lon="4.65777">
        <ele>536.98236083984</ele>
        <time>2013-07-11T18:35:01.000Z</time>
      </trkpt>
      <trkpt lat="45.77807" lon="4.6578">
        <ele>535.73992919922</ele>
        <time>2013-07-11T18:35:04.000Z</time>
      </trkpt>
      <trkpt lat="45.7781" lon="4.6578">
        <ele>534.54577636719</ele>
        <time>2013-07-11T18:35:06.000Z</time>
      </trkpt>
      <trkpt lat="45.77815" lon="4.65785">
        <ele>533.14758300781</ele>
        <time>2013-07-11T18:35:10.000Z</time>
      </trkpt>
      <trkpt lat="45.77824" lon="4.65794">
        <ele>531.92163085938</ele>
        <time>2013-07-11T18:35:12.000Z</time>
      </trkpt>
      <trkpt lat="45.77829" lon="4.65803">
        <ele>530.74157714844</ele>
        <time>2013-07-11T18:35:14.000Z</time>
      </trkpt>
      <trkpt lat="45.77833" lon="4.65811">
        <ele>529.45098876953</ele>
        <time>2013-07-11T18:35:16.000Z</time>
      </trkpt>
      <trkpt lat="45.77834" lon="4.65821">
        <ele>527.99066162109</ele>
        <time>2013-07-11T18:35:19.000Z</time>
      </trkpt>
      <trkpt lat="45.77834" lon="4.65834">
        <ele>526.48059082031</ele>
        <time>2013-07-11T18:35:21.000Z</time>
      </trkpt>
      <trkpt lat="45.77835" lon="4.65843">
        <ele>524.96868896484</ele>
        <time>2013-07-11T18:35:25.000Z</time>
      </trkpt>
      <trkpt lat="45.77836" lon="4.65854">
        <ele>523.32568359375</ele>
        <time>2013-07-11T18:35:28.000Z</time>
      </trkpt>
      <trkpt lat="45.77839" lon="4.65865">
        <ele>521.43542480469</ele>
        <time>2013-07-11T18:35:30.000Z</time>
      </trkpt>
      <trkpt lat="45.77843" lon="4.65877">
        <ele>519.26702880859</ele>
        <time>2013-07-11T18:35:34.000Z</time>
      </trkpt>
      <trkpt lat="45.77847" lon="4.65886">
        <ele>517.02014160156</ele>
        <time>2013-07-11T18:35:37.000Z</time>
      </trkpt>
      <trkpt lat="45.7785" lon="4.65889">
        <ele>514.98577880859</ele>
        <time>2013-07-11T18:35:40.000Z</time>
      </trkpt>
      <trkpt lat="45.77852" lon="4.65895">
        <ele>513.19085693359</ele>
        <time>2013-07-11T18:35:43.000Z</time>
      </trkpt>
      <trkpt lat="45.77853" lon="4.65904">
        <ele>511.64703369141</ele>
        <time>2013-07-11T18:35:45.000Z</time>
      </trkpt>
      <trkpt lat="45.77856" lon="4.65912">
        <ele>510.33779907227</ele>
        <time>2013-07-11T18:35:48.000Z</time>
      </trkpt>
      <trkpt lat="45.77859" lon="4.65919">
        <ele>509.22036743164</ele>
        <time>2013-07-11T18:35:51.000Z</time>
      </trkpt>
      <trkpt lat="45.77861" lon="4.65925">
        <ele>508.16537475586</ele>
        <time>2013-07-11T18:35:53.000Z</time>
      </trkpt>
      <trkpt lat="45.77861" lon="4.65927">
        <ele>507.28311157227</ele>
        <time>2013-07-11T18:35:55.000Z</time>
      </trkpt>
      <trkpt lat="45.77859" lon="4.65924">
        <ele>506.73300170898</ele>
        <time>2013-07-11T18:35:58.000Z</time>
      </trkpt>
      <trkpt lat="45.77858" lon="4.65921">
        <ele>506.51156616211</ele>
        <time>2013-07-11T18:36:01.000Z</time>
      </trkpt>
      <trkpt lat="45.7785" lon="4.65916">
        <ele>506.63079833984</ele>
        <time>2013-07-11T18:36:04.000Z</time>
      </trkpt>
      <trkpt lat="45.77848" lon="4.65917">
        <ele>506.85366821289</ele>
        <time>2013-07-11T18:36:06.000Z</time>
      </trkpt>
      <trkpt lat="45.7785" lon="4.65924">
        <ele>506.95672607422</ele>
        <time>2013-07-11T18:36:09.000Z</time>
      </trkpt>
      <trkpt lat="45.77859" lon="4.65968">
        <ele>506.23089599609</ele>
        <time>2013-07-11T18:36:14.000Z</time>
      </trkpt>
      <trkpt lat="45.7786" lon="4.65981">
        <ele>505.23663330078</ele>
        <time>2013-07-11T18:36:16.000Z</time>
      </trkpt>
      <trkpt lat="45.77855" lon="4.66003">
        <ele>503.623046875</ele>
        <time>2013-07-11T18:36:19.000Z</time>
      </trkpt>
      <trkpt lat="45.77856" lon="4.66013">
        <ele>501.85699462891</ele>
        <time>2013-07-11T18:36:21.000Z</time>
      </trkpt>
      <trkpt lat="45.77853" lon="4.66034">
        <ele>499.74627685547</ele>
        <time>2013-07-11T18:36:24.000Z</time>
      </trkpt>
      <trkpt lat="45.77858" lon="4.66046">
        <ele>498.31338500977</ele>
        <time>2013-07-11T18:36:27.000Z</time>
      </trkpt>
      <trkpt lat="45.77859" lon="4.66059">
        <ele>496.87533569336</ele>
        <time>2013-07-11T18:36:30.000Z</time>
      </trkpt>
      <trkpt lat="45.77861" lon="4.66071">
        <ele>495.75302124023</ele>
        <time>2013-07-11T18:36:32.000Z</time>
      </trkpt>
      <trkpt lat="45.77861" lon="4.66077">
        <ele>494.68426513672</ele>
        <time>2013-07-11T18:36:35.000Z</time>
      </trkpt>
      <trkpt lat="45.77861" lon="4.66081">
        <ele>494.03729248047</ele>
        <time>2013-07-11T18:36:37.000Z</time>
      </trkpt>
      <trkpt lat="45.77862" lon="4.66091">
        <ele>493.36749267578</ele>
        <time>2013-07-11T18:36:40.000Z</time>
      </trkpt>
      <trkpt lat="45.77862" lon="4.66101">
        <ele>492.77905273438</ele>
        <time>2013-07-11T18:36:43.000Z</time>
      </trkpt>
      <trkpt lat="45.77861" lon="4.66117">
        <ele>492.06845092773</ele>
        <time>2013-07-11T18:36:45.000Z</time>
      </trkpt>
      <trkpt lat="45.7786" lon="4.66132">
        <ele>491.20025634766</ele>
        <time>2013-07-11T18:36:48.000Z</time>
      </trkpt>
      <trkpt lat="45.77858" lon="4.66139">
        <ele>490.22998046875</ele>
        <time>2013-07-11T18:36:51.000Z</time>
      </trkpt>
      <trkpt lat="45.77847" lon="4.66165">
        <ele>488.6533203125</ele>
        <time>2013-07-11T18:36:55.000Z</time>
      </trkpt>
      <trkpt lat="45.77843" lon="4.66181">
        <ele>487.03485107422</ele>
        <time>2013-07-11T18:36:57.000Z</time>
      </trkpt>
      <trkpt lat="45.77842" lon="4.66195">
        <ele>485.64532470703</ele>
        <time>2013-07-11T18:37:00.000Z</time>
      </trkpt>
      <trkpt lat="45.77842" lon="4.66209">
        <ele>484.48501586914</ele>
        <time>2013-07-11T18:37:03.000Z</time>
      </trkpt>
      <trkpt lat="45.7784" lon="4.66226">
        <ele>483.45620727539</ele>
        <time>2013-07-11T18:37:06.000Z</time>
      </trkpt>
      <trkpt lat="45.7784" lon="4.66243">
        <ele>483.12606811523</ele>
        <time>2013-07-11T18:37:09.000Z</time>
      </trkpt>
      <trkpt lat="45.77839" lon="4.66259">
        <ele>482.91177368164</ele>
        <time>2013-07-11T18:37:11.000Z</time>
      </trkpt>
      <trkpt lat="45.77836" lon="4.66272">
        <ele>482.65933227539</ele>
        <time>2013-07-11T18:37:15.000Z</time>
      </trkpt>
      <trkpt lat="45.77834" lon="4.66281">
        <ele>482.3896484375</ele>
        <time>2013-07-11T18:37:17.000Z</time>
      </trkpt>
      <trkpt lat="45.7783" lon="4.66297">
        <ele>481.8896484375</ele>
        <time>2013-07-11T18:37:19.000Z</time>
      </trkpt>
      <trkpt lat="45.77829" lon="4.66309">
        <ele>481.31842041016</ele>
        <time>2013-07-11T18:37:22.000Z</time>
      </trkpt>
      <trkpt lat="45.77831" lon="4.66332">
        <ele>480.90802001953</ele>
        <time>2013-07-11T18:37:25.000Z</time>
      </trkpt>
      <trkpt lat="45.77836" lon="4.66349">
        <ele>480.72705078125</ele>
        <time>2013-07-11T18:37:27.000Z</time>
      </trkpt>
      <trkpt lat="45.77833" lon="4.66359">
        <ele>480.48455810547</ele>
        <time>2013-07-11T18:37:30.000Z</time>
      </trkpt>
      <trkpt lat="45.7783" lon="4.66376">
        <ele>480.29364013672</ele>
        <time>2013-07-11T18:37:32.000Z</time>
      </trkpt>
      <trkpt lat="45.77831" lon="4.66391">
        <ele>480.21380615234</ele>
        <time>2013-07-11T18:37:36.000Z</time>
      </trkpt>
      <trkpt lat="45.77835" lon="4.66399">
        <ele>480.22216796875</ele>
        <time>2013-07-11T18:37:38.000Z</time>
      </trkpt>
      <trkpt lat="45.77842" lon="4.66408">
        <ele>480.21722412109</ele>
        <time>2013-07-11T18:37:40.000Z</time>
      </trkpt>
      <trkpt lat="45.77843" lon="4.6642">
        <ele>480.2666015625</ele>
        <time>2013-07-11T18:40:12.000Z</time>
      </trkpt>
      <trkpt lat="45.77847" lon="4.66434">
        <ele>480.40850830078</ele>
        <time>2013-07-11T18:40:14.000Z</time>
      </trkpt>
      <trkpt lat="45.7785" lon="4.66444">
        <ele>480.44863891602</ele>
        <time>2013-07-11T18:40:16.000Z</time>
      </trkpt>
      <trkpt lat="45.77852" lon="4.66455">
        <ele>480.18048095703</ele>
        <time>2013-07-11T18:40:18.000Z</time>
      </trkpt>
      <trkpt lat="45.77853" lon="4.66467">
        <ele>479.58959960938</ele>
        <time>2013-07-11T18:40:21.000Z</time>
      </trkpt>
      <trkpt lat="45.77855" lon="4.66475">
        <ele>478.97372436523</ele>
        <time>2013-07-11T18:40:23.000Z</time>
      </trkpt>
      <trkpt lat="45.77864" lon="4.66499">
        <ele>478.29580688477</ele>
        <time>2013-07-11T18:40:26.000Z</time>
      </trkpt>
      <trkpt lat="45.77868" lon="4.66513">
        <ele>477.35504150391</ele>
        <time>2013-07-11T18:40:28.000Z</time>
      </trkpt>
      <trkpt lat="45.77872" lon="4.66523">
        <ele>476.30926513672</ele>
        <time>2013-07-11T18:40:30.000Z</time>
      </trkpt>
      <trkpt lat="45.77877" lon="4.6653">
        <ele>475.31134033203</ele>
        <time>2013-07-11T18:40:32.000Z</time>
      </trkpt>
      <trkpt lat="45.77882" lon="4.66546">
        <ele>474.01153564453</ele>
        <time>2013-07-11T18:40:35.000Z</time>
      </trkpt>
      <trkpt lat="45.77888" lon="4.66564">
        <ele>472.42895507812</ele>
        <time>2013-07-11T18:40:37.000Z</time>
      </trkpt>
      <trkpt lat="45.7789" lon="4.66572">
        <ele>470.96484375</ele>
        <time>2013-07-11T18:40:40.000Z</time>
      </trkpt>
      <trkpt lat="45.77891" lon="4.66581">
        <ele>469.4560546875</ele>
        <time>2013-07-11T18:40:42.000Z</time>
      </trkpt>
      <trkpt lat="45.77894" lon="4.66587">
        <ele>467.9501953125</ele>
        <time>2013-07-11T18:40:45.000Z</time>
      </trkpt>
      <trkpt lat="45.779" lon="4.66598">
        <ele>466.58383178711</ele>
        <time>2013-07-11T18:40:48.000Z</time>
      </trkpt>
      <trkpt lat="45.77891" lon="4.66611">
        <ele>465.03378295898</ele>
        <time>2013-07-11T18:40:51.000Z</time>
      </trkpt>
      <trkpt lat="45.77874" lon="4.66612">
        <ele>463.3486328125</ele>
        <time>2013-07-11T18:40:53.000Z</time>
      </trkpt>
      <trkpt lat="45.77866" lon="4.66612">
        <ele>461.78680419922</ele>
        <time>2013-07-11T18:40:56.000Z</time>
      </trkpt>
      <trkpt lat="45.77853" lon="4.6661">
        <ele>460.14413452148</ele>
        <time>2013-07-11T18:40:59.000Z</time>
      </trkpt>
      <trkpt lat="45.77836" lon="4.66606">
        <ele>458.51522827148</ele>
        <time>2013-07-11T18:41:01.000Z</time>
      </trkpt>
      <trkpt lat="45.77826" lon="4.66604">
        <ele>457.31884765625</ele>
        <time>2013-07-11T18:41:04.000Z</time>
      </trkpt>
      <trkpt lat="45.77811" lon="4.66611">
        <ele>455.88925170898</ele>
        <time>2013-07-11T18:41:06.000Z</time>
      </trkpt>
      <trkpt lat="45.77803" lon="4.66614">
        <ele>454.33465576172</ele>
        <time>2013-07-11T18:41:08.000Z</time>
      </trkpt>
      <trkpt lat="45.77793" lon="4.66614">
        <ele>452.69775390625</ele>
        <time>2013-07-11T18:41:11.000Z</time>
      </trkpt>
      <trkpt lat="45.77782" lon="4.66605">
        <ele>451.13702392578</ele>
        <time>2013-07-11T18:41:14.000Z</time>
      </trkpt>
      <trkpt lat="45.77774" lon="4.66603">
        <ele>449.59585571289</ele>
        <time>2013-07-11T18:41:16.000Z</time>
      </trkpt>
      <trkpt lat="45.77763" lon="4.66604">
        <ele>448.31201171875</ele>
        <time>2013-07-11T18:41:18.000Z</time>
      </trkpt>
      <trkpt lat="45.77764" lon="4.66618">
        <ele>447.13833618164</ele>
        <time>2013-07-11T18:41:21.000Z</time>
      </trkpt>
      <trkpt lat="45.77766" lon="4.66631">
        <ele>446.14013671875</ele>
        <time>2013-07-11T18:41:23.000Z</time>
      </trkpt>
      <trkpt lat="45.77773" lon="4.66643">
        <ele>445.28939819336</ele>
        <time>2013-07-11T18:41:26.000Z</time>
      </trkpt>
      <trkpt lat="45.77778" lon="4.66665">
        <ele>444.36492919922</ele>
        <time>2013-07-11T18:41:29.000Z</time>
      </trkpt>
      <trkpt lat="45.77781" lon="4.66681">
        <ele>443.54208374023</ele>
        <time>2013-07-11T18:41:32.000Z</time>
      </trkpt>
      <trkpt lat="45.77781" lon="4.66689">
        <ele>442.7197265625</ele>
        <time>2013-07-11T18:41:34.000Z</time>
      </trkpt>
      <trkpt lat="45.77779" lon="4.66695">
        <ele>441.89761352539</ele>
        <time>2013-07-11T18:41:37.000Z</time>
      </trkpt>
      <trkpt lat="45.77796" lon="4.66715">
        <ele>440.92855834961</ele>
        <time>2013-07-11T18:41:41.000Z</time>
      </trkpt>
      <trkpt lat="45.778" lon="4.66727">
        <ele>440.02011108398</ele>
        <time>2013-07-11T18:41:44.000Z</time>
      </trkpt>
      <trkpt lat="45.77803" lon="4.66748">
        <ele>438.93179321289</ele>
        <time>2013-07-11T18:41:47.000Z</time>
      </trkpt>
      <trkpt lat="45.77803" lon="4.6677">
        <ele>437.62084960938</ele>
        <time>2013-07-11T18:41:49.000Z</time>
      </trkpt>
      <trkpt lat="45.77803" lon="4.66792">
        <ele>436.07666015625</ele>
        <time>2013-07-11T18:41:52.000Z</time>
      </trkpt>
      <trkpt lat="45.77802" lon="4.66821">
        <ele>434.21566772461</ele>
        <time>2013-07-11T18:41:54.000Z</time>
      </trkpt>
      <trkpt lat="45.77803" lon="4.66837">
        <ele>432.31500244141</ele>
        <time>2013-07-11T18:41:57.000Z</time>
      </trkpt>
      <trkpt lat="45.778" lon="4.66846">
        <ele>430.70947265625</ele>
        <time>2013-07-11T18:41:59.000Z</time>
      </trkpt>
      <trkpt lat="45.77795" lon="4.66852">
        <ele>429.40762329102</ele>
        <time>2013-07-11T18:42:02.000Z</time>
      </trkpt>
      <trkpt lat="45.77791" lon="4.66858">
        <ele>428.4033203125</ele>
        <time>2013-07-11T18:42:05.000Z</time>
      </trkpt>
      <trkpt lat="45.77786" lon="4.66861">
        <ele>427.84954833984</ele>
        <time>2013-07-11T18:42:07.000Z</time>
      </trkpt>
      <trkpt lat="45.77776" lon="4.66863">
        <ele>427.57412719727</ele>
        <time>2013-07-11T18:42:09.000Z</time>
      </trkpt>
      <trkpt lat="45.77766" lon="4.66864">
        <ele>427.46362304688</ele>
        <time>2013-07-11T18:42:12.000Z</time>
      </trkpt>
      <trkpt lat="45.77755" lon="4.66869">
        <ele>427.44204711914</ele>
        <time>2013-07-11T18:42:16.000Z</time>
      </trkpt>
      <trkpt lat="45.77748" lon="4.66875">
        <ele>427.43548583984</ele>
        <time>2013-07-11T18:42:18.000Z</time>
      </trkpt>
      <trkpt lat="45.77742" lon="4.66885">
        <ele>427.31210327148</ele>
        <time>2013-07-11T18:42:22.000Z</time>
      </trkpt>
      <trkpt lat="45.77738" lon="4.66894">
        <ele>427.05975341797</ele>
        <time>2013-07-11T18:42:24.000Z</time>
      </trkpt>
      <trkpt lat="45.77734" lon="4.66905">
        <ele>426.65829467773</ele>
        <time>2013-07-11T18:42:26.000Z</time>
      </trkpt>
      <trkpt lat="45.77727" lon="4.6692">
        <ele>426.11679077148</ele>
        <time>2013-07-11T18:42:28.000Z</time>
      </trkpt>
      <trkpt lat="45.77723" lon="4.66936">
        <ele>425.59429931641</ele>
        <time>2013-07-11T18:42:31.000Z</time>
      </trkpt>
      <trkpt lat="45.77721" lon="4.66947">
        <ele>425.20712280273</ele>
        <time>2013-07-11T18:42:33.000Z</time>
      </trkpt>
      <trkpt lat="45.77716" lon="4.66963">
        <ele>424.90707397461</ele>
        <time>2013-07-11T18:42:36.000Z</time>
      </trkpt>
      <trkpt lat="45.77713" lon="4.66973">
        <ele>424.70245361328</ele>
        <time>2013-07-11T18:42:38.000Z</time>
      </trkpt>
      <trkpt lat="45.77711" lon="4.66983">
        <ele>424.62255859375</ele>
        <time>2013-07-11T18:42:41.000Z</time>
      </trkpt>
      <trkpt lat="45.77707" lon="4.66998">
        <ele>424.55630493164</ele>
        <time>2013-07-11T18:42:43.000Z</time>
      </trkpt>
      <trkpt lat="45.777" lon="4.67011">
        <ele>424.47695922852</ele>
        <time>2013-07-11T18:42:47.000Z</time>
      </trkpt>
      <trkpt lat="45.77692" lon="4.67025">
        <ele>424.37030029297</ele>
        <time>2013-07-11T18:42:50.000Z</time>
      </trkpt>
      <trkpt lat="45.77681" lon="4.67041">
        <ele>424.20477294922</ele>
        <time>2013-07-11T18:42:52.000Z</time>
      </trkpt>
      <trkpt lat="45.77674" lon="4.6705">
        <ele>423.98614501953</ele>
        <time>2013-07-11T18:42:54.000Z</time>
      </trkpt>
      <trkpt lat="45.77668" lon="4.67059">
        <ele>423.71542358398</ele>
        <time>2013-07-11T18:42:56.000Z</time>
      </trkpt>
      <trkpt lat="45.77654" lon="4.67073">
        <ele>423.29116821289</ele>
        <time>2013-07-11T18:42:59.000Z</time>
      </trkpt>
      <trkpt lat="45.77647" lon="4.67082">
        <ele>422.83602905273</ele>
        <time>2013-07-11T18:43:02.000Z</time>
      </trkpt>
      <trkpt lat="45.77639" lon="4.67093">
        <ele>422.34854125977</ele>
        <time>2013-07-11T18:43:04.000Z</time>
      </trkpt>
      <trkpt lat="45.77628" lon="4.67109">
        <ele>421.76895141602</ele>
        <time>2013-07-11T18:43:07.000Z</time>
      </trkpt>
      <trkpt lat="45.77614" lon="4.67124">
        <ele>421.08978271484</ele>
        <time>2013-07-11T18:43:09.000Z</time>
      </trkpt>
      <trkpt lat="45.77597" lon="4.67139">
        <ele>420.39096069336</ele>
        <time>2013-07-11T18:43:12.000Z</time>
      </trkpt>
      <trkpt lat="45.77583" lon="4.67151">
        <ele>419.62704467773</ele>
        <time>2013-07-11T18:43:14.000Z</time>
      </trkpt>
      <trkpt lat="45.77568" lon="4.67164">
        <ele>418.861328125</ele>
        <time>2013-07-11T18:43:17.000Z</time>
      </trkpt>
      <trkpt lat="45.77549" lon="4.67183">
        <ele>417.85943603516</ele>
        <time>2013-07-11T18:43:20.000Z</time>
      </trkpt>
      <trkpt lat="45.77532" lon="4.67203">
        <ele>416.57827758789</ele>
        <time>2013-07-11T18:43:23.000Z</time>
      </trkpt>
      <trkpt lat="45.77512" lon="4.67226">
        <ele>414.94711303711</ele>
        <time>2013-07-11T18:43:25.000Z</time>
      </trkpt>
      <trkpt lat="45.77494" lon="4.67247">
        <ele>412.93585205078</ele>
        <time>2013-07-11T18:43:28.000Z</time>
      </trkpt>
      <trkpt lat="45.77483" lon="4.6726">
        <ele>410.68368530273</ele>
        <time>2013-07-11T18:43:31.000Z</time>
      </trkpt>
      <trkpt lat="45.77472" lon="4.67273">
        <ele>408.50140380859</ele>
        <time>2013-07-11T18:43:33.000Z</time>
      </trkpt>
      <trkpt lat="45.77451" lon="4.67292">
        <ele>406.2698059082</ele>
        <time>2013-07-11T18:43:36.000Z</time>
      </trkpt>
      <trkpt lat="45.77428" lon="4.67308">
        <ele>404.16302490234</ele>
        <time>2013-07-11T18:43:38.000Z</time>
      </trkpt>
      <trkpt lat="45.77415" lon="4.6732">
        <ele>402.31768798828</ele>
        <time>2013-07-11T18:43:41.000Z</time>
      </trkpt>
      <trkpt lat="45.77401" lon="4.67334">
        <ele>400.49725341797</ele>
        <time>2013-07-11T18:43:43.000Z</time>
      </trkpt>
      <trkpt lat="45.7738" lon="4.67353">
        <ele>398.54986572266</ele>
        <time>2013-07-11T18:43:46.000Z</time>
      </trkpt>
      <trkpt lat="45.77367" lon="4.67366">
        <ele>396.82391357422</ele>
        <time>2013-07-11T18:43:48.000Z</time>
      </trkpt>
      <trkpt lat="45.77348" lon="4.67387">
        <ele>395.16397094727</ele>
        <time>2013-07-11T18:43:51.000Z</time>
      </trkpt>
      <trkpt lat="45.77327" lon="4.67405">
        <ele>393.43316650391</ele>
        <time>2013-07-11T18:43:54.000Z</time>
      </trkpt>
      <trkpt lat="45.77316" lon="4.67417">
        <ele>391.80374145508</ele>
        <time>2013-07-11T18:43:56.000Z</time>
      </trkpt>
      <trkpt lat="45.77302" lon="4.67433">
        <ele>390.21310424805</ele>
        <time>2013-07-11T18:43:59.000Z</time>
      </trkpt>
      <trkpt lat="45.77283" lon="4.67452">
        <ele>388.41424560547</ele>
        <time>2013-07-11T18:44:02.000Z</time>
      </trkpt>
      <trkpt lat="45.77266" lon="4.67465">
        <ele>386.63735961914</ele>
        <time>2013-07-11T18:44:04.000Z</time>
      </trkpt>
      <trkpt lat="45.77242" lon="4.67483">
        <ele>384.74520874023</ele>
        <time>2013-07-11T18:44:07.000Z</time>
      </trkpt>
      <trkpt lat="45.77219" lon="4.675">
        <ele>382.66180419922</ele>
        <time>2013-07-11T18:44:10.000Z</time>
      </trkpt>
      <trkpt lat="45.77197" lon="4.67517">
        <ele>380.58056640625</ele>
        <time>2013-07-11T18:44:12.000Z</time>
      </trkpt>
      <trkpt lat="45.77177" lon="4.67533">
        <ele>378.64883422852</ele>
        <time>2013-07-11T18:44:16.000Z</time>
      </trkpt>
      <trkpt lat="45.77163" lon="4.67546">
        <ele>376.80276489258</ele>
        <time>2013-07-11T18:44:19.000Z</time>
      </trkpt>
      <trkpt lat="45.77152" lon="4.67553">
        <ele>375.22415161133</ele>
        <time>2013-07-11T18:44:21.000Z</time>
      </trkpt>
      <trkpt lat="45.7715" lon="4.67555">
        <ele>374.01739501953</ele>
        <time>2013-07-11T18:44:25.000Z</time>
      </trkpt>
      <trkpt lat="45.77158" lon="4.6758">
        <ele>373.06631469727</ele>
        <time>2013-07-11T18:44:40.000Z</time>
      </trkpt>
      <trkpt lat="45.77161" lon="4.67591">
        <ele>372.3544921875</ele>
        <time>2013-07-11T18:44:43.000Z</time>
      </trkpt>
      <trkpt lat="45.77167" lon="4.67615">
        <ele>371.66232299805</ele>
        <time>2013-07-11T18:44:45.000Z</time>
      </trkpt>
      <trkpt lat="45.77174" lon="4.67639">
        <ele>370.88958740234</ele>
        <time>2013-07-11T18:44:48.000Z</time>
      </trkpt>
      <trkpt lat="45.77182" lon="4.67662">
        <ele>369.91934204102</ele>
        <time>2013-07-11T18:44:52.000Z</time>
      </trkpt>
      <trkpt lat="45.77188" lon="4.6768">
        <ele>368.91058349609</ele>
        <time>2013-07-11T18:44:54.000Z</time>
      </trkpt>
      <trkpt lat="45.77196" lon="4.67701">
        <ele>367.75994873047</ele>
        <time>2013-07-11T18:44:57.000Z</time>
      </trkpt>
      <trkpt lat="45.77206" lon="4.67723">
        <ele>366.58465576172</ele>
        <time>2013-07-11T18:45:00.000Z</time>
      </trkpt>
      <trkpt lat="45.77211" lon="4.67743">
        <ele>365.41995239258</ele>
        <time>2013-07-11T18:45:02.000Z</time>
      </trkpt>
      <trkpt lat="45.77212" lon="4.67763">
        <ele>364.25476074219</ele>
        <time>2013-07-11T18:45:05.000Z</time>
      </trkpt>
      <trkpt lat="45.77219" lon="4.6779">
        <ele>362.98724365234</ele>
        <time>2013-07-11T18:45:08.000Z</time>
      </trkpt>
      <trkpt lat="45.7723" lon="4.67818">
        <ele>361.70257568359</ele>
        <time>2013-07-11T18:45:10.000Z</time>
      </trkpt>
      <trkpt lat="45.77235" lon="4.67835">
        <ele>360.53082275391</ele>
        <time>2013-07-11T18:45:12.000Z</time>
      </trkpt>
      <trkpt lat="45.77236" lon="4.67853">
        <ele>359.5217590332</ele>
        <time>2013-07-11T18:45:14.000Z</time>
      </trkpt>
      <trkpt lat="45.77238" lon="4.67883">
        <ele>358.59896850586</ele>
        <time>2013-07-11T18:45:18.000Z</time>
      </trkpt>
      <trkpt lat="45.77241" lon="4.67898">
        <ele>357.91796875</ele>
        <time>2013-07-11T18:45:20.000Z</time>
      </trkpt>
      <trkpt lat="45.77246" lon="4.67911">
        <ele>357.48013305664</ele>
        <time>2013-07-11T18:45:22.000Z</time>
      </trkpt>
      <trkpt lat="45.77252" lon="4.67929">
        <ele>357.27182006836</ele>
        <time>2013-07-11T18:45:24.000Z</time>
      </trkpt>
      <trkpt lat="45.77258" lon="4.67937">
        <ele>357.27578735352</ele>
        <time>2013-07-11T18:45:27.000Z</time>
      </trkpt>
      <trkpt lat="45.77261" lon="4.67946">
        <ele>357.52444458008</ele>
        <time>2013-07-11T18:45:29.000Z</time>
      </trkpt>
      <trkpt lat="45.77262" lon="4.67955">
        <ele>357.8708190918</ele>
        <time>2013-07-11T18:45:32.000Z</time>
      </trkpt>
      <trkpt lat="45.77263" lon="4.67966">
        <ele>358.27203369141</ele>
        <time>2013-07-11T18:45:35.000Z</time>
      </trkpt>
      <trkpt lat="45.77267" lon="4.67977">
        <ele>358.70599365234</ele>
        <time>2013-07-11T18:45:37.000Z</time>
      </trkpt>
      <trkpt lat="45.77271" lon="4.67986">
        <ele>359.12759399414</ele>
        <time>2013-07-11T18:45:41.000Z</time>
      </trkpt>
      <trkpt lat="45.77274" lon="4.67994">
        <ele>359.53549194336</ele>
        <time>2013-07-11T18:45:45.000Z</time>
      </trkpt>
      <trkpt lat="45.77275" lon="4.68">
        <ele>359.93994140625</ele>
        <time>2013-07-11T18:45:46.000Z</time>
      </trkpt>
      <trkpt lat="45.77277" lon="4.68009">
        <ele>360.37048339844</ele>
        <time>2013-07-11T18:45:48.000Z</time>
      </trkpt>
      <trkpt lat="45.77279" lon="4.68018">
        <ele>360.74362182617</ele>
        <time>2013-07-11T18:45:51.000Z</time>
      </trkpt>
      <trkpt lat="45.77282" lon="4.68027">
        <ele>361.07830810547</ele>
        <time>2013-07-11T18:45:54.000Z</time>
      </trkpt>
      <trkpt lat="45.77284" lon="4.68031">
        <ele>361.39233398438</ele>
        <time>2013-07-11T18:45:56.000Z</time>
      </trkpt>
      <trkpt lat="45.77285" lon="4.68035">
        <ele>361.69763183594</ele>
        <time>2013-07-11T18:45:59.000Z</time>
      </trkpt>
      <trkpt lat="45.77287" lon="4.68041">
        <ele>361.9775390625</ele>
        <time>2013-07-11T18:46:01.000Z</time>
      </trkpt>
      <trkpt lat="45.77289" lon="4.68047">
        <ele>362.24926757812</ele>
        <time>2013-07-11T18:46:04.000Z</time>
      </trkpt>
      <trkpt lat="45.7729" lon="4.68051">
        <ele>362.49279785156</ele>
        <time>2013-07-11T18:46:07.000Z</time>
      </trkpt>
      <trkpt lat="45.77293" lon="4.68053">
        <ele>362.73828125</ele>
        <time>2013-07-11T18:46:10.000Z</time>
      </trkpt>
      <trkpt lat="45.77299" lon="4.68059">
        <ele>363.08544921875</ele>
        <time>2013-07-11T18:46:12.000Z</time>
      </trkpt>
      <trkpt lat="45.77304" lon="4.68066">
        <ele>363.51574707031</ele>
        <time>2013-07-11T18:46:15.000Z</time>
      </trkpt>
      <trkpt lat="45.77308" lon="4.68071">
        <ele>363.97827148438</ele>
        <time>2013-07-11T18:46:18.000Z</time>
      </trkpt>
      <trkpt lat="45.77312" lon="4.68077">
        <ele>364.50561523438</ele>
        <time>2013-07-11T18:46:20.000Z</time>
      </trkpt>
      <trkpt lat="45.77315" lon="4.6808">
        <ele>365.05407714844</ele>
        <time>2013-07-11T18:46:22.000Z</time>
      </trkpt>
      <trkpt lat="45.7732" lon="4.68085">
        <ele>365.59201049805</ele>
        <time>2013-07-11T18:46:25.000Z</time>
      </trkpt>
      <trkpt lat="45.77323" lon="4.68087">
        <ele>366.0595703125</ele>
        <time>2013-07-11T18:46:27.000Z</time>
      </trkpt>
      <trkpt lat="45.77324" lon="4.68088">
        <ele>366.46865844727</ele>
        <time>2013-07-11T18:46:29.000Z</time>
      </trkpt>
      <trkpt lat="45.77328" lon="4.68093">
        <ele>366.87725830078</ele>
        <time>2013-07-11T18:46:33.000Z</time>
      </trkpt>
      <trkpt lat="45.7733" lon="4.68097">
        <ele>367.27157592773</ele>
        <time>2013-07-11T18:46:35.000Z</time>
      </trkpt>
      <trkpt lat="45.77333" lon="4.68102">
        <ele>367.61801147461</ele>
        <time>2013-07-11T18:46:37.000Z</time>
      </trkpt>
      <trkpt lat="45.77335" lon="4.68108">
        <ele>367.98648071289</ele>
        <time>2013-07-11T18:46:39.000Z</time>
      </trkpt>
      <trkpt lat="45.77338" lon="4.68113">
        <ele>368.44415283203</ele>
        <time>2013-07-11T18:46:41.000Z</time>
      </trkpt>
      <trkpt lat="45.77342" lon="4.68123">
        <ele>368.94442749023</ele>
        <time>2013-07-11T18:46:44.000Z</time>
      </trkpt>
      <trkpt lat="45.77346" lon="4.68133">
        <ele>369.55639648438</ele>
        <time>2013-07-11T18:46:47.000Z</time>
      </trkpt>
      <trkpt lat="45.77351" lon="4.68142">
        <ele>370.26123046875</ele>
        <time>2013-07-11T18:46:50.000Z</time>
      </trkpt>
      <trkpt lat="45.77354" lon="4.68148">
        <ele>370.99560546875</ele>
        <time>2013-07-11T18:46:52.000Z</time>
      </trkpt>
      <trkpt lat="45.77357" lon="4.68156">
        <ele>371.7373046875</ele>
        <time>2013-07-11T18:46:55.000Z</time>
      </trkpt>
      <trkpt lat="45.77361" lon="4.68165">
        <ele>372.49096679688</ele>
        <time>2013-07-11T18:46:58.000Z</time>
      </trkpt>
      <trkpt lat="45.77365" lon="4.68173">
        <ele>373.14453125</ele>
        <time>2013-07-11T18:47:00.000Z</time>
      </trkpt>
      <trkpt lat="45.77366" lon="4.68178">
        <ele>373.62817382812</ele>
        <time>2013-07-11T18:47:02.000Z</time>
      </trkpt>
      <trkpt lat="45.77366" lon="4.68183">
        <ele>373.95031738281</ele>
        <time>2013-07-11T18:47:05.000Z</time>
      </trkpt>
      <trkpt lat="45.77367" lon="4.68187">
        <ele>374.13696289062</ele>
        <time>2013-07-11T18:47:07.000Z</time>
      </trkpt>
      <trkpt lat="45.77368" lon="4.68193">
        <ele>374.16711425781</ele>
        <time>2013-07-11T18:47:10.000Z</time>
      </trkpt>
      <trkpt lat="45.77371" lon="4.68199">
        <ele>374.16052246094</ele>
        <time>2013-07-11T18:47:12.000Z</time>
      </trkpt>
      <trkpt lat="45.77372" lon="4.68203">
        <ele>374.130859375</ele>
        <time>2013-07-11T18:47:14.000Z</time>
      </trkpt>
      <trkpt lat="45.77371" lon="4.6821">
        <ele>374.09057617188</ele>
        <time>2013-07-11T18:47:16.000Z</time>
      </trkpt>
      <trkpt lat="45.77372" lon="4.68215">
        <ele>374.04406738281</ele>
        <time>2013-07-11T18:47:18.000Z</time>
      </trkpt>
      <trkpt lat="45.77375" lon="4.68219">
        <ele>374.04223632812</ele>
        <time>2013-07-11T18:47:20.000Z</time>
      </trkpt>
      <trkpt lat="45.77377" lon="4.68222">
        <ele>374.05249023438</ele>
        <time>2013-07-11T18:47:22.000Z</time>
      </trkpt>
      <trkpt lat="45.77378" lon="4.68224">
        <ele>374.10339355469</ele>
        <time>2013-07-11T18:47:25.000Z</time>
      </trkpt>
      <trkpt lat="45.77382" lon="4.68228">
        <ele>374.29821777344</ele>
        <time>2013-07-11T18:47:27.000Z</time>
      </trkpt>
      <trkpt lat="45.77385" lon="4.68231">
        <ele>374.55419921875</ele>
        <time>2013-07-11T18:47:29.000Z</time>
      </trkpt>
      <trkpt lat="45.77388" lon="4.68235">
        <ele>374.8251953125</ele>
        <time>2013-07-11T18:47:32.000Z</time>
      </trkpt>
      <trkpt lat="45.77417" lon="4.68258">
        <ele>375.66159057617</ele>
        <time>2013-07-11T18:47:36.000Z</time>
      </trkpt>
      <trkpt lat="45.77423" lon="4.68264">
        <ele>376.47595214844</ele>
        <time>2013-07-11T18:47:39.000Z</time>
      </trkpt>
      <trkpt lat="45.77426" lon="4.68268">
        <ele>377.1904296875</ele>
        <time>2013-07-11T18:47:42.000Z</time>
      </trkpt>
      <trkpt lat="45.77431" lon="4.68272">
        <ele>377.85968017578</ele>
        <time>2013-07-11T18:47:44.000Z</time>
      </trkpt>
      <trkpt lat="45.77434" lon="4.68276">
        <ele>378.45465087891</ele>
        <time>2013-07-11T18:47:46.000Z</time>
      </trkpt>
      <trkpt lat="45.77438" lon="4.68279">
        <ele>378.43905639648</ele>
        <time>2013-07-11T18:47:50.000Z</time>
      </trkpt>
      <trkpt lat="45.77441" lon="4.68286">
        <ele>378.39767456055</ele>
        <time>2013-07-11T18:47:53.000Z</time>
      </trkpt>
      <trkpt lat="45.77447" lon="4.68297">
        <ele>378.3141784668</ele>
        <time>2013-07-11T18:47:55.000Z</time>
      </trkpt>
      <trkpt lat="45.77451" lon="4.68307">
        <ele>378.18032836914</ele>
        <time>2013-07-11T18:47:58.000Z</time>
      </trkpt>
      <trkpt lat="45.77461" lon="4.68325">
        <ele>378.02465820312</ele>
        <time>2013-07-11T18:48:01.000Z</time>
      </trkpt>
      <trkpt lat="45.77472" lon="4.68345">
        <ele>377.89559936523</ele>
        <time>2013-07-11T18:48:04.000Z</time>
      </trkpt>
      <trkpt lat="45.77478" lon="4.68359">
        <ele>377.83673095703</ele>
        <time>2013-07-11T18:48:06.000Z</time>
      </trkpt>
      <trkpt lat="45.77483" lon="4.68372">
        <ele>377.83831787109</ele>
        <time>2013-07-11T18:48:08.000Z</time>
      </trkpt>
      <trkpt lat="45.77486" lon="4.68388">
        <ele>377.86114501953</ele>
        <time>2013-07-11T18:48:10.000Z</time>
      </trkpt>
      <trkpt lat="45.77482" lon="4.68397">
        <ele>377.83410644531</ele>
        <time>2013-07-11T18:48:13.000Z</time>
      </trkpt>
      <trkpt lat="45.77473" lon="4.68412">
        <ele>377.63391113281</ele>
        <time>2013-07-11T18:48:15.000Z</time>
      </trkpt>
      <trkpt lat="45.77466" lon="4.68422">
        <ele>377.32537841797</ele>
        <time>2013-07-11T18:48:17.000Z</time>
      </trkpt>
      <trkpt lat="45.77451" lon="4.68429">
        <ele>376.90481567383</ele>
        <time>2013-07-11T18:48:20.000Z</time>
      </trkpt>
      <trkpt lat="45.77432" lon="4.68445">
        <ele>376.44375610352</ele>
        <time>2013-07-11T18:48:22.000Z</time>
      </trkpt>
      <trkpt lat="45.77417" lon="4.68455">
        <ele>376.025390625</ele>
        <time>2013-07-11T18:48:25.000Z</time>
      </trkpt>
      <trkpt lat="45.77401" lon="4.68461">
        <ele>375.84497070312</ele>
        <time>2013-07-11T18:48:29.000Z</time>
      </trkpt>
      <trkpt lat="45.77385" lon="4.68462">
        <ele>375.80099487305</ele>
        <time>2013-07-11T18:48:31.000Z</time>
      </trkpt>
      <trkpt lat="45.77372" lon="4.68461">
        <ele>375.90350341797</ele>
        <time>2013-07-11T18:48:35.000Z</time>
      </trkpt>
      <trkpt lat="45.77364" lon="4.68459">
        <ele>376.08541870117</ele>
        <time>2013-07-11T18:48:37.000Z</time>
      </trkpt>
      <trkpt lat="45.77356" lon="4.68459">
        <ele>376.33389282227</ele>
        <time>2013-07-11T18:48:40.000Z</time>
      </trkpt>
      <trkpt lat="45.77349" lon="4.68459">
        <ele>376.50689697266</ele>
        <time>2013-07-11T18:48:43.000Z</time>
      </trkpt>
      <trkpt lat="45.77341" lon="4.68461">
        <ele>376.65899658203</ele>
        <time>2013-07-11T18:48:45.000Z</time>
      </trkpt>
      <trkpt lat="45.77332" lon="4.68467">
        <ele>376.85122680664</ele>
        <time>2013-07-11T18:48:48.000Z</time>
      </trkpt>
      <trkpt lat="45.77328" lon="4.68471">
        <ele>377.05902099609</ele>
        <time>2013-07-11T18:48:51.000Z</time>
      </trkpt>
      <trkpt lat="45.77325" lon="4.68471">
        <ele>377.23049926758</ele>
        <time>2013-07-11T18:48:53.000Z</time>
      </trkpt>
      <trkpt lat="45.77322" lon="4.68465">
        <ele>377.31390380859</ele>
        <time>2013-07-11T18:48:56.000Z</time>
      </trkpt>
      <trkpt lat="45.77316" lon="4.68454">
        <ele>377.23095703125</ele>
        <time>2013-07-11T18:49:00.000Z</time>
      </trkpt>
      <trkpt lat="45.77308" lon="4.68442">
        <ele>376.93701171875</ele>
        <time>2013-07-11T18:49:02.000Z</time>
      </trkpt>
      <trkpt lat="45.77294" lon="4.68426">
        <ele>376.42626953125</ele>
        <time>2013-07-11T18:49:05.000Z</time>
      </trkpt>
      <trkpt lat="45.77286" lon="4.68411">
        <ele>375.71041870117</ele>
        <time>2013-07-11T18:49:07.000Z</time>
      </trkpt>
      <trkpt lat="45.77272" lon="4.6839">
        <ele>374.69747924805</ele>
        <time>2013-07-11T18:49:10.000Z</time>
      </trkpt>
      <trkpt lat="45.77262" lon="4.68377">
        <ele>373.60198974609</ele>
        <time>2013-07-11T18:49:13.000Z</time>
      </trkpt>
      <trkpt lat="45.77244" lon="4.68357">
        <ele>372.39440917969</ele>
        <time>2013-07-11T18:49:15.000Z</time>
      </trkpt>
      <trkpt lat="45.77228" lon="4.68336">
        <ele>371.19177246094</ele>
        <time>2013-07-11T18:49:18.000Z</time>
      </trkpt>
      <trkpt lat="45.77212" lon="4.68312">
        <ele>369.97186279297</ele>
        <time>2013-07-11T18:49:22.000Z</time>
      </trkpt>
      <trkpt lat="45.77195" lon="4.68292">
        <ele>368.99542236328</ele>
        <time>2013-07-11T18:49:24.000Z</time>
      </trkpt>
      <trkpt lat="45.77179" lon="4.68272">
        <ele>368.11102294922</ele>
        <time>2013-07-11T18:49:27.000Z</time>
      </trkpt>
      <trkpt lat="45.77164" lon="4.6826">
        <ele>367.44577026367</ele>
        <time>2013-07-11T18:49:31.000Z</time>
      </trkpt>
      <trkpt lat="45.77155" lon="4.68269">
        <ele>367.00457763672</ele>
        <time>2013-07-11T18:49:34.000Z</time>
      </trkpt>
      <trkpt lat="45.77153" lon="4.68278">
        <ele>366.87258911133</ele>
        <time>2013-07-11T18:49:36.000Z</time>
      </trkpt>
      <trkpt lat="45.7715" lon="4.68286">
        <ele>366.92681884766</ele>
        <time>2013-07-11T18:49:38.000Z</time>
      </trkpt>
      <trkpt lat="45.77147" lon="4.68301">
        <ele>367.22207641602</ele>
        <time>2013-07-11T18:49:41.000Z</time>
      </trkpt>
      <trkpt lat="45.77144" lon="4.68316">
        <ele>367.67163085938</ele>
        <time>2013-07-11T18:49:44.000Z</time>
      </trkpt>
      <trkpt lat="45.77142" lon="4.68331">
        <ele>368.19769287109</ele>
        <time>2013-07-11T18:49:46.000Z</time>
      </trkpt>
      <trkpt lat="45.77138" lon="4.68345">
        <ele>368.70706176758</ele>
        <time>2013-07-11T18:49:49.000Z</time>
      </trkpt>
      <trkpt lat="45.77135" lon="4.68355">
        <ele>369.18292236328</ele>
        <time>2013-07-11T18:49:51.000Z</time>
      </trkpt>
      <trkpt lat="45.77131" lon="4.68365">
        <ele>369.55230712891</ele>
        <time>2013-07-11T18:49:54.000Z</time>
      </trkpt>
      <trkpt lat="45.77122" lon="4.68369">
        <ele>369.7145690918</ele>
        <time>2013-07-11T18:49:56.000Z</time>
      </trkpt>
      <trkpt lat="45.77111" lon="4.68361">
        <ele>369.57299804688</ele>
        <time>2013-07-11T18:49:58.000Z</time>
      </trkpt>
      <trkpt lat="45.77101" lon="4.68354">
        <ele>369.19201660156</ele>
        <time>2013-07-11T18:50:00.000Z</time>
      </trkpt>
      <trkpt lat="45.77081" lon="4.68342">
        <ele>368.44802856445</ele>
        <time>2013-07-11T18:50:04.000Z</time>
      </trkpt>
      <trkpt lat="45.7706" lon="4.68329">
        <ele>367.34490966797</ele>
        <time>2013-07-11T18:50:06.000Z</time>
      </trkpt>
      <trkpt lat="45.77036" lon="4.68312">
        <ele>365.98300170898</ele>
        <time>2013-07-11T18:50:09.000Z</time>
      </trkpt>
      <trkpt lat="45.7702" lon="4.68304">
        <ele>364.59503173828</ele>
        <time>2013-07-11T18:50:12.000Z</time>
      </trkpt>
      <trkpt lat="45.77" lon="4.68293">
        <ele>363.13580322266</ele>
        <time>2013-07-11T18:50:14.000Z</time>
      </trkpt>
      <trkpt lat="45.76978" lon="4.68281">
        <ele>361.67028808594</ele>
        <time>2013-07-11T18:50:17.000Z</time>
      </trkpt>
      <trkpt lat="45.76958" lon="4.6828">
        <ele>360.27349853516</ele>
        <time>2013-07-11T18:50:20.000Z</time>
      </trkpt>
      <trkpt lat="45.76944" lon="4.68288">
        <ele>359.01226806641</ele>
        <time>2013-07-11T18:50:23.000Z</time>
      </trkpt>
      <trkpt lat="45.7694" lon="4.68307">
        <ele>357.8811340332</ele>
        <time>2013-07-11T18:50:27.000Z</time>
      </trkpt>
      <trkpt lat="45.76939" lon="4.68318">
        <ele>356.97750854492</ele>
        <time>2013-07-11T18:50:30.000Z</time>
      </trkpt>
      <trkpt lat="45.76937" lon="4.68332">
        <ele>356.36001586914</ele>
        <time>2013-07-11T18:50:33.000Z</time>
      </trkpt>
      <trkpt lat="45.76936" lon="4.68339">
        <ele>355.99822998047</ele>
        <time>2013-07-11T18:50:35.000Z</time>
      </trkpt>
      <trkpt lat="45.76934" lon="4.6835">
        <ele>355.82022094727</ele>
        <time>2013-07-11T18:50:37.000Z</time>
      </trkpt>
      <trkpt lat="45.76933" lon="4.68356">
        <ele>355.70831298828</ele>
        <time>2013-07-11T18:50:40.000Z</time>
      </trkpt>
      <trkpt lat="45.76933" lon="4.68357">
        <ele>355.61093139648</ele>
        <time>2013-07-11T18:50:42.000Z</time>
      </trkpt>
      <trkpt lat="45.76933" lon="4.68338">
        <ele>355.54193115234</ele>
        <time>2013-07-11T18:50:54.000Z</time>
      </trkpt>
      <trkpt lat="45.76934" lon="4.68329">
        <ele>355.49267578125</ele>
        <time>2013-07-11T18:50:56.000Z</time>
      </trkpt>
      <trkpt lat="45.76935" lon="4.68319">
        <ele>355.49560546875</ele>
        <time>2013-07-11T18:50:58.000Z</time>
      </trkpt>
      <trkpt lat="45.76937" lon="4.68306">
        <ele>355.56454467773</ele>
        <time>2013-07-11T18:51:01.000Z</time>
      </trkpt>
      <trkpt lat="45.76938" lon="4.68299">
        <ele>355.66470336914</ele>
        <time>2013-07-11T18:51:04.000Z</time>
      </trkpt>
      <trkpt lat="45.76942" lon="4.68289">
        <ele>355.85614013672</ele>
        <time>2013-07-11T18:51:06.000Z</time>
      </trkpt>
      <trkpt lat="45.76944" lon="4.68279">
        <ele>356.07284545898</ele>
        <time>2013-07-11T18:51:09.000Z</time>
      </trkpt>
      <trkpt lat="45.76939" lon="4.68271">
        <ele>356.19219970703</ele>
        <time>2013-07-11T18:51:12.000Z</time>
      </trkpt>
      <trkpt lat="45.76923" lon="4.68266">
        <ele>356.06860351562</ele>
        <time>2013-07-11T18:51:15.000Z</time>
      </trkpt>
      <trkpt lat="45.76915" lon="4.68262">
        <ele>355.80206298828</ele>
        <time>2013-07-11T18:51:17.000Z</time>
      </trkpt>
      <trkpt lat="45.76914" lon="4.68251">
        <ele>355.47503662109</ele>
        <time>2013-07-11T18:51:20.000Z</time>
      </trkpt>
      <trkpt lat="45.7692" lon="4.6823">
        <ele>355.01065063477</ele>
        <time>2013-07-11T18:51:23.000Z</time>
      </trkpt>
      <trkpt lat="45.76923" lon="4.68219">
        <ele>354.53881835938</ele>
        <time>2013-07-11T18:51:26.000Z</time>
      </trkpt>
      <trkpt lat="45.76929" lon="4.68207">
        <ele>354.19497680664</ele>
        <time>2013-07-11T18:51:28.000Z</time>
      </trkpt>
      <trkpt lat="45.76931" lon="4.68201">
        <ele>353.92337036133</ele>
        <time>2013-07-11T18:51:31.000Z</time>
      </trkpt>
      <trkpt lat="45.76934" lon="4.68191">
        <ele>353.56500244141</ele>
        <time>2013-07-11T18:51:33.000Z</time>
      </trkpt>
      <trkpt lat="45.76934" lon="4.68184">
        <ele>353.22686767578</ele>
        <time>2013-07-11T18:51:37.000Z</time>
      </trkpt>
      <trkpt lat="45.76933" lon="4.68173">
        <ele>352.83929443359</ele>
        <time>2013-07-11T18:51:39.000Z</time>
      </trkpt>
      <trkpt lat="45.76933" lon="4.68161">
        <ele>352.35684204102</ele>
        <time>2013-07-11T18:51:42.000Z</time>
      </trkpt>
      <trkpt lat="45.7693" lon="4.6815">
        <ele>351.70913696289</ele>
        <time>2013-07-11T18:51:45.000Z</time>
      </trkpt>
      <trkpt lat="45.76922" lon="4.68141">
        <ele>350.93865966797</ele>
        <time>2013-07-11T18:51:49.000Z</time>
      </trkpt>
      <trkpt lat="45.76914" lon="4.68135">
        <ele>350.06802368164</ele>
        <time>2013-07-11T18:51:51.000Z</time>
      </trkpt>
      <trkpt lat="45.76907" lon="4.68134">
        <ele>349.20806884766</ele>
        <time>2013-07-11T18:51:54.000Z</time>
      </trkpt>
      <trkpt lat="45.76904" lon="4.68141">
        <ele>348.56182861328</ele>
        <time>2013-07-11T18:51:56.000Z</time>
      </trkpt>
      <trkpt lat="45.769" lon="4.68143">
        <ele>348.10855102539</ele>
        <time>2013-07-11T18:51:58.000Z</time>
      </trkpt>
      <trkpt lat="45.76892" lon="4.68146">
        <ele>347.78179931641</ele>
        <time>2013-07-11T18:52:01.000Z</time>
      </trkpt>
      <trkpt lat="45.76862" lon="4.68144">
        <ele>347.16159057617</ele>
        <time>2013-07-11T18:52:06.000Z</time>
      </trkpt>
      <trkpt lat="45.76847" lon="4.68138">
        <ele>346.35852050781</ele>
        <time>2013-07-11T18:52:08.000Z</time>
      </trkpt>
      <trkpt lat="45.76839" lon="4.68139">
        <ele>345.40200805664</ele>
        <time>2013-07-11T18:52:11.000Z</time>
      </trkpt>
      <trkpt lat="45.76831" lon="4.68134">
        <ele>344.30145263672</ele>
        <time>2013-07-11T18:52:15.000Z</time>
      </trkpt>
      <trkpt lat="45.76827" lon="4.68116">
        <ele>343.08538818359</ele>
        <time>2013-07-11T18:52:17.000Z</time>
      </trkpt>
      <trkpt lat="45.76829" lon="4.68106">
        <ele>342.26718139648</ele>
        <time>2013-07-11T18:52:20.000Z</time>
      </trkpt>
      <trkpt lat="45.76829" lon="4.68095">
        <ele>341.64077758789</ele>
        <time>2013-07-11T18:52:23.000Z</time>
      </trkpt>
      <trkpt lat="45.76827" lon="4.68085">
        <ele>341.01736450195</ele>
        <time>2013-07-11T18:52:26.000Z</time>
      </trkpt>
      <trkpt lat="45.76823" lon="4.68077">
        <ele>340.53820800781</ele>
        <time>2013-07-11T18:52:29.000Z</time>
      </trkpt>
      <trkpt lat="45.76816" lon="4.68073">
        <ele>340.24060058594</ele>
        <time>2013-07-11T18:52:31.000Z</time>
      </trkpt>
      <trkpt lat="45.76808" lon="4.68075">
        <ele>340.00436401367</ele>
        <time>2013-07-11T18:52:33.000Z</time>
      </trkpt>
      <trkpt lat="45.768" lon="4.68072">
        <ele>339.86392211914</ele>
        <time>2013-07-11T18:52:37.000Z</time>
      </trkpt>
      <trkpt lat="45.76797" lon="4.68073">
        <ele>339.81283569336</ele>
        <time>2013-07-11T18:52:39.000Z</time>
      </trkpt>
      <trkpt lat="45.76794" lon="4.68076">
        <ele>339.76348876953</ele>
        <time>2013-07-11T18:52:42.000Z</time>
      </trkpt>
      <trkpt lat="45.76785" lon="4.68081">
        <ele>339.68685913086</ele>
        <time>2013-07-11T18:52:45.000Z</time>
      </trkpt>
      <trkpt lat="45.76777" lon="4.68089">
        <ele>339.59915161133</ele>
        <time>2013-07-11T18:52:48.000Z</time>
      </trkpt>
      <trkpt lat="45.7677" lon="4.68094">
        <ele>339.49676513672</ele>
        <time>2013-07-11T18:52:50.000Z</time>
      </trkpt>
      <trkpt lat="45.76759" lon="4.68097">
        <ele>339.35772705078</ele>
        <time>2013-07-11T18:52:53.000Z</time>
      </trkpt>
      <trkpt lat="45.76746" lon="4.68101">
        <ele>339.18615722656</ele>
        <time>2013-07-11T18:52:56.000Z</time>
      </trkpt>
      <trkpt lat="45.76742" lon="4.68103">
        <ele>339.04711914062</ele>
        <time>2013-07-11T18:52:58.000Z</time>
      </trkpt>
      <trkpt lat="45.76744" lon="4.68108">
        <ele>338.91851806641</ele>
        <time>2013-07-11T18:53:00.000Z</time>
      </trkpt>
      <trkpt lat="45.76744" lon="4.68112">
        <ele>338.79907226562</ele>
        <time>2013-07-11T18:53:03.000Z</time>
      </trkpt>
      <trkpt lat="45.7674" lon="4.68124">
        <ele>338.68316650391</ele>
        <time>2013-07-11T18:53:06.000Z</time>
      </trkpt>
      <trkpt lat="45.76738" lon="4.68135">
        <ele>338.57135009766</ele>
        <time>2013-07-11T18:53:08.000Z</time>
      </trkpt>
      <trkpt lat="45.76736" lon="4.68144">
        <ele>338.4306640625</ele>
        <time>2013-07-11T18:53:10.000Z</time>
      </trkpt>
      <trkpt lat="45.76732" lon="4.68147">
        <ele>338.27716064453</ele>
        <time>2013-07-11T18:53:13.000Z</time>
      </trkpt>
      <trkpt lat="45.76725" lon="4.68156">
        <ele>338.07333374023</ele>
        <time>2013-07-11T18:53:15.000Z</time>
      </trkpt>
      <trkpt lat="45.76725" lon="4.68159">
        <ele>337.89605712891</ele>
        <time>2013-07-11T18:53:18.000Z</time>
      </trkpt>
      <trkpt lat="45.76726" lon="4.68162">
        <ele>337.75076293945</ele>
        <time>2013-07-11T18:53:21.000Z</time>
      </trkpt>
      <trkpt lat="45.76725" lon="4.6817">
        <ele>337.60620117188</ele>
        <time>2013-07-11T18:53:24.000Z</time>
      </trkpt>
      <trkpt lat="45.76721" lon="4.68181">
        <ele>337.44189453125</ele>
        <time>2013-07-11T18:53:27.000Z</time>
      </trkpt>
      <trkpt lat="45.76714" lon="4.68189">
        <ele>337.26931762695</ele>
        <time>2013-07-11T18:53:29.000Z</time>
      </trkpt>
      <trkpt lat="45.76702" lon="4.68194">
        <ele>337.00994873047</ele>
        <time>2013-07-11T18:53:31.000Z</time>
      </trkpt>
      <trkpt lat="45.76691" lon="4.68191">
        <ele>336.69793701172</ele>
        <time>2013-07-11T18:53:34.000Z</time>
      </trkpt>
      <trkpt lat="45.76678" lon="4.68188">
        <ele>336.35089111328</ele>
        <time>2013-07-11T18:53:36.000Z</time>
      </trkpt>
      <trkpt lat="45.76669" lon="4.68189">
        <ele>335.98248291016</ele>
        <time>2013-07-11T18:53:39.000Z</time>
      </trkpt>
      <trkpt lat="45.76661" lon="4.68191">
        <ele>335.67114257812</ele>
        <time>2013-07-11T18:53:41.000Z</time>
      </trkpt>
      <trkpt lat="45.76652" lon="4.6819">
        <ele>335.49859619141</ele>
        <time>2013-07-11T18:53:44.000Z</time>
      </trkpt>
      <trkpt lat="45.76647" lon="4.68195">
        <ele>335.36627197266</ele>
        <time>2013-07-11T18:53:46.000Z</time>
      </trkpt>
      <trkpt lat="45.76644" lon="4.68201">
        <ele>335.26971435547</ele>
        <time>2013-07-11T18:53:48.000Z</time>
      </trkpt>
      <trkpt lat="45.76643" lon="4.68213">
        <ele>335.16522216797</ele>
        <time>2013-07-11T18:53:52.000Z</time>
      </trkpt>
      <trkpt lat="45.76642" lon="4.68221">
        <ele>335.03024291992</ele>
        <time>2013-07-11T18:53:54.000Z</time>
      </trkpt>
      <trkpt lat="45.76638" lon="4.6823">
        <ele>334.81182861328</ele>
        <time>2013-07-11T18:53:56.000Z</time>
      </trkpt>
      <trkpt lat="45.76633" lon="4.68237">
        <ele>334.59259033203</ele>
        <time>2013-07-11T18:53:58.000Z</time>
      </trkpt>
      <trkpt lat="45.76629" lon="4.68245">
        <ele>334.37860107422</ele>
        <time>2013-07-11T18:54:01.000Z</time>
      </trkpt>
      <trkpt lat="45.76622" lon="4.68255">
        <ele>334.21508789062</ele>
        <time>2013-07-11T18:54:03.000Z</time>
      </trkpt>
      <trkpt lat="45.7662" lon="4.68258">
        <ele>334.08831787109</ele>
        <time>2013-07-11T18:54:05.000Z</time>
      </trkpt>
      <trkpt lat="45.76628" lon="4.68278">
        <ele>333.87991333008</ele>
        <time>2013-07-11T18:54:40.000Z</time>
      </trkpt>
      <trkpt lat="45.7663" lon="4.68284">
        <ele>333.66180419922</ele>
        <time>2013-07-11T18:54:43.000Z</time>
      </trkpt>
      <trkpt lat="45.76637" lon="4.68308">
        <ele>333.35284423828</ele>
        <time>2013-07-11T18:54:53.000Z</time>
      </trkpt>
      <trkpt lat="45.7664" lon="4.68314">
        <ele>333.04049682617</ele>
        <time>2013-07-11T18:54:55.000Z</time>
      </trkpt>
      <trkpt lat="45.76643" lon="4.68322">
        <ele>332.70199584961</ele>
        <time>2013-07-11T18:54:58.000Z</time>
      </trkpt>
      <trkpt lat="45.76643" lon="4.68324">
        <ele>332.48077392578</ele>
        <time>2013-07-11T18:55:00.000Z</time>
      </trkpt>
      <trkpt lat="45.76643" lon="4.68326">
        <ele>332.28732299805</ele>
        <time>2013-07-11T18:55:04.000Z</time>
      </trkpt>
      <trkpt lat="45.76649" lon="4.68331">
        <ele>332.19110107422</ele>
        <time>2013-07-11T18:55:21.000Z</time>
      </trkpt>
      <trkpt lat="45.76651" lon="4.68331">
        <ele>332.12295532227</ele>
        <time>2013-07-11T18:55:23.000Z</time>
      </trkpt>
      <trkpt lat="45.7665" lon="4.68328">
        <ele>332.09555053711</ele>
        <time>2013-07-11T18:55:26.000Z</time>
      </trkpt>
      <trkpt lat="45.76647" lon="4.68326">
        <ele>332.08770751953</ele>
        <time>2013-07-11T18:55:29.000Z</time>
      </trkpt>
      <trkpt lat="45.76644" lon="4.68328">
        <ele>332.07968139648</ele>
        <time>2013-07-11T18:55:32.000Z</time>
      </trkpt>
      <trkpt lat="45.76642" lon="4.68329">
        <ele>332.08712768555</ele>
        <time>2013-07-11T18:55:35.000Z</time>
      </trkpt>
      <trkpt lat="45.76645" lon="4.68334">
        <ele>332.07659912109</ele>
        <time>2013-07-11T18:55:40.000Z</time>
      </trkpt>
      <trkpt lat="45.7665" lon="4.68341">
        <ele>332.03552246094</ele>
        <time>2013-07-11T18:55:47.000Z</time>
      </trkpt>
      <trkpt lat="45.76651" lon="4.68343">
        <ele>331.97875976562</ele>
        <time>2013-07-11T18:55:50.000Z</time>
      </trkpt>
      <trkpt lat="45.76662" lon="4.6837">
        <ele>331.86215209961</ele>
        <time>2013-07-11T18:56:01.000Z</time>
      </trkpt>
      <trkpt lat="45.76662" lon="4.68373">
        <ele>331.7392578125</ele>
        <time>2013-07-11T18:56:03.000Z</time>
      </trkpt>
      <trkpt lat="45.76662" lon="4.68377">
        <ele>331.62460327148</ele>
        <time>2013-07-11T18:56:06.000Z</time>
      </trkpt>
      <trkpt lat="45.7666" lon="4.68382">
        <ele>331.51425170898</ele>
        <time>2013-07-11T18:56:10.000Z</time>
      </trkpt>
      <trkpt lat="45.76658" lon="4.68386">
        <ele>331.39434814453</ele>
        <time>2013-07-11T18:56:12.000Z</time>
      </trkpt>
      <trkpt lat="45.76657" lon="4.68389">
        <ele>331.32452392578</ele>
        <time>2013-07-11T18:56:15.000Z</time>
      </trkpt>
      <trkpt lat="45.76656" lon="4.68397">
        <ele>331.23934936523</ele>
        <time>2013-07-11T18:56:17.000Z</time>
      </trkpt>
      <trkpt lat="45.76656" lon="4.68401">
        <ele>331.15310668945</ele>
        <time>2013-07-11T18:56:19.000Z</time>
      </trkpt>
      <trkpt lat="45.76656" lon="4.68406">
        <ele>331.07012939453</ele>
        <time>2013-07-11T18:56:21.000Z</time>
      </trkpt>
      <trkpt lat="45.76656" lon="4.68412">
        <ele>330.98501586914</ele>
        <time>2013-07-11T18:56:25.000Z</time>
      </trkpt>
      <trkpt lat="45.76654" lon="4.68417">
        <ele>330.88897705078</ele>
        <time>2013-07-11T18:56:27.000Z</time>
      </trkpt>
      <trkpt lat="45.76652" lon="4.68421">
        <ele>330.81088256836</ele>
        <time>2013-07-11T18:56:30.000Z</time>
      </trkpt>
      <trkpt lat="45.7665" lon="4.68426">
        <ele>330.73431396484</ele>
        <time>2013-07-11T18:56:32.000Z</time>
      </trkpt>
      <trkpt lat="45.76649" lon="4.68431">
        <ele>330.66357421875</ele>
        <time>2013-07-11T18:56:36.000Z</time>
      </trkpt>
      <trkpt lat="45.76649" lon="4.68434">
        <ele>330.61386108398</ele>
        <time>2013-07-11T18:56:38.000Z</time>
      </trkpt>
      <trkpt lat="45.76649" lon="4.68438">
        <ele>330.58648681641</ele>
        <time>2013-07-11T18:56:42.000Z</time>
      </trkpt>
      <trkpt lat="45.76648" lon="4.68444">
        <ele>330.55426025391</ele>
        <time>2013-07-11T18:56:45.000Z</time>
      </trkpt>
      <trkpt lat="45.76646" lon="4.68447">
        <ele>330.52038574219</ele>
        <time>2013-07-11T18:56:48.000Z</time>
      </trkpt>
      <trkpt lat="45.76646" lon="4.68456">
        <ele>330.48193359375</ele>
        <time>2013-07-11T18:56:50.000Z</time>
      </trkpt>
      <trkpt lat="45.76645" lon="4.68462">
        <ele>330.42779541016</ele>
        <time>2013-07-11T18:56:53.000Z</time>
      </trkpt>
      <trkpt lat="45.76643" lon="4.68469">
        <ele>330.34649658203</ele>
        <time>2013-07-11T18:56:56.000Z</time>
      </trkpt>
      <trkpt lat="45.76643" lon="4.68477">
        <ele>330.26910400391</ele>
        <time>2013-07-11T18:56:58.000Z</time>
      </trkpt>
      <trkpt lat="45.76642" lon="4.68482">
        <ele>330.18701171875</ele>
        <time>2013-07-11T18:57:00.000Z</time>
      </trkpt>
      <trkpt lat="45.76641" lon="4.68489">
        <ele>330.09136962891</ele>
        <time>2013-07-11T18:57:03.000Z</time>
      </trkpt>
      <trkpt lat="45.7664" lon="4.68494">
        <ele>329.98254394531</ele>
        <time>2013-07-11T18:57:06.000Z</time>
      </trkpt>
      <trkpt lat="45.76642" lon="4.68504">
        <ele>329.97665405273</ele>
        <time>2013-07-11T18:57:10.000Z</time>
      </trkpt>
      <trkpt lat="45.76645" lon="4.68516">
        <ele>330.13903808594</ele>
        <time>2013-07-11T18:57:12.000Z</time>
      </trkpt>
      <trkpt lat="45.76647" lon="4.68523">
        <ele>330.41885375977</ele>
        <time>2013-07-11T18:57:14.000Z</time>
      </trkpt>
      <trkpt lat="45.76648" lon="4.68528">
        <ele>330.79333496094</ele>
        <time>2013-07-11T18:57:17.000Z</time>
      </trkpt>
      <trkpt lat="45.76649" lon="4.68536">
        <ele>331.30450439453</ele>
        <time>2013-07-11T18:57:19.000Z</time>
      </trkpt>
      <trkpt lat="45.76649" lon="4.68542">
        <ele>331.81121826172</ele>
        <time>2013-07-11T18:57:22.000Z</time>
      </trkpt>
      <trkpt lat="45.76653" lon="4.6855">
        <ele>332.32958984375</ele>
        <time>2013-07-11T18:57:24.000Z</time>
      </trkpt>
      <trkpt lat="45.76659" lon="4.68558">
        <ele>332.96520996094</ele>
        <time>2013-07-11T18:57:27.000Z</time>
      </trkpt>
      <trkpt lat="45.76663" lon="4.68566">
        <ele>333.71337890625</ele>
        <time>2013-07-11T18:57:29.000Z</time>
      </trkpt>
      <trkpt lat="45.76664" lon="4.68572">
        <ele>334.45254516602</ele>
        <time>2013-07-11T18:57:32.000Z</time>
      </trkpt>
      <trkpt lat="45.76666" lon="4.68581">
        <ele>335.27386474609</ele>
        <time>2013-07-11T18:57:35.000Z</time>
      </trkpt>
      <trkpt lat="45.76667" lon="4.68589">
        <ele>336.03457641602</ele>
        <time>2013-07-11T18:57:37.000Z</time>
      </trkpt>
      <trkpt lat="45.76668" lon="4.68595">
        <ele>336.63528442383</ele>
        <time>2013-07-11T18:57:40.000Z</time>
      </trkpt>
      <trkpt lat="45.76669" lon="4.686">
        <ele>337.11422729492</ele>
        <time>2013-07-11T18:57:42.000Z</time>
      </trkpt>
      <trkpt lat="45.76672" lon="4.68608">
        <ele>337.5871887207</ele>
        <time>2013-07-11T18:57:44.000Z</time>
      </trkpt>
      <trkpt lat="45.76673" lon="4.68612">
        <ele>337.96646118164</ele>
        <time>2013-07-11T18:57:47.000Z</time>
      </trkpt>
      <trkpt lat="45.76674" lon="4.68614">
        <ele>338.26123046875</ele>
        <time>2013-07-11T18:57:49.000Z</time>
      </trkpt>
      <trkpt lat="45.76675" lon="4.6862">
        <ele>338.56423950195</ele>
        <time>2013-07-11T18:58:53.000Z</time>
      </trkpt>
      <trkpt lat="45.76677" lon="4.68625">
        <ele>338.87518310547</ele>
        <time>2013-07-11T18:58:56.000Z</time>
      </trkpt>
      <trkpt lat="45.76678" lon="4.68628">
        <ele>339.14428710938</ele>
        <time>2013-07-11T18:58:58.000Z</time>
      </trkpt>
      <trkpt lat="45.76681" lon="4.68634">
        <ele>339.44354248047</ele>
        <time>2013-07-11T18:59:00.000Z</time>
      </trkpt>
      <trkpt lat="45.76683" lon="4.6864">
        <ele>339.80987548828</ele>
        <time>2013-07-11T18:59:03.000Z</time>
      </trkpt>
      <trkpt lat="45.76685" lon="4.68645">
        <ele>340.16931152344</ele>
        <time>2013-07-11T18:59:05.000Z</time>
      </trkpt>
      <trkpt lat="45.76687" lon="4.68651">
        <ele>340.55990600586</ele>
        <time>2013-07-11T18:59:08.000Z</time>
      </trkpt>
      <trkpt lat="45.76689" lon="4.68656">
        <ele>340.96047973633</ele>
        <time>2013-07-11T18:59:10.000Z</time>
      </trkpt>
      <trkpt lat="45.76692" lon="4.68662">
        <ele>341.38095092773</ele>
        <time>2013-07-11T18:59:13.000Z</time>
      </trkpt>
      <trkpt lat="45.76693" lon="4.68665">
        <ele>341.75634765625</ele>
        <time>2013-07-11T18:59:15.000Z</time>
      </trkpt>
      <trkpt lat="45.76695" lon="4.68671">
        <ele>342.14086914062</ele>
        <time>2013-07-11T18:59:18.000Z</time>
      </trkpt>
      <trkpt lat="45.76698" lon="4.68678">
        <ele>342.50936889648</ele>
        <time>2013-07-11T18:59:22.000Z</time>
      </trkpt>
      <trkpt lat="45.76701" lon="4.68684">
        <ele>342.88961791992</ele>
        <time>2013-07-11T18:59:24.000Z</time>
      </trkpt>
      <trkpt lat="45.76704" lon="4.6869">
        <ele>343.25531005859</ele>
        <time>2013-07-11T18:59:28.000Z</time>
      </trkpt>
      <trkpt lat="45.76708" lon="4.68697">
        <ele>343.66412353516</ele>
        <time>2013-07-11T18:59:30.000Z</time>
      </trkpt>
      <trkpt lat="45.76709" lon="4.68701">
        <ele>344.05239868164</ele>
        <time>2013-07-11T18:59:33.000Z</time>
      </trkpt>
      <trkpt lat="45.76712" lon="4.68706">
        <ele>344.43350219727</ele>
        <time>2013-07-11T18:59:35.000Z</time>
      </trkpt>
      <trkpt lat="45.76713" lon="4.68709">
        <ele>344.78265380859</ele>
        <time>2013-07-11T18:59:37.000Z</time>
      </trkpt>
      <trkpt lat="45.76716" lon="4.68712">
        <ele>345.10583496094</ele>
        <time>2013-07-11T18:59:41.000Z</time>
      </trkpt>
      <trkpt lat="45.76721" lon="4.68715">
        <ele>345.43432617188</ele>
        <time>2013-07-11T18:59:44.000Z</time>
      </trkpt>
      <trkpt lat="45.76726" lon="4.68717">
        <ele>345.79669189453</ele>
        <time>2013-07-11T18:59:46.000Z</time>
      </trkpt>
      <trkpt lat="45.76733" lon="4.68719">
        <ele>346.21026611328</ele>
        <time>2013-07-11T18:59:49.000Z</time>
      </trkpt>
      <trkpt lat="45.76737" lon="4.68721">
        <ele>346.65875244141</ele>
        <time>2013-07-11T18:59:51.000Z</time>
      </trkpt>
      <trkpt lat="45.76741" lon="4.68721">
        <ele>347.10357666016</ele>
        <time>2013-07-11T18:59:53.000Z</time>
      </trkpt>
      <trkpt lat="45.76745" lon="4.68721">
        <ele>347.51605224609</ele>
        <time>2013-07-11T18:59:55.000Z</time>
      </trkpt>
      <trkpt lat="45.76751" lon="4.68723">
        <ele>347.94635009766</ele>
        <time>2013-07-11T18:59:58.000Z</time>
      </trkpt>
      <trkpt lat="45.76754" lon="4.68725">
        <ele>348.32272338867</ele>
        <time>2013-07-11T19:00:01.000Z</time>
      </trkpt>
      <trkpt lat="45.76759" lon="4.68731">
        <ele>348.72412109375</ele>
        <time>2013-07-11T19:00:03.000Z</time>
      </trkpt>
      <trkpt lat="45.76757" lon="4.6874">
        <ele>349.13134765625</ele>
        <time>2013-07-11T19:00:06.000Z</time>
      </trkpt>
      <trkpt lat="45.76758" lon="4.6875">
        <ele>349.57733154297</ele>
        <time>2013-07-11T19:00:09.000Z</time>
      </trkpt>
      <trkpt lat="45.76759" lon="4.6876">
        <ele>349.99374389648</ele>
        <time>2013-07-11T19:00:12.000Z</time>
      </trkpt>
      <trkpt lat="45.76762" lon="4.68769">
        <ele>350.41375732422</ele>
        <time>2013-07-11T19:00:16.000Z</time>
      </trkpt>
      <trkpt lat="45.76764" lon="4.68775">
        <ele>350.78140258789</ele>
        <time>2013-07-11T19:00:18.000Z</time>
      </trkpt>
      <trkpt lat="45.76765" lon="4.68784">
        <ele>351.14361572266</ele>
        <time>2013-07-11T19:00:20.000Z</time>
      </trkpt>
      <trkpt lat="45.76764" lon="4.68789">
        <ele>351.42462158203</ele>
        <time>2013-07-11T19:00:23.000Z</time>
      </trkpt>
      <trkpt lat="45.76764" lon="4.68796">
        <ele>351.66122436523</ele>
        <time>2013-07-11T19:00:25.000Z</time>
      </trkpt>
      <trkpt lat="45.76762" lon="4.68807">
        <ele>351.86187744141</ele>
        <time>2013-07-11T19:00:28.000Z</time>
      </trkpt>
      <trkpt lat="45.76763" lon="4.68819">
        <ele>352.08038330078</ele>
        <time>2013-07-11T19:00:30.000Z</time>
      </trkpt>
      <trkpt lat="45.76758" lon="4.68834">
        <ele>352.24429321289</ele>
        <time>2013-07-11T19:00:34.000Z</time>
      </trkpt>
      <trkpt lat="45.76752" lon="4.68851">
        <ele>352.25756835938</ele>
        <time>2013-07-11T19:00:36.000Z</time>
      </trkpt>
      <trkpt lat="45.76746" lon="4.68868">
        <ele>352.08624267578</ele>
        <time>2013-07-11T19:00:39.000Z</time>
      </trkpt>
      <trkpt lat="45.7674" lon="4.68877">
        <ele>351.69888305664</ele>
        <time>2013-07-11T19:00:42.000Z</time>
      </trkpt>
      <trkpt lat="45.76734" lon="4.68881">
        <ele>351.09246826172</ele>
        <time>2013-07-11T19:00:44.000Z</time>
      </trkpt>
      <trkpt lat="45.76719" lon="4.68886">
        <ele>350.11846923828</ele>
        <time>2013-07-11T19:00:47.000Z</time>
      </trkpt>
      <trkpt lat="45.76706" lon="4.68894">
        <ele>348.96954345703</ele>
        <time>2013-07-11T19:00:50.000Z</time>
      </trkpt>
      <trkpt lat="45.76699" lon="4.68896">
        <ele>347.83236694336</ele>
        <time>2013-07-11T19:00:53.000Z</time>
      </trkpt>
      <trkpt lat="45.76695" lon="4.68897">
        <ele>346.77011108398</ele>
        <time>2013-07-11T19:00:55.000Z</time>
      </trkpt>
      <trkpt lat="45.76677" lon="4.68899">
        <ele>345.44506835938</ele>
        <time>2013-07-11T19:01:26.000Z</time>
      </trkpt>
      <trkpt lat="45.76661" lon="4.68901">
        <ele>344.14294433594</ele>
        <time>2013-07-11T19:01:28.000Z</time>
      </trkpt>
      <trkpt lat="45.76643" lon="4.68901">
        <ele>342.79901123047</ele>
        <time>2013-07-11T19:01:31.000Z</time>
      </trkpt>
      <trkpt lat="45.76632" lon="4.68905">
        <ele>341.38369750977</ele>
        <time>2013-07-11T19:01:34.000Z</time>
      </trkpt>
      <trkpt lat="45.76614" lon="4.68906">
        <ele>339.71710205078</ele>
        <time>2013-07-11T19:01:36.000Z</time>
      </trkpt>
      <trkpt lat="45.76598" lon="4.6891">
        <ele>338.1819152832</ele>
        <time>2013-07-11T19:01:38.000Z</time>
      </trkpt>
      <trkpt lat="45.76569" lon="4.68913">
        <ele>336.47381591797</ele>
        <time>2013-07-11T19:01:41.000Z</time>
      </trkpt>
      <trkpt lat="45.76553" lon="4.68914">
        <ele>334.84576416016</ele>
        <time>2013-07-11T19:01:44.000Z</time>
      </trkpt>
      <trkpt lat="45.76537" lon="4.68915">
        <ele>333.16055297852</ele>
        <time>2013-07-11T19:01:47.000Z</time>
      </trkpt>
      <trkpt lat="45.76525" lon="4.68917">
        <ele>331.64785766602</ele>
        <time>2013-07-11T19:01:49.000Z</time>
      </trkpt>
      <trkpt lat="45.76513" lon="4.68923">
        <ele>330.20162963867</ele>
        <time>2013-07-11T19:01:51.000Z</time>
      </trkpt>
      <trkpt lat="45.76507" lon="4.68922">
        <ele>329.15634155273</ele>
        <time>2013-07-11T19:01:53.000Z</time>
      </trkpt>
      <trkpt lat="45.765" lon="4.68922">
        <ele>328.24951171875</ele>
        <time>2013-07-11T19:01:55.000Z</time>
      </trkpt>
      <trkpt lat="45.76472" lon="4.68919">
        <ele>327.11019897461</ele>
        <time>2013-07-11T19:01:59.000Z</time>
      </trkpt>
      <trkpt lat="45.76453" lon="4.68915">
        <ele>325.78616333008</ele>
        <time>2013-07-11T19:02:01.000Z</time>
      </trkpt>
      <trkpt lat="45.76442" lon="4.68914">
        <ele>324.45471191406</ele>
        <time>2013-07-11T19:02:03.000Z</time>
      </trkpt>
      <trkpt lat="45.76432" lon="4.68915">
        <ele>323.04742431641</ele>
        <time>2013-07-11T19:02:05.000Z</time>
      </trkpt>
      <trkpt lat="45.76424" lon="4.68918">
        <ele>321.62353515625</ele>
        <time>2013-07-11T19:02:08.000Z</time>
      </trkpt>
      <trkpt lat="45.76415" lon="4.68918">
        <ele>320.54684448242</ele>
        <time>2013-07-11T19:02:10.000Z</time>
      </trkpt>
      <trkpt lat="45.76411" lon="4.68916">
        <ele>319.74847412109</ele>
        <time>2013-07-11T19:02:13.000Z</time>
      </trkpt>
      <trkpt lat="45.76403" lon="4.68915">
        <ele>319.00601196289</ele>
        <time>2013-07-11T19:02:15.000Z</time>
      </trkpt>
      <trkpt lat="45.76396" lon="4.68914">
        <ele>318.31860351562</ele>
        <time>2013-07-11T19:02:17.000Z</time>
      </trkpt>
      <trkpt lat="45.76387" lon="4.68913">
        <ele>317.60681152344</ele>
        <time>2013-07-11T19:02:20.000Z</time>
      </trkpt>
      <trkpt lat="45.76376" lon="4.68913">
        <ele>316.84286499023</ele>
        <time>2013-07-11T19:02:23.000Z</time>
      </trkpt>
      <trkpt lat="45.76367" lon="4.68915">
        <ele>315.99276733398</ele>
        <time>2013-07-11T19:02:25.000Z</time>
      </trkpt>
      <trkpt lat="45.76363" lon="4.68916">
        <ele>315.23388671875</ele>
        <time>2013-07-11T19:02:27.000Z</time>
      </trkpt>
      <trkpt lat="45.76368" lon="4.68916">
        <ele>314.69833374023</ele>
        <time>2013-07-11T19:02:30.000Z</time>
      </trkpt>
      <trkpt lat="45.76348" lon="4.68907">
        <ele>313.95465087891</ele>
        <time>2013-07-11T19:03:13.000Z</time>
      </trkpt>
      <trkpt lat="45.7632" lon="4.68895">
        <ele>313.18902587891</ele>
        <time>2013-07-11T19:03:17.000Z</time>
      </trkpt>
      <trkpt lat="45.76311" lon="4.6889">
        <ele>312.61337280273</ele>
        <time>2013-07-11T19:03:19.000Z</time>
      </trkpt>
      <trkpt lat="45.76302" lon="4.6888">
        <ele>312.15997314453</ele>
        <time>2013-07-11T19:03:21.000Z</time>
      </trkpt>
      <trkpt lat="45.76304" lon="4.6888">
        <ele>311.61151123047</ele>
        <time>2013-07-11T19:03:25.000Z</time>
      </trkpt>
      <trkpt lat="45.76295" lon="4.68889">
        <ele>311.39389038086</ele>
        <time>2013-07-11T19:04:25.000Z</time>
      </trkpt>
      <trkpt lat="45.76289" lon="4.68897">
        <ele>311.36279296875</ele>
        <time>2013-07-11T19:04:28.000Z</time>
      </trkpt>
      <trkpt lat="45.76289" lon="4.68903">
        <ele>311.27423095703</ele>
        <time>2013-07-11T19:04:30.000Z</time>
      </trkpt>
      <trkpt lat="45.76287" lon="4.68909">
        <ele>311.10180664062</ele>
        <time>2013-07-11T19:04:32.000Z</time>
      </trkpt>
      <trkpt lat="45.76286" lon="4.68912">
        <ele>310.90740966797</ele>
        <time>2013-07-11T19:04:35.000Z</time>
      </trkpt>
      <trkpt lat="45.76281" lon="4.6892">
        <ele>310.69686889648</ele>
        <time>2013-07-11T19:04:37.000Z</time>
      </trkpt>
      <trkpt lat="45.76277" lon="4.68927">
        <ele>310.47317504883</ele>
        <time>2013-07-11T19:04:40.000Z</time>
      </trkpt>
      <trkpt lat="45.76273" lon="4.68938">
        <ele>310.18081665039</ele>
        <time>2013-07-11T19:04:42.000Z</time>
      </trkpt>
      <trkpt lat="45.7627" lon="4.68947">
        <ele>309.83792114258</ele>
        <time>2013-07-11T19:04:45.000Z</time>
      </trkpt>
      <trkpt lat="45.76267" lon="4.68956">
        <ele>309.40447998047</ele>
        <time>2013-07-11T19:04:47.000Z</time>
      </trkpt>
      <trkpt lat="45.76254" lon="4.68976">
        <ele>308.67977905273</ele>
        <time>2013-07-11T19:04:50.000Z</time>
      </trkpt>
      <trkpt lat="45.76247" lon="4.68987">
        <ele>307.84564208984</ele>
        <time>2013-07-11T19:04:53.000Z</time>
      </trkpt>
      <trkpt lat="45.76237" lon="4.68996">
        <ele>307.02059936523</ele>
        <time>2013-07-11T19:04:55.000Z</time>
      </trkpt>
      <trkpt lat="45.7623" lon="4.69001">
        <ele>306.23486328125</ele>
        <time>2013-07-11T19:04:57.000Z</time>
      </trkpt>
      <trkpt lat="45.76221" lon="4.6901">
        <ele>305.60675048828</ele>
        <time>2013-07-11T19:05:00.000Z</time>
      </trkpt>
      <trkpt lat="45.76216" lon="4.69015">
        <ele>305.33441162109</ele>
        <time>2013-07-11T19:05:02.000Z</time>
      </trkpt>
      <trkpt lat="45.76211" lon="4.69022">
        <ele>305.22445678711</ele>
        <time>2013-07-11T19:05:05.000Z</time>
      </trkpt>
      <trkpt lat="45.76202" lon="4.69036">
        <ele>305.14190673828</ele>
        <time>2013-07-11T19:05:07.000Z</time>
      </trkpt>
      <trkpt lat="45.76197" lon="4.69043">
        <ele>305.02569580078</ele>
        <time>2013-07-11T19:05:10.000Z</time>
      </trkpt>
      <trkpt lat="45.76188" lon="4.69052">
        <ele>304.69717407227</ele>
        <time>2013-07-11T19:05:12.000Z</time>
      </trkpt>
      <trkpt lat="45.76184" lon="4.69057">
        <ele>304.26058959961</ele>
        <time>2013-07-11T19:05:14.000Z</time>
      </trkpt>
      <trkpt lat="45.76182" lon="4.69066">
        <ele>303.73516845703</ele>
        <time>2013-07-11T19:05:17.000Z</time>
      </trkpt>
      <trkpt lat="45.76178" lon="4.69072">
        <ele>303.15435791016</ele>
        <time>2013-07-11T19:05:19.000Z</time>
      </trkpt>
      <trkpt lat="45.76173" lon="4.69078">
        <ele>302.48861694336</ele>
        <time>2013-07-11T19:05:22.000Z</time>
      </trkpt>
      <trkpt lat="45.7616" lon="4.69088">
        <ele>301.76116943359</ele>
        <time>2013-07-11T19:05:25.000Z</time>
      </trkpt>
      <trkpt lat="45.76155" lon="4.69093">
        <ele>301.142578125</ele>
        <time>2013-07-11T19:05:27.000Z</time>
      </trkpt>
      <trkpt lat="45.76152" lon="4.69099">
        <ele>300.63650512695</ele>
        <time>2013-07-11T19:05:29.000Z</time>
      </trkpt>
      <trkpt lat="45.76149" lon="4.69104">
        <ele>300.26605224609</ele>
        <time>2013-07-11T19:05:31.000Z</time>
      </trkpt>
      <trkpt lat="45.76143" lon="4.69114">
        <ele>300.06008911133</ele>
        <time>2013-07-11T19:05:34.000Z</time>
      </trkpt>
      <trkpt lat="45.76138" lon="4.69125">
        <ele>300.09222412109</ele>
        <time>2013-07-11T19:05:37.000Z</time>
      </trkpt>
      <trkpt lat="45.76131" lon="4.69141">
        <ele>300.09887695312</ele>
        <time>2013-07-11T19:05:39.000Z</time>
      </trkpt>
      <trkpt lat="45.76126" lon="4.6915">
        <ele>300.0595703125</ele>
        <time>2013-07-11T19:05:41.000Z</time>
      </trkpt>
      <trkpt lat="45.7612" lon="4.69159">
        <ele>299.95278930664</ele>
        <time>2013-07-11T19:05:43.000Z</time>
      </trkpt>
      <trkpt lat="45.76115" lon="4.69167">
        <ele>299.78845214844</ele>
        <time>2013-07-11T19:05:46.000Z</time>
      </trkpt>
      <trkpt lat="45.76108" lon="4.69178">
        <ele>299.58392333984</ele>
        <time>2013-07-11T19:05:48.000Z</time>
      </trkpt>
      <trkpt lat="45.76104" lon="4.69185">
        <ele>299.38525390625</ele>
        <time>2013-07-11T19:05:51.000Z</time>
      </trkpt>
      <trkpt lat="45.76099" lon="4.69193">
        <ele>299.19439697266</ele>
        <time>2013-07-11T19:05:53.000Z</time>
      </trkpt>
      <trkpt lat="45.76091" lon="4.69202">
        <ele>298.98016357422</ele>
        <time>2013-07-11T19:05:56.000Z</time>
      </trkpt>
      <trkpt lat="45.76082" lon="4.69211">
        <ele>298.74322509766</ele>
        <time>2013-07-11T19:05:59.000Z</time>
      </trkpt>
      <trkpt lat="45.76073" lon="4.69217">
        <ele>298.61999511719</ele>
        <time>2013-07-11T19:06:02.000Z</time>
      </trkpt>
      <trkpt lat="45.76067" lon="4.69223">
        <ele>298.57308959961</ele>
        <time>2013-07-11T19:06:04.000Z</time>
      </trkpt>
      <trkpt lat="45.7606" lon="4.69226">
        <ele>298.59509277344</ele>
        <time>2013-07-11T19:06:07.000Z</time>
      </trkpt>
      <trkpt lat="45.76049" lon="4.6923">
        <ele>298.75738525391</ele>
        <time>2013-07-11T19:06:09.000Z</time>
      </trkpt>
      <trkpt lat="45.7604" lon="4.69231">
        <ele>299.04296875</ele>
        <time>2013-07-11T19:06:12.000Z</time>
      </trkpt>
      <trkpt lat="45.76035" lon="4.69232">
        <ele>299.27471923828</ele>
        <time>2013-07-11T19:06:14.000Z</time>
      </trkpt>
      <trkpt lat="45.76026" lon="4.69233">
        <ele>299.48007202148</ele>
        <time>2013-07-11T19:06:17.000Z</time>
      </trkpt>
      <trkpt lat="45.7602" lon="4.69233">
        <ele>299.66595458984</ele>
        <time>2013-07-11T19:06:19.000Z</time>
      </trkpt>
      <trkpt lat="45.76016" lon="4.69234">
        <ele>299.81011962891</ele>
        <time>2013-07-11T19:06:22.000Z</time>
      </trkpt>
      <trkpt lat="45.7601" lon="4.69234">
        <ele>299.94061279297</ele>
        <time>2013-07-11T19:06:24.000Z</time>
      </trkpt>
      <trkpt lat="45.76002" lon="4.69232">
        <ele>300.08578491211</ele>
        <time>2013-07-11T19:06:27.000Z</time>
      </trkpt>
      <trkpt lat="45.75996" lon="4.69228">
        <ele>300.32452392578</ele>
        <time>2013-07-11T19:06:31.000Z</time>
      </trkpt>
      <trkpt lat="45.75992" lon="4.69224">
        <ele>300.66714477539</ele>
        <time>2013-07-11T19:06:33.000Z</time>
      </trkpt>
      <trkpt lat="45.75989" lon="4.69219">
        <ele>301.09405517578</ele>
        <time>2013-07-11T19:06:36.000Z</time>
      </trkpt>
      <trkpt lat="45.75986" lon="4.69212">
        <ele>301.62182617188</ele>
        <time>2013-07-11T19:06:39.000Z</time>
      </trkpt>
      <trkpt lat="45.75983" lon="4.69207">
        <ele>302.20629882812</ele>
        <time>2013-07-11T19:06:42.000Z</time>
      </trkpt>
      <trkpt lat="45.75979" lon="4.69199">
        <ele>302.798828125</ele>
        <time>2013-07-11T19:06:44.000Z</time>
      </trkpt>
      <trkpt lat="45.75977" lon="4.69193">
        <ele>303.34326171875</ele>
        <time>2013-07-11T19:06:47.000Z</time>
      </trkpt>
      <trkpt lat="45.75974" lon="4.69186">
        <ele>303.91040039062</ele>
        <time>2013-07-11T19:06:50.000Z</time>
      </trkpt>
      <trkpt lat="45.75972" lon="4.69177">
        <ele>304.44287109375</ele>
        <time>2013-07-11T19:06:53.000Z</time>
      </trkpt>
      <trkpt lat="45.75969" lon="4.69168">
        <ele>304.99438476562</ele>
        <time>2013-07-11T19:06:55.000Z</time>
      </trkpt>
      <trkpt lat="45.75967" lon="4.6916">
        <ele>305.50299072266</ele>
        <time>2013-07-11T19:06:58.000Z</time>
      </trkpt>
      <trkpt lat="45.75966" lon="4.69152">
        <ele>305.99951171875</ele>
        <time>2013-07-11T19:07:02.000Z</time>
      </trkpt>
      <trkpt lat="45.75965" lon="4.69147">
        <ele>306.44848632812</ele>
        <time>2013-07-11T19:07:04.000Z</time>
      </trkpt>
      <trkpt lat="45.75964" lon="4.69141">
        <ele>306.87100219727</ele>
        <time>2013-07-11T19:07:06.000Z</time>
      </trkpt>
      <trkpt lat="45.75963" lon="4.69133">
        <ele>307.23599243164</ele>
        <time>2013-07-11T19:07:08.000Z</time>
      </trkpt>
      <trkpt lat="45.75963" lon="4.69126">
        <ele>307.56021118164</ele>
        <time>2013-07-11T19:07:12.000Z</time>
      </trkpt>
      <trkpt lat="45.75962" lon="4.69119">
        <ele>307.87026977539</ele>
        <time>2013-07-11T19:07:14.000Z</time>
      </trkpt>
      <trkpt lat="45.75963" lon="4.69113">
        <ele>308.11993408203</ele>
        <time>2013-07-11T19:07:17.000Z</time>
      </trkpt>
      <trkpt lat="45.75964" lon="4.69107">
        <ele>308.31756591797</ele>
        <time>2013-07-11T19:07:19.000Z</time>
      </trkpt>
      <trkpt lat="45.75964" lon="4.69099">
        <ele>308.50592041016</ele>
        <time>2013-07-11T19:07:21.000Z</time>
      </trkpt>
      <trkpt lat="45.75963" lon="4.69092">
        <ele>308.71813964844</ele>
        <time>2013-07-11T19:07:23.000Z</time>
      </trkpt>
      <trkpt lat="45.75961" lon="4.69082">
        <ele>308.98077392578</ele>
        <time>2013-07-11T19:07:26.000Z</time>
      </trkpt>
      <trkpt lat="45.75961" lon="4.69077">
        <ele>309.29415893555</ele>
        <time>2013-07-11T19:07:29.000Z</time>
      </trkpt>
      <trkpt lat="45.75959" lon="4.69073">
        <ele>309.68994140625</ele>
        <time>2013-07-11T19:07:32.000Z</time>
      </trkpt>
      <trkpt lat="45.75958" lon="4.69066">
        <ele>310.14691162109</ele>
        <time>2013-07-11T19:07:35.000Z</time>
      </trkpt>
      <trkpt lat="45.75958" lon="4.69058">
        <ele>310.65057373047</ele>
        <time>2013-07-11T19:07:37.000Z</time>
      </trkpt>
      <trkpt lat="45.75957" lon="4.69052">
        <ele>311.13412475586</ele>
        <time>2013-07-11T19:07:39.000Z</time>
      </trkpt>
      <trkpt lat="45.75958" lon="4.69044">
        <ele>311.64434814453</ele>
        <time>2013-07-11T19:07:42.000Z</time>
      </trkpt>
      <trkpt lat="45.7596" lon="4.69037">
        <ele>312.10552978516</ele>
        <time>2013-07-11T19:07:45.000Z</time>
      </trkpt>
      <trkpt lat="45.75962" lon="4.69029">
        <ele>312.50213623047</ele>
        <time>2013-07-11T19:07:49.000Z</time>
      </trkpt>
      <trkpt lat="45.75964" lon="4.69021">
        <ele>312.81878662109</ele>
        <time>2013-07-11T19:07:51.000Z</time>
      </trkpt>
      <trkpt lat="45.75965" lon="4.69015">
        <ele>313.09991455078</ele>
        <time>2013-07-11T19:07:53.000Z</time>
      </trkpt>
      <trkpt lat="45.75967" lon="4.69009">
        <ele>313.32366943359</ele>
        <time>2013-07-11T19:07:55.000Z</time>
      </trkpt>
      <trkpt lat="45.75969" lon="4.69004">
        <ele>313.52130126953</ele>
        <time>2013-07-11T19:07:58.000Z</time>
      </trkpt>
      <trkpt lat="45.7597" lon="4.68997">
        <ele>313.76385498047</ele>
        <time>2013-07-11T19:08:00.000Z</time>
      </trkpt>
      <trkpt lat="45.75971" lon="4.68992">
        <ele>314.08135986328</ele>
        <time>2013-07-11T19:08:03.000Z</time>
      </trkpt>
      <trkpt lat="45.75972" lon="4.68988">
        <ele>314.41513061523</ele>
        <time>2013-07-11T19:08:05.000Z</time>
      </trkpt>
      <trkpt lat="45.75974" lon="4.68984">
        <ele>314.79531860352</ele>
        <time>2013-07-11T19:08:08.000Z</time>
      </trkpt>
      <trkpt lat="45.75975" lon="4.68979">
        <ele>315.26007080078</ele>
        <time>2013-07-11T19:08:10.000Z</time>
      </trkpt>
      <trkpt lat="45.75978" lon="4.68974">
        <ele>315.68865966797</ele>
        <time>2013-07-11T19:08:13.000Z</time>
      </trkpt>
      <trkpt lat="45.7598" lon="4.68972">
        <ele>316.01324462891</ele>
        <time>2013-07-11T19:08:16.000Z</time>
      </trkpt>
      <trkpt lat="45.75981" lon="4.6897">
        <ele>316.31076049805</ele>
        <time>2013-07-11T19:08:18.000Z</time>
      </trkpt>
      <trkpt lat="45.75983" lon="4.68963">
        <ele>316.66094970703</ele>
        <time>2013-07-11T19:08:20.000Z</time>
      </trkpt>
      <trkpt lat="45.75985" lon="4.68956">
        <ele>317.0807800293</ele>
        <time>2013-07-11T19:08:24.000Z</time>
      </trkpt>
      <trkpt lat="45.75988" lon="4.6895">
        <ele>317.56109619141</ele>
        <time>2013-07-11T19:08:26.000Z</time>
      </trkpt>
      <trkpt lat="45.75991" lon="4.68946">
        <ele>318.08734130859</ele>
        <time>2013-07-11T19:08:29.000Z</time>
      </trkpt>
      <trkpt lat="45.75993" lon="4.68943">
        <ele>318.62786865234</ele>
        <time>2013-07-11T19:08:32.000Z</time>
      </trkpt>
      <trkpt lat="45.75996" lon="4.68938">
        <ele>319.15036010742</ele>
        <time>2013-07-11T19:08:34.000Z</time>
      </trkpt>
      <trkpt lat="45.75998" lon="4.68935">
        <ele>319.55746459961</ele>
        <time>2013-07-11T19:08:36.000Z</time>
      </trkpt>
      <trkpt lat="45.76" lon="4.68932">
        <ele>319.919921875</ele>
        <time>2013-07-11T19:08:40.000Z</time>
      </trkpt>
      <trkpt lat="45.76001" lon="4.68927">
        <ele>320.34463500977</ele>
        <time>2013-07-11T19:08:43.000Z</time>
      </trkpt>
      <trkpt lat="45.76005" lon="4.68921">
        <ele>320.88165283203</ele>
        <time>2013-07-11T19:08:46.000Z</time>
      </trkpt>
      <trkpt lat="45.76008" lon="4.68915">
        <ele>321.42620849609</ele>
        <time>2013-07-11T19:08:48.000Z</time>
      </trkpt>
      <trkpt lat="45.76009" lon="4.68912">
        <ele>321.95300292969</ele>
        <time>2013-07-11T19:08:50.000Z</time>
      </trkpt>
      <trkpt lat="45.7601" lon="4.68908">
        <ele>322.46856689453</ele>
        <time>2013-07-11T19:08:52.000Z</time>
      </trkpt>
      <trkpt lat="45.76011" lon="4.68904">
        <ele>322.90795898438</ele>
        <time>2013-07-11T19:08:55.000Z</time>
      </trkpt>
      <trkpt lat="45.76014" lon="4.68897">
        <ele>323.2744140625</ele>
        <time>2013-07-11T19:08:57.000Z</time>
      </trkpt>
      <trkpt lat="45.76016" lon="4.68893">
        <ele>323.5549621582</ele>
        <time>2013-07-11T19:09:00.000Z</time>
      </trkpt>
      <trkpt lat="45.76018" lon="4.68887">
        <ele>323.87448120117</ele>
        <time>2013-07-11T19:09:03.000Z</time>
      </trkpt>
      <trkpt lat="45.76018" lon="4.68882">
        <ele>324.21243286133</ele>
        <time>2013-07-11T19:09:05.000Z</time>
      </trkpt>
      <trkpt lat="45.76019" lon="4.6888">
        <ele>324.53500366211</ele>
        <time>2013-07-11T19:09:08.000Z</time>
      </trkpt>
      <trkpt lat="45.7602" lon="4.6888">
        <ele>324.75698852539</ele>
        <time>2013-07-11T19:09:10.000Z</time>
      </trkpt>
      <trkpt lat="45.76022" lon="4.6888">
        <ele>324.9098815918</ele>
        <time>2013-07-11T19:09:14.000Z</time>
      </trkpt>
      <trkpt lat="45.76023" lon="4.68875">
        <ele>325.04476928711</ele>
        <time>2013-07-11T19:09:16.000Z</time>
      </trkpt>
      <trkpt lat="45.76025" lon="4.68869">
        <ele>325.18124389648</ele>
        <time>2013-07-11T19:09:18.000Z</time>
      </trkpt>
      <trkpt lat="45.76025" lon="4.68863">
        <ele>325.38140869141</ele>
        <time>2013-07-11T19:09:21.000Z</time>
      </trkpt>
      <trkpt lat="45.76025" lon="4.68855">
        <ele>325.70965576172</ele>
        <time>2013-07-11T19:09:24.000Z</time>
      </trkpt>
      <trkpt lat="45.76025" lon="4.68849">
        <ele>326.17575073242</ele>
        <time>2013-07-11T19:09:26.000Z</time>
      </trkpt>
      <trkpt lat="45.76024" lon="4.68844">
        <ele>326.67315673828</ele>
        <time>2013-07-11T19:09:30.000Z</time>
      </trkpt>
      <trkpt lat="45.76023" lon="4.68838">
        <ele>327.19491577148</ele>
        <time>2013-07-11T19:09:32.000Z</time>
      </trkpt>
      <trkpt lat="45.76023" lon="4.68836">
        <ele>327.66204833984</ele>
        <time>2013-07-11T19:09:35.000Z</time>
      </trkpt>
      <trkpt lat="45.76021" lon="4.68831">
        <ele>328.09625244141</ele>
        <time>2013-07-11T19:09:38.000Z</time>
      </trkpt>
      <trkpt lat="45.76017" lon="4.68826">
        <ele>328.54037475586</ele>
        <time>2013-07-11T19:09:41.000Z</time>
      </trkpt>
      <trkpt lat="45.76012" lon="4.68823">
        <ele>328.99215698242</ele>
        <time>2013-07-11T19:09:44.000Z</time>
      </trkpt>
      <trkpt lat="45.76009" lon="4.68819">
        <ele>329.41390991211</ele>
        <time>2013-07-11T19:09:46.000Z</time>
      </trkpt>
      <trkpt lat="45.76007" lon="4.68815">
        <ele>329.87200927734</ele>
        <time>2013-07-11T19:09:48.000Z</time>
      </trkpt>
      <trkpt lat="45.76004" lon="4.68812">
        <ele>330.3024597168</ele>
        <time>2013-07-11T19:09:50.000Z</time>
      </trkpt>
      <trkpt lat="45.76001" lon="4.6881">
        <ele>330.6806640625</ele>
        <time>2013-07-11T19:09:52.000Z</time>
      </trkpt>
      <trkpt lat="45.75996" lon="4.68807">
        <ele>331.03173828125</ele>
        <time>2013-07-11T19:09:55.000Z</time>
      </trkpt>
      <trkpt lat="45.75991" lon="4.68806">
        <ele>331.36282348633</ele>
        <time>2013-07-11T19:09:57.000Z</time>
      </trkpt>
      <trkpt lat="45.75988" lon="4.68806">
        <ele>331.65063476562</ele>
        <time>2013-07-11T19:10:00.000Z</time>
      </trkpt>
      <trkpt lat="45.75984" lon="4.68806">
        <ele>331.90435791016</ele>
        <time>2013-07-11T19:10:02.000Z</time>
      </trkpt>
      <trkpt lat="45.75978" lon="4.68805">
        <ele>332.14907836914</ele>
        <time>2013-07-11T19:10:04.000Z</time>
      </trkpt>
      <trkpt lat="45.75975" lon="4.68803">
        <ele>332.36441040039</ele>
        <time>2013-07-11T19:10:06.000Z</time>
      </trkpt>
      <trkpt lat="45.75972" lon="4.68802">
        <ele>332.55850219727</ele>
        <time>2013-07-11T19:10:09.000Z</time>
      </trkpt>
      <trkpt lat="45.75969" lon="4.68802">
        <ele>332.75189208984</ele>
        <time>2013-07-11T19:10:11.000Z</time>
      </trkpt>
      <trkpt lat="45.75964" lon="4.68799">
        <ele>332.97637939453</ele>
        <time>2013-07-11T19:10:13.000Z</time>
      </trkpt>
      <trkpt lat="45.75961" lon="4.68798">
        <ele>333.18157958984</ele>
        <time>2013-07-11T19:10:15.000Z</time>
      </trkpt>
      <trkpt lat="45.75957" lon="4.68796">
        <ele>333.3896484375</ele>
        <time>2013-07-11T19:10:17.000Z</time>
      </trkpt>
      <trkpt lat="45.75953" lon="4.68793">
        <ele>333.61511230469</ele>
        <time>2013-07-11T19:10:19.000Z</time>
      </trkpt>
      <trkpt lat="45.7595" lon="4.68791">
        <ele>333.85687255859</ele>
        <time>2013-07-11T19:10:22.000Z</time>
      </trkpt>
      <trkpt lat="45.75945" lon="4.68789">
        <ele>334.09524536133</ele>
        <time>2013-07-11T19:10:24.000Z</time>
      </trkpt>
      <trkpt lat="45.75941" lon="4.68791">
        <ele>334.31158447266</ele>
        <time>2013-07-11T19:10:27.000Z</time>
      </trkpt>
      <trkpt lat="45.75935" lon="4.68795">
        <ele>334.48159790039</ele>
        <time>2013-07-11T19:10:30.000Z</time>
      </trkpt>
      <trkpt lat="45.75928" lon="4.688">
        <ele>334.61151123047</ele>
        <time>2013-07-11T19:10:33.000Z</time>
      </trkpt>
      <trkpt lat="45.75922" lon="4.68805">
        <ele>334.70556640625</ele>
        <time>2013-07-11T19:10:35.000Z</time>
      </trkpt>
      <trkpt lat="45.75918" lon="4.6881">
        <ele>334.73916625977</ele>
        <time>2013-07-11T19:10:37.000Z</time>
      </trkpt>
      <trkpt lat="45.75914" lon="4.68815">
        <ele>334.7409362793</ele>
        <time>2013-07-11T19:10:40.000Z</time>
      </trkpt>
      <trkpt lat="45.7591" lon="4.68821">
        <ele>334.71109008789</ele>
        <time>2013-07-11T19:10:42.000Z</time>
      </trkpt>
      <trkpt lat="45.75902" lon="4.68831">
        <ele>334.61407470703</ele>
        <time>2013-07-11T19:10:44.000Z</time>
      </trkpt>
      <trkpt lat="45.75895" lon="4.68841">
        <ele>334.41171264648</ele>
        <time>2013-07-11T19:10:47.000Z</time>
      </trkpt>
      <trkpt lat="45.75888" lon="4.68851">
        <ele>334.11114501953</ele>
        <time>2013-07-11T19:10:51.000Z</time>
      </trkpt>
      <trkpt lat="45.75883" lon="4.68859">
        <ele>333.76165771484</ele>
        <time>2013-07-11T19:10:52.000Z</time>
      </trkpt>
      <trkpt lat="45.75875" lon="4.6887">
        <ele>333.36199951172</ele>
        <time>2013-07-11T19:10:55.000Z</time>
      </trkpt>
      <trkpt lat="45.75865" lon="4.68873">
        <ele>333.03930664062</ele>
        <time>2013-07-11T19:10:58.000Z</time>
      </trkpt>
      <trkpt lat="45.75859" lon="4.68872">
        <ele>332.85406494141</ele>
        <time>2013-07-11T19:11:00.000Z</time>
      </trkpt>
      <trkpt lat="45.75851" lon="4.68869">
        <ele>332.84869384766</ele>
        <time>2013-07-11T19:11:04.000Z</time>
      </trkpt>
      <trkpt lat="45.75839" lon="4.68868">
        <ele>332.97906494141</ele>
        <time>2013-07-11T19:11:07.000Z</time>
      </trkpt>
      <trkpt lat="45.75822" lon="4.68863">
        <ele>333.27575683594</ele>
        <time>2013-07-11T19:11:09.000Z</time>
      </trkpt>
      <trkpt lat="45.75801" lon="4.68858">
        <ele>333.62442016602</ele>
        <time>2013-07-11T19:11:12.000Z</time>
      </trkpt>
      <trkpt lat="45.75788" lon="4.68855">
        <ele>333.97756958008</ele>
        <time>2013-07-11T19:11:14.000Z</time>
      </trkpt>
      <trkpt lat="45.75777" lon="4.68852">
        <ele>334.29992675781</ele>
        <time>2013-07-11T19:11:16.000Z</time>
      </trkpt>
      <trkpt lat="45.75768" lon="4.68849">
        <ele>334.59820556641</ele>
        <time>2013-07-11T19:11:18.000Z</time>
      </trkpt>
      <trkpt lat="45.75755" lon="4.68846">
        <ele>334.85961914062</ele>
        <time>2013-07-11T19:11:21.000Z</time>
      </trkpt>
      <trkpt lat="45.75746" lon="4.68844">
        <ele>335.04205322266</ele>
        <time>2013-07-11T19:11:23.000Z</time>
      </trkpt>
      <trkpt lat="45.75734" lon="4.68842">
        <ele>335.07806396484</ele>
        <time>2013-07-11T19:11:27.000Z</time>
      </trkpt>
      <trkpt lat="45.75722" lon="4.68841">
        <ele>334.97698974609</ele>
        <time>2013-07-11T19:11:29.000Z</time>
      </trkpt>
      <trkpt lat="45.75714" lon="4.68841">
        <ele>334.75302124023</ele>
        <time>2013-07-11T19:11:32.000Z</time>
      </trkpt>
      <trkpt lat="45.75706" lon="4.68841">
        <ele>334.40567016602</ele>
        <time>2013-07-11T19:11:34.000Z</time>
      </trkpt>
      <trkpt lat="45.75697" lon="4.6884">
        <ele>333.98004150391</ele>
        <time>2013-07-11T19:11:37.000Z</time>
      </trkpt>
      <trkpt lat="45.75686" lon="4.68839">
        <ele>333.55422973633</ele>
        <time>2013-07-11T19:11:39.000Z</time>
      </trkpt>
      <trkpt lat="45.75671" lon="4.68838">
        <ele>333.09515380859</ele>
        <time>2013-07-11T19:11:42.000Z</time>
      </trkpt>
      <trkpt lat="45.75657" lon="4.68837">
        <ele>332.5539855957</ele>
        <time>2013-07-11T19:11:45.000Z</time>
      </trkpt>
      <trkpt lat="45.75646" lon="4.68835">
        <ele>331.96984863281</ele>
        <time>2013-07-11T19:11:47.000Z</time>
      </trkpt>
      <trkpt lat="45.75627" lon="4.68835">
        <ele>331.24545288086</ele>
        <time>2013-07-11T19:11:50.000Z</time>
      </trkpt>
      <trkpt lat="45.75614" lon="4.68835">
        <ele>330.46325683594</ele>
        <time>2013-07-11T19:11:53.000Z</time>
      </trkpt>
      <trkpt lat="45.75592" lon="4.68835">
        <ele>329.53796386719</ele>
        <time>2013-07-11T19:11:55.000Z</time>
      </trkpt>
      <trkpt lat="45.75576" lon="4.68836">
        <ele>328.53924560547</ele>
        <time>2013-07-11T19:11:58.000Z</time>
      </trkpt>
      <trkpt lat="45.75562" lon="4.68841">
        <ele>327.3450012207</ele>
        <time>2013-07-11T19:12:00.000Z</time>
      </trkpt>
      <trkpt lat="45.75553" lon="4.68841">
        <ele>326.18905639648</ele>
        <time>2013-07-11T19:12:02.000Z</time>
      </trkpt>
      <trkpt lat="45.75544" lon="4.68818">
        <ele>325.12768554688</ele>
        <time>2013-07-11T19:12:04.000Z</time>
      </trkpt>
      <trkpt lat="45.7554" lon="4.68818">
        <ele>324.27145385742</ele>
        <time>2013-07-11T19:12:07.000Z</time>
      </trkpt>
      <trkpt lat="45.75525" lon="4.6883">
        <ele>323.29852294922</ele>
        <time>2013-07-11T19:12:11.000Z</time>
      </trkpt>
      <trkpt lat="45.75514" lon="4.68833">
        <ele>322.42514038086</ele>
        <time>2013-07-11T19:12:14.000Z</time>
      </trkpt>
      <trkpt lat="45.75506" lon="4.68836">
        <ele>321.56747436523</ele>
        <time>2013-07-11T19:12:17.000Z</time>
      </trkpt>
      <trkpt lat="45.75497" lon="4.68839">
        <ele>320.54946899414</ele>
        <time>2013-07-11T19:12:20.000Z</time>
      </trkpt>
      <trkpt lat="45.75491" lon="4.68839">
        <ele>319.4123840332</ele>
        <time>2013-07-11T19:12:22.000Z</time>
      </trkpt>
      <trkpt lat="45.75484" lon="4.68839">
        <ele>318.39752197266</ele>
        <time>2013-07-11T19:12:25.000Z</time>
      </trkpt>
      <trkpt lat="45.7548" lon="4.68841">
        <ele>317.42724609375</ele>
        <time>2013-07-11T19:12:27.000Z</time>
      </trkpt>
      <trkpt lat="45.75475" lon="4.68844">
        <ele>316.47045898438</ele>
        <time>2013-07-11T19:12:29.000Z</time>
      </trkpt>
      <trkpt lat="45.75468" lon="4.68846">
        <ele>315.51599121094</ele>
        <time>2013-07-11T19:12:32.000Z</time>
      </trkpt>
      <trkpt lat="45.75464" lon="4.68851">
        <ele>314.57250976562</ele>
        <time>2013-07-11T19:12:35.000Z</time>
      </trkpt>
      <trkpt lat="45.75461" lon="4.68852">
        <ele>313.75769042969</ele>
        <time>2013-07-11T19:12:38.000Z</time>
      </trkpt>
      <trkpt lat="45.7546" lon="4.68852">
        <ele>313.08447265625</ele>
        <time>2013-07-11T19:12:40.000Z</time>
      </trkpt>
      <trkpt lat="45.75447" lon="4.68868">
        <ele>312.03747558594</ele>
        <time>2013-07-11T19:13:43.000Z</time>
      </trkpt>
      <trkpt lat="45.75438" lon="4.68869">
        <ele>310.91650390625</ele>
        <time>2013-07-11T19:13:45.000Z</time>
      </trkpt>
      <trkpt lat="45.75433" lon="4.6887">
        <ele>309.79541015625</ele>
        <time>2013-07-11T19:13:48.000Z</time>
      </trkpt>
      <trkpt lat="45.75425" lon="4.68872">
        <ele>308.52014160156</ele>
        <time>2013-07-11T19:13:51.000Z</time>
      </trkpt>
      <trkpt lat="45.75421" lon="4.68874">
        <ele>307.13269042969</ele>
        <time>2013-07-11T19:13:53.000Z</time>
      </trkpt>
      <trkpt lat="45.75417" lon="4.68878">
        <ele>306.12145996094</ele>
        <time>2013-07-11T19:13:56.000Z</time>
      </trkpt>
      <trkpt lat="45.75414" lon="4.68893">
        <ele>305.3818359375</ele>
        <time>2013-07-11T19:14:12.000Z</time>
      </trkpt>
      <trkpt lat="45.75411" lon="4.689">
        <ele>304.82666015625</ele>
        <time>2013-07-11T19:14:14.000Z</time>
      </trkpt>
      <trkpt lat="45.7541" lon="4.68903">
        <ele>304.54821777344</ele>
        <time>2013-07-11T19:14:17.000Z</time>
      </trkpt>
      <trkpt lat="45.75407" lon="4.68908">
        <ele>304.44580078125</ele>
        <time>2013-07-11T19:14:20.000Z</time>
      </trkpt>
      <trkpt lat="45.75407" lon="4.68915">
        <ele>304.45532226562</ele>
        <time>2013-07-11T19:14:23.000Z</time>
      </trkpt>
      <trkpt lat="45.75407" lon="4.68929">
        <ele>304.49301147461</ele>
        <time>2013-07-11T19:14:26.000Z</time>
      </trkpt>
      <trkpt lat="45.75408" lon="4.68935">
        <ele>304.52264404297</ele>
        <time>2013-07-11T19:14:28.000Z</time>
      </trkpt>
      <trkpt lat="45.75396" lon="4.68943">
        <ele>304.88800048828</ele>
        <time>2013-07-11T19:15:14.000Z</time>
      </trkpt>
      <trkpt lat="45.75395" lon="4.6894">
        <ele>305.23025512695</ele>
        <time>2013-07-11T19:15:16.000Z</time>
      </trkpt>
      <trkpt lat="45.75395" lon="4.68936">
        <ele>305.61694335938</ele>
        <time>2013-07-11T19:15:19.000Z</time>
      </trkpt>
      <trkpt lat="45.75393" lon="4.68934">
        <ele>306.03930664062</ele>
        <time>2013-07-11T19:15:21.000Z</time>
      </trkpt>
      <trkpt lat="45.75389" lon="4.68933">
        <ele>306.560546875</ele>
        <time>2013-07-11T19:15:23.000Z</time>
      </trkpt>
      <trkpt lat="45.75383" lon="4.68932">
        <ele>306.90881347656</ele>
        <time>2013-07-11T19:15:26.000Z</time>
      </trkpt>
      <trkpt lat="45.75376" lon="4.68932">
        <ele>307.45324707031</ele>
        <time>2013-07-11T19:15:29.000Z</time>
      </trkpt>
      <trkpt lat="45.75373" lon="4.68933">
        <ele>308.05737304688</ele>
        <time>2013-07-11T19:15:31.000Z</time>
      </trkpt>
      <trkpt lat="45.75323" lon="4.68956">
        <ele>310.06143188477</ele>
        <time>2013-07-11T19:17:14.000Z</time>
      </trkpt>
      <trkpt lat="45.75293" lon="4.68968">
        <ele>312.62396240234</ele>
        <time>2013-07-11T19:17:59.000Z</time>
      </trkpt>
      <trkpt lat="45.7529" lon="4.68969">
        <ele>315.08343505859</ele>
        <time>2013-07-11T19:18:01.000Z</time>
      </trkpt>
      <trkpt lat="45.75286" lon="4.68971">
        <ele>317.40585327148</ele>
        <time>2013-07-11T19:18:03.000Z</time>
      </trkpt>
      <trkpt lat="45.75281" lon="4.68973">
        <ele>319.79553222656</ele>
        <time>2013-07-11T19:18:05.000Z</time>
      </trkpt>
      <trkpt lat="45.75276" lon="4.68976">
        <ele>320.85388183594</ele>
        <time>2013-07-11T19:18:08.000Z</time>
      </trkpt>
      <trkpt lat="45.75273" lon="4.68977">
        <ele>321.32470703125</ele>
        <time>2013-07-11T19:18:10.000Z</time>
      </trkpt>
      <trkpt lat="45.7527" lon="4.68979">
        <ele>321.77697753906</ele>
        <time>2013-07-11T19:18:13.000Z</time>
      </trkpt>
      <trkpt lat="45.75266" lon="4.68981">
        <ele>322.25756835938</ele>
        <time>2013-07-11T19:18:16.000Z</time>
      </trkpt>
      <trkpt lat="45.75261" lon="4.68983">
        <ele>322.71081542969</ele>
        <time>2013-07-11T19:18:19.000Z</time>
      </trkpt>
      <trkpt lat="45.75256" lon="4.68984">
        <ele>323.169921875</ele>
        <time>2013-07-11T19:18:21.000Z</time>
      </trkpt>
      <trkpt lat="45.7525" lon="4.68987">
        <ele>323.67541503906</ele>
        <time>2013-07-11T19:18:25.000Z</time>
      </trkpt>
      <trkpt lat="45.75247" lon="4.68989">
        <ele>324.18673706055</ele>
        <time>2013-07-11T19:18:28.000Z</time>
      </trkpt>
      <trkpt lat="45.75243" lon="4.68992">
        <ele>324.67254638672</ele>
        <time>2013-07-11T19:18:31.000Z</time>
      </trkpt>
      <trkpt lat="45.75239" lon="4.68995">
        <ele>325.14849853516</ele>
        <time>2013-07-11T19:18:33.000Z</time>
      </trkpt>
      <trkpt lat="45.75234" lon="4.68996">
        <ele>325.59512329102</ele>
        <time>2013-07-11T19:18:36.000Z</time>
      </trkpt>
      <trkpt lat="45.75232" lon="4.68998">
        <ele>325.9814453125</ele>
        <time>2013-07-11T19:18:39.000Z</time>
      </trkpt>
      <trkpt lat="45.75227" lon="4.69">
        <ele>326.38928222656</ele>
        <time>2013-07-11T19:18:41.000Z</time>
      </trkpt>
      <trkpt lat="45.75223" lon="4.69002">
        <ele>326.80010986328</ele>
        <time>2013-07-11T19:18:45.000Z</time>
      </trkpt>
      <trkpt lat="45.7522" lon="4.69003">
        <ele>327.17468261719</ele>
        <time>2013-07-11T19:18:49.000Z</time>
      </trkpt>
      <trkpt lat="45.75218" lon="4.69004">
        <ele>327.50762939453</ele>
        <time>2013-07-11T19:18:51.000Z</time>
      </trkpt>
      <trkpt lat="45.75212" lon="4.69007">
        <ele>327.88229370117</ele>
        <time>2013-07-11T19:18:53.000Z</time>
      </trkpt>
      <trkpt lat="45.75209" lon="4.69008">
        <ele>328.21908569336</ele>
        <time>2013-07-11T19:18:55.000Z</time>
      </trkpt>
      <trkpt lat="45.75207" lon="4.69009">
        <ele>328.52166748047</ele>
        <time>2013-07-11T19:18:57.000Z</time>
      </trkpt>
      <trkpt lat="45.75205" lon="4.69009">
        <ele>328.81430053711</ele>
        <time>2013-07-11T19:18:59.000Z</time>
      </trkpt>
      <trkpt lat="45.75201" lon="4.69011">
        <ele>329.12005615234</ele>
        <time>2013-07-11T19:19:02.000Z</time>
      </trkpt>
      <trkpt lat="45.75198" lon="4.69014">
        <ele>329.38394165039</ele>
        <time>2013-07-11T19:19:06.000Z</time>
      </trkpt>
      <trkpt lat="45.75195" lon="4.69016">
        <ele>329.65191650391</ele>
        <time>2013-07-11T19:19:08.000Z</time>
      </trkpt>
      <trkpt lat="45.75193" lon="4.69018">
        <ele>329.90997314453</ele>
        <time>2013-07-11T19:19:10.000Z</time>
      </trkpt>
      <trkpt lat="45.75188" lon="4.69019">
        <ele>330.20227050781</ele>
        <time>2013-07-11T19:19:13.000Z</time>
      </trkpt>
      <trkpt lat="45.75186" lon="4.69019">
        <ele>330.47137451172</ele>
        <time>2013-07-11T19:19:15.000Z</time>
      </trkpt>
      <trkpt lat="45.75183" lon="4.69021">
        <ele>330.74591064453</ele>
        <time>2013-07-11T19:19:18.000Z</time>
      </trkpt>
      <trkpt lat="45.75179" lon="4.69021">
        <ele>331.02746582031</ele>
        <time>2013-07-11T19:19:21.000Z</time>
      </trkpt>
      <trkpt lat="45.75175" lon="4.69021">
        <ele>331.34741210938</ele>
        <time>2013-07-11T19:19:24.000Z</time>
      </trkpt>
      <trkpt lat="45.75169" lon="4.69023">
        <ele>331.69869995117</ele>
        <time>2013-07-11T19:19:28.000Z</time>
      </trkpt>
      <trkpt lat="45.75163" lon="4.69026">
        <ele>332.06802368164</ele>
        <time>2013-07-11T19:19:30.000Z</time>
      </trkpt>
      <trkpt lat="45.7516" lon="4.69027">
        <ele>332.39678955078</ele>
        <time>2013-07-11T19:19:33.000Z</time>
      </trkpt>
      <trkpt lat="45.75154" lon="4.69028">
        <ele>332.70343017578</ele>
        <time>2013-07-11T19:19:35.000Z</time>
      </trkpt>
      <trkpt lat="45.75149" lon="4.69028">
        <ele>332.97308349609</ele>
        <time>2013-07-11T19:19:39.000Z</time>
      </trkpt>
      <trkpt lat="45.75144" lon="4.69029">
        <ele>333.1716003418</ele>
        <time>2013-07-11T19:19:41.000Z</time>
      </trkpt>
      <trkpt lat="45.75141" lon="4.69029">
        <ele>333.33819580078</ele>
        <time>2013-07-11T19:19:43.000Z</time>
      </trkpt>
      <trkpt lat="45.75136" lon="4.69028">
        <ele>333.52227783203</ele>
        <time>2013-07-11T19:19:46.000Z</time>
      </trkpt>
      <trkpt lat="45.75132" lon="4.69028">
        <ele>333.70492553711</ele>
        <time>2013-07-11T19:19:49.000Z</time>
      </trkpt>
      <trkpt lat="45.75128" lon="4.69028">
        <ele>333.87786865234</ele>
        <time>2013-07-11T19:19:51.000Z</time>
      </trkpt>
      <trkpt lat="45.75124" lon="4.69028">
        <ele>334.03961181641</ele>
        <time>2013-07-11T19:19:53.000Z</time>
      </trkpt>
      <trkpt lat="45.75119" lon="4.69028">
        <ele>334.21997070312</ele>
        <time>2013-07-11T19:19:57.000Z</time>
      </trkpt>
      <trkpt lat="45.75114" lon="4.69028">
        <ele>334.3994140625</ele>
        <time>2013-07-11T19:19:59.000Z</time>
      </trkpt>
      <trkpt lat="45.75109" lon="4.69027">
        <ele>334.58331298828</ele>
        <time>2013-07-11T19:20:02.000Z</time>
      </trkpt>
      <trkpt lat="45.75106" lon="4.69026">
        <ele>334.77291870117</ele>
        <time>2013-07-11T19:20:05.000Z</time>
      </trkpt>
      <trkpt lat="45.75101" lon="4.69022">
        <ele>334.99389648438</ele>
        <time>2013-07-11T19:20:07.000Z</time>
      </trkpt>
      <trkpt lat="45.75096" lon="4.69021">
        <ele>335.22470092773</ele>
        <time>2013-07-11T19:20:10.000Z</time>
      </trkpt>
      <trkpt lat="45.7509" lon="4.69022">
        <ele>335.46325683594</ele>
        <time>2013-07-11T19:20:13.000Z</time>
      </trkpt>
      <trkpt lat="45.75086" lon="4.69022">
        <ele>335.68743896484</ele>
        <time>2013-07-11T19:20:15.000Z</time>
      </trkpt>
      <trkpt lat="45.75082" lon="4.69022">
        <ele>335.9084777832</ele>
        <time>2013-07-11T19:20:18.000Z</time>
      </trkpt>
      <trkpt lat="45.75076" lon="4.69022">
        <ele>336.11248779297</ele>
        <time>2013-07-11T19:20:20.000Z</time>
      </trkpt>
      <trkpt lat="45.7507" lon="4.69021">
        <ele>336.32144165039</ele>
        <time>2013-07-11T19:20:24.000Z</time>
      </trkpt>
      <trkpt lat="45.75064" lon="4.69019">
        <ele>336.53833007812</ele>
        <time>2013-07-11T19:20:26.000Z</time>
      </trkpt>
      <trkpt lat="45.7506" lon="4.69016">
        <ele>336.77960205078</ele>
        <time>2013-07-11T19:20:29.000Z</time>
      </trkpt>
      <trkpt lat="45.75056" lon="4.69015">
        <ele>337.02502441406</ele>
        <time>2013-07-11T19:20:31.000Z</time>
      </trkpt>
      <trkpt lat="45.74717" lon="4.69526">
        <ele>334.81079101562</ele>
        <time>2013-07-11T19:25:06.000Z</time>
      </trkpt>
      <trkpt lat="45.74716" lon="4.69524">
        <ele>332.54946899414</ele>
        <time>2013-07-11T19:25:11.000Z</time>
      </trkpt>
      <trkpt lat="45.74716" lon="4.69524">
        <ele>332.54946899414</ele>
        <time>2013-07-11T19:25:13.000Z</time>
      </trkpt>
    </trkseg>
  </trk>
</gpx>